<?xml version="1.0" encoding="UTF-8" standalone="no" ?><gpx xmlns="http://www.topografix.com/GPX/1/1" xmlns:gpxx="http://www.garmin.com/xmlschemas/GpxExtensions/v3" xmlns:wptx1="http://www.garmin.com/xmlschemas/WaypointExtension/v1" xmlns:gpxtpx="http://www.garmin.com/xmlschemas/TrackPointExtension/v1" creator="GuideVTT.com" version="1.1" xmlns:xsi="http://www.w3.org/2001/XMLSchema-instance" xsi:schemaLocation="http://www.topografix.com/GPX/1/1 http://www.topografix.com/GPX/1/1/gpx.xsd http://www.garmin.com/xmlschemas/GpxExtensions/v3 http://www8.garmin.com/xmlschemas/GpxExtensionsv3.xsd http://www.garmin.com/xmlschemas/WaypointExtension/v1 http://www8.garmin.com/xmlschemas/WaypointExtensionv1.xsd http://www.garmin.com/xmlschemas/TrackPointExtension/v1 http://www.garmin.com/xmlschemas/TrackPointExtensionv1.xsd">
<metadata><link href="http://www.garmin.com"><text>Garmin International</text></link><time>2013-06-22T15:13:50Z</time></metadata>
<trk><name>vtt_2015-03-08_55c0bf676cc1ce63fa0330de.gpx</name><extensions><gpxx:TrackExtension><gpxx:DisplayColor>Cyan</gpxx:DisplayColor></gpxx:TrackExtension></extensions><trkseg>
<trkpt lat="49.056686401367" lon="3.1832575798035"><ele>207</ele><time>2026-4-28T15:17:20Z</time></trkpt>
<trkpt lat="49.056686401367" lon="3.1832575798035"><ele>207</ele><time>2026-4-28T15:17:23Z</time></trkpt>
<trkpt lat="49.056686401367" lon="3.1832575798035"><ele>207</ele><time>2026-4-28T15:17:26Z</time></trkpt>
<trkpt lat="49.056686401367" lon="3.1832575798035"><ele>207</ele><time>2026-4-28T15:17:29Z</time></trkpt>
<trkpt lat="49.056686401367" lon="3.1832575798035"><ele>207</ele><time>2026-4-28T15:17:32Z</time></trkpt>
<trkpt lat="49.056686401367" lon="3.1832575798035"><ele>207</ele><time>2026-4-28T15:17:35Z</time></trkpt>
<trkpt lat="49.056686401367" lon="3.1832575798035"><ele>207</ele><time>2026-4-28T15:17:38Z</time></trkpt>
<trkpt lat="49.056686401367" lon="3.1832575798035"><ele>207</ele><time>2026-4-28T15:17:41Z</time></trkpt>
<trkpt lat="49.05668258667" lon="3.1831209659576"><ele>208</ele><time>2026-4-28T15:17:44Z</time></trkpt>
<trkpt lat="49.056694030762" lon="3.1829657554626"><ele>208</ele><time>2026-4-28T15:17:47Z</time></trkpt>
<trkpt lat="49.056694030762" lon="3.1829657554626"><ele>208</ele><time>2026-4-28T15:17:50Z</time></trkpt>
<trkpt lat="49.056713104248" lon="3.1828079223633"><ele>209</ele><time>2026-4-28T15:17:53Z</time></trkpt>
<trkpt lat="49.056713104248" lon="3.1828079223633"><ele>209</ele><time>2026-4-28T15:17:56Z</time></trkpt>
<trkpt lat="49.056690216064" lon="3.182669878006"><ele>209</ele><time>2026-4-28T15:17:59Z</time></trkpt>
<trkpt lat="49.056636810303" lon="3.1825137138367"><ele>209</ele><time>2026-4-28T15:18:2Z</time></trkpt>
<trkpt lat="49.056602478027" lon="3.182412147522"><ele>209</ele><time>2026-4-28T15:18:5Z</time></trkpt>
<trkpt lat="49.056575775146" lon="3.1823236942291"><ele>210</ele><time>2026-4-28T15:18:8Z</time></trkpt>
<trkpt lat="49.056549072266" lon="3.1822369098663"><ele>210</ele><time>2026-4-28T15:18:11Z</time></trkpt>
<trkpt lat="49.056522369385" lon="3.1821479797363"><ele>210</ele><time>2026-4-28T15:18:14Z</time></trkpt>
<trkpt lat="49.056495666504" lon="3.1820502281189"><ele>210</ele><time>2026-4-28T15:18:17Z</time></trkpt>
<trkpt lat="49.056476593018" lon="3.1819672584534"><ele>210</ele><time>2026-4-28T15:18:20Z</time></trkpt>
<trkpt lat="49.056453704834" lon="3.1817955970764"><ele>211</ele><time>2026-4-28T15:18:23Z</time></trkpt>
<trkpt lat="49.056453704834" lon="3.1817955970764"><ele>211</ele><time>2026-4-28T15:18:26Z</time></trkpt>
<trkpt lat="49.056476593018" lon="3.181652545929"><ele>211</ele><time>2026-4-28T15:18:29Z</time></trkpt>
<trkpt lat="49.056476593018" lon="3.181652545929"><ele>211</ele><time>2026-4-28T15:18:32Z</time></trkpt>
<trkpt lat="49.056476593018" lon="3.181652545929"><ele>211</ele><time>2026-4-28T15:18:35Z</time></trkpt>
<trkpt lat="49.056522369385" lon="3.1815445423126"><ele>211</ele><time>2026-4-28T15:18:38Z</time></trkpt>
<trkpt lat="49.056522369385" lon="3.1815445423126"><ele>211</ele><time>2026-4-28T15:18:41Z</time></trkpt>
<trkpt lat="49.056549072266" lon="3.18150806427"><ele>211</ele><time>2026-4-28T15:18:44Z</time></trkpt>
<trkpt lat="49.056575775146" lon="3.1814794540405"><ele>211</ele><time>2026-4-28T15:18:47Z</time></trkpt>
<trkpt lat="49.056606292725" lon="3.1814565658569"><ele>211</ele><time>2026-4-28T15:18:50Z</time></trkpt>
<trkpt lat="49.056636810303" lon="3.1814339160919"><ele>211</ele><time>2026-4-28T15:18:53Z</time></trkpt>
<trkpt lat="49.056663513184" lon="3.1814117431641"><ele>211</ele><time>2026-4-28T15:18:56Z</time></trkpt>
<trkpt lat="49.056720733643" lon="3.181364774704"><ele>211</ele><time>2026-4-28T15:18:59Z</time></trkpt>
<trkpt lat="49.056720733643" lon="3.181364774704"><ele>211</ele><time>2026-4-28T15:19:2Z</time></trkpt>
<trkpt lat="49.056781768799" lon="3.1813094615936"><ele>211</ele><time>2026-4-28T15:19:5Z</time></trkpt>
<trkpt lat="49.056781768799" lon="3.1813094615936"><ele>211</ele><time>2026-4-28T15:19:8Z</time></trkpt>
<trkpt lat="49.056823730469" lon="3.1812479496002"><ele>211</ele><time>2026-4-28T15:19:11Z</time></trkpt>
<trkpt lat="49.056823730469" lon="3.1812479496002"><ele>211</ele><time>2026-4-28T15:19:14Z</time></trkpt>
<trkpt lat="49.0569190979" lon="3.1812243461609"><ele>211</ele><time>2026-4-28T15:19:17Z</time></trkpt>
<trkpt lat="49.0569190979" lon="3.1812243461609"><ele>211</ele><time>2026-4-28T15:19:20Z</time></trkpt>
<trkpt lat="49.057022094727" lon="3.181253194809"><ele>211</ele><time>2026-4-28T15:19:23Z</time></trkpt>
<trkpt lat="49.057083129883" lon="3.1812627315521"><ele>211</ele><time>2026-4-28T15:19:26Z</time></trkpt>
<trkpt lat="49.057140350342" lon="3.1812660694122"><ele>211</ele><time>2026-4-28T15:19:29Z</time></trkpt>
<trkpt lat="49.057243347168" lon="3.1812777519226"><ele>211</ele><time>2026-4-28T15:19:32Z</time></trkpt>
<trkpt lat="49.057304382324" lon="3.1812829971313"><ele>211</ele><time>2026-4-28T15:19:35Z</time></trkpt>
<trkpt lat="49.057411193848" lon="3.1812987327576"><ele>211</ele><time>2026-4-28T15:19:38Z</time></trkpt>
<trkpt lat="49.057411193848" lon="3.1812987327576"><ele>211</ele><time>2026-4-28T15:19:41Z</time></trkpt>
<trkpt lat="49.057476043701" lon="3.1812968254089"><ele>211</ele><time>2026-4-28T15:19:44Z</time></trkpt>
<trkpt lat="49.057476043701" lon="3.1812968254089"><ele>211</ele><time>2026-4-28T15:19:47Z</time></trkpt>
<trkpt lat="49.057582855225" lon="3.1812915802002"><ele>211</ele><time>2026-4-28T15:19:50Z</time></trkpt>
<trkpt lat="49.057582855225" lon="3.1812915802002"><ele>211</ele><time>2026-4-28T15:19:53Z</time></trkpt>
<trkpt lat="49.057655334473" lon="3.1812822818756"><ele>211</ele><time>2026-4-28T15:19:56Z</time></trkpt>
<trkpt lat="49.057655334473" lon="3.1812822818756"><ele>211</ele><time>2026-4-28T15:19:59Z</time></trkpt>
<trkpt lat="49.057746887207" lon="3.1812477111816"><ele>210</ele><time>2026-4-28T15:20:2Z</time></trkpt>
<trkpt lat="49.057746887207" lon="3.1812477111816"><ele>210</ele><time>2026-4-28T15:20:5Z</time></trkpt>
<trkpt lat="49.05785369873" lon="3.1812179088593"><ele>210</ele><time>2026-4-28T15:20:8Z</time></trkpt>
<trkpt lat="49.057914733887" lon="3.1812040805817"><ele>210</ele><time>2026-4-28T15:20:11Z</time></trkpt>
<trkpt lat="49.057971954346" lon="3.1811842918396"><ele>210</ele><time>2026-4-28T15:20:14Z</time></trkpt>
<trkpt lat="49.057971954346" lon="3.1811842918396"><ele>210</ele><time>2026-4-28T15:20:17Z</time></trkpt>
<trkpt lat="49.058078765869" lon="3.1811504364014"><ele>210</ele><time>2026-4-28T15:20:20Z</time></trkpt>
<trkpt lat="49.058143615723" lon="3.1811330318451"><ele>210</ele><time>2026-4-28T15:20:23Z</time></trkpt>
<trkpt lat="49.058143615723" lon="3.1811330318451"><ele>210</ele><time>2026-4-28T15:20:26Z</time></trkpt>
<trkpt lat="49.058204650879" lon="3.1811151504517"><ele>210</ele><time>2026-4-28T15:20:29Z</time></trkpt>
<trkpt lat="49.058311462402" lon="3.1810805797577"><ele>210</ele><time>2026-4-28T15:20:32Z</time></trkpt>
<trkpt lat="49.058311462402" lon="3.1810805797577"><ele>210</ele><time>2026-4-28T15:20:35Z</time></trkpt>
<trkpt lat="49.058376312256" lon="3.1810612678528"><ele>210</ele><time>2026-4-28T15:20:38Z</time></trkpt>
<trkpt lat="49.058433532715" lon="3.1810538768768"><ele>210</ele><time>2026-4-28T15:20:41Z</time></trkpt>
<trkpt lat="49.058433532715" lon="3.1810538768768"><ele>210</ele><time>2026-4-28T15:20:44Z</time></trkpt>
<trkpt lat="49.058536529541" lon="3.1810746192932"><ele>209</ele><time>2026-4-28T15:20:47Z</time></trkpt>
<trkpt lat="49.058536529541" lon="3.1810746192932"><ele>209</ele><time>2026-4-28T15:20:50Z</time></trkpt>
<trkpt lat="49.058650970459" lon="3.1811163425446"><ele>209</ele><time>2026-4-28T15:20:53Z</time></trkpt>
<trkpt lat="49.058650970459" lon="3.1811163425446"><ele>209</ele><time>2026-4-28T15:20:56Z</time></trkpt>
<trkpt lat="49.058712005615" lon="3.1811430454254"><ele>209</ele><time>2026-4-28T15:20:59Z</time></trkpt>
<trkpt lat="49.058769226074" lon="3.1811697483063"><ele>209</ele><time>2026-4-28T15:21:2Z</time></trkpt>
<trkpt lat="49.058826446533" lon="3.1811892986298"><ele>209</ele><time>2026-4-28T15:21:5Z</time></trkpt>
<trkpt lat="49.058826446533" lon="3.1811892986298"><ele>209</ele><time>2026-4-28T15:21:8Z</time></trkpt>
<trkpt lat="49.058883666992" lon="3.1812150478363"><ele>209</ele><time>2026-4-28T15:21:11Z</time></trkpt>
<trkpt lat="49.058994293213" lon="3.1812634468079"><ele>209</ele><time>2026-4-28T15:21:14Z</time></trkpt>
<trkpt lat="49.058994293213" lon="3.1812634468079"><ele>209</ele><time>2026-4-28T15:21:17Z</time></trkpt>
<trkpt lat="49.058994293213" lon="3.1812634468079"><ele>209</ele><time>2026-4-28T15:21:20Z</time></trkpt>
<trkpt lat="49.059101104736" lon="3.1813070774078"><ele>209</ele><time>2026-4-28T15:21:23Z</time></trkpt>
<trkpt lat="49.059101104736" lon="3.1813070774078"><ele>209</ele><time>2026-4-28T15:21:26Z</time></trkpt>
<trkpt lat="49.059101104736" lon="3.1813070774078"><ele>209</ele><time>2026-4-28T15:21:29Z</time></trkpt>
<trkpt lat="49.059200286865" lon="3.181337594986"><ele>209</ele><time>2026-4-28T15:21:32Z</time></trkpt>
<trkpt lat="49.059200286865" lon="3.181337594986"><ele>209</ele><time>2026-4-28T15:21:35Z</time></trkpt>
<trkpt lat="49.059303283691" lon="3.1813867092133"><ele>209</ele><time>2026-4-28T15:21:38Z</time></trkpt>
<trkpt lat="49.059303283691" lon="3.1813867092133"><ele>209</ele><time>2026-4-28T15:21:41Z</time></trkpt>
<trkpt lat="49.059303283691" lon="3.1813867092133"><ele>209</ele><time>2026-4-28T15:21:44Z</time></trkpt>
<trkpt lat="49.059406280518" lon="3.1814434528351"><ele>209</ele><time>2026-4-28T15:21:47Z</time></trkpt>
<trkpt lat="49.059406280518" lon="3.1814434528351"><ele>209</ele><time>2026-4-28T15:21:50Z</time></trkpt>
<trkpt lat="49.059406280518" lon="3.1814434528351"><ele>209</ele><time>2026-4-28T15:21:53Z</time></trkpt>
<trkpt lat="49.059490203857" lon="3.1814889907837"><ele>209</ele><time>2026-4-28T15:21:56Z</time></trkpt>
<trkpt lat="49.059490203857" lon="3.1814889907837"><ele>209</ele><time>2026-4-28T15:21:59Z</time></trkpt>
<trkpt lat="49.059577941895" lon="3.1815376281738"><ele>209</ele><time>2026-4-28T15:22:2Z</time></trkpt>
<trkpt lat="49.059577941895" lon="3.1815376281738"><ele>209</ele><time>2026-4-28T15:22:5Z</time></trkpt>
<trkpt lat="49.059577941895" lon="3.1815376281738"><ele>209</ele><time>2026-4-28T15:22:8Z</time></trkpt>
<trkpt lat="49.059673309326" lon="3.1815757751465"><ele>209</ele><time>2026-4-28T15:22:11Z</time></trkpt>
<trkpt lat="49.059730529785" lon="3.1816012859344"><ele>209</ele><time>2026-4-28T15:22:14Z</time></trkpt>
<trkpt lat="49.059730529785" lon="3.1816012859344"><ele>209</ele><time>2026-4-28T15:22:17Z</time></trkpt>
<trkpt lat="49.059833526611" lon="3.1816463470459"><ele>209</ele><time>2026-4-28T15:22:20Z</time></trkpt>
<trkpt lat="49.059833526611" lon="3.1816463470459"><ele>209</ele><time>2026-4-28T15:22:23Z</time></trkpt>
<trkpt lat="49.059940338135" lon="3.1816775798798"><ele>209</ele><time>2026-4-28T15:22:26Z</time></trkpt>
<trkpt lat="49.060047149658" lon="3.181706905365"><ele>209</ele><time>2026-4-28T15:22:29Z</time></trkpt>
<trkpt lat="49.060047149658" lon="3.181706905365"><ele>209</ele><time>2026-4-28T15:22:32Z</time></trkpt>
<trkpt lat="49.060104370117" lon="3.1817162036896"><ele>209</ele><time>2026-4-28T15:22:35Z</time></trkpt>
<trkpt lat="49.060165405273" lon="3.1817214488983"><ele>209</ele><time>2026-4-28T15:22:38Z</time></trkpt>
<trkpt lat="49.060165405273" lon="3.1817214488983"><ele>209</ele><time>2026-4-28T15:22:41Z</time></trkpt>
<trkpt lat="49.060279846191" lon="3.1817333698273"><ele>209</ele><time>2026-4-28T15:22:44Z</time></trkpt>
<trkpt lat="49.060340881348" lon="3.1817407608032"><ele>209</ele><time>2026-4-28T15:22:47Z</time></trkpt>
<trkpt lat="49.060340881348" lon="3.1817407608032"><ele>209</ele><time>2026-4-28T15:22:50Z</time></trkpt>
<trkpt lat="49.060459136963" lon="3.1817593574524"><ele>209</ele><time>2026-4-28T15:22:53Z</time></trkpt>
<trkpt lat="49.060520172119" lon="3.1817741394043"><ele>209</ele><time>2026-4-28T15:22:56Z</time></trkpt>
<trkpt lat="49.060581207275" lon="3.1817860603333"><ele>209</ele><time>2026-4-28T15:22:59Z</time></trkpt>
<trkpt lat="49.060581207275" lon="3.1817860603333"><ele>209</ele><time>2026-4-28T15:23:2Z</time></trkpt>
<trkpt lat="49.060642242432" lon="3.1817936897278"><ele>209</ele><time>2026-4-28T15:23:5Z</time></trkpt>
<trkpt lat="49.060760498047" lon="3.1818132400513"><ele>209</ele><time>2026-4-28T15:23:8Z</time></trkpt>
<trkpt lat="49.060760498047" lon="3.1818132400513"><ele>209</ele><time>2026-4-28T15:23:11Z</time></trkpt>
<trkpt lat="49.0608253479" lon="3.1818270683289"><ele>209</ele><time>2026-4-28T15:23:14Z</time></trkpt>
<trkpt lat="49.060890197754" lon="3.1818447113037"><ele>209</ele><time>2026-4-28T15:23:17Z</time></trkpt>
<trkpt lat="49.060958862305" lon="3.1818597316742"><ele>209</ele><time>2026-4-28T15:23:20Z</time></trkpt>
<trkpt lat="49.060958862305" lon="3.1818597316742"><ele>209</ele><time>2026-4-28T15:23:23Z</time></trkpt>
<trkpt lat="49.061027526855" lon="3.1818697452545"><ele>209</ele><time>2026-4-28T15:23:26Z</time></trkpt>
<trkpt lat="49.061100006104" lon="3.1818811893463"><ele>209</ele><time>2026-4-28T15:23:29Z</time></trkpt>
<trkpt lat="49.061157226562" lon="3.1818840503693"><ele>209</ele><time>2026-4-28T15:23:32Z</time></trkpt>
<trkpt lat="49.061157226562" lon="3.1818840503693"><ele>209</ele><time>2026-4-28T15:23:35Z</time></trkpt>
<trkpt lat="49.061222076416" lon="3.1818790435791"><ele>209</ele><time>2026-4-28T15:23:38Z</time></trkpt>
<trkpt lat="49.061283111572" lon="3.1818778514862"><ele>209</ele><time>2026-4-28T15:23:41Z</time></trkpt>
<trkpt lat="49.061347961426" lon="3.1818771362305"><ele>209</ele><time>2026-4-28T15:23:44Z</time></trkpt>
<trkpt lat="49.061347961426" lon="3.1818771362305"><ele>209</ele><time>2026-4-28T15:23:47Z</time></trkpt>
<trkpt lat="49.061347961426" lon="3.1818771362305"><ele>209</ele><time>2026-4-28T15:23:50Z</time></trkpt>
<trkpt lat="49.061401367188" lon="3.1818852424622"><ele>209</ele><time>2026-4-28T15:23:53Z</time></trkpt>
<trkpt lat="49.061454772949" lon="3.1818897724152"><ele>209</ele><time>2026-4-28T15:23:56Z</time></trkpt>
<trkpt lat="49.061454772949" lon="3.1818897724152"><ele>209</ele><time>2026-4-28T15:23:59Z</time></trkpt>
<trkpt lat="49.061515808105" lon="3.1818945407867"><ele>209</ele><time>2026-4-28T15:24:2Z</time></trkpt>
<trkpt lat="49.061580657959" lon="3.1818978786469"><ele>209</ele><time>2026-4-28T15:24:5Z</time></trkpt>
<trkpt lat="49.061641693115" lon="3.1819040775299"><ele>209</ele><time>2026-4-28T15:24:8Z</time></trkpt>
<trkpt lat="49.061641693115" lon="3.1819040775299"><ele>209</ele><time>2026-4-28T15:24:11Z</time></trkpt>
<trkpt lat="49.061767578125" lon="3.1819159984589"><ele>209</ele><time>2026-4-28T15:24:14Z</time></trkpt>
<trkpt lat="49.061832427979" lon="3.1819260120392"><ele>209</ele><time>2026-4-28T15:24:17Z</time></trkpt>
<trkpt lat="49.061901092529" lon="3.1819326877594"><ele>209</ele><time>2026-4-28T15:24:20Z</time></trkpt>
<trkpt lat="49.061901092529" lon="3.1819326877594"><ele>209</ele><time>2026-4-28T15:24:23Z</time></trkpt>
<trkpt lat="49.061965942383" lon="3.1819410324097"><ele>209</ele><time>2026-4-28T15:24:26Z</time></trkpt>
<trkpt lat="49.061965942383" lon="3.1819410324097"><ele>209</ele><time>2026-4-28T15:24:29Z</time></trkpt>
<trkpt lat="49.062072753906" lon="3.1819472312927"><ele>209</ele><time>2026-4-28T15:24:32Z</time></trkpt>
<trkpt lat="49.062072753906" lon="3.1819472312927"><ele>209</ele><time>2026-4-28T15:24:35Z</time></trkpt>
<trkpt lat="49.062072753906" lon="3.1819472312927"><ele>209</ele><time>2026-4-28T15:24:38Z</time></trkpt>
<trkpt lat="49.062160491943" lon="3.181946516037"><ele>208</ele><time>2026-4-28T15:24:41Z</time></trkpt>
<trkpt lat="49.062160491943" lon="3.181946516037"><ele>208</ele><time>2026-4-28T15:24:44Z</time></trkpt>
<trkpt lat="49.062160491943" lon="3.181946516037"><ele>208</ele><time>2026-4-28T15:24:47Z</time></trkpt>
<trkpt lat="49.062240600586" lon="3.1819531917572"><ele>208</ele><time>2026-4-28T15:24:50Z</time></trkpt>
<trkpt lat="49.062240600586" lon="3.1819531917572"><ele>208</ele><time>2026-4-28T15:24:53Z</time></trkpt>
<trkpt lat="49.062294006348" lon="3.1818969249725"><ele>208</ele><time>2026-4-28T15:24:56Z</time></trkpt>
<trkpt lat="49.062294006348" lon="3.1818969249725"><ele>208</ele><time>2026-4-28T15:24:59Z</time></trkpt>
<trkpt lat="49.062294006348" lon="3.1818969249725"><ele>208</ele><time>2026-4-28T15:25:2Z</time></trkpt>
<trkpt lat="49.062274932861" lon="3.1817626953125"><ele>208</ele><time>2026-4-28T15:25:5Z</time></trkpt>
<trkpt lat="49.062267303467" lon="3.1816744804382"><ele>208</ele><time>2026-4-28T15:25:8Z</time></trkpt>
<trkpt lat="49.062267303467" lon="3.1816744804382"><ele>208</ele><time>2026-4-28T15:25:11Z</time></trkpt>
<trkpt lat="49.062267303467" lon="3.1815168857574"><ele>208</ele><time>2026-4-28T15:25:14Z</time></trkpt>
<trkpt lat="49.062267303467" lon="3.181426525116"><ele>208</ele><time>2026-4-28T15:25:17Z</time></trkpt>
<trkpt lat="49.062267303467" lon="3.181426525116"><ele>208</ele><time>2026-4-28T15:25:20Z</time></trkpt>
<trkpt lat="49.062259674072" lon="3.1813311576843"><ele>208</ele><time>2026-4-28T15:25:23Z</time></trkpt>
<trkpt lat="49.062259674072" lon="3.1812355518341"><ele>208</ele><time>2026-4-28T15:25:26Z</time></trkpt>
<trkpt lat="49.06226348877" lon="3.1811466217041"><ele>207</ele><time>2026-4-28T15:25:29Z</time></trkpt>
<trkpt lat="49.06226348877" lon="3.1811466217041"><ele>207</ele><time>2026-4-28T15:25:32Z</time></trkpt>
<trkpt lat="49.062259674072" lon="3.1810414791107"><ele>207</ele><time>2026-4-28T15:25:35Z</time></trkpt>
<trkpt lat="49.062255859375" lon="3.1809296607971"><ele>207</ele><time>2026-4-28T15:25:38Z</time></trkpt>
<trkpt lat="49.062252044678" lon="3.1808259487152"><ele>207</ele><time>2026-4-28T15:25:41Z</time></trkpt>
<trkpt lat="49.062252044678" lon="3.1808259487152"><ele>207</ele><time>2026-4-28T15:25:44Z</time></trkpt>
<trkpt lat="49.06224822998" lon="3.1807353496552"><ele>207</ele><time>2026-4-28T15:25:47Z</time></trkpt>
<trkpt lat="49.06224822998" lon="3.1806359291077"><ele>207</ele><time>2026-4-28T15:25:50Z</time></trkpt>
<trkpt lat="49.062244415283" lon="3.1805305480957"><ele>207</ele><time>2026-4-28T15:25:53Z</time></trkpt>
<trkpt lat="49.062244415283" lon="3.1805305480957"><ele>207</ele><time>2026-4-28T15:25:56Z</time></trkpt>
<trkpt lat="49.062240600586" lon="3.1804106235504"><ele>207</ele><time>2026-4-28T15:25:59Z</time></trkpt>
<trkpt lat="49.062244415283" lon="3.180287361145"><ele>207</ele><time>2026-4-28T15:26:2Z</time></trkpt>
<trkpt lat="49.06224822998" lon="3.1801807880402"><ele>206</ele><time>2026-4-28T15:26:5Z</time></trkpt>
<trkpt lat="49.06224822998" lon="3.1801807880402"><ele>206</ele><time>2026-4-28T15:26:8Z</time></trkpt>
<trkpt lat="49.06224822998" lon="3.1800570487976"><ele>206</ele><time>2026-4-28T15:26:11Z</time></trkpt>
<trkpt lat="49.062240600586" lon="3.1799328327179"><ele>205</ele><time>2026-4-28T15:26:14Z</time></trkpt>
<trkpt lat="49.062236785889" lon="3.1798181533813"><ele>205</ele><time>2026-4-28T15:26:17Z</time></trkpt>
<trkpt lat="49.062236785889" lon="3.1798181533813"><ele>205</ele><time>2026-4-28T15:26:20Z</time></trkpt>
<trkpt lat="49.062232971191" lon="3.1796917915344"><ele>205</ele><time>2026-4-28T15:26:23Z</time></trkpt>
<trkpt lat="49.062229156494" lon="3.1795737743378"><ele>205</ele><time>2026-4-28T15:26:26Z</time></trkpt>
<trkpt lat="49.062229156494" lon="3.1794748306274"><ele>205</ele><time>2026-4-28T15:26:29Z</time></trkpt>
<trkpt lat="49.062225341797" lon="3.1793553829193"><ele>205</ele><time>2026-4-28T15:26:32Z</time></trkpt>
<trkpt lat="49.0622215271" lon="3.1792430877686"><ele>204</ele><time>2026-4-28T15:26:35Z</time></trkpt>
<trkpt lat="49.062217712402" lon="3.1791217327118"><ele>204</ele><time>2026-4-28T15:26:38Z</time></trkpt>
<trkpt lat="49.062210083008" lon="3.178966999054"><ele>203</ele><time>2026-4-28T15:26:41Z</time></trkpt>
<trkpt lat="49.062202453613" lon="3.1788039207458"><ele>203</ele><time>2026-4-28T15:26:44Z</time></trkpt>
<trkpt lat="49.062198638916" lon="3.1786472797394"><ele>202</ele><time>2026-4-28T15:26:47Z</time></trkpt>
<trkpt lat="49.062198638916" lon="3.1784958839417"><ele>202</ele><time>2026-4-28T15:26:50Z</time></trkpt>
<trkpt lat="49.062194824219" lon="3.1783361434937"><ele>201</ele><time>2026-4-28T15:26:53Z</time></trkpt>
<trkpt lat="49.062194824219" lon="3.1783361434937"><ele>201</ele><time>2026-4-28T15:26:56Z</time></trkpt>
<trkpt lat="49.062187194824" lon="3.1780986785889"><ele>201</ele><time>2026-4-28T15:26:59Z</time></trkpt>
<trkpt lat="49.06217956543" lon="3.1779606342316"><ele>200</ele><time>2026-4-28T15:27:2Z</time></trkpt>
<trkpt lat="49.062175750732" lon="3.1778345108032"><ele>200</ele><time>2026-4-28T15:27:5Z</time></trkpt>
<trkpt lat="49.062175750732" lon="3.1778345108032"><ele>200</ele><time>2026-4-28T15:27:8Z</time></trkpt>
<trkpt lat="49.062175750732" lon="3.1777143478394"><ele>200</ele><time>2026-4-28T15:27:11Z</time></trkpt>
<trkpt lat="49.062175750732" lon="3.1775953769684"><ele>199</ele><time>2026-4-28T15:27:14Z</time></trkpt>
<trkpt lat="49.062175750732" lon="3.1774728298187"><ele>199</ele><time>2026-4-28T15:27:17Z</time></trkpt>
<trkpt lat="49.062175750732" lon="3.1774728298187"><ele>199</ele><time>2026-4-28T15:27:20Z</time></trkpt>
<trkpt lat="49.062171936035" lon="3.1773731708527"><ele>199</ele><time>2026-4-28T15:27:23Z</time></trkpt>
<trkpt lat="49.062171936035" lon="3.1773731708527"><ele>199</ele><time>2026-4-28T15:27:26Z</time></trkpt>
<trkpt lat="49.062183380127" lon="3.1772079467773"><ele>199</ele><time>2026-4-28T15:27:29Z</time></trkpt>
<trkpt lat="49.062183380127" lon="3.1772079467773"><ele>199</ele><time>2026-4-28T15:27:32Z</time></trkpt>
<trkpt lat="49.062191009521" lon="3.177118062973"><ele>199</ele><time>2026-4-28T15:27:35Z</time></trkpt>
<trkpt lat="49.062198638916" lon="3.1770212650299"><ele>199</ele><time>2026-4-28T15:27:38Z</time></trkpt>
<trkpt lat="49.062198638916" lon="3.1770212650299"><ele>199</ele><time>2026-4-28T15:27:41Z</time></trkpt>
<trkpt lat="49.062198638916" lon="3.1770212650299"><ele>199</ele><time>2026-4-28T15:27:44Z</time></trkpt>
<trkpt lat="49.062213897705" lon="3.1768317222595"><ele>199</ele><time>2026-4-28T15:27:47Z</time></trkpt>
<trkpt lat="49.062225341797" lon="3.1767270565033"><ele>199</ele><time>2026-4-28T15:27:50Z</time></trkpt>
<trkpt lat="49.062232971191" lon="3.1766250133514"><ele>199</ele><time>2026-4-28T15:27:53Z</time></trkpt>
<trkpt lat="49.062232971191" lon="3.1766250133514"><ele>199</ele><time>2026-4-28T15:27:56Z</time></trkpt>
<trkpt lat="49.062240600586" lon="3.1765286922455"><ele>199</ele><time>2026-4-28T15:27:59Z</time></trkpt>
<trkpt lat="49.06224822998" lon="3.1764323711395"><ele>199</ele><time>2026-4-28T15:28:2Z</time></trkpt>
<trkpt lat="49.06224822998" lon="3.1764323711395"><ele>199</ele><time>2026-4-28T15:28:5Z</time></trkpt>
<trkpt lat="49.06224822998" lon="3.1764323711395"><ele>199</ele><time>2026-4-28T15:28:8Z</time></trkpt>
<trkpt lat="49.062271118164" lon="3.1762700080872"><ele>200</ele><time>2026-4-28T15:28:11Z</time></trkpt>
<trkpt lat="49.062278747559" lon="3.17618227005"><ele>200</ele><time>2026-4-28T15:28:14Z</time></trkpt>
<trkpt lat="49.062286376953" lon="3.1760923862457"><ele>200</ele><time>2026-4-28T15:28:17Z</time></trkpt>
<trkpt lat="49.062286376953" lon="3.1760923862457"><ele>200</ele><time>2026-4-28T15:28:20Z</time></trkpt>
<trkpt lat="49.062294006348" lon="3.1760051250458"><ele>200</ele><time>2026-4-28T15:28:23Z</time></trkpt>
<trkpt lat="49.062305450439" lon="3.1759107112885"><ele>200</ele><time>2026-4-28T15:28:26Z</time></trkpt>
<trkpt lat="49.062316894531" lon="3.1758177280426"><ele>200</ele><time>2026-4-28T15:28:29Z</time></trkpt>
<trkpt lat="49.062316894531" lon="3.1758177280426"><ele>200</ele><time>2026-4-28T15:28:32Z</time></trkpt>
<trkpt lat="49.062316894531" lon="3.1758177280426"><ele>200</ele><time>2026-4-28T15:28:35Z</time></trkpt>
<trkpt lat="49.062335968018" lon="3.1756684780121"><ele>200</ele><time>2026-4-28T15:28:38Z</time></trkpt>
<trkpt lat="49.062335968018" lon="3.1756684780121"><ele>200</ele><time>2026-4-28T15:28:41Z</time></trkpt>
<trkpt lat="49.062335968018" lon="3.1756684780121"><ele>200</ele><time>2026-4-28T15:28:44Z</time></trkpt>
<trkpt lat="49.062343597412" lon="3.1755077838898"><ele>200</ele><time>2026-4-28T15:28:47Z</time></trkpt>
<trkpt lat="49.062343597412" lon="3.1755077838898"><ele>200</ele><time>2026-4-28T15:28:50Z</time></trkpt>
<trkpt lat="49.062355041504" lon="3.1753692626953"><ele>200</ele><time>2026-4-28T15:28:53Z</time></trkpt>
<trkpt lat="49.062355041504" lon="3.1753692626953"><ele>200</ele><time>2026-4-28T15:28:56Z</time></trkpt>
<trkpt lat="49.062355041504" lon="3.1753692626953"><ele>200</ele><time>2026-4-28T15:28:59Z</time></trkpt>
<trkpt lat="49.062358856201" lon="3.1752207279205"><ele>200</ele><time>2026-4-28T15:29:2Z</time></trkpt>
<trkpt lat="49.062358856201" lon="3.1752207279205"><ele>200</ele><time>2026-4-28T15:29:5Z</time></trkpt>
<trkpt lat="49.062358856201" lon="3.1752207279205"><ele>200</ele><time>2026-4-28T15:29:8Z</time></trkpt>
<trkpt lat="49.062358856201" lon="3.1750857830048"><ele>200</ele><time>2026-4-28T15:29:11Z</time></trkpt>
<trkpt lat="49.062358856201" lon="3.1750857830048"><ele>200</ele><time>2026-4-28T15:29:14Z</time></trkpt>
<trkpt lat="49.062366485596" lon="3.1749701499939"><ele>200</ele><time>2026-4-28T15:29:17Z</time></trkpt>
<trkpt lat="49.062366485596" lon="3.1749701499939"><ele>200</ele><time>2026-4-28T15:29:20Z</time></trkpt>
<trkpt lat="49.062366485596" lon="3.1749701499939"><ele>200</ele><time>2026-4-28T15:29:23Z</time></trkpt>
<trkpt lat="49.062381744385" lon="3.1748299598694"><ele>200</ele><time>2026-4-28T15:29:26Z</time></trkpt>
<trkpt lat="49.062381744385" lon="3.1748299598694"><ele>200</ele><time>2026-4-28T15:29:29Z</time></trkpt>
<trkpt lat="49.062381744385" lon="3.1748299598694"><ele>200</ele><time>2026-4-28T15:29:32Z</time></trkpt>
<trkpt lat="49.062381744385" lon="3.1746869087219"><ele>200</ele><time>2026-4-28T15:29:35Z</time></trkpt>
<trkpt lat="49.062381744385" lon="3.1746869087219"><ele>200</ele><time>2026-4-28T15:29:38Z</time></trkpt>
<trkpt lat="49.062381744385" lon="3.174553155899"><ele>200</ele><time>2026-4-28T15:29:41Z</time></trkpt>
<trkpt lat="49.062381744385" lon="3.174553155899"><ele>200</ele><time>2026-4-28T15:29:44Z</time></trkpt>
<trkpt lat="49.062381744385" lon="3.174553155899"><ele>200</ele><time>2026-4-28T15:29:47Z</time></trkpt>
<trkpt lat="49.062370300293" lon="3.1744289398193"><ele>200</ele><time>2026-4-28T15:29:50Z</time></trkpt>
<trkpt lat="49.062370300293" lon="3.1744289398193"><ele>200</ele><time>2026-4-28T15:29:53Z</time></trkpt>
<trkpt lat="49.062370300293" lon="3.1744289398193"><ele>200</ele><time>2026-4-28T15:29:56Z</time></trkpt>
<trkpt lat="49.062370300293" lon="3.1743097305298"><ele>200</ele><time>2026-4-28T15:29:59Z</time></trkpt>
<trkpt lat="49.062370300293" lon="3.1743097305298"><ele>200</ele><time>2026-4-28T15:30:2Z</time></trkpt>
<trkpt lat="49.06237411499" lon="3.1741745471954"><ele>200</ele><time>2026-4-28T15:30:5Z</time></trkpt>
<trkpt lat="49.06237411499" lon="3.1741745471954"><ele>200</ele><time>2026-4-28T15:30:8Z</time></trkpt>
<trkpt lat="49.06237411499" lon="3.1740369796753"><ele>201</ele><time>2026-4-28T15:30:11Z</time></trkpt>
<trkpt lat="49.06237411499" lon="3.1740369796753"><ele>201</ele><time>2026-4-28T15:30:14Z</time></trkpt>
<trkpt lat="49.06237411499" lon="3.1740369796753"><ele>201</ele><time>2026-4-28T15:30:17Z</time></trkpt>
<trkpt lat="49.062377929688" lon="3.1739022731781"><ele>201</ele><time>2026-4-28T15:30:20Z</time></trkpt>
<trkpt lat="49.062377929688" lon="3.1739022731781"><ele>201</ele><time>2026-4-28T15:30:23Z</time></trkpt>
<trkpt lat="49.062381744385" lon="3.1737544536591"><ele>201</ele><time>2026-4-28T15:30:26Z</time></trkpt>
<trkpt lat="49.062381744385" lon="3.1737544536591"><ele>201</ele><time>2026-4-28T15:30:29Z</time></trkpt>
<trkpt lat="49.062385559082" lon="3.1736676692963"><ele>201</ele><time>2026-4-28T15:30:32Z</time></trkpt>
<trkpt lat="49.062385559082" lon="3.1735715866089"><ele>201</ele><time>2026-4-28T15:30:35Z</time></trkpt>
<trkpt lat="49.062381744385" lon="3.1734774112701"><ele>201</ele><time>2026-4-28T15:30:38Z</time></trkpt>
<trkpt lat="49.062381744385" lon="3.1734774112701"><ele>201</ele><time>2026-4-28T15:30:41Z</time></trkpt>
<trkpt lat="49.062381744385" lon="3.1733813285828"><ele>201</ele><time>2026-4-28T15:30:44Z</time></trkpt>
<trkpt lat="49.062377929688" lon="3.1732881069183"><ele>201</ele><time>2026-4-28T15:30:47Z</time></trkpt>
<trkpt lat="49.062377929688" lon="3.1732881069183"><ele>201</ele><time>2026-4-28T15:30:50Z</time></trkpt>
<trkpt lat="49.062366485596" lon="3.173134803772"><ele>201</ele><time>2026-4-28T15:30:53Z</time></trkpt>
<trkpt lat="49.062351226807" lon="3.1729888916016"><ele>201</ele><time>2026-4-28T15:30:56Z</time></trkpt>
<trkpt lat="49.062351226807" lon="3.1729888916016"><ele>201</ele><time>2026-4-28T15:30:59Z</time></trkpt>
<trkpt lat="49.062347412109" lon="3.1729018688202"><ele>201</ele><time>2026-4-28T15:31:2Z</time></trkpt>
<trkpt lat="49.062347412109" lon="3.17280626297"><ele>201</ele><time>2026-4-28T15:31:5Z</time></trkpt>
<trkpt lat="49.062347412109" lon="3.17280626297"><ele>201</ele><time>2026-4-28T15:31:8Z</time></trkpt>
<trkpt lat="49.062358856201" lon="3.1726269721985"><ele>201</ele><time>2026-4-28T15:31:11Z</time></trkpt>
<trkpt lat="49.062366485596" lon="3.1725375652313"><ele>201</ele><time>2026-4-28T15:31:14Z</time></trkpt>
<trkpt lat="49.06237411499" lon="3.1724510192871"><ele>201</ele><time>2026-4-28T15:31:17Z</time></trkpt>
<trkpt lat="49.06237411499" lon="3.1724510192871"><ele>201</ele><time>2026-4-28T15:31:20Z</time></trkpt>
<trkpt lat="49.062377929688" lon="3.1723647117615"><ele>201</ele><time>2026-4-28T15:31:23Z</time></trkpt>
<trkpt lat="49.062377929688" lon="3.1722750663757"><ele>201</ele><time>2026-4-28T15:31:26Z</time></trkpt>
<trkpt lat="49.062377929688" lon="3.1722750663757"><ele>201</ele><time>2026-4-28T15:31:29Z</time></trkpt>
<trkpt lat="49.062370300293" lon="3.1720986366272"><ele>201</ele><time>2026-4-28T15:31:32Z</time></trkpt>
<trkpt lat="49.062366485596" lon="3.1720192432404"><ele>202</ele><time>2026-4-28T15:31:35Z</time></trkpt>
<trkpt lat="49.062366485596" lon="3.1720192432404"><ele>202</ele><time>2026-4-28T15:31:38Z</time></trkpt>
<trkpt lat="49.062366485596" lon="3.1719396114349"><ele>202</ele><time>2026-4-28T15:31:41Z</time></trkpt>
<trkpt lat="49.062362670898" lon="3.1718456745148"><ele>202</ele><time>2026-4-28T15:31:44Z</time></trkpt>
<trkpt lat="49.062358856201" lon="3.1717569828033"><ele>202</ele><time>2026-4-28T15:31:47Z</time></trkpt>
<trkpt lat="49.062358856201" lon="3.1717569828033"><ele>202</ele><time>2026-4-28T15:31:50Z</time></trkpt>
<trkpt lat="49.062362670898" lon="3.1716737747192"><ele>202</ele><time>2026-4-28T15:31:53Z</time></trkpt>
<trkpt lat="49.062362670898" lon="3.1714975833893"><ele>202</ele><time>2026-4-28T15:31:56Z</time></trkpt>
<trkpt lat="49.062366485596" lon="3.1714065074921"><ele>202</ele><time>2026-4-28T15:31:59Z</time></trkpt>
<trkpt lat="49.062366485596" lon="3.1714065074921"><ele>202</ele><time>2026-4-28T15:32:2Z</time></trkpt>
<trkpt lat="49.06237411499" lon="3.1713147163391"><ele>202</ele><time>2026-4-28T15:32:5Z</time></trkpt>
<trkpt lat="49.062377929688" lon="3.1711611747742"><ele>202</ele><time>2026-4-28T15:32:8Z</time></trkpt>
<trkpt lat="49.062377929688" lon="3.1711611747742"><ele>202</ele><time>2026-4-28T15:32:11Z</time></trkpt>
<trkpt lat="49.062377929688" lon="3.1711611747742"><ele>202</ele><time>2026-4-28T15:32:14Z</time></trkpt>
<trkpt lat="49.062381744385" lon="3.1709942817688"><ele>202</ele><time>2026-4-28T15:32:17Z</time></trkpt>
<trkpt lat="49.062381744385" lon="3.1709942817688"><ele>202</ele><time>2026-4-28T15:32:20Z</time></trkpt>
<trkpt lat="49.062381744385" lon="3.1709942817688"><ele>202</ele><time>2026-4-28T15:32:23Z</time></trkpt>
<trkpt lat="49.062389373779" lon="3.170827627182"><ele>202</ele><time>2026-4-28T15:32:26Z</time></trkpt>
<trkpt lat="49.062389373779" lon="3.170827627182"><ele>202</ele><time>2026-4-28T15:32:29Z</time></trkpt>
<trkpt lat="49.062393188477" lon="3.1706550121307"><ele>202</ele><time>2026-4-28T15:32:32Z</time></trkpt>
<trkpt lat="49.062393188477" lon="3.1706550121307"><ele>202</ele><time>2026-4-28T15:32:35Z</time></trkpt>
<trkpt lat="49.062393188477" lon="3.1706550121307"><ele>202</ele><time>2026-4-28T15:32:38Z</time></trkpt>
<trkpt lat="49.062385559082" lon="3.1704964637756"><ele>202</ele><time>2026-4-28T15:32:41Z</time></trkpt>
<trkpt lat="49.062377929688" lon="3.1704006195068"><ele>203</ele><time>2026-4-28T15:32:44Z</time></trkpt>
<trkpt lat="49.062377929688" lon="3.1704006195068"><ele>203</ele><time>2026-4-28T15:32:47Z</time></trkpt>
<trkpt lat="49.06237411499" lon="3.170304775238"><ele>203</ele><time>2026-4-28T15:32:50Z</time></trkpt>
<trkpt lat="49.06237411499" lon="3.1701989173889"><ele>203</ele><time>2026-4-28T15:32:53Z</time></trkpt>
<trkpt lat="49.06237411499" lon="3.1701989173889"><ele>203</ele><time>2026-4-28T15:32:56Z</time></trkpt>
<trkpt lat="49.06237411499" lon="3.1700441837311"><ele>203</ele><time>2026-4-28T15:32:59Z</time></trkpt>
<trkpt lat="49.062370300293" lon="3.169956445694"><ele>203</ele><time>2026-4-28T15:33:2Z</time></trkpt>
<trkpt lat="49.062366485596" lon="3.1698632240295"><ele>203</ele><time>2026-4-28T15:33:5Z</time></trkpt>
<trkpt lat="49.062366485596" lon="3.1698632240295"><ele>203</ele><time>2026-4-28T15:33:8Z</time></trkpt>
<trkpt lat="49.062362670898" lon="3.1697680950165"><ele>203</ele><time>2026-4-28T15:33:11Z</time></trkpt>
<trkpt lat="49.062358856201" lon="3.1696701049805"><ele>203</ele><time>2026-4-28T15:33:14Z</time></trkpt>
<trkpt lat="49.062358856201" lon="3.1696701049805"><ele>203</ele><time>2026-4-28T15:33:17Z</time></trkpt>
<trkpt lat="49.062358856201" lon="3.1696701049805"><ele>203</ele><time>2026-4-28T15:33:20Z</time></trkpt>
<trkpt lat="49.062351226807" lon="3.169545173645"><ele>204</ele><time>2026-4-28T15:33:23Z</time></trkpt>
<trkpt lat="49.062351226807" lon="3.169545173645"><ele>204</ele><time>2026-4-28T15:33:26Z</time></trkpt>
<trkpt lat="49.062335968018" lon="3.169403553009"><ele>204</ele><time>2026-4-28T15:33:29Z</time></trkpt>
<trkpt lat="49.062335968018" lon="3.169403553009"><ele>204</ele><time>2026-4-28T15:33:32Z</time></trkpt>
<trkpt lat="49.062335968018" lon="3.169403553009"><ele>204</ele><time>2026-4-28T15:33:35Z</time></trkpt>
<trkpt lat="49.062320709229" lon="3.1692795753479"><ele>205</ele><time>2026-4-28T15:33:38Z</time></trkpt>
<trkpt lat="49.062320709229" lon="3.1692795753479"><ele>205</ele><time>2026-4-28T15:33:41Z</time></trkpt>
<trkpt lat="49.062320709229" lon="3.1692795753479"><ele>205</ele><time>2026-4-28T15:33:44Z</time></trkpt>
<trkpt lat="49.062294006348" lon="3.1691365242004"><ele>205</ele><time>2026-4-28T15:33:47Z</time></trkpt>
<trkpt lat="49.062294006348" lon="3.1691365242004"><ele>205</ele><time>2026-4-28T15:33:50Z</time></trkpt>
<trkpt lat="49.062278747559" lon="3.1690185070038"><ele>205</ele><time>2026-4-28T15:33:53Z</time></trkpt>
<trkpt lat="49.062278747559" lon="3.1690185070038"><ele>205</ele><time>2026-4-28T15:33:56Z</time></trkpt>
<trkpt lat="49.062278747559" lon="3.1690185070038"><ele>205</ele><time>2026-4-28T15:33:59Z</time></trkpt>
<trkpt lat="49.06226348877" lon="3.1689071655273"><ele>206</ele><time>2026-4-28T15:34:2Z</time></trkpt>
<trkpt lat="49.06226348877" lon="3.1689071655273"><ele>206</ele><time>2026-4-28T15:34:5Z</time></trkpt>
<trkpt lat="49.06226348877" lon="3.1689071655273"><ele>206</ele><time>2026-4-28T15:34:8Z</time></trkpt>
<trkpt lat="49.062271118164" lon="3.1687784194946"><ele>206</ele><time>2026-4-28T15:34:11Z</time></trkpt>
<trkpt lat="49.062271118164" lon="3.1687784194946"><ele>206</ele><time>2026-4-28T15:34:14Z</time></trkpt>
<trkpt lat="49.062297821045" lon="3.1686518192291"><ele>207</ele><time>2026-4-28T15:34:17Z</time></trkpt>
<trkpt lat="49.062297821045" lon="3.1686518192291"><ele>207</ele><time>2026-4-28T15:34:20Z</time></trkpt>
<trkpt lat="49.062377929688" lon="3.1685676574707"><ele>207</ele><time>2026-4-28T15:34:23Z</time></trkpt>
<trkpt lat="49.062435150146" lon="3.1685199737549"><ele>207</ele><time>2026-4-28T15:34:26Z</time></trkpt>
<trkpt lat="49.062507629395" lon="3.1684467792511"><ele>208</ele><time>2026-4-28T15:34:29Z</time></trkpt>
<trkpt lat="49.062507629395" lon="3.1684467792511"><ele>208</ele><time>2026-4-28T15:34:32Z</time></trkpt>
<trkpt lat="49.062591552734" lon="3.1683788299561"><ele>208</ele><time>2026-4-28T15:34:35Z</time></trkpt>
<trkpt lat="49.062671661377" lon="3.1683201789856"><ele>208</ele><time>2026-4-28T15:34:38Z</time></trkpt>
<trkpt lat="49.062671661377" lon="3.1683201789856"><ele>208</ele><time>2026-4-28T15:34:41Z</time></trkpt>
<trkpt lat="49.062747955322" lon="3.1682553291321"><ele>208</ele><time>2026-4-28T15:34:44Z</time></trkpt>
<trkpt lat="49.062747955322" lon="3.1682553291321"><ele>208</ele><time>2026-4-28T15:34:47Z</time></trkpt>
<trkpt lat="49.06282043457" lon="3.1681931018829"><ele>208</ele><time>2026-4-28T15:34:50Z</time></trkpt>
<trkpt lat="49.06282043457" lon="3.1681931018829"><ele>208</ele><time>2026-4-28T15:34:53Z</time></trkpt>
<trkpt lat="49.062900543213" lon="3.1681079864502"><ele>209</ele><time>2026-4-28T15:34:56Z</time></trkpt>
<trkpt lat="49.062900543213" lon="3.1681079864502"><ele>209</ele><time>2026-4-28T15:34:59Z</time></trkpt>
<trkpt lat="49.062961578369" lon="3.1680355072021"><ele>209</ele><time>2026-4-28T15:35:2Z</time></trkpt>
<trkpt lat="49.062961578369" lon="3.1680355072021"><ele>209</ele><time>2026-4-28T15:35:5Z</time></trkpt>
<trkpt lat="49.063018798828" lon="3.1679663658142"><ele>209</ele><time>2026-4-28T15:35:8Z</time></trkpt>
<trkpt lat="49.063091278076" lon="3.1678750514984"><ele>209</ele><time>2026-4-28T15:35:11Z</time></trkpt>
<trkpt lat="49.063091278076" lon="3.1678750514984"><ele>209</ele><time>2026-4-28T15:35:14Z</time></trkpt>
<trkpt lat="49.063159942627" lon="3.167788028717"><ele>210</ele><time>2026-4-28T15:35:17Z</time></trkpt>
<trkpt lat="49.063159942627" lon="3.167788028717"><ele>210</ele><time>2026-4-28T15:35:20Z</time></trkpt>
<trkpt lat="49.06322479248" lon="3.1676976680756"><ele>210</ele><time>2026-4-28T15:35:23Z</time></trkpt>
<trkpt lat="49.063289642334" lon="3.167608499527"><ele>210</ele><time>2026-4-28T15:35:26Z</time></trkpt>
<trkpt lat="49.063354492188" lon="3.1675207614899"><ele>210</ele><time>2026-4-28T15:35:29Z</time></trkpt>
<trkpt lat="49.063354492188" lon="3.1675207614899"><ele>210</ele><time>2026-4-28T15:35:32Z</time></trkpt>
<trkpt lat="49.063415527344" lon="3.1674387454987"><ele>211</ele><time>2026-4-28T15:35:35Z</time></trkpt>
<trkpt lat="49.063453674316" lon="3.1673970222473"><ele>211</ele><time>2026-4-28T15:35:38Z</time></trkpt>
<trkpt lat="49.063495635986" lon="3.1673531532288"><ele>211</ele><time>2026-4-28T15:35:41Z</time></trkpt>
<trkpt lat="49.063529968262" lon="3.1673035621643"><ele>212</ele><time>2026-4-28T15:35:44Z</time></trkpt>
<trkpt lat="49.063564300537" lon="3.1672534942627"><ele>212</ele><time>2026-4-28T15:35:47Z</time></trkpt>
<trkpt lat="49.063598632812" lon="3.1672072410583"><ele>212</ele><time>2026-4-28T15:35:50Z</time></trkpt>
<trkpt lat="49.063667297363" lon="3.1671154499054"><ele>212</ele><time>2026-4-28T15:35:53Z</time></trkpt>
<trkpt lat="49.063667297363" lon="3.1671154499054"><ele>212</ele><time>2026-4-28T15:35:56Z</time></trkpt>
<trkpt lat="49.063743591309" lon="3.1670198440552"><ele>213</ele><time>2026-4-28T15:35:59Z</time></trkpt>
<trkpt lat="49.063793182373" lon="3.1669580936432"><ele>213</ele><time>2026-4-28T15:36:2Z</time></trkpt>
<trkpt lat="49.063793182373" lon="3.1669580936432"><ele>213</ele><time>2026-4-28T15:36:5Z</time></trkpt>
<trkpt lat="49.063869476318" lon="3.1668503284454"><ele>213</ele><time>2026-4-28T15:36:8Z</time></trkpt>
<trkpt lat="49.063945770264" lon="3.1667439937592"><ele>213</ele><time>2026-4-28T15:36:11Z</time></trkpt>
<trkpt lat="49.064014434814" lon="3.166645526886"><ele>214</ele><time>2026-4-28T15:36:14Z</time></trkpt>
<trkpt lat="49.064014434814" lon="3.166645526886"><ele>214</ele><time>2026-4-28T15:36:17Z</time></trkpt>
<trkpt lat="49.06409072876" lon="3.1665482521057"><ele>214</ele><time>2026-4-28T15:36:20Z</time></trkpt>
<trkpt lat="49.06409072876" lon="3.1665482521057"><ele>214</ele><time>2026-4-28T15:36:23Z</time></trkpt>
<trkpt lat="49.064147949219" lon="3.1664788722992"><ele>214</ele><time>2026-4-28T15:36:26Z</time></trkpt>
<trkpt lat="49.064147949219" lon="3.1664788722992"><ele>214</ele><time>2026-4-28T15:36:29Z</time></trkpt>
<trkpt lat="49.064220428467" lon="3.1664049625397"><ele>214</ele><time>2026-4-28T15:36:32Z</time></trkpt>
<trkpt lat="49.064220428467" lon="3.1664049625397"><ele>214</ele><time>2026-4-28T15:36:35Z</time></trkpt>
<trkpt lat="49.064289093018" lon="3.1663250923157"><ele>215</ele><time>2026-4-28T15:36:38Z</time></trkpt>
<trkpt lat="49.064365386963" lon="3.1662333011627"><ele>215</ele><time>2026-4-28T15:36:41Z</time></trkpt>
<trkpt lat="49.064441680908" lon="3.166130065918"><ele>215</ele><time>2026-4-28T15:36:44Z</time></trkpt>
<trkpt lat="49.064441680908" lon="3.166130065918"><ele>215</ele><time>2026-4-28T15:36:47Z</time></trkpt>
<trkpt lat="49.064525604248" lon="3.1660251617432"><ele>215</ele><time>2026-4-28T15:36:50Z</time></trkpt>
<trkpt lat="49.064571380615" lon="3.1659684181213"><ele>215</ele><time>2026-4-28T15:36:53Z</time></trkpt>
<trkpt lat="49.06462097168" lon="3.1659052371979"><ele>215</ele><time>2026-4-28T15:36:56Z</time></trkpt>
<trkpt lat="49.06466293335" lon="3.1658489704132"><ele>215</ele><time>2026-4-28T15:36:59Z</time></trkpt>
<trkpt lat="49.064708709717" lon="3.16579246521"><ele>215</ele><time>2026-4-28T15:37:2Z</time></trkpt>
<trkpt lat="49.064758300781" lon="3.1657221317291"><ele>215</ele><time>2026-4-28T15:37:5Z</time></trkpt>
<trkpt lat="49.064811706543" lon="3.1656482219696"><ele>215</ele><time>2026-4-28T15:37:8Z</time></trkpt>
<trkpt lat="49.064865112305" lon="3.1655616760254"><ele>215</ele><time>2026-4-28T15:37:11Z</time></trkpt>
<trkpt lat="49.064865112305" lon="3.1655616760254"><ele>215</ele><time>2026-4-28T15:37:14Z</time></trkpt>
<trkpt lat="49.064910888672" lon="3.165500164032"><ele>215</ele><time>2026-4-28T15:37:17Z</time></trkpt>
<trkpt lat="49.064960479736" lon="3.1654381752014"><ele>215</ele><time>2026-4-28T15:37:20Z</time></trkpt>
<trkpt lat="49.065013885498" lon="3.1653654575348"><ele>215</ele><time>2026-4-28T15:37:23Z</time></trkpt>
<trkpt lat="49.065071105957" lon="3.1652903556824"><ele>215</ele><time>2026-4-28T15:37:26Z</time></trkpt>
<trkpt lat="49.065132141113" lon="3.1652131080627"><ele>214</ele><time>2026-4-28T15:37:29Z</time></trkpt>
<trkpt lat="49.06519317627" lon="3.1651368141174"><ele>213</ele><time>2026-4-28T15:37:32Z</time></trkpt>
<trkpt lat="49.065254211426" lon="3.1650536060333"><ele>213</ele><time>2026-4-28T15:37:35Z</time></trkpt>
<trkpt lat="49.065319061279" lon="3.1649723052979"><ele>213</ele><time>2026-4-28T15:37:38Z</time></trkpt>
<trkpt lat="49.065391540527" lon="3.1648888587952"><ele>212</ele><time>2026-4-28T15:37:41Z</time></trkpt>
<trkpt lat="49.065391540527" lon="3.1648888587952"><ele>212</ele><time>2026-4-28T15:37:44Z</time></trkpt>
<trkpt lat="49.065456390381" lon="3.1648132801056"><ele>211</ele><time>2026-4-28T15:37:47Z</time></trkpt>
<trkpt lat="49.065517425537" lon="3.1647341251373"><ele>211</ele><time>2026-4-28T15:37:50Z</time></trkpt>
<trkpt lat="49.065582275391" lon="3.1646630764008"><ele>211</ele><time>2026-4-28T15:37:53Z</time></trkpt>
<trkpt lat="49.065582275391" lon="3.1646630764008"><ele>211</ele><time>2026-4-28T15:37:56Z</time></trkpt>
<trkpt lat="49.065643310547" lon="3.1645867824554"><ele>211</ele><time>2026-4-28T15:37:59Z</time></trkpt>
<trkpt lat="49.065700531006" lon="3.1645090579987"><ele>211</ele><time>2026-4-28T15:38:2Z</time></trkpt>
<trkpt lat="49.065753936768" lon="3.1644358634949"><ele>211</ele><time>2026-4-28T15:38:5Z</time></trkpt>
<trkpt lat="49.065753936768" lon="3.1644358634949"><ele>211</ele><time>2026-4-28T15:38:8Z</time></trkpt>
<trkpt lat="49.065753936768" lon="3.1644358634949"><ele>211</ele><time>2026-4-28T15:38:11Z</time></trkpt>
<trkpt lat="49.065837860107" lon="3.1643161773682"><ele>211</ele><time>2026-4-28T15:38:14Z</time></trkpt>
<trkpt lat="49.065837860107" lon="3.1643161773682"><ele>211</ele><time>2026-4-28T15:38:17Z</time></trkpt>
<trkpt lat="49.065837860107" lon="3.1643161773682"><ele>211</ele><time>2026-4-28T15:38:20Z</time></trkpt>
<trkpt lat="49.06591796875" lon="3.1642005443573"><ele>211</ele><time>2026-4-28T15:38:23Z</time></trkpt>
<trkpt lat="49.065963745117" lon="3.1641404628754"><ele>211</ele><time>2026-4-28T15:38:26Z</time></trkpt>
<trkpt lat="49.066009521484" lon="3.1640722751617"><ele>211</ele><time>2026-4-28T15:38:29Z</time></trkpt>
<trkpt lat="49.066009521484" lon="3.1640722751617"><ele>211</ele><time>2026-4-28T15:38:32Z</time></trkpt>
<trkpt lat="49.066059112549" lon="3.164005279541"><ele>211</ele><time>2026-4-28T15:38:35Z</time></trkpt>
<trkpt lat="49.066116333008" lon="3.1639311313629"><ele>211</ele><time>2026-4-28T15:38:38Z</time></trkpt>
<trkpt lat="49.066165924072" lon="3.1638655662537"><ele>211</ele><time>2026-4-28T15:38:41Z</time></trkpt>
<trkpt lat="49.066165924072" lon="3.1638655662537"><ele>211</ele><time>2026-4-28T15:38:44Z</time></trkpt>
<trkpt lat="49.066165924072" lon="3.1638655662537"><ele>211</ele><time>2026-4-28T15:38:47Z</time></trkpt>
<trkpt lat="49.066242218018" lon="3.163763999939"><ele>211</ele><time>2026-4-28T15:38:50Z</time></trkpt>
<trkpt lat="49.066242218018" lon="3.163763999939"><ele>211</ele><time>2026-4-28T15:38:53Z</time></trkpt>
<trkpt lat="49.066242218018" lon="3.163763999939"><ele>211</ele><time>2026-4-28T15:38:56Z</time></trkpt>
<trkpt lat="49.066310882568" lon="3.1636765003204"><ele>211</ele><time>2026-4-28T15:38:59Z</time></trkpt>
<trkpt lat="49.066310882568" lon="3.1636765003204"><ele>211</ele><time>2026-4-28T15:39:2Z</time></trkpt>
<trkpt lat="49.066337585449" lon="3.1635453701019"><ele>211</ele><time>2026-4-28T15:39:5Z</time></trkpt>
<trkpt lat="49.066337585449" lon="3.1635453701019"><ele>211</ele><time>2026-4-28T15:39:8Z</time></trkpt>
<trkpt lat="49.066337585449" lon="3.1635453701019"><ele>211</ele><time>2026-4-28T15:39:11Z</time></trkpt>
<trkpt lat="49.066284179688" lon="3.1634297370911"><ele>211</ele><time>2026-4-28T15:39:14Z</time></trkpt>
<trkpt lat="49.066219329834" lon="3.1633424758911"><ele>211</ele><time>2026-4-28T15:39:17Z</time></trkpt>
<trkpt lat="49.066219329834" lon="3.1633424758911"><ele>211</ele><time>2026-4-28T15:39:20Z</time></trkpt>
<trkpt lat="49.06615447998" lon="3.1632487773895"><ele>211</ele><time>2026-4-28T15:39:23Z</time></trkpt>
<trkpt lat="49.066101074219" lon="3.163158416748"><ele>211</ele><time>2026-4-28T15:39:26Z</time></trkpt>
<trkpt lat="49.066051483154" lon="3.1630589962006"><ele>212</ele><time>2026-4-28T15:39:29Z</time></trkpt>
<trkpt lat="49.066051483154" lon="3.1630589962006"><ele>212</ele><time>2026-4-28T15:39:32Z</time></trkpt>
<trkpt lat="49.065998077393" lon="3.1629729270935"><ele>212</ele><time>2026-4-28T15:39:35Z</time></trkpt>
<trkpt lat="49.065952301025" lon="3.1628968715668"><ele>212</ele><time>2026-4-28T15:39:38Z</time></trkpt>
<trkpt lat="49.065952301025" lon="3.1628968715668"><ele>212</ele><time>2026-4-28T15:39:41Z</time></trkpt>
<trkpt lat="49.065868377686" lon="3.1627914905548"><ele>212</ele><time>2026-4-28T15:39:44Z</time></trkpt>
<trkpt lat="49.065807342529" lon="3.1627044677734"><ele>212</ele><time>2026-4-28T15:39:47Z</time></trkpt>
<trkpt lat="49.065746307373" lon="3.1626121997833"><ele>212</ele><time>2026-4-28T15:39:50Z</time></trkpt>
<trkpt lat="49.065746307373" lon="3.1626121997833"><ele>212</ele><time>2026-4-28T15:39:53Z</time></trkpt>
<trkpt lat="49.065685272217" lon="3.1624979972839"><ele>211</ele><time>2026-4-28T15:39:56Z</time></trkpt>
<trkpt lat="49.065624237061" lon="3.1623601913452"><ele>211</ele><time>2026-4-28T15:39:59Z</time></trkpt>
<trkpt lat="49.065567016602" lon="3.1622262001038"><ele>210</ele><time>2026-4-28T15:40:2Z</time></trkpt>
<trkpt lat="49.065567016602" lon="3.1622262001038"><ele>210</ele><time>2026-4-28T15:40:5Z</time></trkpt>
<trkpt lat="49.065502166748" lon="3.162052154541"><ele>210</ele><time>2026-4-28T15:40:8Z</time></trkpt>
<trkpt lat="49.065425872803" lon="3.1618669033051"><ele>210</ele><time>2026-4-28T15:40:11Z</time></trkpt>
<trkpt lat="49.065361022949" lon="3.1617085933685"><ele>209</ele><time>2026-4-28T15:40:14Z</time></trkpt>
<trkpt lat="49.065361022949" lon="3.1617085933685"><ele>209</ele><time>2026-4-28T15:40:17Z</time></trkpt>
<trkpt lat="49.065299987793" lon="3.1615400314331"><ele>208</ele><time>2026-4-28T15:40:20Z</time></trkpt>
<trkpt lat="49.065242767334" lon="3.1613750457764"><ele>209</ele><time>2026-4-28T15:40:23Z</time></trkpt>
<trkpt lat="49.065204620361" lon="3.1612331867218"><ele>209</ele><time>2026-4-28T15:40:26Z</time></trkpt>
<trkpt lat="49.065204620361" lon="3.1612331867218"><ele>209</ele><time>2026-4-28T15:40:29Z</time></trkpt>
<trkpt lat="49.065170288086" lon="3.1610934734344"><ele>209</ele><time>2026-4-28T15:40:32Z</time></trkpt>
<trkpt lat="49.065116882324" lon="3.1609258651733"><ele>209</ele><time>2026-4-28T15:40:35Z</time></trkpt>
<trkpt lat="49.065082550049" lon="3.1607792377472"><ele>209</ele><time>2026-4-28T15:40:38Z</time></trkpt>
<trkpt lat="49.065082550049" lon="3.1607792377472"><ele>209</ele><time>2026-4-28T15:40:41Z</time></trkpt>
<trkpt lat="49.065044403076" lon="3.1606314182281"><ele>208</ele><time>2026-4-28T15:40:44Z</time></trkpt>
<trkpt lat="49.065010070801" lon="3.160463809967"><ele>208</ele><time>2026-4-28T15:40:47Z</time></trkpt>
<trkpt lat="49.064971923828" lon="3.1602876186371"><ele>207</ele><time>2026-4-28T15:40:50Z</time></trkpt>
<trkpt lat="49.064971923828" lon="3.1602876186371"><ele>207</ele><time>2026-4-28T15:40:53Z</time></trkpt>
<trkpt lat="49.064945220947" lon="3.1601133346558"><ele>207</ele><time>2026-4-28T15:40:56Z</time></trkpt>
<trkpt lat="49.064907073975" lon="3.1599390506744"><ele>207</ele><time>2026-4-28T15:40:59Z</time></trkpt>
<trkpt lat="49.064868927002" lon="3.1597950458527"><ele>206</ele><time>2026-4-28T15:41:2Z</time></trkpt>
<trkpt lat="49.064868927002" lon="3.1597950458527"><ele>206</ele><time>2026-4-28T15:41:5Z</time></trkpt>
<trkpt lat="49.064819335938" lon="3.159636259079"><ele>205</ele><time>2026-4-28T15:41:8Z</time></trkpt>
<trkpt lat="49.064758300781" lon="3.1594631671906"><ele>205</ele><time>2026-4-28T15:41:11Z</time></trkpt>
<trkpt lat="49.06470489502" lon="3.1592915058136"><ele>205</ele><time>2026-4-28T15:41:14Z</time></trkpt>
<trkpt lat="49.06470489502" lon="3.1592915058136"><ele>205</ele><time>2026-4-28T15:41:17Z</time></trkpt>
<trkpt lat="49.064655303955" lon="3.1591448783875"><ele>205</ele><time>2026-4-28T15:41:20Z</time></trkpt>
<trkpt lat="49.064613342285" lon="3.1589999198914"><ele>204</ele><time>2026-4-28T15:41:23Z</time></trkpt>
<trkpt lat="49.064571380615" lon="3.1588456630707"><ele>202</ele><time>2026-4-28T15:41:26Z</time></trkpt>
<trkpt lat="49.064571380615" lon="3.1588456630707"><ele>202</ele><time>2026-4-28T15:41:29Z</time></trkpt>
<trkpt lat="49.064548492432" lon="3.158730506897"><ele>201</ele><time>2026-4-28T15:41:32Z</time></trkpt>
<trkpt lat="49.064548492432" lon="3.158730506897"><ele>201</ele><time>2026-4-28T15:41:35Z</time></trkpt>
<trkpt lat="49.064533233643" lon="3.1585953235626"><ele>201</ele><time>2026-4-28T15:41:38Z</time></trkpt>
<trkpt lat="49.064533233643" lon="3.1585953235626"><ele>201</ele><time>2026-4-28T15:41:41Z</time></trkpt>
<trkpt lat="49.064533233643" lon="3.1585953235626"><ele>201</ele><time>2026-4-28T15:41:44Z</time></trkpt>
<trkpt lat="49.064533233643" lon="3.1585953235626"><ele>201</ele><time>2026-4-28T15:41:47Z</time></trkpt>
<trkpt lat="49.064533233643" lon="3.1585953235626"><ele>201</ele><time>2026-4-28T15:41:50Z</time></trkpt>
<trkpt lat="49.064533233643" lon="3.1585953235626"><ele>201</ele><time>2026-4-28T15:41:53Z</time></trkpt>
<trkpt lat="49.064533233643" lon="3.1585953235626"><ele>201</ele><time>2026-4-28T15:41:56Z</time></trkpt>
<trkpt lat="49.064533233643" lon="3.1585953235626"><ele>201</ele><time>2026-4-28T15:41:59Z</time></trkpt>
<trkpt lat="49.064533233643" lon="3.1585953235626"><ele>201</ele><time>2026-4-28T15:42:2Z</time></trkpt>
<trkpt lat="49.064533233643" lon="3.1585953235626"><ele>201</ele><time>2026-4-28T15:42:5Z</time></trkpt>
<trkpt lat="49.064533233643" lon="3.1585953235626"><ele>201</ele><time>2026-4-28T15:42:8Z</time></trkpt>
<trkpt lat="49.064533233643" lon="3.1585953235626"><ele>201</ele><time>2026-4-28T15:42:11Z</time></trkpt>
<trkpt lat="49.064533233643" lon="3.1585953235626"><ele>201</ele><time>2026-4-28T15:42:14Z</time></trkpt>
<trkpt lat="49.064533233643" lon="3.1585953235626"><ele>201</ele><time>2026-4-28T15:42:17Z</time></trkpt>
<trkpt lat="49.064533233643" lon="3.1585953235626"><ele>201</ele><time>2026-4-28T15:42:20Z</time></trkpt>
<trkpt lat="49.064533233643" lon="3.1585953235626"><ele>201</ele><time>2026-4-28T15:42:23Z</time></trkpt>
<trkpt lat="49.064533233643" lon="3.1585953235626"><ele>201</ele><time>2026-4-28T15:42:26Z</time></trkpt>
<trkpt lat="49.064605712891" lon="3.1585464477539"><ele>199</ele><time>2026-4-28T15:42:29Z</time></trkpt>
<trkpt lat="49.064651489258" lon="3.1585071086884"><ele>199</ele><time>2026-4-28T15:42:32Z</time></trkpt>
<trkpt lat="49.06468963623" lon="3.1584794521332"><ele>199</ele><time>2026-4-28T15:42:35Z</time></trkpt>
<trkpt lat="49.06468963623" lon="3.1584794521332"><ele>199</ele><time>2026-4-28T15:42:38Z</time></trkpt>
<trkpt lat="49.064716339111" lon="3.1584513187408"><ele>199</ele><time>2026-4-28T15:42:41Z</time></trkpt>
<trkpt lat="49.064743041992" lon="3.1584165096283"><ele>199</ele><time>2026-4-28T15:42:44Z</time></trkpt>
<trkpt lat="49.064807891846" lon="3.1583349704742"><ele>198</ele><time>2026-4-28T15:42:47Z</time></trkpt>
<trkpt lat="49.064807891846" lon="3.1583349704742"><ele>198</ele><time>2026-4-28T15:42:50Z</time></trkpt>
<trkpt lat="49.06485748291" lon="3.1582744121552"><ele>198</ele><time>2026-4-28T15:42:53Z</time></trkpt>
<trkpt lat="49.064929962158" lon="3.1581652164459"><ele>198</ele><time>2026-4-28T15:42:56Z</time></trkpt>
<trkpt lat="49.064929962158" lon="3.1581652164459"><ele>198</ele><time>2026-4-28T15:42:59Z</time></trkpt>
<trkpt lat="49.065002441406" lon="3.1580450534821"><ele>198</ele><time>2026-4-28T15:43:2Z</time></trkpt>
<trkpt lat="49.065002441406" lon="3.1580450534821"><ele>198</ele><time>2026-4-28T15:43:5Z</time></trkpt>
<trkpt lat="49.065078735352" lon="3.1579225063324"><ele>198</ele><time>2026-4-28T15:43:8Z</time></trkpt>
<trkpt lat="49.065120697021" lon="3.1578488349915"><ele>198</ele><time>2026-4-28T15:43:11Z</time></trkpt>
<trkpt lat="49.065166473389" lon="3.1577813625336"><ele>198</ele><time>2026-4-28T15:43:14Z</time></trkpt>
<trkpt lat="49.065166473389" lon="3.1577813625336"><ele>198</ele><time>2026-4-28T15:43:17Z</time></trkpt>
<trkpt lat="49.065204620361" lon="3.1577162742615"><ele>198</ele><time>2026-4-28T15:43:20Z</time></trkpt>
<trkpt lat="49.065242767334" lon="3.1576385498047"><ele>198</ele><time>2026-4-28T15:43:23Z</time></trkpt>
<trkpt lat="49.065284729004" lon="3.157568693161"><ele>198</ele><time>2026-4-28T15:43:26Z</time></trkpt>
<trkpt lat="49.065284729004" lon="3.157568693161"><ele>198</ele><time>2026-4-28T15:43:29Z</time></trkpt>
<trkpt lat="49.065334320068" lon="3.1574850082397"><ele>198</ele><time>2026-4-28T15:43:32Z</time></trkpt>
<trkpt lat="49.065380096436" lon="3.1573977470398"><ele>198</ele><time>2026-4-28T15:43:35Z</time></trkpt>
<trkpt lat="49.065422058105" lon="3.1573307514191"><ele>197</ele><time>2026-4-28T15:43:38Z</time></trkpt>
<trkpt lat="49.065422058105" lon="3.1573307514191"><ele>197</ele><time>2026-4-28T15:43:41Z</time></trkpt>
<trkpt lat="49.065464019775" lon="3.1572618484497"><ele>197</ele><time>2026-4-28T15:43:44Z</time></trkpt>
<trkpt lat="49.065464019775" lon="3.1572618484497"><ele>197</ele><time>2026-4-28T15:43:47Z</time></trkpt>
<trkpt lat="49.065521240234" lon="3.1572003364563"><ele>197</ele><time>2026-4-28T15:43:50Z</time></trkpt>
<trkpt lat="49.065521240234" lon="3.1572003364563"><ele>197</ele><time>2026-4-28T15:43:53Z</time></trkpt>
<trkpt lat="49.065521240234" lon="3.1572003364563"><ele>197</ele><time>2026-4-28T15:43:56Z</time></trkpt>
<trkpt lat="49.065521240234" lon="3.1572003364563"><ele>197</ele><time>2026-4-28T15:43:59Z</time></trkpt>
<trkpt lat="49.065578460693" lon="3.157154083252"><ele>197</ele><time>2026-4-28T15:44:2Z</time></trkpt>
<trkpt lat="49.065578460693" lon="3.157154083252"><ele>197</ele><time>2026-4-28T15:44:5Z</time></trkpt>
<trkpt lat="49.065578460693" lon="3.157154083252"><ele>197</ele><time>2026-4-28T15:44:8Z</time></trkpt>
<trkpt lat="49.06563949585" lon="3.1570980548859"><ele>197</ele><time>2026-4-28T15:44:11Z</time></trkpt>
<trkpt lat="49.06563949585" lon="3.1570980548859"><ele>197</ele><time>2026-4-28T15:44:14Z</time></trkpt>
<trkpt lat="49.06563949585" lon="3.1570980548859"><ele>197</ele><time>2026-4-28T15:44:17Z</time></trkpt>
<trkpt lat="49.06563949585" lon="3.1570980548859"><ele>197</ele><time>2026-4-28T15:44:20Z</time></trkpt>
<trkpt lat="49.06563949585" lon="3.1570980548859"><ele>197</ele><time>2026-4-28T15:44:23Z</time></trkpt>
<trkpt lat="49.06563949585" lon="3.1570980548859"><ele>197</ele><time>2026-4-28T15:44:26Z</time></trkpt>
<trkpt lat="49.06563949585" lon="3.1570980548859"><ele>197</ele><time>2026-4-28T15:44:29Z</time></trkpt>
<trkpt lat="49.06563949585" lon="3.1570980548859"><ele>197</ele><time>2026-4-28T15:44:32Z</time></trkpt>
<trkpt lat="49.06563949585" lon="3.1570980548859"><ele>197</ele><time>2026-4-28T15:44:35Z</time></trkpt>
<trkpt lat="49.06563949585" lon="3.1570980548859"><ele>197</ele><time>2026-4-28T15:44:38Z</time></trkpt>
<trkpt lat="49.065567016602" lon="3.1571464538574"><ele>196</ele><time>2026-4-28T15:44:41Z</time></trkpt>
<trkpt lat="49.065567016602" lon="3.1571464538574"><ele>196</ele><time>2026-4-28T15:44:44Z</time></trkpt>
<trkpt lat="49.065567016602" lon="3.15700340271"><ele>196</ele><time>2026-4-28T15:44:47Z</time></trkpt>
<trkpt lat="49.065624237061" lon="3.1569073200226"><ele>196</ele><time>2026-4-28T15:44:50Z</time></trkpt>
<trkpt lat="49.06568145752" lon="3.1568231582642"><ele>195</ele><time>2026-4-28T15:44:53Z</time></trkpt>
<trkpt lat="49.06575012207" lon="3.1567273139954"><ele>194</ele><time>2026-4-28T15:44:56Z</time></trkpt>
<trkpt lat="49.065826416016" lon="3.1566305160522"><ele>192</ele><time>2026-4-28T15:44:59Z</time></trkpt>
<trkpt lat="49.065898895264" lon="3.1565511226654"><ele>191</ele><time>2026-4-28T15:45:2Z</time></trkpt>
<trkpt lat="49.065998077393" lon="3.1564748287201"><ele>189</ele><time>2026-4-28T15:45:5Z</time></trkpt>
<trkpt lat="49.066116333008" lon="3.1563928127289"><ele>187</ele><time>2026-4-28T15:45:8Z</time></trkpt>
<trkpt lat="49.066246032715" lon="3.1562922000885"><ele>186</ele><time>2026-4-28T15:45:11Z</time></trkpt>
<trkpt lat="49.066375732422" lon="3.156183719635"><ele>186</ele><time>2026-4-28T15:45:14Z</time></trkpt>
<trkpt lat="49.066513061523" lon="3.1560635566711"><ele>185</ele><time>2026-4-28T15:45:17Z</time></trkpt>
<trkpt lat="49.06664276123" lon="3.1559360027313"><ele>185</ele><time>2026-4-28T15:45:20Z</time></trkpt>
<trkpt lat="49.066764831543" lon="3.1558029651642"><ele>183</ele><time>2026-4-28T15:45:23Z</time></trkpt>
<trkpt lat="49.066898345947" lon="3.1556465625763"><ele>182</ele><time>2026-4-28T15:45:26Z</time></trkpt>
<trkpt lat="49.067024230957" lon="3.1554787158966"><ele>181</ele><time>2026-4-28T15:45:29Z</time></trkpt>
<trkpt lat="49.067127227783" lon="3.1553263664246"><ele>180</ele><time>2026-4-28T15:45:32Z</time></trkpt>
<trkpt lat="49.06721496582" lon="3.1551561355591"><ele>179</ele><time>2026-4-28T15:45:35Z</time></trkpt>
<trkpt lat="49.067287445068" lon="3.1549732685089"><ele>177</ele><time>2026-4-28T15:45:38Z</time></trkpt>
<trkpt lat="49.067359924316" lon="3.1548054218292"><ele>175</ele><time>2026-4-28T15:45:41Z</time></trkpt>
<trkpt lat="49.067417144775" lon="3.1546723842621"><ele>174</ele><time>2026-4-28T15:45:44Z</time></trkpt>
<trkpt lat="49.067455291748" lon="3.1545820236206"><ele>173</ele><time>2026-4-28T15:45:47Z</time></trkpt>
<trkpt lat="49.067489624023" lon="3.1545069217682"><ele>172</ele><time>2026-4-28T15:45:50Z</time></trkpt>
<trkpt lat="49.067489624023" lon="3.1545069217682"><ele>172</ele><time>2026-4-28T15:45:53Z</time></trkpt>
<trkpt lat="49.06759262085" lon="3.1542754173279"><ele>171</ele><time>2026-4-28T15:45:56Z</time></trkpt>
<trkpt lat="49.067642211914" lon="3.1541101932526"><ele>170</ele><time>2026-4-28T15:45:59Z</time></trkpt>
<trkpt lat="49.067676544189" lon="3.1538560390472"><ele>170</ele><time>2026-4-28T15:46:2Z</time></trkpt>
<trkpt lat="49.067676544189" lon="3.1538560390472"><ele>170</ele><time>2026-4-28T15:46:5Z</time></trkpt>
<trkpt lat="49.067680358887" lon="3.1536016464233"><ele>168</ele><time>2026-4-28T15:46:8Z</time></trkpt>
<trkpt lat="49.067668914795" lon="3.1533782482147"><ele>167</ele><time>2026-4-28T15:46:11Z</time></trkpt>
<trkpt lat="49.067684173584" lon="3.1531555652618"><ele>166</ele><time>2026-4-28T15:46:14Z</time></trkpt>
<trkpt lat="49.067684173584" lon="3.1531555652618"><ele>166</ele><time>2026-4-28T15:46:17Z</time></trkpt>
<trkpt lat="49.067825317383" lon="3.152996301651"><ele>165</ele><time>2026-4-28T15:46:20Z</time></trkpt>
<trkpt lat="49.068000793457" lon="3.152859210968"><ele>164</ele><time>2026-4-28T15:46:23Z</time></trkpt>
<trkpt lat="49.068164825439" lon="3.1527645587921"><ele>163</ele><time>2026-4-28T15:46:26Z</time></trkpt>
<trkpt lat="49.068164825439" lon="3.1527645587921"><ele>163</ele><time>2026-4-28T15:46:29Z</time></trkpt>
<trkpt lat="49.06831741333" lon="3.1526820659637"><ele>161</ele><time>2026-4-28T15:46:32Z</time></trkpt>
<trkpt lat="49.068477630615" lon="3.1525692939758"><ele>160</ele><time>2026-4-28T15:46:35Z</time></trkpt>
<trkpt lat="49.06861114502" lon="3.1524622440338"><ele>160</ele><time>2026-4-28T15:46:38Z</time></trkpt>
<trkpt lat="49.06861114502" lon="3.1524622440338"><ele>160</ele><time>2026-4-28T15:46:41Z</time></trkpt>
<trkpt lat="49.06872177124" lon="3.1523327827454"><ele>159</ele><time>2026-4-28T15:46:44Z</time></trkpt>
<trkpt lat="49.068801879883" lon="3.1521816253662"><ele>158</ele><time>2026-4-28T15:46:47Z</time></trkpt>
<trkpt lat="49.068874359131" lon="3.1520433425903"><ele>158</ele><time>2026-4-28T15:46:50Z</time></trkpt>
<trkpt lat="49.068874359131" lon="3.1520433425903"><ele>158</ele><time>2026-4-28T15:46:53Z</time></trkpt>
<trkpt lat="49.068946838379" lon="3.1519148349762"><ele>158</ele><time>2026-4-28T15:46:56Z</time></trkpt>
<trkpt lat="49.069019317627" lon="3.1518025398254"><ele>157</ele><time>2026-4-28T15:46:59Z</time></trkpt>
<trkpt lat="49.069087982178" lon="3.1517064571381"><ele>157</ele><time>2026-4-28T15:47:2Z</time></trkpt>
<trkpt lat="49.069087982178" lon="3.1517064571381"><ele>157</ele><time>2026-4-28T15:47:5Z</time></trkpt>
<trkpt lat="49.069160461426" lon="3.1516048908234"><ele>157</ele><time>2026-4-28T15:47:8Z</time></trkpt>
<trkpt lat="49.069236755371" lon="3.1515023708344"><ele>157</ele><time>2026-4-28T15:47:11Z</time></trkpt>
<trkpt lat="49.069305419922" lon="3.1514091491699"><ele>156</ele><time>2026-4-28T15:47:14Z</time></trkpt>
<trkpt lat="49.069305419922" lon="3.1514091491699"><ele>156</ele><time>2026-4-28T15:47:17Z</time></trkpt>
<trkpt lat="49.069362640381" lon="3.1513347625732"><ele>154</ele><time>2026-4-28T15:47:20Z</time></trkpt>
<trkpt lat="49.069423675537" lon="3.1512560844421"><ele>153</ele><time>2026-4-28T15:47:23Z</time></trkpt>
<trkpt lat="49.069477081299" lon="3.1511838436127"><ele>151</ele><time>2026-4-28T15:47:26Z</time></trkpt>
<trkpt lat="49.069477081299" lon="3.1511838436127"><ele>151</ele><time>2026-4-28T15:47:29Z</time></trkpt>
<trkpt lat="49.069534301758" lon="3.1511173248291"><ele>151</ele><time>2026-4-28T15:47:32Z</time></trkpt>
<trkpt lat="49.069591522217" lon="3.1510615348816"><ele>151</ele><time>2026-4-28T15:47:35Z</time></trkpt>
<trkpt lat="49.06965637207" lon="3.1510152816772"><ele>151</ele><time>2026-4-28T15:47:38Z</time></trkpt>
<trkpt lat="49.06965637207" lon="3.1510152816772"><ele>151</ele><time>2026-4-28T15:47:41Z</time></trkpt>
<trkpt lat="49.069728851318" lon="3.1509666442871"><ele>151</ele><time>2026-4-28T15:47:44Z</time></trkpt>
<trkpt lat="49.069812774658" lon="3.1509172916412"><ele>151</ele><time>2026-4-28T15:47:47Z</time></trkpt>
<trkpt lat="49.069881439209" lon="3.1508831977844"><ele>151</ele><time>2026-4-28T15:47:50Z</time></trkpt>
<trkpt lat="49.069881439209" lon="3.1508831977844"><ele>151</ele><time>2026-4-28T15:47:53Z</time></trkpt>
<trkpt lat="49.069881439209" lon="3.1508831977844"><ele>151</ele><time>2026-4-28T15:47:56Z</time></trkpt>
<trkpt lat="49.069969177246" lon="3.1508357524872"><ele>151</ele><time>2026-4-28T15:47:59Z</time></trkpt>
<trkpt lat="49.069969177246" lon="3.1508357524872"><ele>151</ele><time>2026-4-28T15:48:2Z</time></trkpt>
<trkpt lat="49.069969177246" lon="3.1508357524872"><ele>151</ele><time>2026-4-28T15:48:5Z</time></trkpt>
<trkpt lat="49.070064544678" lon="3.1507847309113"><ele>151</ele><time>2026-4-28T15:48:8Z</time></trkpt>
<trkpt lat="49.070064544678" lon="3.1507847309113"><ele>151</ele><time>2026-4-28T15:48:11Z</time></trkpt>
<trkpt lat="49.070064544678" lon="3.1507847309113"><ele>151</ele><time>2026-4-28T15:48:14Z</time></trkpt>
<trkpt lat="49.070064544678" lon="3.1507847309113"><ele>151</ele><time>2026-4-28T15:48:17Z</time></trkpt>
<trkpt lat="49.070098876953" lon="3.1507723331451"><ele>151</ele><time>2026-4-28T15:48:20Z</time></trkpt>
<trkpt lat="49.070129394531" lon="3.1507616043091"><ele>151</ele><time>2026-4-28T15:48:23Z</time></trkpt>
<trkpt lat="49.070129394531" lon="3.1507616043091"><ele>151</ele><time>2026-4-28T15:48:26Z</time></trkpt>
<trkpt lat="49.070129394531" lon="3.1507616043091"><ele>151</ele><time>2026-4-28T15:48:29Z</time></trkpt>
<trkpt lat="49.070163726807" lon="3.150750875473"><ele>151</ele><time>2026-4-28T15:48:32Z</time></trkpt>
<trkpt lat="49.070194244385" lon="3.1507420539856"><ele>151</ele><time>2026-4-28T15:48:35Z</time></trkpt>
<trkpt lat="49.070194244385" lon="3.1507420539856"><ele>151</ele><time>2026-4-28T15:48:38Z</time></trkpt>
<trkpt lat="49.070232391357" lon="3.1507306098938"><ele>151</ele><time>2026-4-28T15:48:41Z</time></trkpt>
<trkpt lat="49.070262908936" lon="3.150719165802"><ele>151</ele><time>2026-4-28T15:48:44Z</time></trkpt>
<trkpt lat="49.070293426514" lon="3.150705575943"><ele>151</ele><time>2026-4-28T15:48:47Z</time></trkpt>
<trkpt lat="49.070293426514" lon="3.150705575943"><ele>151</ele><time>2026-4-28T15:48:50Z</time></trkpt>
<trkpt lat="49.070327758789" lon="3.1506834030151"><ele>152</ele><time>2026-4-28T15:48:53Z</time></trkpt>
<trkpt lat="49.070358276367" lon="3.1506638526917"><ele>152</ele><time>2026-4-28T15:48:56Z</time></trkpt>
<trkpt lat="49.070392608643" lon="3.1506390571594"><ele>152</ele><time>2026-4-28T15:48:59Z</time></trkpt>
<trkpt lat="49.070419311523" lon="3.1506173610687"><ele>152</ele><time>2026-4-28T15:49:2Z</time></trkpt>
<trkpt lat="49.070419311523" lon="3.1506173610687"><ele>152</ele><time>2026-4-28T15:49:5Z</time></trkpt>
<trkpt lat="49.070453643799" lon="3.1505892276764"><ele>152</ele><time>2026-4-28T15:49:8Z</time></trkpt>
<trkpt lat="49.07048034668" lon="3.1505620479584"><ele>153</ele><time>2026-4-28T15:49:11Z</time></trkpt>
<trkpt lat="49.070510864258" lon="3.1505234241486"><ele>153</ele><time>2026-4-28T15:49:14Z</time></trkpt>
<trkpt lat="49.070533752441" lon="3.1504969596863"><ele>153</ele><time>2026-4-28T15:49:17Z</time></trkpt>
<trkpt lat="49.070568084717" lon="3.1504604816437"><ele>154</ele><time>2026-4-28T15:49:20Z</time></trkpt>
<trkpt lat="49.070568084717" lon="3.1504604816437"><ele>154</ele><time>2026-4-28T15:49:23Z</time></trkpt>
<trkpt lat="49.070613861084" lon="3.1504015922546"><ele>154</ele><time>2026-4-28T15:49:26Z</time></trkpt>
<trkpt lat="49.070644378662" lon="3.1503653526306"><ele>155</ele><time>2026-4-28T15:49:29Z</time></trkpt>
<trkpt lat="49.070671081543" lon="3.1503393650055"><ele>155</ele><time>2026-4-28T15:49:32Z</time></trkpt>
<trkpt lat="49.070671081543" lon="3.1503393650055"><ele>155</ele><time>2026-4-28T15:49:35Z</time></trkpt>
<trkpt lat="49.070701599121" lon="3.150306224823"><ele>155</ele><time>2026-4-28T15:49:38Z</time></trkpt>
<trkpt lat="49.070728302002" lon="3.1502742767334"><ele>155</ele><time>2026-4-28T15:49:41Z</time></trkpt>
<trkpt lat="49.070728302002" lon="3.1502742767334"><ele>155</ele><time>2026-4-28T15:49:44Z</time></trkpt>
<trkpt lat="49.070755004883" lon="3.1502377986908"><ele>156</ele><time>2026-4-28T15:49:47Z</time></trkpt>
<trkpt lat="49.070755004883" lon="3.1502377986908"><ele>156</ele><time>2026-4-28T15:49:50Z</time></trkpt>
<trkpt lat="49.070777893066" lon="3.1502041816711"><ele>156</ele><time>2026-4-28T15:49:53Z</time></trkpt>
<trkpt lat="49.070777893066" lon="3.1502041816711"><ele>156</ele><time>2026-4-28T15:49:56Z</time></trkpt>
<trkpt lat="49.070804595947" lon="3.1501734256744"><ele>156</ele><time>2026-4-28T15:49:59Z</time></trkpt>
<trkpt lat="49.070804595947" lon="3.1501734256744"><ele>156</ele><time>2026-4-28T15:50:2Z</time></trkpt>
<trkpt lat="49.070831298828" lon="3.1501491069794"><ele>157</ele><time>2026-4-28T15:50:5Z</time></trkpt>
<trkpt lat="49.070858001709" lon="3.1501271724701"><ele>157</ele><time>2026-4-28T15:50:8Z</time></trkpt>
<trkpt lat="49.07088470459" lon="3.1501021385193"><ele>157</ele><time>2026-4-28T15:50:11Z</time></trkpt>
<trkpt lat="49.070911407471" lon="3.1500775814056"><ele>157</ele><time>2026-4-28T15:50:14Z</time></trkpt>
<trkpt lat="49.070938110352" lon="3.1500499248505"><ele>157</ele><time>2026-4-28T15:50:17Z</time></trkpt>
<trkpt lat="49.070938110352" lon="3.1500499248505"><ele>157</ele><time>2026-4-28T15:50:20Z</time></trkpt>
<trkpt lat="49.070995330811" lon="3.1499838829041"><ele>158</ele><time>2026-4-28T15:50:23Z</time></trkpt>
<trkpt lat="49.070995330811" lon="3.1499838829041"><ele>158</ele><time>2026-4-28T15:50:26Z</time></trkpt>
<trkpt lat="49.071056365967" lon="3.1499481201172"><ele>158</ele><time>2026-4-28T15:50:29Z</time></trkpt>
<trkpt lat="49.071056365967" lon="3.1499481201172"><ele>158</ele><time>2026-4-28T15:50:32Z</time></trkpt>
<trkpt lat="49.071056365967" lon="3.1499481201172"><ele>158</ele><time>2026-4-28T15:50:35Z</time></trkpt>
<trkpt lat="49.071056365967" lon="3.1499481201172"><ele>158</ele><time>2026-4-28T15:50:38Z</time></trkpt>
<trkpt lat="49.071117401123" lon="3.1498682498932"><ele>159</ele><time>2026-4-28T15:50:41Z</time></trkpt>
<trkpt lat="49.071117401123" lon="3.1498682498932"><ele>159</ele><time>2026-4-28T15:50:44Z</time></trkpt>
<trkpt lat="49.07116317749" lon="3.1498057842255"><ele>159</ele><time>2026-4-28T15:50:47Z</time></trkpt>
<trkpt lat="49.07116317749" lon="3.1498057842255"><ele>159</ele><time>2026-4-28T15:50:50Z</time></trkpt>
<trkpt lat="49.071212768555" lon="3.149745464325"><ele>160</ele><time>2026-4-28T15:50:53Z</time></trkpt>
<trkpt lat="49.071212768555" lon="3.149745464325"><ele>160</ele><time>2026-4-28T15:50:56Z</time></trkpt>
<trkpt lat="49.071212768555" lon="3.149745464325"><ele>160</ele><time>2026-4-28T15:50:59Z</time></trkpt>
<trkpt lat="49.071212768555" lon="3.149745464325"><ele>160</ele><time>2026-4-28T15:51:2Z</time></trkpt>
<trkpt lat="49.071212768555" lon="3.149745464325"><ele>160</ele><time>2026-4-28T15:51:5Z</time></trkpt>
<trkpt lat="49.071269989014" lon="3.1496629714966"><ele>161</ele><time>2026-4-28T15:51:8Z</time></trkpt>
<trkpt lat="49.071269989014" lon="3.1496629714966"><ele>161</ele><time>2026-4-28T15:51:11Z</time></trkpt>
<trkpt lat="49.071269989014" lon="3.1496629714966"><ele>161</ele><time>2026-4-28T15:51:14Z</time></trkpt>
<trkpt lat="49.071323394775" lon="3.1495923995972"><ele>162</ele><time>2026-4-28T15:51:17Z</time></trkpt>
<trkpt lat="49.071323394775" lon="3.1495923995972"><ele>162</ele><time>2026-4-28T15:51:20Z</time></trkpt>
<trkpt lat="49.071376800537" lon="3.1495430469513"><ele>163</ele><time>2026-4-28T15:51:23Z</time></trkpt>
<trkpt lat="49.071376800537" lon="3.1495430469513"><ele>163</ele><time>2026-4-28T15:51:26Z</time></trkpt>
<trkpt lat="49.071376800537" lon="3.1495430469513"><ele>163</ele><time>2026-4-28T15:51:29Z</time></trkpt>
<trkpt lat="49.071376800537" lon="3.1495430469513"><ele>163</ele><time>2026-4-28T15:51:32Z</time></trkpt>
<trkpt lat="49.071441650391" lon="3.1494741439819"><ele>164</ele><time>2026-4-28T15:51:35Z</time></trkpt>
<trkpt lat="49.071441650391" lon="3.1494741439819"><ele>164</ele><time>2026-4-28T15:51:38Z</time></trkpt>
<trkpt lat="49.071441650391" lon="3.1494741439819"><ele>164</ele><time>2026-4-28T15:51:41Z</time></trkpt>
<trkpt lat="49.071441650391" lon="3.1494741439819"><ele>164</ele><time>2026-4-28T15:51:44Z</time></trkpt>
<trkpt lat="49.071491241455" lon="3.1493909358978"><ele>165</ele><time>2026-4-28T15:51:47Z</time></trkpt>
<trkpt lat="49.071491241455" lon="3.1493909358978"><ele>165</ele><time>2026-4-28T15:51:50Z</time></trkpt>
<trkpt lat="49.071533203125" lon="3.149316072464"><ele>167</ele><time>2026-4-28T15:51:53Z</time></trkpt>
<trkpt lat="49.071533203125" lon="3.149316072464"><ele>167</ele><time>2026-4-28T15:51:56Z</time></trkpt>
<trkpt lat="49.071556091309" lon="3.1492195129395"><ele>167</ele><time>2026-4-28T15:51:59Z</time></trkpt>
<trkpt lat="49.071556091309" lon="3.1492195129395"><ele>167</ele><time>2026-4-28T15:52:2Z</time></trkpt>
<trkpt lat="49.071598052979" lon="3.1491134166718"><ele>169</ele><time>2026-4-28T15:52:5Z</time></trkpt>
<trkpt lat="49.071598052979" lon="3.1491134166718"><ele>169</ele><time>2026-4-28T15:52:8Z</time></trkpt>
<trkpt lat="49.071636199951" lon="3.149037361145"><ele>170</ele><time>2026-4-28T15:52:11Z</time></trkpt>
<trkpt lat="49.071636199951" lon="3.149037361145"><ele>170</ele><time>2026-4-28T15:52:14Z</time></trkpt>
<trkpt lat="49.071636199951" lon="3.149037361145"><ele>170</ele><time>2026-4-28T15:52:17Z</time></trkpt>
<trkpt lat="49.071666717529" lon="3.1489462852478"><ele>172</ele><time>2026-4-28T15:52:20Z</time></trkpt>
<trkpt lat="49.071666717529" lon="3.1489462852478"><ele>172</ele><time>2026-4-28T15:52:23Z</time></trkpt>
<trkpt lat="49.071666717529" lon="3.1489462852478"><ele>172</ele><time>2026-4-28T15:52:26Z</time></trkpt>
<trkpt lat="49.071716308594" lon="3.1488621234894"><ele>173</ele><time>2026-4-28T15:52:29Z</time></trkpt>
<trkpt lat="49.071716308594" lon="3.1488621234894"><ele>173</ele><time>2026-4-28T15:52:32Z</time></trkpt>
<trkpt lat="49.07177734375" lon="3.1488013267517"><ele>174</ele><time>2026-4-28T15:52:35Z</time></trkpt>
<trkpt lat="49.071804046631" lon="3.1487767696381"><ele>175</ele><time>2026-4-28T15:52:38Z</time></trkpt>
<trkpt lat="49.071804046631" lon="3.1487767696381"><ele>175</ele><time>2026-4-28T15:52:41Z</time></trkpt>
<trkpt lat="49.071826934814" lon="3.1487526893616"><ele>176</ele><time>2026-4-28T15:52:44Z</time></trkpt>
<trkpt lat="49.071853637695" lon="3.1487147808075"><ele>177</ele><time>2026-4-28T15:52:47Z</time></trkpt>
<trkpt lat="49.071853637695" lon="3.1487147808075"><ele>177</ele><time>2026-4-28T15:52:50Z</time></trkpt>
<trkpt lat="49.071887969971" lon="3.1486718654633"><ele>178</ele><time>2026-4-28T15:52:53Z</time></trkpt>
<trkpt lat="49.071914672852" lon="3.148633480072"><ele>178</ele><time>2026-4-28T15:52:56Z</time></trkpt>
<trkpt lat="49.071914672852" lon="3.148633480072"><ele>178</ele><time>2026-4-28T15:52:59Z</time></trkpt>
<trkpt lat="49.071941375732" lon="3.1485991477966"><ele>179</ele><time>2026-4-28T15:53:2Z</time></trkpt>
<trkpt lat="49.071971893311" lon="3.1485695838928"><ele>179</ele><time>2026-4-28T15:53:5Z</time></trkpt>
<trkpt lat="49.072021484375" lon="3.1485233306885"><ele>180</ele><time>2026-4-28T15:53:8Z</time></trkpt>
<trkpt lat="49.072021484375" lon="3.1485233306885"><ele>180</ele><time>2026-4-28T15:53:11Z</time></trkpt>
<trkpt lat="49.072021484375" lon="3.1485233306885"><ele>180</ele><time>2026-4-28T15:53:14Z</time></trkpt>
<trkpt lat="49.072074890137" lon="3.1484882831573"><ele>181</ele><time>2026-4-28T15:53:17Z</time></trkpt>
<trkpt lat="49.072074890137" lon="3.1484882831573"><ele>181</ele><time>2026-4-28T15:53:20Z</time></trkpt>
<trkpt lat="49.072143554688" lon="3.148421049118"><ele>182</ele><time>2026-4-28T15:53:23Z</time></trkpt>
<trkpt lat="49.072143554688" lon="3.148421049118"><ele>182</ele><time>2026-4-28T15:53:26Z</time></trkpt>
<trkpt lat="49.072196960449" lon="3.1483702659607"><ele>183</ele><time>2026-4-28T15:53:29Z</time></trkpt>
<trkpt lat="49.072196960449" lon="3.1483702659607"><ele>183</ele><time>2026-4-28T15:53:32Z</time></trkpt>
<trkpt lat="49.072196960449" lon="3.1483702659607"><ele>183</ele><time>2026-4-28T15:53:35Z</time></trkpt>
<trkpt lat="49.072196960449" lon="3.1483702659607"><ele>183</ele><time>2026-4-28T15:53:38Z</time></trkpt>
<trkpt lat="49.072250366211" lon="3.1483058929443"><ele>184</ele><time>2026-4-28T15:53:41Z</time></trkpt>
<trkpt lat="49.072250366211" lon="3.1483058929443"><ele>184</ele><time>2026-4-28T15:53:44Z</time></trkpt>
<trkpt lat="49.07230758667" lon="3.1482317447662"><ele>184</ele><time>2026-4-28T15:53:47Z</time></trkpt>
<trkpt lat="49.07230758667" lon="3.1482317447662"><ele>184</ele><time>2026-4-28T15:53:50Z</time></trkpt>
<trkpt lat="49.07230758667" lon="3.1482317447662"><ele>184</ele><time>2026-4-28T15:53:53Z</time></trkpt>
<trkpt lat="49.072360992432" lon="3.1481544971466"><ele>186</ele><time>2026-4-28T15:53:56Z</time></trkpt>
<trkpt lat="49.072360992432" lon="3.1481544971466"><ele>186</ele><time>2026-4-28T15:53:59Z</time></trkpt>
<trkpt lat="49.072410583496" lon="3.1480786800385"><ele>186</ele><time>2026-4-28T15:54:2Z</time></trkpt>
<trkpt lat="49.072410583496" lon="3.1480786800385"><ele>186</ele><time>2026-4-28T15:54:5Z</time></trkpt>
<trkpt lat="49.072410583496" lon="3.1480786800385"><ele>186</ele><time>2026-4-28T15:54:8Z</time></trkpt>
<trkpt lat="49.072456359863" lon="3.1479971408844"><ele>187</ele><time>2026-4-28T15:54:11Z</time></trkpt>
<trkpt lat="49.072456359863" lon="3.1479971408844"><ele>187</ele><time>2026-4-28T15:54:14Z</time></trkpt>
<trkpt lat="49.07251739502" lon="3.1479253768921"><ele>188</ele><time>2026-4-28T15:54:17Z</time></trkpt>
<trkpt lat="49.07251739502" lon="3.1479253768921"><ele>188</ele><time>2026-4-28T15:54:20Z</time></trkpt>
<trkpt lat="49.07251739502" lon="3.1479253768921"><ele>188</ele><time>2026-4-28T15:54:23Z</time></trkpt>
<trkpt lat="49.072578430176" lon="3.1478650569916"><ele>189</ele><time>2026-4-28T15:54:26Z</time></trkpt>
<trkpt lat="49.072578430176" lon="3.1478650569916"><ele>189</ele><time>2026-4-28T15:54:29Z</time></trkpt>
<trkpt lat="49.072620391846" lon="3.1477980613708"><ele>189</ele><time>2026-4-28T15:54:32Z</time></trkpt>
<trkpt lat="49.072620391846" lon="3.1477980613708"><ele>189</ele><time>2026-4-28T15:54:35Z</time></trkpt>
<trkpt lat="49.072620391846" lon="3.1477980613708"><ele>189</ele><time>2026-4-28T15:54:38Z</time></trkpt>
<trkpt lat="49.072620391846" lon="3.1477980613708"><ele>189</ele><time>2026-4-28T15:54:41Z</time></trkpt>
<trkpt lat="49.072620391846" lon="3.1477980613708"><ele>189</ele><time>2026-4-28T15:54:44Z</time></trkpt>
<trkpt lat="49.072620391846" lon="3.1477980613708"><ele>189</ele><time>2026-4-28T15:54:47Z</time></trkpt>
<trkpt lat="49.072620391846" lon="3.1477980613708"><ele>189</ele><time>2026-4-28T15:54:50Z</time></trkpt>
<trkpt lat="49.072620391846" lon="3.1477980613708"><ele>189</ele><time>2026-4-28T15:54:53Z</time></trkpt>
<trkpt lat="49.072620391846" lon="3.1477980613708"><ele>189</ele><time>2026-4-28T15:54:56Z</time></trkpt>
<trkpt lat="49.072620391846" lon="3.1477980613708"><ele>189</ele><time>2026-4-28T15:54:59Z</time></trkpt>
<trkpt lat="49.072734832764" lon="3.1476807594299"><ele>189</ele><time>2026-4-28T15:55:2Z</time></trkpt>
<trkpt lat="49.072803497314" lon="3.1476063728333"><ele>189</ele><time>2026-4-28T15:55:5Z</time></trkpt>
<trkpt lat="49.072849273682" lon="3.1475522518158"><ele>189</ele><time>2026-4-28T15:55:8Z</time></trkpt>
<trkpt lat="49.07287979126" lon="3.1475098133087"><ele>189</ele><time>2026-4-28T15:55:11Z</time></trkpt>
<trkpt lat="49.072906494141" lon="3.1474714279175"><ele>189</ele><time>2026-4-28T15:55:14Z</time></trkpt>
<trkpt lat="49.072948455811" lon="3.1473999023438"><ele>189</ele><time>2026-4-28T15:55:17Z</time></trkpt>
<trkpt lat="49.072948455811" lon="3.1473999023438"><ele>189</ele><time>2026-4-28T15:55:20Z</time></trkpt>
<trkpt lat="49.07299041748" lon="3.1473257541656"><ele>190</ele><time>2026-4-28T15:55:23Z</time></trkpt>
<trkpt lat="49.07299041748" lon="3.1473257541656"><ele>190</ele><time>2026-4-28T15:55:26Z</time></trkpt>
<trkpt lat="49.073043823242" lon="3.14723777771"><ele>190</ele><time>2026-4-28T15:55:29Z</time></trkpt>
<trkpt lat="49.073081970215" lon="3.1471726894379"><ele>191</ele><time>2026-4-28T15:55:32Z</time></trkpt>
<trkpt lat="49.073081970215" lon="3.1471726894379"><ele>191</ele><time>2026-4-28T15:55:35Z</time></trkpt>
<trkpt lat="49.073081970215" lon="3.1471726894379"><ele>191</ele><time>2026-4-28T15:55:38Z</time></trkpt>
<trkpt lat="49.073127746582" lon="3.147100687027"><ele>192</ele><time>2026-4-28T15:55:41Z</time></trkpt>
<trkpt lat="49.073127746582" lon="3.147100687027"><ele>192</ele><time>2026-4-28T15:55:44Z</time></trkpt>
<trkpt lat="49.073127746582" lon="3.147100687027"><ele>192</ele><time>2026-4-28T15:55:47Z</time></trkpt>
<trkpt lat="49.073184967041" lon="3.1470155715942"><ele>194</ele><time>2026-4-28T15:55:50Z</time></trkpt>
<trkpt lat="49.073184967041" lon="3.1470155715942"><ele>194</ele><time>2026-4-28T15:55:53Z</time></trkpt>
<trkpt lat="49.073234558105" lon="3.1469597816467"><ele>194</ele><time>2026-4-28T15:55:56Z</time></trkpt>
<trkpt lat="49.073234558105" lon="3.1469597816467"><ele>194</ele><time>2026-4-28T15:55:59Z</time></trkpt>
<trkpt lat="49.073234558105" lon="3.1469597816467"><ele>194</ele><time>2026-4-28T15:56:2Z</time></trkpt>
<trkpt lat="49.073287963867" lon="3.146900177002"><ele>195</ele><time>2026-4-28T15:56:5Z</time></trkpt>
<trkpt lat="49.073287963867" lon="3.146900177002"><ele>195</ele><time>2026-4-28T15:56:8Z</time></trkpt>
<trkpt lat="49.073287963867" lon="3.146900177002"><ele>195</ele><time>2026-4-28T15:56:11Z</time></trkpt>
<trkpt lat="49.073287963867" lon="3.146900177002"><ele>195</ele><time>2026-4-28T15:56:14Z</time></trkpt>
<trkpt lat="49.073287963867" lon="3.146900177002"><ele>195</ele><time>2026-4-28T15:56:17Z</time></trkpt>
<trkpt lat="49.073287963867" lon="3.146900177002"><ele>195</ele><time>2026-4-28T15:56:20Z</time></trkpt>
<trkpt lat="49.073287963867" lon="3.146900177002"><ele>195</ele><time>2026-4-28T15:56:23Z</time></trkpt>
<trkpt lat="49.073287963867" lon="3.146900177002"><ele>195</ele><time>2026-4-28T15:56:26Z</time></trkpt>
<trkpt lat="49.073287963867" lon="3.146900177002"><ele>195</ele><time>2026-4-28T15:56:29Z</time></trkpt>
<trkpt lat="49.073287963867" lon="3.146900177002"><ele>195</ele><time>2026-4-28T15:56:32Z</time></trkpt>
<trkpt lat="49.073287963867" lon="3.146900177002"><ele>195</ele><time>2026-4-28T15:56:35Z</time></trkpt>
<trkpt lat="49.07347869873" lon="3.1467266082764"><ele>197</ele><time>2026-4-28T15:56:38Z</time></trkpt>
<trkpt lat="49.07347869873" lon="3.1467266082764"><ele>197</ele><time>2026-4-28T15:56:41Z</time></trkpt>
<trkpt lat="49.073585510254" lon="3.1466264724731"><ele>197</ele><time>2026-4-28T15:56:44Z</time></trkpt>
<trkpt lat="49.073642730713" lon="3.1465625762939"><ele>197</ele><time>2026-4-28T15:56:47Z</time></trkpt>
<trkpt lat="49.073680877686" lon="3.1465084552765"><ele>197</ele><time>2026-4-28T15:56:50Z</time></trkpt>
<trkpt lat="49.073680877686" lon="3.1465084552765"><ele>197</ele><time>2026-4-28T15:56:53Z</time></trkpt>
<trkpt lat="49.073715209961" lon="3.1464619636536"><ele>198</ele><time>2026-4-28T15:56:56Z</time></trkpt>
<trkpt lat="49.073776245117" lon="3.1463859081268"><ele>198</ele><time>2026-4-28T15:56:59Z</time></trkpt>
<trkpt lat="49.073776245117" lon="3.1463859081268"><ele>198</ele><time>2026-4-28T15:57:2Z</time></trkpt>
<trkpt lat="49.073841094971" lon="3.1463301181793"><ele>198</ele><time>2026-4-28T15:57:5Z</time></trkpt>
<trkpt lat="49.073890686035" lon="3.1462371349335"><ele>198</ele><time>2026-4-28T15:57:8Z</time></trkpt>
<trkpt lat="49.073890686035" lon="3.1462371349335"><ele>198</ele><time>2026-4-28T15:57:11Z</time></trkpt>
<trkpt lat="49.073944091797" lon="3.1461443901062"><ele>198</ele><time>2026-4-28T15:57:14Z</time></trkpt>
<trkpt lat="49.073944091797" lon="3.1461443901062"><ele>198</ele><time>2026-4-28T15:57:17Z</time></trkpt>
<trkpt lat="49.073993682861" lon="3.1460607051849"><ele>198</ele><time>2026-4-28T15:57:20Z</time></trkpt>
<trkpt lat="49.074039459229" lon="3.1459829807281"><ele>198</ele><time>2026-4-28T15:57:23Z</time></trkpt>
<trkpt lat="49.074039459229" lon="3.1459829807281"><ele>198</ele><time>2026-4-28T15:57:26Z</time></trkpt>
<trkpt lat="49.074089050293" lon="3.1459038257599"><ele>198</ele><time>2026-4-28T15:57:29Z</time></trkpt>
<trkpt lat="49.074089050293" lon="3.1459038257599"><ele>198</ele><time>2026-4-28T15:57:32Z</time></trkpt>
<trkpt lat="49.074089050293" lon="3.1459038257599"><ele>198</ele><time>2026-4-28T15:57:35Z</time></trkpt>
<trkpt lat="49.074123382568" lon="3.1458346843719"><ele>198</ele><time>2026-4-28T15:57:38Z</time></trkpt>
<trkpt lat="49.074123382568" lon="3.1458346843719"><ele>198</ele><time>2026-4-28T15:57:41Z</time></trkpt>
<trkpt lat="49.074123382568" lon="3.1458346843719"><ele>198</ele><time>2026-4-28T15:57:44Z</time></trkpt>
<trkpt lat="49.074123382568" lon="3.1458346843719"><ele>198</ele><time>2026-4-28T15:57:47Z</time></trkpt>
<trkpt lat="49.07417678833" lon="3.1457433700562"><ele>198</ele><time>2026-4-28T15:57:50Z</time></trkpt>
<trkpt lat="49.07417678833" lon="3.1457433700562"><ele>198</ele><time>2026-4-28T15:57:53Z</time></trkpt>
<trkpt lat="49.074214935303" lon="3.145646572113"><ele>198</ele><time>2026-4-28T15:57:56Z</time></trkpt>
<trkpt lat="49.074214935303" lon="3.145646572113"><ele>198</ele><time>2026-4-28T15:57:59Z</time></trkpt>
<trkpt lat="49.074264526367" lon="3.145521402359"><ele>199</ele><time>2026-4-28T15:58:2Z</time></trkpt>
<trkpt lat="49.074264526367" lon="3.145521402359"><ele>199</ele><time>2026-4-28T15:58:5Z</time></trkpt>
<trkpt lat="49.074314117432" lon="3.1453716754913"><ele>199</ele><time>2026-4-28T15:58:8Z</time></trkpt>
<trkpt lat="49.074348449707" lon="3.1452758312225"><ele>199</ele><time>2026-4-28T15:58:11Z</time></trkpt>
<trkpt lat="49.074382781982" lon="3.1451916694641"><ele>199</ele><time>2026-4-28T15:58:14Z</time></trkpt>
<trkpt lat="49.074382781982" lon="3.1451916694641"><ele>199</ele><time>2026-4-28T15:58:17Z</time></trkpt>
<trkpt lat="49.074413299561" lon="3.1451115608215"><ele>199</ele><time>2026-4-28T15:58:20Z</time></trkpt>
<trkpt lat="49.074459075928" lon="3.1450257301331"><ele>199</ele><time>2026-4-28T15:58:23Z</time></trkpt>
<trkpt lat="49.074493408203" lon="3.1449401378632"><ele>199</ele><time>2026-4-28T15:58:26Z</time></trkpt>
<trkpt lat="49.074493408203" lon="3.1449401378632"><ele>199</ele><time>2026-4-28T15:58:29Z</time></trkpt>
<trkpt lat="49.07453918457" lon="3.1448216438293"><ele>198</ele><time>2026-4-28T15:58:32Z</time></trkpt>
<trkpt lat="49.074584960938" lon="3.144698381424"><ele>198</ele><time>2026-4-28T15:58:35Z</time></trkpt>
<trkpt lat="49.074645996094" lon="3.1445848941803"><ele>198</ele><time>2026-4-28T15:58:38Z</time></trkpt>
<trkpt lat="49.074645996094" lon="3.1445848941803"><ele>198</ele><time>2026-4-28T15:58:41Z</time></trkpt>
<trkpt lat="49.07470703125" lon="3.1444845199585"><ele>197</ele><time>2026-4-28T15:58:44Z</time></trkpt>
<trkpt lat="49.074768066406" lon="3.1444039344788"><ele>197</ele><time>2026-4-28T15:58:47Z</time></trkpt>
<trkpt lat="49.074829101562" lon="3.1443293094635"><ele>197</ele><time>2026-4-28T15:58:50Z</time></trkpt>
<trkpt lat="49.074890136719" lon="3.1442580223083"><ele>197</ele><time>2026-4-28T15:58:53Z</time></trkpt>
<trkpt lat="49.074939727783" lon="3.1442017555237"><ele>197</ele><time>2026-4-28T15:58:56Z</time></trkpt>
<trkpt lat="49.074996948242" lon="3.1441380977631"><ele>196</ele><time>2026-4-28T15:58:59Z</time></trkpt>
<trkpt lat="49.074996948242" lon="3.1441380977631"><ele>196</ele><time>2026-4-28T15:59:2Z</time></trkpt>
<trkpt lat="49.075042724609" lon="3.1440782546997"><ele>196</ele><time>2026-4-28T15:59:5Z</time></trkpt>
<trkpt lat="49.075099945068" lon="3.1440014839172"><ele>196</ele><time>2026-4-28T15:59:8Z</time></trkpt>
<trkpt lat="49.075149536133" lon="3.1439440250397"><ele>195</ele><time>2026-4-28T15:59:11Z</time></trkpt>
<trkpt lat="49.075149536133" lon="3.1439440250397"><ele>195</ele><time>2026-4-28T15:59:14Z</time></trkpt>
<trkpt lat="49.075199127197" lon="3.1438903808594"><ele>195</ele><time>2026-4-28T15:59:17Z</time></trkpt>
<trkpt lat="49.075199127197" lon="3.1438903808594"><ele>195</ele><time>2026-4-28T15:59:20Z</time></trkpt>
<trkpt lat="49.075263977051" lon="3.1438403129578"><ele>195</ele><time>2026-4-28T15:59:23Z</time></trkpt>
<trkpt lat="49.075263977051" lon="3.1438403129578"><ele>195</ele><time>2026-4-28T15:59:26Z</time></trkpt>
<trkpt lat="49.075263977051" lon="3.1438403129578"><ele>195</ele><time>2026-4-28T15:59:29Z</time></trkpt>
<trkpt lat="49.075325012207" lon="3.1438236236572"><ele>194</ele><time>2026-4-28T15:59:32Z</time></trkpt>
<trkpt lat="49.075325012207" lon="3.1438236236572"><ele>194</ele><time>2026-4-28T15:59:35Z</time></trkpt>
<trkpt lat="49.075325012207" lon="3.1438236236572"><ele>194</ele><time>2026-4-28T15:59:38Z</time></trkpt>
<trkpt lat="49.075325012207" lon="3.1438236236572"><ele>194</ele><time>2026-4-28T15:59:41Z</time></trkpt>
<trkpt lat="49.075325012207" lon="3.1438236236572"><ele>194</ele><time>2026-4-28T15:59:44Z</time></trkpt>
<trkpt lat="49.075325012207" lon="3.1438236236572"><ele>194</ele><time>2026-4-28T15:59:47Z</time></trkpt>
<trkpt lat="49.075325012207" lon="3.1438236236572"><ele>194</ele><time>2026-4-28T15:59:50Z</time></trkpt>
<trkpt lat="49.075325012207" lon="3.1438236236572"><ele>194</ele><time>2026-4-28T15:59:53Z</time></trkpt>
<trkpt lat="49.075325012207" lon="3.1438236236572"><ele>194</ele><time>2026-4-28T15:59:56Z</time></trkpt>
<trkpt lat="49.075325012207" lon="3.1438236236572"><ele>194</ele><time>2026-4-28T15:59:59Z</time></trkpt>
<trkpt lat="49.075325012207" lon="3.1438236236572"><ele>194</ele><time>2026-4-28T16:0:2Z</time></trkpt>
<trkpt lat="49.075325012207" lon="3.1438236236572"><ele>194</ele><time>2026-4-28T16:0:5Z</time></trkpt>
<trkpt lat="49.075325012207" lon="3.1438236236572"><ele>194</ele><time>2026-4-28T16:0:8Z</time></trkpt>
<trkpt lat="49.075325012207" lon="3.1438236236572"><ele>194</ele><time>2026-4-28T16:0:11Z</time></trkpt>
<trkpt lat="49.075325012207" lon="3.1438236236572"><ele>194</ele><time>2026-4-28T16:0:14Z</time></trkpt>
<trkpt lat="49.075325012207" lon="3.1438236236572"><ele>194</ele><time>2026-4-28T16:0:17Z</time></trkpt>
<trkpt lat="49.075325012207" lon="3.1438236236572"><ele>194</ele><time>2026-4-28T16:0:20Z</time></trkpt>
<trkpt lat="49.075325012207" lon="3.1438236236572"><ele>194</ele><time>2026-4-28T16:0:23Z</time></trkpt>
<trkpt lat="49.075325012207" lon="3.1438236236572"><ele>194</ele><time>2026-4-28T16:0:26Z</time></trkpt>
<trkpt lat="49.075325012207" lon="3.1438236236572"><ele>194</ele><time>2026-4-28T16:0:29Z</time></trkpt>
<trkpt lat="49.075325012207" lon="3.1438236236572"><ele>194</ele><time>2026-4-28T16:0:32Z</time></trkpt>
<trkpt lat="49.075325012207" lon="3.1438236236572"><ele>194</ele><time>2026-4-28T16:0:35Z</time></trkpt>
<trkpt lat="49.075325012207" lon="3.1438236236572"><ele>194</ele><time>2026-4-28T16:0:38Z</time></trkpt>
<trkpt lat="49.075325012207" lon="3.1438236236572"><ele>194</ele><time>2026-4-28T16:0:41Z</time></trkpt>
<trkpt lat="49.075325012207" lon="3.1438236236572"><ele>194</ele><time>2026-4-28T16:0:44Z</time></trkpt>
<trkpt lat="49.075325012207" lon="3.1438236236572"><ele>194</ele><time>2026-4-28T16:0:47Z</time></trkpt>
<trkpt lat="49.075325012207" lon="3.1438236236572"><ele>194</ele><time>2026-4-28T16:0:50Z</time></trkpt>
<trkpt lat="49.075325012207" lon="3.1438236236572"><ele>194</ele><time>2026-4-28T16:0:53Z</time></trkpt>
<trkpt lat="49.075325012207" lon="3.1438236236572"><ele>194</ele><time>2026-4-28T16:0:56Z</time></trkpt>
<trkpt lat="49.075325012207" lon="3.1438236236572"><ele>194</ele><time>2026-4-28T16:0:59Z</time></trkpt>
<trkpt lat="49.075325012207" lon="3.1438236236572"><ele>194</ele><time>2026-4-28T16:1:2Z</time></trkpt>
<trkpt lat="49.075325012207" lon="3.1438236236572"><ele>194</ele><time>2026-4-28T16:1:5Z</time></trkpt>
<trkpt lat="49.075325012207" lon="3.1438236236572"><ele>194</ele><time>2026-4-28T16:1:8Z</time></trkpt>
<trkpt lat="49.075325012207" lon="3.1438236236572"><ele>194</ele><time>2026-4-28T16:1:11Z</time></trkpt>
<trkpt lat="49.075325012207" lon="3.1438236236572"><ele>194</ele><time>2026-4-28T16:1:14Z</time></trkpt>
<trkpt lat="49.075325012207" lon="3.1438236236572"><ele>194</ele><time>2026-4-28T16:1:17Z</time></trkpt>
<trkpt lat="49.075325012207" lon="3.1438236236572"><ele>194</ele><time>2026-4-28T16:1:20Z</time></trkpt>
<trkpt lat="49.075325012207" lon="3.1438236236572"><ele>194</ele><time>2026-4-28T16:1:23Z</time></trkpt>
<trkpt lat="49.075325012207" lon="3.1438236236572"><ele>194</ele><time>2026-4-28T16:1:26Z</time></trkpt>
<trkpt lat="49.075325012207" lon="3.1438236236572"><ele>194</ele><time>2026-4-28T16:1:29Z</time></trkpt>
<trkpt lat="49.075325012207" lon="3.1438236236572"><ele>194</ele><time>2026-4-28T16:1:32Z</time></trkpt>
<trkpt lat="49.075325012207" lon="3.1438236236572"><ele>194</ele><time>2026-4-28T16:1:35Z</time></trkpt>
<trkpt lat="49.075325012207" lon="3.1438236236572"><ele>194</ele><time>2026-4-28T16:1:38Z</time></trkpt>
<trkpt lat="49.075325012207" lon="3.1438236236572"><ele>194</ele><time>2026-4-28T16:1:41Z</time></trkpt>
<trkpt lat="49.075325012207" lon="3.1438236236572"><ele>194</ele><time>2026-4-28T16:1:44Z</time></trkpt>
<trkpt lat="49.075325012207" lon="3.1438236236572"><ele>194</ele><time>2026-4-28T16:1:47Z</time></trkpt>
<trkpt lat="49.075325012207" lon="3.1438236236572"><ele>194</ele><time>2026-4-28T16:1:50Z</time></trkpt>
<trkpt lat="49.075325012207" lon="3.1438236236572"><ele>194</ele><time>2026-4-28T16:1:53Z</time></trkpt>
<trkpt lat="49.075325012207" lon="3.1438236236572"><ele>194</ele><time>2026-4-28T16:1:56Z</time></trkpt>
<trkpt lat="49.075325012207" lon="3.1438236236572"><ele>194</ele><time>2026-4-28T16:1:59Z</time></trkpt>
<trkpt lat="49.075325012207" lon="3.1438236236572"><ele>194</ele><time>2026-4-28T16:2:2Z</time></trkpt>
<trkpt lat="49.075325012207" lon="3.1438236236572"><ele>194</ele><time>2026-4-28T16:2:5Z</time></trkpt>
<trkpt lat="49.075325012207" lon="3.1438236236572"><ele>194</ele><time>2026-4-28T16:2:8Z</time></trkpt>
<trkpt lat="49.075325012207" lon="3.1438236236572"><ele>194</ele><time>2026-4-28T16:2:11Z</time></trkpt>
<trkpt lat="49.075325012207" lon="3.1438236236572"><ele>194</ele><time>2026-4-28T16:2:14Z</time></trkpt>
<trkpt lat="49.075325012207" lon="3.1438236236572"><ele>194</ele><time>2026-4-28T16:2:17Z</time></trkpt>
<trkpt lat="49.075325012207" lon="3.1438236236572"><ele>194</ele><time>2026-4-28T16:2:20Z</time></trkpt>
<trkpt lat="49.075325012207" lon="3.1438236236572"><ele>194</ele><time>2026-4-28T16:2:23Z</time></trkpt>
<trkpt lat="49.075325012207" lon="3.1438236236572"><ele>194</ele><time>2026-4-28T16:2:26Z</time></trkpt>
<trkpt lat="49.075325012207" lon="3.1438236236572"><ele>194</ele><time>2026-4-28T16:2:29Z</time></trkpt>
<trkpt lat="49.075325012207" lon="3.1438236236572"><ele>194</ele><time>2026-4-28T16:2:32Z</time></trkpt>
<trkpt lat="49.075325012207" lon="3.1438236236572"><ele>194</ele><time>2026-4-28T16:2:35Z</time></trkpt>
<trkpt lat="49.075325012207" lon="3.1438236236572"><ele>194</ele><time>2026-4-28T16:2:38Z</time></trkpt>
<trkpt lat="49.075325012207" lon="3.1438236236572"><ele>194</ele><time>2026-4-28T16:2:41Z</time></trkpt>
<trkpt lat="49.075325012207" lon="3.1438236236572"><ele>194</ele><time>2026-4-28T16:2:44Z</time></trkpt>
<trkpt lat="49.075325012207" lon="3.1438236236572"><ele>194</ele><time>2026-4-28T16:2:47Z</time></trkpt>
<trkpt lat="49.075325012207" lon="3.1438236236572"><ele>194</ele><time>2026-4-28T16:2:50Z</time></trkpt>
<trkpt lat="49.075325012207" lon="3.1438236236572"><ele>194</ele><time>2026-4-28T16:2:53Z</time></trkpt>
<trkpt lat="49.075325012207" lon="3.1438236236572"><ele>194</ele><time>2026-4-28T16:2:56Z</time></trkpt>
<trkpt lat="49.075325012207" lon="3.1438236236572"><ele>194</ele><time>2026-4-28T16:2:59Z</time></trkpt>
<trkpt lat="49.075325012207" lon="3.1438236236572"><ele>194</ele><time>2026-4-28T16:3:2Z</time></trkpt>
<trkpt lat="49.075325012207" lon="3.1438236236572"><ele>194</ele><time>2026-4-28T16:3:5Z</time></trkpt>
<trkpt lat="49.075325012207" lon="3.1438236236572"><ele>194</ele><time>2026-4-28T16:3:8Z</time></trkpt>
<trkpt lat="49.075325012207" lon="3.1438236236572"><ele>194</ele><time>2026-4-28T16:3:11Z</time></trkpt>
<trkpt lat="49.075325012207" lon="3.1438236236572"><ele>194</ele><time>2026-4-28T16:3:14Z</time></trkpt>
<trkpt lat="49.0751953125" lon="3.143949508667"><ele>191</ele><time>2026-4-28T16:3:17Z</time></trkpt>
<trkpt lat="49.0751953125" lon="3.143949508667"><ele>191</ele><time>2026-4-28T16:3:20Z</time></trkpt>
<trkpt lat="49.075103759766" lon="3.1440422534943"><ele>191</ele><time>2026-4-28T16:3:23Z</time></trkpt>
<trkpt lat="49.075035095215" lon="3.1441216468811"><ele>191</ele><time>2026-4-28T16:3:26Z</time></trkpt>
<trkpt lat="49.074977874756" lon="3.1441903114319"><ele>191</ele><time>2026-4-28T16:3:29Z</time></trkpt>
<trkpt lat="49.074977874756" lon="3.1441903114319"><ele>191</ele><time>2026-4-28T16:3:32Z</time></trkpt>
<trkpt lat="49.074928283691" lon="3.144248008728"><ele>191</ele><time>2026-4-28T16:3:35Z</time></trkpt>
<trkpt lat="49.074848175049" lon="3.1443567276001"><ele>191</ele><time>2026-4-28T16:3:38Z</time></trkpt>
<trkpt lat="49.074848175049" lon="3.1443567276001"><ele>191</ele><time>2026-4-28T16:3:41Z</time></trkpt>
<trkpt lat="49.074848175049" lon="3.1443567276001"><ele>191</ele><time>2026-4-28T16:3:44Z</time></trkpt>
<trkpt lat="49.074771881104" lon="3.1444456577301"><ele>191</ele><time>2026-4-28T16:3:47Z</time></trkpt>
<trkpt lat="49.074771881104" lon="3.1444456577301"><ele>191</ele><time>2026-4-28T16:3:50Z</time></trkpt>
<trkpt lat="49.07470703125" lon="3.1445398330688"><ele>191</ele><time>2026-4-28T16:3:53Z</time></trkpt>
<trkpt lat="49.07470703125" lon="3.1445398330688"><ele>191</ele><time>2026-4-28T16:3:56Z</time></trkpt>
<trkpt lat="49.07470703125" lon="3.1445398330688"><ele>191</ele><time>2026-4-28T16:3:59Z</time></trkpt>
<trkpt lat="49.074649810791" lon="3.1446371078491"><ele>190</ele><time>2026-4-28T16:4:2Z</time></trkpt>
<trkpt lat="49.074649810791" lon="3.1446371078491"><ele>190</ele><time>2026-4-28T16:4:5Z</time></trkpt>
<trkpt lat="49.074649810791" lon="3.1446371078491"><ele>190</ele><time>2026-4-28T16:4:8Z</time></trkpt>
<trkpt lat="49.074649810791" lon="3.1446371078491"><ele>190</ele><time>2026-4-28T16:4:11Z</time></trkpt>
<trkpt lat="49.074596405029" lon="3.1447372436523"><ele>190</ele><time>2026-4-28T16:4:14Z</time></trkpt>
<trkpt lat="49.074596405029" lon="3.1447372436523"><ele>190</ele><time>2026-4-28T16:4:17Z</time></trkpt>
<trkpt lat="49.074596405029" lon="3.1447372436523"><ele>190</ele><time>2026-4-28T16:4:20Z</time></trkpt>
<trkpt lat="49.074596405029" lon="3.1447372436523"><ele>190</ele><time>2026-4-28T16:4:23Z</time></trkpt>
<trkpt lat="49.074596405029" lon="3.1447372436523"><ele>190</ele><time>2026-4-28T16:4:26Z</time></trkpt>
<trkpt lat="49.074596405029" lon="3.1447372436523"><ele>190</ele><time>2026-4-28T16:4:29Z</time></trkpt>
<trkpt lat="49.074596405029" lon="3.1447372436523"><ele>190</ele><time>2026-4-28T16:4:32Z</time></trkpt>
<trkpt lat="49.074596405029" lon="3.1447372436523"><ele>190</ele><time>2026-4-28T16:4:35Z</time></trkpt>
<trkpt lat="49.074680328369" lon="3.1448431015015"><ele>191</ele><time>2026-4-28T16:4:38Z</time></trkpt>
<trkpt lat="49.074680328369" lon="3.1448431015015"><ele>191</ele><time>2026-4-28T16:4:41Z</time></trkpt>
<trkpt lat="49.074680328369" lon="3.1448431015015"><ele>191</ele><time>2026-4-28T16:4:44Z</time></trkpt>
<trkpt lat="49.074680328369" lon="3.1448431015015"><ele>191</ele><time>2026-4-28T16:4:47Z</time></trkpt>
<trkpt lat="49.074680328369" lon="3.1448431015015"><ele>191</ele><time>2026-4-28T16:4:50Z</time></trkpt>
<trkpt lat="49.074680328369" lon="3.1448431015015"><ele>191</ele><time>2026-4-28T16:4:53Z</time></trkpt>
<trkpt lat="49.074680328369" lon="3.1448431015015"><ele>191</ele><time>2026-4-28T16:4:56Z</time></trkpt>
<trkpt lat="49.074680328369" lon="3.1448431015015"><ele>191</ele><time>2026-4-28T16:4:59Z</time></trkpt>
<trkpt lat="49.074680328369" lon="3.1448431015015"><ele>191</ele><time>2026-4-28T16:5:2Z</time></trkpt>
<trkpt lat="49.074680328369" lon="3.1448431015015"><ele>191</ele><time>2026-4-28T16:5:5Z</time></trkpt>
<trkpt lat="49.074745178223" lon="3.1449258327484"><ele>191</ele><time>2026-4-28T16:5:8Z</time></trkpt>
<trkpt lat="49.074794769287" lon="3.1449937820435"><ele>191</ele><time>2026-4-28T16:5:11Z</time></trkpt>
<trkpt lat="49.074794769287" lon="3.1449937820435"><ele>191</ele><time>2026-4-28T16:5:14Z</time></trkpt>
<trkpt lat="49.074840545654" lon="3.1450574398041"><ele>191</ele><time>2026-4-28T16:5:17Z</time></trkpt>
<trkpt lat="49.074886322021" lon="3.1451320648193"><ele>190</ele><time>2026-4-28T16:5:20Z</time></trkpt>
<trkpt lat="49.074932098389" lon="3.1452281475067"><ele>190</ele><time>2026-4-28T16:5:23Z</time></trkpt>
<trkpt lat="49.074932098389" lon="3.1452281475067"><ele>190</ele><time>2026-4-28T16:5:26Z</time></trkpt>
<trkpt lat="49.075019836426" lon="3.1454217433929"><ele>189</ele><time>2026-4-28T16:5:29Z</time></trkpt>
<trkpt lat="49.075054168701" lon="3.1455261707306"><ele>189</ele><time>2026-4-28T16:5:32Z</time></trkpt>
<trkpt lat="49.075054168701" lon="3.1455261707306"><ele>189</ele><time>2026-4-28T16:5:35Z</time></trkpt>
<trkpt lat="49.075054168701" lon="3.1455261707306"><ele>189</ele><time>2026-4-28T16:5:38Z</time></trkpt>
<trkpt lat="49.075054168701" lon="3.1455261707306"><ele>189</ele><time>2026-4-28T16:5:41Z</time></trkpt>
<trkpt lat="49.075054168701" lon="3.1455261707306"><ele>189</ele><time>2026-4-28T16:5:44Z</time></trkpt>
<trkpt lat="49.075054168701" lon="3.1455261707306"><ele>189</ele><time>2026-4-28T16:5:47Z</time></trkpt>
<trkpt lat="49.075054168701" lon="3.1455261707306"><ele>189</ele><time>2026-4-28T16:5:50Z</time></trkpt>
<trkpt lat="49.075054168701" lon="3.1455261707306"><ele>189</ele><time>2026-4-28T16:5:53Z</time></trkpt>
<trkpt lat="49.075054168701" lon="3.1455261707306"><ele>189</ele><time>2026-4-28T16:5:56Z</time></trkpt>
<trkpt lat="49.075054168701" lon="3.1455261707306"><ele>189</ele><time>2026-4-28T16:5:59Z</time></trkpt>
<trkpt lat="49.075172424316" lon="3.145872592926"><ele>186</ele><time>2026-4-28T16:6:2Z</time></trkpt>
<trkpt lat="49.075214385986" lon="3.1460018157959"><ele>186</ele><time>2026-4-28T16:6:5Z</time></trkpt>
<trkpt lat="49.075260162354" lon="3.1461594104767"><ele>186</ele><time>2026-4-28T16:6:8Z</time></trkpt>
<trkpt lat="49.075294494629" lon="3.1462643146515"><ele>185</ele><time>2026-4-28T16:6:11Z</time></trkpt>
<trkpt lat="49.075366973877" lon="3.1463994979858"><ele>185</ele><time>2026-4-28T16:6:14Z</time></trkpt>
<trkpt lat="49.075416564941" lon="3.1464912891388"><ele>185</ele><time>2026-4-28T16:6:17Z</time></trkpt>
<trkpt lat="49.075485229492" lon="3.146547794342"><ele>184</ele><time>2026-4-28T16:6:20Z</time></trkpt>
<trkpt lat="49.075485229492" lon="3.146547794342"><ele>184</ele><time>2026-4-28T16:6:23Z</time></trkpt>
<trkpt lat="49.075546264648" lon="3.1466035842896"><ele>184</ele><time>2026-4-28T16:6:26Z</time></trkpt>
<trkpt lat="49.075546264648" lon="3.1466035842896"><ele>184</ele><time>2026-4-28T16:6:29Z</time></trkpt>
<trkpt lat="49.075607299805" lon="3.1466455459595"><ele>183</ele><time>2026-4-28T16:6:32Z</time></trkpt>
<trkpt lat="49.075607299805" lon="3.1466455459595"><ele>183</ele><time>2026-4-28T16:6:35Z</time></trkpt>
<trkpt lat="49.075668334961" lon="3.146689414978"><ele>183</ele><time>2026-4-28T16:6:38Z</time></trkpt>
<trkpt lat="49.075668334961" lon="3.146689414978"><ele>183</ele><time>2026-4-28T16:6:41Z</time></trkpt>
<trkpt lat="49.075729370117" lon="3.1468274593353"><ele>182</ele><time>2026-4-28T16:6:44Z</time></trkpt>
<trkpt lat="49.075759887695" lon="3.1469054222107"><ele>182</ele><time>2026-4-28T16:6:47Z</time></trkpt>
<trkpt lat="49.075759887695" lon="3.1469054222107"><ele>182</ele><time>2026-4-28T16:6:50Z</time></trkpt>
<trkpt lat="49.07580947876" lon="3.1470205783844"><ele>181</ele><time>2026-4-28T16:6:53Z</time></trkpt>
<trkpt lat="49.07580947876" lon="3.1470205783844"><ele>181</ele><time>2026-4-28T16:6:56Z</time></trkpt>
<trkpt lat="49.075878143311" lon="3.1471829414368"><ele>179</ele><time>2026-4-28T16:6:59Z</time></trkpt>
<trkpt lat="49.075946807861" lon="3.1472909450531"><ele>178</ele><time>2026-4-28T16:7:2Z</time></trkpt>
<trkpt lat="49.076011657715" lon="3.1474266052246"><ele>177</ele><time>2026-4-28T16:7:5Z</time></trkpt>
<trkpt lat="49.076011657715" lon="3.1474266052246"><ele>177</ele><time>2026-4-28T16:7:8Z</time></trkpt>
<trkpt lat="49.076042175293" lon="3.1475462913513"><ele>176</ele><time>2026-4-28T16:7:11Z</time></trkpt>
<trkpt lat="49.076042175293" lon="3.1475462913513"><ele>176</ele><time>2026-4-28T16:7:14Z</time></trkpt>
<trkpt lat="49.076042175293" lon="3.1475462913513"><ele>176</ele><time>2026-4-28T16:7:17Z</time></trkpt>
<trkpt lat="49.076042175293" lon="3.1475462913513"><ele>176</ele><time>2026-4-28T16:7:20Z</time></trkpt>
<trkpt lat="49.076042175293" lon="3.1475462913513"><ele>176</ele><time>2026-4-28T16:7:23Z</time></trkpt>
<trkpt lat="49.076042175293" lon="3.1475462913513"><ele>176</ele><time>2026-4-28T16:7:26Z</time></trkpt>
<trkpt lat="49.076042175293" lon="3.1475462913513"><ele>176</ele><time>2026-4-28T16:7:29Z</time></trkpt>
<trkpt lat="49.076118469238" lon="3.1477329730988"><ele>173</ele><time>2026-4-28T16:7:32Z</time></trkpt>
<trkpt lat="49.076164245605" lon="3.1478621959686"><ele>173</ele><time>2026-4-28T16:7:35Z</time></trkpt>
<trkpt lat="49.076190948486" lon="3.1479518413544"><ele>172</ele><time>2026-4-28T16:7:38Z</time></trkpt>
<trkpt lat="49.076217651367" lon="3.1480283737183"><ele>172</ele><time>2026-4-28T16:7:41Z</time></trkpt>
<trkpt lat="49.076244354248" lon="3.1480984687805"><ele>172</ele><time>2026-4-28T16:7:44Z</time></trkpt>
<trkpt lat="49.076286315918" lon="3.1482336521149"><ele>171</ele><time>2026-4-28T16:7:47Z</time></trkpt>
<trkpt lat="49.076286315918" lon="3.148321390152"><ele>171</ele><time>2026-4-28T16:7:50Z</time></trkpt>
<trkpt lat="49.076286315918" lon="3.148321390152"><ele>171</ele><time>2026-4-28T16:7:53Z</time></trkpt>
<trkpt lat="49.076286315918" lon="3.148321390152"><ele>171</ele><time>2026-4-28T16:7:56Z</time></trkpt>
<trkpt lat="49.076286315918" lon="3.148321390152"><ele>171</ele><time>2026-4-28T16:7:59Z</time></trkpt>
<trkpt lat="49.076286315918" lon="3.148321390152"><ele>171</ele><time>2026-4-28T16:8:2Z</time></trkpt>
<trkpt lat="49.076286315918" lon="3.148321390152"><ele>171</ele><time>2026-4-28T16:8:5Z</time></trkpt>
<trkpt lat="49.076286315918" lon="3.148321390152"><ele>171</ele><time>2026-4-28T16:8:8Z</time></trkpt>
<trkpt lat="49.076286315918" lon="3.148321390152"><ele>171</ele><time>2026-4-28T16:8:11Z</time></trkpt>
<trkpt lat="49.076286315918" lon="3.148321390152"><ele>171</ele><time>2026-4-28T16:8:14Z</time></trkpt>
<trkpt lat="49.076286315918" lon="3.148321390152"><ele>171</ele><time>2026-4-28T16:8:17Z</time></trkpt>
<trkpt lat="49.076286315918" lon="3.148321390152"><ele>171</ele><time>2026-4-28T16:8:20Z</time></trkpt>
<trkpt lat="49.076416015625" lon="3.1486477851868"><ele>171</ele><time>2026-4-28T16:8:23Z</time></trkpt>
<trkpt lat="49.076446533203" lon="3.1487462520599"><ele>171</ele><time>2026-4-28T16:8:26Z</time></trkpt>
<trkpt lat="49.07649230957" lon="3.1488626003265"><ele>171</ele><time>2026-4-28T16:8:29Z</time></trkpt>
<trkpt lat="49.07649230957" lon="3.1488626003265"><ele>171</ele><time>2026-4-28T16:8:32Z</time></trkpt>
<trkpt lat="49.07653427124" lon="3.1489429473877"><ele>171</ele><time>2026-4-28T16:8:35Z</time></trkpt>
<trkpt lat="49.076583862305" lon="3.1490170955658"><ele>171</ele><time>2026-4-28T16:8:38Z</time></trkpt>
<trkpt lat="49.076625823975" lon="3.1491124629974"><ele>171</ele><time>2026-4-28T16:8:41Z</time></trkpt>
<trkpt lat="49.076625823975" lon="3.1491124629974"><ele>171</ele><time>2026-4-28T16:8:44Z</time></trkpt>
<trkpt lat="49.076663970947" lon="3.1492025852203"><ele>170</ele><time>2026-4-28T16:8:47Z</time></trkpt>
<trkpt lat="49.076694488525" lon="3.1492912769318"><ele>170</ele><time>2026-4-28T16:8:50Z</time></trkpt>
<trkpt lat="49.076694488525" lon="3.1492912769318"><ele>170</ele><time>2026-4-28T16:8:53Z</time></trkpt>
<trkpt lat="49.076759338379" lon="3.1494994163513"><ele>170</ele><time>2026-4-28T16:8:56Z</time></trkpt>
<trkpt lat="49.076793670654" lon="3.1495978832245"><ele>170</ele><time>2026-4-28T16:8:59Z</time></trkpt>
<trkpt lat="49.07682800293" lon="3.1496906280518"><ele>170</ele><time>2026-4-28T16:9:2Z</time></trkpt>
<trkpt lat="49.07682800293" lon="3.1496906280518"><ele>170</ele><time>2026-4-28T16:9:5Z</time></trkpt>
<trkpt lat="49.076866149902" lon="3.1497988700867"><ele>170</ele><time>2026-4-28T16:9:8Z</time></trkpt>
<trkpt lat="49.07689666748" lon="3.1499061584473"><ele>170</ele><time>2026-4-28T16:9:11Z</time></trkpt>
<trkpt lat="49.07689666748" lon="3.1499061584473"><ele>170</ele><time>2026-4-28T16:9:14Z</time></trkpt>
<trkpt lat="49.076942443848" lon="3.1500344276428"><ele>170</ele><time>2026-4-28T16:9:17Z</time></trkpt>
<trkpt lat="49.076942443848" lon="3.1500344276428"><ele>170</ele><time>2026-4-28T16:9:20Z</time></trkpt>
<trkpt lat="49.07702255249" lon="3.1501636505127"><ele>169</ele><time>2026-4-28T16:9:23Z</time></trkpt>
<trkpt lat="49.07702255249" lon="3.1501636505127"><ele>169</ele><time>2026-4-28T16:9:26Z</time></trkpt>
<trkpt lat="49.07702255249" lon="3.1501636505127"><ele>169</ele><time>2026-4-28T16:9:29Z</time></trkpt>
<trkpt lat="49.077072143555" lon="3.1503026485443"><ele>169</ele><time>2026-4-28T16:9:32Z</time></trkpt>
<trkpt lat="49.077072143555" lon="3.1503026485443"><ele>169</ele><time>2026-4-28T16:9:35Z</time></trkpt>
<trkpt lat="49.077072143555" lon="3.1503026485443"><ele>169</ele><time>2026-4-28T16:9:38Z</time></trkpt>
<trkpt lat="49.077072143555" lon="3.1503026485443"><ele>169</ele><time>2026-4-28T16:9:41Z</time></trkpt>
<trkpt lat="49.077091217041" lon="3.1503682136536"><ele>169</ele><time>2026-4-28T16:9:44Z</time></trkpt>
<trkpt lat="49.077091217041" lon="3.1503682136536"><ele>169</ele><time>2026-4-28T16:9:47Z</time></trkpt>
<trkpt lat="49.077091217041" lon="3.1503682136536"><ele>169</ele><time>2026-4-28T16:9:50Z</time></trkpt>
<trkpt lat="49.077091217041" lon="3.1503682136536"><ele>169</ele><time>2026-4-28T16:9:53Z</time></trkpt>
<trkpt lat="49.077091217041" lon="3.1503682136536"><ele>169</ele><time>2026-4-28T16:9:56Z</time></trkpt>
<trkpt lat="49.077091217041" lon="3.1503682136536"><ele>169</ele><time>2026-4-28T16:9:59Z</time></trkpt>
<trkpt lat="49.077091217041" lon="3.1503682136536"><ele>169</ele><time>2026-4-28T16:10:2Z</time></trkpt>
<trkpt lat="49.077091217041" lon="3.1503682136536"><ele>169</ele><time>2026-4-28T16:10:5Z</time></trkpt>
<trkpt lat="49.077091217041" lon="3.1503682136536"><ele>169</ele><time>2026-4-28T16:10:8Z</time></trkpt>
<trkpt lat="49.077091217041" lon="3.1503682136536"><ele>169</ele><time>2026-4-28T16:10:11Z</time></trkpt>
<trkpt lat="49.077091217041" lon="3.1503682136536"><ele>169</ele><time>2026-4-28T16:10:14Z</time></trkpt>
<trkpt lat="49.077194213867" lon="3.1505818367004"><ele>168</ele><time>2026-4-28T16:10:17Z</time></trkpt>
<trkpt lat="49.077255249023" lon="3.1507263183594"><ele>168</ele><time>2026-4-28T16:10:20Z</time></trkpt>
<trkpt lat="49.077297210693" lon="3.1508362293243"><ele>168</ele><time>2026-4-28T16:10:23Z</time></trkpt>
<trkpt lat="49.077297210693" lon="3.1508362293243"><ele>168</ele><time>2026-4-28T16:10:26Z</time></trkpt>
<trkpt lat="49.077331542969" lon="3.1509306430817"><ele>168</ele><time>2026-4-28T16:10:29Z</time></trkpt>
<trkpt lat="49.077365875244" lon="3.1510305404663"><ele>168</ele><time>2026-4-28T16:10:32Z</time></trkpt>
<trkpt lat="49.077449798584" lon="3.1512539386749"><ele>167</ele><time>2026-4-28T16:10:35Z</time></trkpt>
<trkpt lat="49.077449798584" lon="3.1512539386749"><ele>167</ele><time>2026-4-28T16:10:38Z</time></trkpt>
<trkpt lat="49.077491760254" lon="3.151358127594"><ele>167</ele><time>2026-4-28T16:10:41Z</time></trkpt>
<trkpt lat="49.077568054199" lon="3.1515200138092"><ele>167</ele><time>2026-4-28T16:10:44Z</time></trkpt>
<trkpt lat="49.077568054199" lon="3.1515200138092"><ele>167</ele><time>2026-4-28T16:10:47Z</time></trkpt>
<trkpt lat="49.077629089355" lon="3.1516590118408"><ele>167</ele><time>2026-4-28T16:10:50Z</time></trkpt>
<trkpt lat="49.077629089355" lon="3.1516590118408"><ele>167</ele><time>2026-4-28T16:10:53Z</time></trkpt>
<trkpt lat="49.077682495117" lon="3.1518232822418"><ele>166</ele><time>2026-4-28T16:10:56Z</time></trkpt>
<trkpt lat="49.077709197998" lon="3.1519093513489"><ele>166</ele><time>2026-4-28T16:10:59Z</time></trkpt>
<trkpt lat="49.077739715576" lon="3.1519963741302"><ele>166</ele><time>2026-4-28T16:11:2Z</time></trkpt>
<trkpt lat="49.077739715576" lon="3.1519963741302"><ele>166</ele><time>2026-4-28T16:11:5Z</time></trkpt>
<trkpt lat="49.077766418457" lon="3.1520805358887"><ele>166</ele><time>2026-4-28T16:11:8Z</time></trkpt>
<trkpt lat="49.077823638916" lon="3.152202129364"><ele>166</ele><time>2026-4-28T16:11:11Z</time></trkpt>
<trkpt lat="49.077823638916" lon="3.152202129364"><ele>166</ele><time>2026-4-28T16:11:14Z</time></trkpt>
<trkpt lat="49.077823638916" lon="3.152202129364"><ele>166</ele><time>2026-4-28T16:11:17Z</time></trkpt>
<trkpt lat="49.077892303467" lon="3.1523396968842"><ele>165</ele><time>2026-4-28T16:11:20Z</time></trkpt>
<trkpt lat="49.077892303467" lon="3.1523396968842"><ele>165</ele><time>2026-4-28T16:11:23Z</time></trkpt>
<trkpt lat="49.077892303467" lon="3.1523396968842"><ele>165</ele><time>2026-4-28T16:11:26Z</time></trkpt>
<trkpt lat="49.077941894531" lon="3.152468919754"><ele>165</ele><time>2026-4-28T16:11:29Z</time></trkpt>
<trkpt lat="49.077941894531" lon="3.152468919754"><ele>165</ele><time>2026-4-28T16:11:32Z</time></trkpt>
<trkpt lat="49.077980041504" lon="3.1525692939758"><ele>165</ele><time>2026-4-28T16:11:35Z</time></trkpt>
<trkpt lat="49.077980041504" lon="3.1525692939758"><ele>165</ele><time>2026-4-28T16:11:38Z</time></trkpt>
<trkpt lat="49.077980041504" lon="3.1525692939758"><ele>165</ele><time>2026-4-28T16:11:41Z</time></trkpt>
<trkpt lat="49.077980041504" lon="3.1525692939758"><ele>165</ele><time>2026-4-28T16:11:44Z</time></trkpt>
<trkpt lat="49.077980041504" lon="3.1525692939758"><ele>165</ele><time>2026-4-28T16:11:47Z</time></trkpt>
<trkpt lat="49.077980041504" lon="3.1525692939758"><ele>165</ele><time>2026-4-28T16:11:50Z</time></trkpt>
<trkpt lat="49.077980041504" lon="3.1525692939758"><ele>165</ele><time>2026-4-28T16:11:53Z</time></trkpt>
<trkpt lat="49.077980041504" lon="3.1525692939758"><ele>165</ele><time>2026-4-28T16:11:56Z</time></trkpt>
<trkpt lat="49.077980041504" lon="3.1525692939758"><ele>165</ele><time>2026-4-28T16:11:59Z</time></trkpt>
<trkpt lat="49.078144073486" lon="3.1528253555298"><ele>164</ele><time>2026-4-28T16:12:2Z</time></trkpt>
<trkpt lat="49.078144073486" lon="3.1528253555298"><ele>164</ele><time>2026-4-28T16:12:5Z</time></trkpt>
<trkpt lat="49.078197479248" lon="3.152934551239"><ele>164</ele><time>2026-4-28T16:12:8Z</time></trkpt>
<trkpt lat="49.078197479248" lon="3.152934551239"><ele>164</ele><time>2026-4-28T16:12:11Z</time></trkpt>
<trkpt lat="49.078235626221" lon="3.1530623435974"><ele>164</ele><time>2026-4-28T16:12:14Z</time></trkpt>
<trkpt lat="49.078235626221" lon="3.1530623435974"><ele>164</ele><time>2026-4-28T16:12:17Z</time></trkpt>
<trkpt lat="49.078289031982" lon="3.1532144546509"><ele>165</ele><time>2026-4-28T16:12:20Z</time></trkpt>
<trkpt lat="49.078289031982" lon="3.1532144546509"><ele>165</ele><time>2026-4-28T16:12:23Z</time></trkpt>
<trkpt lat="49.078323364258" lon="3.1532905101776"><ele>165</ele><time>2026-4-28T16:12:26Z</time></trkpt>
<trkpt lat="49.078365325928" lon="3.1533625125885"><ele>164</ele><time>2026-4-28T16:12:29Z</time></trkpt>
<trkpt lat="49.0784034729" lon="3.1534414291382"><ele>164</ele><time>2026-4-28T16:12:32Z</time></trkpt>
<trkpt lat="49.0784034729" lon="3.1534414291382"><ele>164</ele><time>2026-4-28T16:12:35Z</time></trkpt>
<trkpt lat="49.078433990479" lon="3.1535184383392"><ele>164</ele><time>2026-4-28T16:12:38Z</time></trkpt>
<trkpt lat="49.078460693359" lon="3.1536023616791"><ele>164</ele><time>2026-4-28T16:12:41Z</time></trkpt>
<trkpt lat="49.078460693359" lon="3.1536023616791"><ele>164</ele><time>2026-4-28T16:12:44Z</time></trkpt>
<trkpt lat="49.078517913818" lon="3.1537373065948"><ele>164</ele><time>2026-4-28T16:12:47Z</time></trkpt>
<trkpt lat="49.078590393066" lon="3.1538598537445"><ele>164</ele><time>2026-4-28T16:12:50Z</time></trkpt>
<trkpt lat="49.078590393066" lon="3.1538598537445"><ele>164</ele><time>2026-4-28T16:12:53Z</time></trkpt>
<trkpt lat="49.078590393066" lon="3.1538598537445"><ele>164</ele><time>2026-4-28T16:12:56Z</time></trkpt>
<trkpt lat="49.078639984131" lon="3.1539866924286"><ele>165</ele><time>2026-4-28T16:12:59Z</time></trkpt>
<trkpt lat="49.078639984131" lon="3.1539866924286"><ele>165</ele><time>2026-4-28T16:13:2Z</time></trkpt>
<trkpt lat="49.078639984131" lon="3.1539866924286"><ele>165</ele><time>2026-4-28T16:13:5Z</time></trkpt>
<trkpt lat="49.078681945801" lon="3.1541152000427"><ele>165</ele><time>2026-4-28T16:13:8Z</time></trkpt>
<trkpt lat="49.078681945801" lon="3.1541152000427"><ele>165</ele><time>2026-4-28T16:13:11Z</time></trkpt>
<trkpt lat="49.078704833984" lon="3.154219865799"><ele>165</ele><time>2026-4-28T16:13:14Z</time></trkpt>
<trkpt lat="49.078704833984" lon="3.154219865799"><ele>165</ele><time>2026-4-28T16:13:17Z</time></trkpt>
<trkpt lat="49.078704833984" lon="3.154219865799"><ele>165</ele><time>2026-4-28T16:13:20Z</time></trkpt>
<trkpt lat="49.078704833984" lon="3.154219865799"><ele>165</ele><time>2026-4-28T16:13:23Z</time></trkpt>
<trkpt lat="49.078704833984" lon="3.154219865799"><ele>165</ele><time>2026-4-28T16:13:26Z</time></trkpt>
<trkpt lat="49.078704833984" lon="3.154219865799"><ele>165</ele><time>2026-4-28T16:13:29Z</time></trkpt>
<trkpt lat="49.078704833984" lon="3.154219865799"><ele>165</ele><time>2026-4-28T16:13:32Z</time></trkpt>
<trkpt lat="49.078704833984" lon="3.154219865799"><ele>165</ele><time>2026-4-28T16:13:35Z</time></trkpt>
<trkpt lat="49.078800201416" lon="3.154452085495"><ele>165</ele><time>2026-4-28T16:13:38Z</time></trkpt>
<trkpt lat="49.078861236572" lon="3.1546034812927"><ele>164</ele><time>2026-4-28T16:13:41Z</time></trkpt>
<trkpt lat="49.078861236572" lon="3.1546034812927"><ele>164</ele><time>2026-4-28T16:13:44Z</time></trkpt>
<trkpt lat="49.078903198242" lon="3.1547071933746"><ele>164</ele><time>2026-4-28T16:13:47Z</time></trkpt>
<trkpt lat="49.07893371582" lon="3.1547825336456"><ele>164</ele><time>2026-4-28T16:13:50Z</time></trkpt>
<trkpt lat="49.078952789307" lon="3.1548421382904"><ele>164</ele><time>2026-4-28T16:13:53Z</time></trkpt>
<trkpt lat="49.078983306885" lon="3.1549525260925"><ele>164</ele><time>2026-4-28T16:13:56Z</time></trkpt>
<trkpt lat="49.079021453857" lon="3.1550674438477"><ele>164</ele><time>2026-4-28T16:13:59Z</time></trkpt>
<trkpt lat="49.079063415527" lon="3.1551833152771"><ele>163</ele><time>2026-4-28T16:14:2Z</time></trkpt>
<trkpt lat="49.079063415527" lon="3.1551833152771"><ele>163</ele><time>2026-4-28T16:14:5Z</time></trkpt>
<trkpt lat="49.079116821289" lon="3.1553115844727"><ele>163</ele><time>2026-4-28T16:14:8Z</time></trkpt>
<trkpt lat="49.079162597656" lon="3.1554374694824"><ele>163</ele><time>2026-4-28T16:14:11Z</time></trkpt>
<trkpt lat="49.079208374023" lon="3.1555500030518"><ele>163</ele><time>2026-4-28T16:14:14Z</time></trkpt>
<trkpt lat="49.079208374023" lon="3.1555500030518"><ele>163</ele><time>2026-4-28T16:14:17Z</time></trkpt>
<trkpt lat="49.079261779785" lon="3.1556763648987"><ele>163</ele><time>2026-4-28T16:14:20Z</time></trkpt>
<trkpt lat="49.079322814941" lon="3.1558010578156"><ele>163</ele><time>2026-4-28T16:14:23Z</time></trkpt>
<trkpt lat="49.079357147217" lon="3.1558725833893"><ele>163</ele><time>2026-4-28T16:14:26Z</time></trkpt>
<trkpt lat="49.079383850098" lon="3.1559567451477"><ele>163</ele><time>2026-4-28T16:14:29Z</time></trkpt>
<trkpt lat="49.079383850098" lon="3.1559567451477"><ele>163</ele><time>2026-4-28T16:14:32Z</time></trkpt>
<trkpt lat="49.079433441162" lon="3.1561143398285"><ele>163</ele><time>2026-4-28T16:14:35Z</time></trkpt>
<trkpt lat="49.079490661621" lon="3.1562473773956"><ele>162</ele><time>2026-4-28T16:14:38Z</time></trkpt>
<trkpt lat="49.079536437988" lon="3.1563458442688"><ele>162</ele><time>2026-4-28T16:14:41Z</time></trkpt>
<trkpt lat="49.079536437988" lon="3.1563458442688"><ele>162</ele><time>2026-4-28T16:14:44Z</time></trkpt>
<trkpt lat="49.079586029053" lon="3.1564989089966"><ele>162</ele><time>2026-4-28T16:14:47Z</time></trkpt>
<trkpt lat="49.079639434814" lon="3.1566531658173"><ele>162</ele><time>2026-4-28T16:14:50Z</time></trkpt>
<trkpt lat="49.07967376709" lon="3.1567671298981"><ele>161</ele><time>2026-4-28T16:14:53Z</time></trkpt>
<trkpt lat="49.07967376709" lon="3.1567671298981"><ele>161</ele><time>2026-4-28T16:14:56Z</time></trkpt>
<trkpt lat="49.07967376709" lon="3.1567671298981"><ele>161</ele><time>2026-4-28T16:14:59Z</time></trkpt>
<trkpt lat="49.07967376709" lon="3.1567671298981"><ele>161</ele><time>2026-4-28T16:15:2Z</time></trkpt>
<trkpt lat="49.07967376709" lon="3.1567671298981"><ele>161</ele><time>2026-4-28T16:15:5Z</time></trkpt>
<trkpt lat="49.07967376709" lon="3.1567671298981"><ele>161</ele><time>2026-4-28T16:15:8Z</time></trkpt>
<trkpt lat="49.07967376709" lon="3.1567671298981"><ele>161</ele><time>2026-4-28T16:15:11Z</time></trkpt>
<trkpt lat="49.07967376709" lon="3.1567671298981"><ele>161</ele><time>2026-4-28T16:15:14Z</time></trkpt>
<trkpt lat="49.07967376709" lon="3.1567671298981"><ele>161</ele><time>2026-4-28T16:15:17Z</time></trkpt>
<trkpt lat="49.079818725586" lon="3.1570904254913"><ele>161</ele><time>2026-4-28T16:15:20Z</time></trkpt>
<trkpt lat="49.07982635498" lon="3.1571340560913"><ele>162</ele><time>2026-4-28T16:15:23Z</time></trkpt>
<trkpt lat="49.079833984375" lon="3.1571860313416"><ele>162</ele><time>2026-4-28T16:15:26Z</time></trkpt>
<trkpt lat="49.079837799072" lon="3.157244682312"><ele>162</ele><time>2026-4-28T16:15:29Z</time></trkpt>
<trkpt lat="49.07984161377" lon="3.1572971343994"><ele>162</ele><time>2026-4-28T16:15:32Z</time></trkpt>
<trkpt lat="49.079856872559" lon="3.1573479175568"><ele>162</ele><time>2026-4-28T16:15:35Z</time></trkpt>
<trkpt lat="49.079887390137" lon="3.1574423313141"><ele>162</ele><time>2026-4-28T16:15:38Z</time></trkpt>
<trkpt lat="49.079887390137" lon="3.1574423313141"><ele>162</ele><time>2026-4-28T16:15:41Z</time></trkpt>
<trkpt lat="49.079921722412" lon="3.1575419902802"><ele>163</ele><time>2026-4-28T16:15:44Z</time></trkpt>
<trkpt lat="49.079956054688" lon="3.1576526165009"><ele>163</ele><time>2026-4-28T16:15:47Z</time></trkpt>
<trkpt lat="49.079956054688" lon="3.1576526165009"><ele>163</ele><time>2026-4-28T16:15:50Z</time></trkpt>
<trkpt lat="49.079978942871" lon="3.1577708721161"><ele>163</ele><time>2026-4-28T16:15:53Z</time></trkpt>
<trkpt lat="49.079978942871" lon="3.1577708721161"><ele>163</ele><time>2026-4-28T16:15:56Z</time></trkpt>
<trkpt lat="49.080005645752" lon="3.1578679084778"><ele>163</ele><time>2026-4-28T16:15:59Z</time></trkpt>
<trkpt lat="49.080039978027" lon="3.1579933166504"><ele>163</ele><time>2026-4-28T16:16:2Z</time></trkpt>
<trkpt lat="49.080081939697" lon="3.1581513881683"><ele>163</ele><time>2026-4-28T16:16:5Z</time></trkpt>
<trkpt lat="49.080104827881" lon="3.1582479476929"><ele>163</ele><time>2026-4-28T16:16:8Z</time></trkpt>
<trkpt lat="49.080131530762" lon="3.1583454608917"><ele>163</ele><time>2026-4-28T16:16:11Z</time></trkpt>
<trkpt lat="49.080158233643" lon="3.1584417819977"><ele>163</ele><time>2026-4-28T16:16:14Z</time></trkpt>
<trkpt lat="49.080184936523" lon="3.1585249900818"><ele>163</ele><time>2026-4-28T16:16:17Z</time></trkpt>
<trkpt lat="49.080249786377" lon="3.1586561203003"><ele>163</ele><time>2026-4-28T16:16:20Z</time></trkpt>
<trkpt lat="49.080249786377" lon="3.1586561203003"><ele>163</ele><time>2026-4-28T16:16:23Z</time></trkpt>
<trkpt lat="49.080326080322" lon="3.1587731838226"><ele>163</ele><time>2026-4-28T16:16:26Z</time></trkpt>
<trkpt lat="49.080326080322" lon="3.1587731838226"><ele>163</ele><time>2026-4-28T16:16:29Z</time></trkpt>
<trkpt lat="49.080375671387" lon="3.1588368415833"><ele>163</ele><time>2026-4-28T16:16:32Z</time></trkpt>
<trkpt lat="49.080375671387" lon="3.1588368415833"><ele>163</ele><time>2026-4-28T16:16:35Z</time></trkpt>
<trkpt lat="49.080375671387" lon="3.1588368415833"><ele>163</ele><time>2026-4-28T16:16:38Z</time></trkpt>
<trkpt lat="49.080375671387" lon="3.1588368415833"><ele>163</ele><time>2026-4-28T16:16:41Z</time></trkpt>
<trkpt lat="49.080375671387" lon="3.1588368415833"><ele>163</ele><time>2026-4-28T16:16:44Z</time></trkpt>
<trkpt lat="49.080375671387" lon="3.1588368415833"><ele>163</ele><time>2026-4-28T16:16:47Z</time></trkpt>
<trkpt lat="49.080375671387" lon="3.1588368415833"><ele>163</ele><time>2026-4-28T16:16:50Z</time></trkpt>
<trkpt lat="49.080375671387" lon="3.1588368415833"><ele>163</ele><time>2026-4-28T16:16:53Z</time></trkpt>
<trkpt lat="49.080375671387" lon="3.1588368415833"><ele>163</ele><time>2026-4-28T16:16:56Z</time></trkpt>
<trkpt lat="49.080375671387" lon="3.1588368415833"><ele>163</ele><time>2026-4-28T16:16:59Z</time></trkpt>
<trkpt lat="49.080375671387" lon="3.1588368415833"><ele>163</ele><time>2026-4-28T16:17:2Z</time></trkpt>
<trkpt lat="49.080375671387" lon="3.1588368415833"><ele>163</ele><time>2026-4-28T16:17:5Z</time></trkpt>
<trkpt lat="49.080375671387" lon="3.1588368415833"><ele>163</ele><time>2026-4-28T16:17:8Z</time></trkpt>
<trkpt lat="49.080375671387" lon="3.1588368415833"><ele>163</ele><time>2026-4-28T16:17:11Z</time></trkpt>
<trkpt lat="49.080375671387" lon="3.1588368415833"><ele>163</ele><time>2026-4-28T16:17:14Z</time></trkpt>
<trkpt lat="49.080375671387" lon="3.1588368415833"><ele>163</ele><time>2026-4-28T16:17:17Z</time></trkpt>
<trkpt lat="49.080455780029" lon="3.1589293479919"><ele>161</ele><time>2026-4-28T16:17:20Z</time></trkpt>
<trkpt lat="49.080509185791" lon="3.1589891910553"><ele>161</ele><time>2026-4-28T16:17:23Z</time></trkpt>
<trkpt lat="49.080509185791" lon="3.1589891910553"><ele>161</ele><time>2026-4-28T16:17:26Z</time></trkpt>
<trkpt lat="49.080551147461" lon="3.1590392589569"><ele>161</ele><time>2026-4-28T16:17:29Z</time></trkpt>
<trkpt lat="49.080589294434" lon="3.159083366394"><ele>161</ele><time>2026-4-28T16:17:32Z</time></trkpt>
<trkpt lat="49.080623626709" lon="3.1591274738312"><ele>161</ele><time>2026-4-28T16:17:35Z</time></trkpt>
<trkpt lat="49.080623626709" lon="3.1591274738312"><ele>161</ele><time>2026-4-28T16:17:38Z</time></trkpt>
<trkpt lat="49.080707550049" lon="3.1592247486115"><ele>161</ele><time>2026-4-28T16:17:41Z</time></trkpt>
<trkpt lat="49.080757141113" lon="3.1592874526978"><ele>161</ele><time>2026-4-28T16:17:44Z</time></trkpt>
<trkpt lat="49.08081817627" lon="3.1593658924103"><ele>160</ele><time>2026-4-28T16:17:47Z</time></trkpt>
<trkpt lat="49.08081817627" lon="3.1593658924103"><ele>160</ele><time>2026-4-28T16:17:50Z</time></trkpt>
<trkpt lat="49.080875396729" lon="3.1594209671021"><ele>160</ele><time>2026-4-28T16:17:53Z</time></trkpt>
<trkpt lat="49.080924987793" lon="3.1594665050507"><ele>160</ele><time>2026-4-28T16:17:56Z</time></trkpt>
<trkpt lat="49.080978393555" lon="3.1595125198364"><ele>160</ele><time>2026-4-28T16:17:59Z</time></trkpt>
<trkpt lat="49.080978393555" lon="3.1595125198364"><ele>160</ele><time>2026-4-28T16:18:2Z</time></trkpt>
<trkpt lat="49.081027984619" lon="3.1595578193665"><ele>160</ele><time>2026-4-28T16:18:5Z</time></trkpt>
<trkpt lat="49.081111907959" lon="3.1596233844757"><ele>160</ele><time>2026-4-28T16:18:8Z</time></trkpt>
<trkpt lat="49.081111907959" lon="3.1596233844757"><ele>160</ele><time>2026-4-28T16:18:11Z</time></trkpt>
<trkpt lat="49.081169128418" lon="3.1596665382385"><ele>160</ele><time>2026-4-28T16:18:14Z</time></trkpt>
<trkpt lat="49.081169128418" lon="3.1596665382385"><ele>160</ele><time>2026-4-28T16:18:17Z</time></trkpt>
<trkpt lat="49.081249237061" lon="3.1597363948822"><ele>159</ele><time>2026-4-28T16:18:20Z</time></trkpt>
<trkpt lat="49.081249237061" lon="3.1597363948822"><ele>159</ele><time>2026-4-28T16:18:23Z</time></trkpt>
<trkpt lat="49.081249237061" lon="3.1597363948822"><ele>159</ele><time>2026-4-28T16:18:26Z</time></trkpt>
<trkpt lat="49.081356048584" lon="3.1598250865936"><ele>159</ele><time>2026-4-28T16:18:29Z</time></trkpt>
<trkpt lat="49.081405639648" lon="3.1598727703094"><ele>159</ele><time>2026-4-28T16:18:32Z</time></trkpt>
<trkpt lat="49.081405639648" lon="3.1598727703094"><ele>159</ele><time>2026-4-28T16:18:35Z</time></trkpt>
<trkpt lat="49.081489562988" lon="3.1599669456482"><ele>159</ele><time>2026-4-28T16:18:38Z</time></trkpt>
<trkpt lat="49.081489562988" lon="3.1599669456482"><ele>159</ele><time>2026-4-28T16:18:41Z</time></trkpt>
<trkpt lat="49.081489562988" lon="3.1599669456482"><ele>159</ele><time>2026-4-28T16:18:44Z</time></trkpt>
<trkpt lat="49.081569671631" lon="3.1600494384766"><ele>158</ele><time>2026-4-28T16:18:47Z</time></trkpt>
<trkpt lat="49.081569671631" lon="3.1600494384766"><ele>158</ele><time>2026-4-28T16:18:50Z</time></trkpt>
<trkpt lat="49.081657409668" lon="3.1601679325104"><ele>158</ele><time>2026-4-28T16:18:53Z</time></trkpt>
<trkpt lat="49.081657409668" lon="3.1601679325104"><ele>158</ele><time>2026-4-28T16:18:56Z</time></trkpt>
<trkpt lat="49.081703186035" lon="3.1602735519409"><ele>156</ele><time>2026-4-28T16:18:59Z</time></trkpt>
<trkpt lat="49.081775665283" lon="3.1603872776031"><ele>154</ele><time>2026-4-28T16:19:2Z</time></trkpt>
<trkpt lat="49.081871032715" lon="3.1605145931244"><ele>152</ele><time>2026-4-28T16:19:5Z</time></trkpt>
<trkpt lat="49.081871032715" lon="3.1605145931244"><ele>152</ele><time>2026-4-28T16:19:8Z</time></trkpt>
<trkpt lat="49.081974029541" lon="3.1606473922729"><ele>151</ele><time>2026-4-28T16:19:11Z</time></trkpt>
<trkpt lat="49.082088470459" lon="3.1607582569122"><ele>150</ele><time>2026-4-28T16:19:14Z</time></trkpt>
<trkpt lat="49.082218170166" lon="3.1608514785767"><ele>149</ele><time>2026-4-28T16:19:17Z</time></trkpt>
<trkpt lat="49.082218170166" lon="3.1608514785767"><ele>149</ele><time>2026-4-28T16:19:20Z</time></trkpt>
<trkpt lat="49.082363128662" lon="3.1609404087067"><ele>148</ele><time>2026-4-28T16:19:23Z</time></trkpt>
<trkpt lat="49.082508087158" lon="3.1609401702881"><ele>147</ele><time>2026-4-28T16:19:26Z</time></trkpt>
<trkpt lat="49.082664489746" lon="3.1609063148499"><ele>147</ele><time>2026-4-28T16:19:29Z</time></trkpt>
<trkpt lat="49.082664489746" lon="3.1609063148499"><ele>147</ele><time>2026-4-28T16:19:32Z</time></trkpt>
<trkpt lat="49.082817077637" lon="3.1608502864838"><ele>146</ele><time>2026-4-28T16:19:35Z</time></trkpt>
<trkpt lat="49.082977294922" lon="3.1608123779297"><ele>144</ele><time>2026-4-28T16:19:38Z</time></trkpt>
<trkpt lat="49.083145141602" lon="3.1608026027679"><ele>142</ele><time>2026-4-28T16:19:41Z</time></trkpt>
<trkpt lat="49.083145141602" lon="3.1608026027679"><ele>142</ele><time>2026-4-28T16:19:44Z</time></trkpt>
<trkpt lat="49.083312988281" lon="3.1607925891876"><ele>141</ele><time>2026-4-28T16:19:47Z</time></trkpt>
<trkpt lat="49.083461761475" lon="3.1607830524445"><ele>139</ele><time>2026-4-28T16:19:50Z</time></trkpt>
<trkpt lat="49.083587646484" lon="3.1607799530029"><ele>138</ele><time>2026-4-28T16:19:53Z</time></trkpt>
<trkpt lat="49.083587646484" lon="3.1607799530029"><ele>138</ele><time>2026-4-28T16:19:56Z</time></trkpt>
<trkpt lat="49.0837059021" lon="3.1607804298401"><ele>136</ele><time>2026-4-28T16:19:59Z</time></trkpt>
<trkpt lat="49.083824157715" lon="3.1608023643494"><ele>136</ele><time>2026-4-28T16:20:2Z</time></trkpt>
<trkpt lat="49.08394241333" lon="3.1608402729034"><ele>135</ele><time>2026-4-28T16:20:5Z</time></trkpt>
<trkpt lat="49.08394241333" lon="3.1608402729034"><ele>135</ele><time>2026-4-28T16:20:8Z</time></trkpt>
<trkpt lat="49.084060668945" lon="3.1608843803406"><ele>135</ele><time>2026-4-28T16:20:11Z</time></trkpt>
<trkpt lat="49.084163665771" lon="3.1609058380127"><ele>135</ele><time>2026-4-28T16:20:14Z</time></trkpt>
<trkpt lat="49.084243774414" lon="3.160902261734"><ele>135</ele><time>2026-4-28T16:20:17Z</time></trkpt>
<trkpt lat="49.084243774414" lon="3.160902261734"><ele>135</ele><time>2026-4-28T16:20:20Z</time></trkpt>
<trkpt lat="49.084300994873" lon="3.1609411239624"><ele>136</ele><time>2026-4-28T16:20:23Z</time></trkpt>
<trkpt lat="49.084365844727" lon="3.1610143184662"><ele>135</ele><time>2026-4-28T16:20:26Z</time></trkpt>
<trkpt lat="49.084438323975" lon="3.1610963344574"><ele>135</ele><time>2026-4-28T16:20:29Z</time></trkpt>
<trkpt lat="49.084438323975" lon="3.1610963344574"><ele>135</ele><time>2026-4-28T16:20:32Z</time></trkpt>
<trkpt lat="49.084495544434" lon="3.161169052124"><ele>135</ele><time>2026-4-28T16:20:35Z</time></trkpt>
<trkpt lat="49.084495544434" lon="3.161169052124"><ele>135</ele><time>2026-4-28T16:20:38Z</time></trkpt>
<trkpt lat="49.084495544434" lon="3.161169052124"><ele>135</ele><time>2026-4-28T16:20:41Z</time></trkpt>
<trkpt lat="49.084495544434" lon="3.161169052124"><ele>135</ele><time>2026-4-28T16:20:44Z</time></trkpt>
<trkpt lat="49.084495544434" lon="3.161169052124"><ele>135</ele><time>2026-4-28T16:20:47Z</time></trkpt>
<trkpt lat="49.084495544434" lon="3.161169052124"><ele>135</ele><time>2026-4-28T16:20:50Z</time></trkpt>
<trkpt lat="49.084495544434" lon="3.161169052124"><ele>135</ele><time>2026-4-28T16:20:53Z</time></trkpt>
<trkpt lat="49.085227966309" lon="3.1629233360291"><ele>134</ele><time>2026-4-28T16:20:56Z</time></trkpt>
<trkpt lat="49.085227966309" lon="3.1629233360291"><ele>134</ele><time>2026-4-28T16:20:59Z</time></trkpt>
<trkpt lat="49.085227966309" lon="3.1629233360291"><ele>134</ele><time>2026-4-28T16:21:2Z</time></trkpt>
<trkpt lat="49.085227966309" lon="3.1629233360291"><ele>134</ele><time>2026-4-28T16:21:5Z</time></trkpt>
<trkpt lat="49.085132598877" lon="3.1628348827362"><ele>134</ele><time>2026-4-28T16:21:8Z</time></trkpt>
<trkpt lat="49.085132598877" lon="3.1628348827362"><ele>134</ele><time>2026-4-28T16:21:11Z</time></trkpt>
<trkpt lat="49.085102081299" lon="3.1626226902008"><ele>134</ele><time>2026-4-28T16:21:14Z</time></trkpt>
<trkpt lat="49.085083007812" lon="3.1625196933746"><ele>133</ele><time>2026-4-28T16:21:17Z</time></trkpt>
<trkpt lat="49.085060119629" lon="3.1624145507812"><ele>133</ele><time>2026-4-28T16:21:20Z</time></trkpt>
<trkpt lat="49.085060119629" lon="3.1624145507812"><ele>133</ele><time>2026-4-28T16:21:23Z</time></trkpt>
<trkpt lat="49.085060119629" lon="3.1623046398163"><ele>133</ele><time>2026-4-28T16:21:26Z</time></trkpt>
<trkpt lat="49.085132598877" lon="3.1622097492218"><ele>133</ele><time>2026-4-28T16:21:29Z</time></trkpt>
<trkpt lat="49.085132598877" lon="3.1622097492218"><ele>133</ele><time>2026-4-28T16:21:32Z</time></trkpt>
<trkpt lat="49.085132598877" lon="3.1622097492218"><ele>133</ele><time>2026-4-28T16:21:35Z</time></trkpt>
<trkpt lat="49.085231781006" lon="3.1621248722076"><ele>133</ele><time>2026-4-28T16:21:38Z</time></trkpt>
<trkpt lat="49.085231781006" lon="3.1621248722076"><ele>133</ele><time>2026-4-28T16:21:41Z</time></trkpt>
<trkpt lat="49.085231781006" lon="3.1621248722076"><ele>133</ele><time>2026-4-28T16:21:44Z</time></trkpt>
<trkpt lat="49.085289001465" lon="3.1620545387268"><ele>133</ele><time>2026-4-28T16:21:47Z</time></trkpt>
<trkpt lat="49.085289001465" lon="3.1620545387268"><ele>133</ele><time>2026-4-28T16:21:50Z</time></trkpt>
<trkpt lat="49.085391998291" lon="3.1619734764099"><ele>133</ele><time>2026-4-28T16:21:53Z</time></trkpt>
<trkpt lat="49.085391998291" lon="3.1619734764099"><ele>133</ele><time>2026-4-28T16:21:56Z</time></trkpt>
<trkpt lat="49.085445404053" lon="3.1619341373444"><ele>133</ele><time>2026-4-28T16:21:59Z</time></trkpt>
<trkpt lat="49.085445404053" lon="3.1619341373444"><ele>133</ele><time>2026-4-28T16:22:2Z</time></trkpt>
<trkpt lat="49.08553314209" lon="3.1618978977203"><ele>133</ele><time>2026-4-28T16:22:5Z</time></trkpt>
<trkpt lat="49.08553314209" lon="3.1618978977203"><ele>133</ele><time>2026-4-28T16:22:8Z</time></trkpt>
<trkpt lat="49.08553314209" lon="3.1618978977203"><ele>133</ele><time>2026-4-28T16:22:11Z</time></trkpt>
<trkpt lat="49.085605621338" lon="3.1618635654449"><ele>133</ele><time>2026-4-28T16:22:14Z</time></trkpt>
<trkpt lat="49.085605621338" lon="3.1618635654449"><ele>133</ele><time>2026-4-28T16:22:17Z</time></trkpt>
<trkpt lat="49.085605621338" lon="3.1618635654449"><ele>133</ele><time>2026-4-28T16:22:20Z</time></trkpt>
<trkpt lat="49.085605621338" lon="3.1618635654449"><ele>133</ele><time>2026-4-28T16:22:23Z</time></trkpt>
<trkpt lat="49.085605621338" lon="3.1618635654449"><ele>133</ele><time>2026-4-28T16:22:26Z</time></trkpt>
<trkpt lat="49.085605621338" lon="3.1618635654449"><ele>133</ele><time>2026-4-28T16:22:29Z</time></trkpt>
<trkpt lat="49.085605621338" lon="3.1618635654449"><ele>133</ele><time>2026-4-28T16:22:32Z</time></trkpt>
<trkpt lat="49.085605621338" lon="3.1618635654449"><ele>133</ele><time>2026-4-28T16:22:35Z</time></trkpt>
<trkpt lat="49.085784912109" lon="3.1617026329041"><ele>133</ele><time>2026-4-28T16:22:38Z</time></trkpt>
<trkpt lat="49.085784912109" lon="3.1617026329041"><ele>133</ele><time>2026-4-28T16:22:41Z</time></trkpt>
<trkpt lat="49.085834503174" lon="3.1616652011871"><ele>133</ele><time>2026-4-28T16:22:44Z</time></trkpt>
<trkpt lat="49.085906982422" lon="3.1616265773773"><ele>133</ele><time>2026-4-28T16:22:47Z</time></trkpt>
<trkpt lat="49.085906982422" lon="3.1616265773773"><ele>133</ele><time>2026-4-28T16:22:50Z</time></trkpt>
<trkpt lat="49.085906982422" lon="3.1616265773773"><ele>133</ele><time>2026-4-28T16:22:53Z</time></trkpt>
<trkpt lat="49.08597946167" lon="3.1615717411041"><ele>133</ele><time>2026-4-28T16:22:56Z</time></trkpt>
<trkpt lat="49.08597946167" lon="3.1615717411041"><ele>133</ele><time>2026-4-28T16:22:59Z</time></trkpt>
<trkpt lat="49.08597946167" lon="3.1615717411041"><ele>133</ele><time>2026-4-28T16:23:2Z</time></trkpt>
<trkpt lat="49.08597946167" lon="3.1615717411041"><ele>133</ele><time>2026-4-28T16:23:5Z</time></trkpt>
<trkpt lat="49.086017608643" lon="3.1615688800812"><ele>133</ele><time>2026-4-28T16:23:8Z</time></trkpt>
<trkpt lat="49.086051940918" lon="3.1615641117096"><ele>133</ele><time>2026-4-28T16:23:11Z</time></trkpt>
<trkpt lat="49.086051940918" lon="3.1615641117096"><ele>133</ele><time>2026-4-28T16:23:14Z</time></trkpt>
<trkpt lat="49.086086273193" lon="3.1615533828735"><ele>133</ele><time>2026-4-28T16:23:17Z</time></trkpt>
<trkpt lat="49.086120605469" lon="3.1615397930145"><ele>133</ele><time>2026-4-28T16:23:20Z</time></trkpt>
<trkpt lat="49.08614730835" lon="3.1615264415741"><ele>133</ele><time>2026-4-28T16:23:23Z</time></trkpt>
<trkpt lat="49.08614730835" lon="3.1615264415741"><ele>133</ele><time>2026-4-28T16:23:26Z</time></trkpt>
<trkpt lat="49.086204528809" lon="3.1614933013916"><ele>133</ele><time>2026-4-28T16:23:29Z</time></trkpt>
<trkpt lat="49.086204528809" lon="3.1614933013916"><ele>133</ele><time>2026-4-28T16:23:32Z</time></trkpt>
<trkpt lat="49.086288452148" lon="3.1614410877228"><ele>133</ele><time>2026-4-28T16:23:35Z</time></trkpt>
<trkpt lat="49.086288452148" lon="3.1614410877228"><ele>133</ele><time>2026-4-28T16:23:38Z</time></trkpt>
<trkpt lat="49.086368560791" lon="3.1613755226135"><ele>134</ele><time>2026-4-28T16:23:41Z</time></trkpt>
<trkpt lat="49.086368560791" lon="3.1613755226135"><ele>134</ele><time>2026-4-28T16:23:44Z</time></trkpt>
<trkpt lat="49.086368560791" lon="3.1613755226135"><ele>134</ele><time>2026-4-28T16:23:47Z</time></trkpt>
<trkpt lat="49.086463928223" lon="3.1613306999207"><ele>134</ele><time>2026-4-28T16:23:50Z</time></trkpt>
<trkpt lat="49.086540222168" lon="3.1613099575043"><ele>134</ele><time>2026-4-28T16:23:53Z</time></trkpt>
<trkpt lat="49.086540222168" lon="3.1613099575043"><ele>134</ele><time>2026-4-28T16:23:56Z</time></trkpt>
<trkpt lat="49.086540222168" lon="3.1613099575043"><ele>134</ele><time>2026-4-28T16:23:59Z</time></trkpt>
<trkpt lat="49.086601257324" lon="3.1612660884857"><ele>135</ele><time>2026-4-28T16:24:2Z</time></trkpt>
<trkpt lat="49.086601257324" lon="3.1612660884857"><ele>135</ele><time>2026-4-28T16:24:5Z</time></trkpt>
<trkpt lat="49.086601257324" lon="3.1612660884857"><ele>135</ele><time>2026-4-28T16:24:8Z</time></trkpt>
<trkpt lat="49.086658477783" lon="3.1612331867218"><ele>135</ele><time>2026-4-28T16:24:11Z</time></trkpt>
<trkpt lat="49.086658477783" lon="3.1612331867218"><ele>135</ele><time>2026-4-28T16:24:14Z</time></trkpt>
<trkpt lat="49.086658477783" lon="3.1612331867218"><ele>135</ele><time>2026-4-28T16:24:17Z</time></trkpt>
<trkpt lat="49.086738586426" lon="3.1611979007721"><ele>135</ele><time>2026-4-28T16:24:20Z</time></trkpt>
<trkpt lat="49.086738586426" lon="3.1611979007721"><ele>135</ele><time>2026-4-28T16:24:23Z</time></trkpt>
<trkpt lat="49.086807250977" lon="3.1611731052399"><ele>134</ele><time>2026-4-28T16:24:26Z</time></trkpt>
<trkpt lat="49.086807250977" lon="3.1611731052399"><ele>134</ele><time>2026-4-28T16:24:29Z</time></trkpt>
<trkpt lat="49.086807250977" lon="3.1611731052399"><ele>134</ele><time>2026-4-28T16:24:32Z</time></trkpt>
<trkpt lat="49.086879730225" lon="3.1611530780792"><ele>134</ele><time>2026-4-28T16:24:35Z</time></trkpt>
<trkpt lat="49.086879730225" lon="3.1611530780792"><ele>134</ele><time>2026-4-28T16:24:38Z</time></trkpt>
<trkpt lat="49.086936950684" lon="3.1611194610596"><ele>134</ele><time>2026-4-28T16:24:41Z</time></trkpt>
<trkpt lat="49.086936950684" lon="3.1611194610596"><ele>134</ele><time>2026-4-28T16:24:44Z</time></trkpt>
<trkpt lat="49.086994171143" lon="3.1610956192017"><ele>133</ele><time>2026-4-28T16:24:47Z</time></trkpt>
<trkpt lat="49.086994171143" lon="3.1610956192017"><ele>133</ele><time>2026-4-28T16:24:50Z</time></trkpt>
<trkpt lat="49.086994171143" lon="3.1610956192017"><ele>133</ele><time>2026-4-28T16:24:53Z</time></trkpt>
<trkpt lat="49.086994171143" lon="3.1610956192017"><ele>133</ele><time>2026-4-28T16:24:56Z</time></trkpt>
<trkpt lat="49.086994171143" lon="3.1610956192017"><ele>133</ele><time>2026-4-28T16:24:59Z</time></trkpt>
<trkpt lat="49.086994171143" lon="3.1610956192017"><ele>133</ele><time>2026-4-28T16:25:2Z</time></trkpt>
<trkpt lat="49.086994171143" lon="3.1610956192017"><ele>133</ele><time>2026-4-28T16:25:5Z</time></trkpt>
<trkpt lat="49.086994171143" lon="3.1610956192017"><ele>133</ele><time>2026-4-28T16:25:8Z</time></trkpt>
<trkpt lat="49.086994171143" lon="3.1610956192017"><ele>133</ele><time>2026-4-28T16:25:11Z</time></trkpt>
<trkpt lat="49.086994171143" lon="3.1610956192017"><ele>133</ele><time>2026-4-28T16:25:14Z</time></trkpt>
<trkpt lat="49.086994171143" lon="3.1610956192017"><ele>133</ele><time>2026-4-28T16:25:17Z</time></trkpt>
<trkpt lat="49.086994171143" lon="3.1610956192017"><ele>133</ele><time>2026-4-28T16:25:20Z</time></trkpt>
<trkpt lat="49.086994171143" lon="3.1610956192017"><ele>133</ele><time>2026-4-28T16:25:23Z</time></trkpt>
<trkpt lat="49.087184906006" lon="3.1610405445099"><ele>133</ele><time>2026-4-28T16:25:26Z</time></trkpt>
<trkpt lat="49.087303161621" lon="3.1610083580017"><ele>133</ele><time>2026-4-28T16:25:29Z</time></trkpt>
<trkpt lat="49.087379455566" lon="3.1609952449799"><ele>133</ele><time>2026-4-28T16:25:32Z</time></trkpt>
<trkpt lat="49.087440490723" lon="3.1609888076782"><ele>133</ele><time>2026-4-28T16:25:35Z</time></trkpt>
<trkpt lat="49.087490081787" lon="3.1609830856323"><ele>133</ele><time>2026-4-28T16:25:38Z</time></trkpt>
<trkpt lat="49.087589263916" lon="3.1609723567963"><ele>133</ele><time>2026-4-28T16:25:41Z</time></trkpt>
<trkpt lat="49.087589263916" lon="3.1609723567963"><ele>133</ele><time>2026-4-28T16:25:44Z</time></trkpt>
<trkpt lat="49.087684631348" lon="3.1609396934509"><ele>134</ele><time>2026-4-28T16:25:47Z</time></trkpt>
<trkpt lat="49.087783813477" lon="3.1609017848969"><ele>134</ele><time>2026-4-28T16:25:50Z</time></trkpt>
<trkpt lat="49.087837219238" lon="3.1608526706696"><ele>134</ele><time>2026-4-28T16:25:53Z</time></trkpt>
<trkpt lat="49.087837219238" lon="3.1608526706696"><ele>134</ele><time>2026-4-28T16:25:56Z</time></trkpt>
<trkpt lat="49.087894439697" lon="3.1607799530029"><ele>134</ele><time>2026-4-28T16:25:59Z</time></trkpt>
<trkpt lat="49.087894439697" lon="3.1607799530029"><ele>134</ele><time>2026-4-28T16:26:2Z</time></trkpt>
<trkpt lat="49.087963104248" lon="3.160694360733"><ele>134</ele><time>2026-4-28T16:26:5Z</time></trkpt>
<trkpt lat="49.088020324707" lon="3.1606459617615"><ele>133</ele><time>2026-4-28T16:26:8Z</time></trkpt>
<trkpt lat="49.088020324707" lon="3.1606459617615"><ele>133</ele><time>2026-4-28T16:26:11Z</time></trkpt>
<trkpt lat="49.088085174561" lon="3.1605949401855"><ele>133</ele><time>2026-4-28T16:26:14Z</time></trkpt>
<trkpt lat="49.088176727295" lon="3.1605634689331"><ele>133</ele><time>2026-4-28T16:26:17Z</time></trkpt>
<trkpt lat="49.088264465332" lon="3.1605370044708"><ele>133</ele><time>2026-4-28T16:26:20Z</time></trkpt>
<trkpt lat="49.088329315186" lon="3.1605167388916"><ele>133</ele><time>2026-4-28T16:26:23Z</time></trkpt>
<trkpt lat="49.088424682617" lon="3.1604909896851"><ele>133</ele><time>2026-4-28T16:26:26Z</time></trkpt>
<trkpt lat="49.088424682617" lon="3.1604909896851"><ele>133</ele><time>2026-4-28T16:26:29Z</time></trkpt>
<trkpt lat="49.08850479126" lon="3.1604645252228"><ele>133</ele><time>2026-4-28T16:26:32Z</time></trkpt>
<trkpt lat="49.088592529297" lon="3.1604378223419"><ele>132</ele><time>2026-4-28T16:26:35Z</time></trkpt>
<trkpt lat="49.088684082031" lon="3.1604034900665"><ele>131</ele><time>2026-4-28T16:26:38Z</time></trkpt>
<trkpt lat="49.088684082031" lon="3.1604034900665"><ele>131</ele><time>2026-4-28T16:26:41Z</time></trkpt>
<trkpt lat="49.088760375977" lon="3.1603510379791"><ele>131</ele><time>2026-4-28T16:26:44Z</time></trkpt>
<trkpt lat="49.088836669922" lon="3.1602635383606"><ele>131</ele><time>2026-4-28T16:26:47Z</time></trkpt>
<trkpt lat="49.088928222656" lon="3.1602084636688"><ele>130</ele><time>2026-4-28T16:26:50Z</time></trkpt>
<trkpt lat="49.088928222656" lon="3.1602084636688"><ele>130</ele><time>2026-4-28T16:26:53Z</time></trkpt>
<trkpt lat="49.089023590088" lon="3.1601450443268"><ele>130</ele><time>2026-4-28T16:26:56Z</time></trkpt>
<trkpt lat="49.089065551758" lon="3.1600844860077"><ele>130</ele><time>2026-4-28T16:26:59Z</time></trkpt>
<trkpt lat="49.089111328125" lon="3.160012960434"><ele>131</ele><time>2026-4-28T16:27:2Z</time></trkpt>
<trkpt lat="49.089157104492" lon="3.1599328517914"><ele>131</ele><time>2026-4-28T16:27:5Z</time></trkpt>
<trkpt lat="49.089202880859" lon="3.1598613262177"><ele>131</ele><time>2026-4-28T16:27:8Z</time></trkpt>
<trkpt lat="49.089202880859" lon="3.1598613262177"><ele>131</ele><time>2026-4-28T16:27:11Z</time></trkpt>
<trkpt lat="49.089267730713" lon="3.1597685813904"><ele>131</ele><time>2026-4-28T16:27:14Z</time></trkpt>
<trkpt lat="49.089267730713" lon="3.1597685813904"><ele>131</ele><time>2026-4-28T16:27:17Z</time></trkpt>
<trkpt lat="49.089344024658" lon="3.159735918045"><ele>131</ele><time>2026-4-28T16:27:20Z</time></trkpt>
<trkpt lat="49.089344024658" lon="3.159735918045"><ele>131</ele><time>2026-4-28T16:27:23Z</time></trkpt>
<trkpt lat="49.089435577393" lon="3.1597416400909"><ele>131</ele><time>2026-4-28T16:27:26Z</time></trkpt>
<trkpt lat="49.089435577393" lon="3.1597416400909"><ele>131</ele><time>2026-4-28T16:27:29Z</time></trkpt>
<trkpt lat="49.089435577393" lon="3.1597416400909"><ele>131</ele><time>2026-4-28T16:27:32Z</time></trkpt>
<trkpt lat="49.089557647705" lon="3.1597938537598"><ele>131</ele><time>2026-4-28T16:27:35Z</time></trkpt>
<trkpt lat="49.089557647705" lon="3.1597938537598"><ele>131</ele><time>2026-4-28T16:27:38Z</time></trkpt>
<trkpt lat="49.089649200439" lon="3.1598439216614"><ele>131</ele><time>2026-4-28T16:27:41Z</time></trkpt>
<trkpt lat="49.089649200439" lon="3.1598439216614"><ele>131</ele><time>2026-4-28T16:27:44Z</time></trkpt>
<trkpt lat="49.089740753174" lon="3.1598913669586"><ele>131</ele><time>2026-4-28T16:27:47Z</time></trkpt>
<trkpt lat="49.089740753174" lon="3.1598913669586"><ele>131</ele><time>2026-4-28T16:27:50Z</time></trkpt>
<trkpt lat="49.089839935303" lon="3.1599540710449"><ele>131</ele><time>2026-4-28T16:27:53Z</time></trkpt>
<trkpt lat="49.089900970459" lon="3.1599893569946"><ele>131</ele><time>2026-4-28T16:27:56Z</time></trkpt>
<trkpt lat="49.090007781982" lon="3.1600360870361"><ele>131</ele><time>2026-4-28T16:27:59Z</time></trkpt>
<trkpt lat="49.090065002441" lon="3.1600694656372"><ele>131</ele><time>2026-4-28T16:28:2Z</time></trkpt>
<trkpt lat="49.090065002441" lon="3.1600694656372"><ele>131</ele><time>2026-4-28T16:28:5Z</time></trkpt>
<trkpt lat="49.090152740479" lon="3.1601252555847"><ele>130</ele><time>2026-4-28T16:28:8Z</time></trkpt>
<trkpt lat="49.090152740479" lon="3.1601252555847"><ele>130</ele><time>2026-4-28T16:28:11Z</time></trkpt>
<trkpt lat="49.090251922607" lon="3.1601874828339"><ele>130</ele><time>2026-4-28T16:28:14Z</time></trkpt>
<trkpt lat="49.090309143066" lon="3.1602177619934"><ele>130</ele><time>2026-4-28T16:28:17Z</time></trkpt>
<trkpt lat="49.090309143066" lon="3.1602177619934"><ele>130</ele><time>2026-4-28T16:28:20Z</time></trkpt>
<trkpt lat="49.090385437012" lon="3.160275220871"><ele>130</ele><time>2026-4-28T16:28:23Z</time></trkpt>
<trkpt lat="49.090385437012" lon="3.160275220871"><ele>130</ele><time>2026-4-28T16:28:26Z</time></trkpt>
<trkpt lat="49.090412139893" lon="3.160295009613"><ele>130</ele><time>2026-4-28T16:28:29Z</time></trkpt>
<trkpt lat="49.090412139893" lon="3.160295009613"><ele>130</ele><time>2026-4-28T16:28:32Z</time></trkpt>
<trkpt lat="49.090412139893" lon="3.160295009613"><ele>130</ele><time>2026-4-28T16:28:35Z</time></trkpt>
<trkpt lat="49.090412139893" lon="3.160295009613"><ele>130</ele><time>2026-4-28T16:28:38Z</time></trkpt>
<trkpt lat="49.090412139893" lon="3.160295009613"><ele>130</ele><time>2026-4-28T16:28:41Z</time></trkpt>
<trkpt lat="49.090412139893" lon="3.160295009613"><ele>130</ele><time>2026-4-28T16:28:44Z</time></trkpt>
<trkpt lat="49.090412139893" lon="3.160295009613"><ele>130</ele><time>2026-4-28T16:28:47Z</time></trkpt>
<trkpt lat="49.090412139893" lon="3.160295009613"><ele>130</ele><time>2026-4-28T16:28:50Z</time></trkpt>
<trkpt lat="49.090412139893" lon="3.160295009613"><ele>130</ele><time>2026-4-28T16:28:53Z</time></trkpt>
<trkpt lat="49.090412139893" lon="3.160295009613"><ele>130</ele><time>2026-4-28T16:28:56Z</time></trkpt>
<trkpt lat="49.090587615967" lon="3.1604778766632"><ele>132</ele><time>2026-4-28T16:28:59Z</time></trkpt>
<trkpt lat="49.090587615967" lon="3.1604778766632"><ele>132</ele><time>2026-4-28T16:29:2Z</time></trkpt>
<trkpt lat="49.090587615967" lon="3.1604778766632"><ele>132</ele><time>2026-4-28T16:29:5Z</time></trkpt>
<trkpt lat="49.090587615967" lon="3.1604778766632"><ele>132</ele><time>2026-4-28T16:29:8Z</time></trkpt>
<trkpt lat="49.090587615967" lon="3.1604778766632"><ele>132</ele><time>2026-4-28T16:29:11Z</time></trkpt>
<trkpt lat="49.090835571289" lon="3.1605124473572"><ele>130</ele><time>2026-4-28T16:29:14Z</time></trkpt>
<trkpt lat="49.090919494629" lon="3.1605634689331"><ele>130</ele><time>2026-4-28T16:29:17Z</time></trkpt>
<trkpt lat="49.091003417969" lon="3.1606230735779"><ele>130</ele><time>2026-4-28T16:29:20Z</time></trkpt>
<trkpt lat="49.091003417969" lon="3.1606230735779"><ele>130</ele><time>2026-4-28T16:29:23Z</time></trkpt>
<trkpt lat="49.091075897217" lon="3.1606962680817"><ele>130</ele><time>2026-4-28T16:29:26Z</time></trkpt>
<trkpt lat="49.091163635254" lon="3.1608066558838"><ele>131</ele><time>2026-4-28T16:29:29Z</time></trkpt>
<trkpt lat="49.091259002686" lon="3.1609358787537"><ele>131</ele><time>2026-4-28T16:29:32Z</time></trkpt>
<trkpt lat="49.091312408447" lon="3.1610403060913"><ele>131</ele><time>2026-4-28T16:29:35Z</time></trkpt>
<trkpt lat="49.091323852539" lon="3.1611533164978"><ele>130</ele><time>2026-4-28T16:29:38Z</time></trkpt>
<trkpt lat="49.091339111328" lon="3.161256313324"><ele>130</ele><time>2026-4-28T16:29:41Z</time></trkpt>
<trkpt lat="49.091358184814" lon="3.1613609790802"><ele>130</ele><time>2026-4-28T16:29:44Z</time></trkpt>
<trkpt lat="49.091396331787" lon="3.1614506244659"><ele>130</ele><time>2026-4-28T16:29:47Z</time></trkpt>
<trkpt lat="49.091445922852" lon="3.1615009307861"><ele>130</ele><time>2026-4-28T16:29:50Z</time></trkpt>
<trkpt lat="49.091445922852" lon="3.1615009307861"><ele>130</ele><time>2026-4-28T16:29:53Z</time></trkpt>
<trkpt lat="49.09154510498" lon="3.1615371704102"><ele>130</ele><time>2026-4-28T16:29:56Z</time></trkpt>
<trkpt lat="49.091606140137" lon="3.1615550518036"><ele>130</ele><time>2026-4-28T16:29:59Z</time></trkpt>
<trkpt lat="49.091667175293" lon="3.1615777015686"><ele>130</ele><time>2026-4-28T16:30:2Z</time></trkpt>
<trkpt lat="49.091667175293" lon="3.1615777015686"><ele>130</ele><time>2026-4-28T16:30:5Z</time></trkpt>
<trkpt lat="49.09175491333" lon="3.1616218090057"><ele>130</ele><time>2026-4-28T16:30:8Z</time></trkpt>
<trkpt lat="49.09175491333" lon="3.1616218090057"><ele>130</ele><time>2026-4-28T16:30:11Z</time></trkpt>
<trkpt lat="49.091854095459" lon="3.1616630554199"><ele>130</ele><time>2026-4-28T16:30:14Z</time></trkpt>
<trkpt lat="49.091911315918" lon="3.1616878509521"><ele>130</ele><time>2026-4-28T16:30:17Z</time></trkpt>
<trkpt lat="49.091911315918" lon="3.1616878509521"><ele>130</ele><time>2026-4-28T16:30:20Z</time></trkpt>
<trkpt lat="49.092025756836" lon="3.161717414856"><ele>130</ele><time>2026-4-28T16:30:23Z</time></trkpt>
<trkpt lat="49.092124938965" lon="3.1617364883423"><ele>130</ele><time>2026-4-28T16:30:26Z</time></trkpt>
<trkpt lat="49.092197418213" lon="3.1617634296417"><ele>130</ele><time>2026-4-28T16:30:29Z</time></trkpt>
<trkpt lat="49.092258453369" lon="3.1617736816406"><ele>130</ele><time>2026-4-28T16:30:32Z</time></trkpt>
<trkpt lat="49.09232711792" lon="3.1617715358734"><ele>130</ele><time>2026-4-28T16:30:35Z</time></trkpt>
<trkpt lat="49.092384338379" lon="3.1617801189423"><ele>130</ele><time>2026-4-28T16:30:38Z</time></trkpt>
<trkpt lat="49.092384338379" lon="3.1617801189423"><ele>130</ele><time>2026-4-28T16:30:41Z</time></trkpt>
<trkpt lat="49.092483520508" lon="3.1618101596832"><ele>130</ele><time>2026-4-28T16:30:44Z</time></trkpt>
<trkpt lat="49.092483520508" lon="3.1618101596832"><ele>130</ele><time>2026-4-28T16:30:47Z</time></trkpt>
<trkpt lat="49.092601776123" lon="3.1618595123291"><ele>130</ele><time>2026-4-28T16:30:50Z</time></trkpt>
<trkpt lat="49.092601776123" lon="3.1618595123291"><ele>130</ele><time>2026-4-28T16:30:53Z</time></trkpt>
<trkpt lat="49.092693328857" lon="3.1619319915771"><ele>130</ele><time>2026-4-28T16:30:56Z</time></trkpt>
<trkpt lat="49.092693328857" lon="3.1619319915771"><ele>130</ele><time>2026-4-28T16:30:59Z</time></trkpt>
<trkpt lat="49.092800140381" lon="3.1619534492493"><ele>130</ele><time>2026-4-28T16:31:2Z</time></trkpt>
<trkpt lat="49.092800140381" lon="3.1619534492493"><ele>130</ele><time>2026-4-28T16:31:5Z</time></trkpt>
<trkpt lat="49.092876434326" lon="3.1619560718536"><ele>130</ele><time>2026-4-28T16:31:8Z</time></trkpt>
<trkpt lat="49.092876434326" lon="3.1619560718536"><ele>130</ele><time>2026-4-28T16:31:11Z</time></trkpt>
<trkpt lat="49.092964172363" lon="3.1619689464569"><ele>131</ele><time>2026-4-28T16:31:14Z</time></trkpt>
<trkpt lat="49.092964172363" lon="3.1619689464569"><ele>131</ele><time>2026-4-28T16:31:17Z</time></trkpt>
<trkpt lat="49.093048095703" lon="3.1619930267334"><ele>131</ele><time>2026-4-28T16:31:20Z</time></trkpt>
<trkpt lat="49.093048095703" lon="3.1619930267334"><ele>131</ele><time>2026-4-28T16:31:23Z</time></trkpt>
<trkpt lat="49.093143463135" lon="3.1620173454285"><ele>131</ele><time>2026-4-28T16:31:26Z</time></trkpt>
<trkpt lat="49.093204498291" lon="3.1620287895203"><ele>132</ele><time>2026-4-28T16:31:29Z</time></trkpt>
<trkpt lat="49.093265533447" lon="3.1620662212372"><ele>132</ele><time>2026-4-28T16:31:32Z</time></trkpt>
<trkpt lat="49.093322753906" lon="3.1621086597443"><ele>132</ele><time>2026-4-28T16:31:35Z</time></trkpt>
<trkpt lat="49.093364715576" lon="3.1621522903442"><ele>131</ele><time>2026-4-28T16:31:38Z</time></trkpt>
<trkpt lat="49.093406677246" lon="3.1621971130371"><ele>131</ele><time>2026-4-28T16:31:41Z</time></trkpt>
<trkpt lat="49.093456268311" lon="3.1622340679169"><ele>130</ele><time>2026-4-28T16:31:44Z</time></trkpt>
<trkpt lat="49.093505859375" lon="3.1622707843781"><ele>130</ele><time>2026-4-28T16:31:47Z</time></trkpt>
<trkpt lat="49.093559265137" lon="3.1623110771179"><ele>129</ele><time>2026-4-28T16:31:50Z</time></trkpt>
<trkpt lat="49.093673706055" lon="3.1624023914337"><ele>129</ele><time>2026-4-28T16:31:53Z</time></trkpt>
<trkpt lat="49.093673706055" lon="3.1624023914337"><ele>129</ele><time>2026-4-28T16:31:56Z</time></trkpt>
<trkpt lat="49.093765258789" lon="3.1624798774719"><ele>128</ele><time>2026-4-28T16:31:59Z</time></trkpt>
<trkpt lat="49.093860626221" lon="3.1625590324402"><ele>127</ele><time>2026-4-28T16:32:2Z</time></trkpt>
<trkpt lat="49.093971252441" lon="3.162627696991"><ele>126</ele><time>2026-4-28T16:32:5Z</time></trkpt>
<trkpt lat="49.093971252441" lon="3.162627696991"><ele>126</ele><time>2026-4-28T16:32:8Z</time></trkpt>
<trkpt lat="49.094100952148" lon="3.1626789569855"><ele>125</ele><time>2026-4-28T16:32:11Z</time></trkpt>
<trkpt lat="49.094257354736" lon="3.1627202033997"><ele>124</ele><time>2026-4-28T16:32:14Z</time></trkpt>
<trkpt lat="49.094421386719" lon="3.1628134250641"><ele>123</ele><time>2026-4-28T16:32:17Z</time></trkpt>
<trkpt lat="49.094421386719" lon="3.1628134250641"><ele>123</ele><time>2026-4-28T16:32:20Z</time></trkpt>
<trkpt lat="49.094573974609" lon="3.1629250049591"><ele>119</ele><time>2026-4-28T16:32:23Z</time></trkpt>
<trkpt lat="49.094738006592" lon="3.1630017757416"><ele>116</ele><time>2026-4-28T16:32:26Z</time></trkpt>
<trkpt lat="49.094917297363" lon="3.1630778312683"><ele>115</ele><time>2026-4-28T16:32:29Z</time></trkpt>
<trkpt lat="49.095024108887" lon="3.1631391048431"><ele>113</ele><time>2026-4-28T16:32:32Z</time></trkpt>
<trkpt lat="49.095115661621" lon="3.1631979942322"><ele>112</ele><time>2026-4-28T16:32:35Z</time></trkpt>
<trkpt lat="49.09521484375" lon="3.1632778644562"><ele>111</ele><time>2026-4-28T16:32:38Z</time></trkpt>
<trkpt lat="49.09529876709" lon="3.1633594036102"><ele>109</ele><time>2026-4-28T16:32:41Z</time></trkpt>
<trkpt lat="49.095375061035" lon="3.1634426116943"><ele>109</ele><time>2026-4-28T16:32:44Z</time></trkpt>
<trkpt lat="49.095375061035" lon="3.1634426116943"><ele>109</ele><time>2026-4-28T16:32:47Z</time></trkpt>
<trkpt lat="49.095497131348" lon="3.1636247634888"><ele>110</ele><time>2026-4-28T16:32:50Z</time></trkpt>
<trkpt lat="49.095596313477" lon="3.1637392044067"><ele>112</ele><time>2026-4-28T16:32:53Z</time></trkpt>
<trkpt lat="49.095653533936" lon="3.1638598442078"><ele>115</ele><time>2026-4-28T16:32:56Z</time></trkpt>
<trkpt lat="49.095684051514" lon="3.1639840602875"><ele>117</ele><time>2026-4-28T16:32:59Z</time></trkpt>
<trkpt lat="49.095691680908" lon="3.1641249656677"><ele>118</ele><time>2026-4-28T16:33:2Z</time></trkpt>
<trkpt lat="49.095695495605" lon="3.1642699241638"><ele>119</ele><time>2026-4-28T16:33:5Z</time></trkpt>
<trkpt lat="49.095687866211" lon="3.1644105911255"><ele>120</ele><time>2026-4-28T16:33:8Z</time></trkpt>
<trkpt lat="49.095668792725" lon="3.1645746231079"><ele>120</ele><time>2026-4-28T16:33:11Z</time></trkpt>
<trkpt lat="49.095653533936" lon="3.1647243499756"><ele>120</ele><time>2026-4-28T16:33:14Z</time></trkpt>
<trkpt lat="49.095645904541" lon="3.1648721694946"><ele>119</ele><time>2026-4-28T16:33:17Z</time></trkpt>
<trkpt lat="49.095657348633" lon="3.1650323867798"><ele>119</ele><time>2026-4-28T16:33:20Z</time></trkpt>
<trkpt lat="49.095664978027" lon="3.1652038097382"><ele>118</ele><time>2026-4-28T16:33:23Z</time></trkpt>
<trkpt lat="49.095672607422" lon="3.1653463840485"><ele>117</ele><time>2026-4-28T16:33:26Z</time></trkpt>
<trkpt lat="49.095680236816" lon="3.1654896736145"><ele>116</ele><time>2026-4-28T16:33:29Z</time></trkpt>
<trkpt lat="49.095703125" lon="3.1656272411346"><ele>115</ele><time>2026-4-28T16:33:32Z</time></trkpt>
<trkpt lat="49.095737457275" lon="3.1657619476318"><ele>116</ele><time>2026-4-28T16:33:35Z</time></trkpt>
<trkpt lat="49.095775604248" lon="3.1659066677094"><ele>117</ele><time>2026-4-28T16:33:38Z</time></trkpt>
<trkpt lat="49.095802307129" lon="3.1660535335541"><ele>118</ele><time>2026-4-28T16:33:41Z</time></trkpt>
<trkpt lat="49.095840454102" lon="3.1661975383759"><ele>119</ele><time>2026-4-28T16:33:44Z</time></trkpt>
<trkpt lat="49.095882415771" lon="3.1663339138031"><ele>120</ele><time>2026-4-28T16:33:47Z</time></trkpt>
<trkpt lat="49.095909118652" lon="3.1664843559265"><ele>120</ele><time>2026-4-28T16:33:50Z</time></trkpt>
<trkpt lat="49.09593963623" lon="3.1666281223297"><ele>120</ele><time>2026-4-28T16:33:53Z</time></trkpt>
<trkpt lat="49.095958709717" lon="3.1667788028717"><ele>121</ele><time>2026-4-28T16:33:56Z</time></trkpt>
<trkpt lat="49.0959815979" lon="3.1669285297394"><ele>121</ele><time>2026-4-28T16:33:59Z</time></trkpt>
<trkpt lat="49.0959815979" lon="3.1669285297394"><ele>121</ele><time>2026-4-28T16:34:2Z</time></trkpt>
<trkpt lat="49.095993041992" lon="3.1670684814453"><ele>120</ele><time>2026-4-28T16:34:5Z</time></trkpt>
<trkpt lat="49.096012115479" lon="3.1671922206879"><ele>119</ele><time>2026-4-28T16:34:8Z</time></trkpt>
<trkpt lat="49.096057891846" lon="3.1672987937927"><ele>119</ele><time>2026-4-28T16:34:11Z</time></trkpt>
<trkpt lat="49.096057891846" lon="3.1672987937927"><ele>119</ele><time>2026-4-28T16:34:14Z</time></trkpt>
<trkpt lat="49.096111297607" lon="3.167382478714"><ele>119</ele><time>2026-4-28T16:34:17Z</time></trkpt>
<trkpt lat="49.096176147461" lon="3.1674625873566"><ele>120</ele><time>2026-4-28T16:34:20Z</time></trkpt>
<trkpt lat="49.096252441406" lon="3.1675138473511"><ele>121</ele><time>2026-4-28T16:34:23Z</time></trkpt>
<trkpt lat="49.096252441406" lon="3.1675138473511"><ele>121</ele><time>2026-4-28T16:34:26Z</time></trkpt>
<trkpt lat="49.096343994141" lon="3.1675701141357"><ele>121</ele><time>2026-4-28T16:34:29Z</time></trkpt>
<trkpt lat="49.096439361572" lon="3.1676251888275"><ele>122</ele><time>2026-4-28T16:34:32Z</time></trkpt>
<trkpt lat="49.096534729004" lon="3.1676683425903"><ele>122</ele><time>2026-4-28T16:34:35Z</time></trkpt>
<trkpt lat="49.096534729004" lon="3.1676683425903"><ele>122</ele><time>2026-4-28T16:34:38Z</time></trkpt>
<trkpt lat="49.096645355225" lon="3.1677224636078"><ele>123</ele><time>2026-4-28T16:34:41Z</time></trkpt>
<trkpt lat="49.096755981445" lon="3.1677756309509"><ele>123</ele><time>2026-4-28T16:34:44Z</time></trkpt>
<trkpt lat="49.096855163574" lon="3.1678082942963"><ele>122</ele><time>2026-4-28T16:34:47Z</time></trkpt>
<trkpt lat="49.096855163574" lon="3.1678082942963"><ele>122</ele><time>2026-4-28T16:34:50Z</time></trkpt>
<trkpt lat="49.096961975098" lon="3.1678354740143"><ele>120</ele><time>2026-4-28T16:34:53Z</time></trkpt>
<trkpt lat="49.097080230713" lon="3.1678650379181"><ele>119</ele><time>2026-4-28T16:34:56Z</time></trkpt>
<trkpt lat="49.097187042236" lon="3.1678957939148"><ele>119</ele><time>2026-4-28T16:34:59Z</time></trkpt>
<trkpt lat="49.097187042236" lon="3.1678957939148"><ele>119</ele><time>2026-4-28T16:35:2Z</time></trkpt>
<trkpt lat="49.097305297852" lon="3.167927980423"><ele>119</ele><time>2026-4-28T16:35:5Z</time></trkpt>
<trkpt lat="49.097434997559" lon="3.1679627895355"><ele>119</ele><time>2026-4-28T16:35:8Z</time></trkpt>
<trkpt lat="49.097568511963" lon="3.1680026054382"><ele>119</ele><time>2026-4-28T16:35:11Z</time></trkpt>
<trkpt lat="49.097568511963" lon="3.1680026054382"><ele>119</ele><time>2026-4-28T16:35:14Z</time></trkpt>
<trkpt lat="49.097671508789" lon="3.1680464744568"><ele>119</ele><time>2026-4-28T16:35:17Z</time></trkpt>
<trkpt lat="49.097770690918" lon="3.168080329895"><ele>119</ele><time>2026-4-28T16:35:20Z</time></trkpt>
<trkpt lat="49.09786605835" lon="3.1681110858917"><ele>120</ele><time>2026-4-28T16:35:23Z</time></trkpt>
<trkpt lat="49.09786605835" lon="3.1681110858917"><ele>120</ele><time>2026-4-28T16:35:26Z</time></trkpt>
<trkpt lat="49.097961425781" lon="3.1681473255157"><ele>120</ele><time>2026-4-28T16:35:29Z</time></trkpt>
<trkpt lat="49.098056793213" lon="3.1681869029999"><ele>120</ele><time>2026-4-28T16:35:32Z</time></trkpt>
<trkpt lat="49.09814453125" lon="3.1682243347168"><ele>120</ele><time>2026-4-28T16:35:35Z</time></trkpt>
<trkpt lat="49.09814453125" lon="3.1682243347168"><ele>120</ele><time>2026-4-28T16:35:38Z</time></trkpt>
<trkpt lat="49.098239898682" lon="3.1682693958282"><ele>120</ele><time>2026-4-28T16:35:41Z</time></trkpt>
<trkpt lat="49.098327636719" lon="3.1683101654053"><ele>119</ele><time>2026-4-28T16:35:44Z</time></trkpt>
<trkpt lat="49.098419189453" lon="3.1683566570282"><ele>120</ele><time>2026-4-28T16:35:47Z</time></trkpt>
<trkpt lat="49.098419189453" lon="3.1683566570282"><ele>120</ele><time>2026-4-28T16:35:50Z</time></trkpt>
<trkpt lat="49.098526000977" lon="3.1684069633484"><ele>120</ele><time>2026-4-28T16:35:53Z</time></trkpt>
<trkpt lat="49.098617553711" lon="3.1684422492981"><ele>120</ele><time>2026-4-28T16:35:56Z</time></trkpt>
<trkpt lat="49.09871673584" lon="3.1684744358063"><ele>119</ele><time>2026-4-28T16:35:59Z</time></trkpt>
<trkpt lat="49.09871673584" lon="3.1684744358063"><ele>119</ele><time>2026-4-28T16:36:2Z</time></trkpt>
<trkpt lat="49.098808288574" lon="3.1685125827789"><ele>120</ele><time>2026-4-28T16:36:5Z</time></trkpt>
<trkpt lat="49.098865509033" lon="3.1685800552368"><ele>120</ele><time>2026-4-28T16:36:8Z</time></trkpt>
<trkpt lat="49.098876953125" lon="3.168666601181"><ele>120</ele><time>2026-4-28T16:36:11Z</time></trkpt>
<trkpt lat="49.098876953125" lon="3.168666601181"><ele>120</ele><time>2026-4-28T16:36:14Z</time></trkpt>
<trkpt lat="49.098857879639" lon="3.1687908172607"><ele>120</ele><time>2026-4-28T16:36:17Z</time></trkpt>
<trkpt lat="49.098850250244" lon="3.1688878536224"><ele>119</ele><time>2026-4-28T16:36:20Z</time></trkpt>
<trkpt lat="49.09884262085" lon="3.1689858436584"><ele>119</ele><time>2026-4-28T16:36:23Z</time></trkpt>
<trkpt lat="49.09884262085" lon="3.1689858436584"><ele>119</ele><time>2026-4-28T16:36:26Z</time></trkpt>
<trkpt lat="49.098838806152" lon="3.1691093444824"><ele>119</ele><time>2026-4-28T16:36:29Z</time></trkpt>
<trkpt lat="49.098834991455" lon="3.1692276000977"><ele>119</ele><time>2026-4-28T16:36:32Z</time></trkpt>
<trkpt lat="49.098834991455" lon="3.1692276000977"><ele>119</ele><time>2026-4-28T16:36:35Z</time></trkpt>
<trkpt lat="49.098834991455" lon="3.1692276000977"><ele>119</ele><time>2026-4-28T16:36:38Z</time></trkpt>
<trkpt lat="49.098838806152" lon="3.1693825721741"><ele>119</ele><time>2026-4-28T16:36:41Z</time></trkpt>
<trkpt lat="49.098838806152" lon="3.1693825721741"><ele>119</ele><time>2026-4-28T16:36:44Z</time></trkpt>
<trkpt lat="49.098834991455" lon="3.1695194244385"><ele>119</ele><time>2026-4-28T16:36:47Z</time></trkpt>
<trkpt lat="49.098834991455" lon="3.1695194244385"><ele>119</ele><time>2026-4-28T16:36:50Z</time></trkpt>
<trkpt lat="49.098834991455" lon="3.1695194244385"><ele>119</ele><time>2026-4-28T16:36:53Z</time></trkpt>
<trkpt lat="49.098850250244" lon="3.1696891784668"><ele>119</ele><time>2026-4-28T16:36:56Z</time></trkpt>
<trkpt lat="49.09886932373" lon="3.1697769165039"><ele>119</ele><time>2026-4-28T16:36:59Z</time></trkpt>
<trkpt lat="49.09886932373" lon="3.1697769165039"><ele>119</ele><time>2026-4-28T16:37:2Z</time></trkpt>
<trkpt lat="49.098880767822" lon="3.1698632240295"><ele>119</ele><time>2026-4-28T16:37:5Z</time></trkpt>
<trkpt lat="49.098896026611" lon="3.1699755191803"><ele>118</ele><time>2026-4-28T16:37:8Z</time></trkpt>
<trkpt lat="49.098896026611" lon="3.1700930595398"><ele>118</ele><time>2026-4-28T16:37:11Z</time></trkpt>
<trkpt lat="49.098896026611" lon="3.1700930595398"><ele>118</ele><time>2026-4-28T16:37:14Z</time></trkpt>
<trkpt lat="49.09888458252" lon="3.1701948642731"><ele>119</ele><time>2026-4-28T16:37:17Z</time></trkpt>
<trkpt lat="49.098876953125" lon="3.1702809333801"><ele>119</ele><time>2026-4-28T16:37:20Z</time></trkpt>
<trkpt lat="49.098876953125" lon="3.1702809333801"><ele>119</ele><time>2026-4-28T16:37:23Z</time></trkpt>
<trkpt lat="49.098880767822" lon="3.170449256897"><ele>119</ele><time>2026-4-28T16:37:26Z</time></trkpt>
<trkpt lat="49.098899841309" lon="3.1705515384674"><ele>119</ele><time>2026-4-28T16:37:29Z</time></trkpt>
<trkpt lat="49.098934173584" lon="3.1706557273865"><ele>119</ele><time>2026-4-28T16:37:32Z</time></trkpt>
<trkpt lat="49.098934173584" lon="3.1706557273865"><ele>119</ele><time>2026-4-28T16:37:35Z</time></trkpt>
<trkpt lat="49.098934173584" lon="3.1706557273865"><ele>119</ele><time>2026-4-28T16:37:38Z</time></trkpt>
<trkpt lat="49.098957061768" lon="3.170835018158"><ele>120</ele><time>2026-4-28T16:37:41Z</time></trkpt>
<trkpt lat="49.098957061768" lon="3.170835018158"><ele>120</ele><time>2026-4-28T16:37:44Z</time></trkpt>
<trkpt lat="49.098957061768" lon="3.170835018158"><ele>120</ele><time>2026-4-28T16:37:47Z</time></trkpt>
<trkpt lat="49.098941802979" lon="3.1710298061371"><ele>120</ele><time>2026-4-28T16:37:50Z</time></trkpt>
<trkpt lat="49.098941802979" lon="3.171124458313"><ele>120</ele><time>2026-4-28T16:37:53Z</time></trkpt>
<trkpt lat="49.098941802979" lon="3.171124458313"><ele>120</ele><time>2026-4-28T16:37:56Z</time></trkpt>
<trkpt lat="49.098937988281" lon="3.1712594032288"><ele>120</ele><time>2026-4-28T16:37:59Z</time></trkpt>
<trkpt lat="49.098937988281" lon="3.1712594032288"><ele>120</ele><time>2026-4-28T16:38:2Z</time></trkpt>
<trkpt lat="49.098907470703" lon="3.1714067459106"><ele>120</ele><time>2026-4-28T16:38:5Z</time></trkpt>
<trkpt lat="49.098907470703" lon="3.1714067459106"><ele>120</ele><time>2026-4-28T16:38:8Z</time></trkpt>
<trkpt lat="49.098907470703" lon="3.1714067459106"><ele>120</ele><time>2026-4-28T16:38:11Z</time></trkpt>
<trkpt lat="49.09888458252" lon="3.1715381145477"><ele>120</ele><time>2026-4-28T16:38:14Z</time></trkpt>
<trkpt lat="49.09888458252" lon="3.1715381145477"><ele>120</ele><time>2026-4-28T16:38:17Z</time></trkpt>
<trkpt lat="49.09888458252" lon="3.1715381145477"><ele>120</ele><time>2026-4-28T16:38:20Z</time></trkpt>
<trkpt lat="49.09888458252" lon="3.1716930866241"><ele>120</ele><time>2026-4-28T16:38:23Z</time></trkpt>
<trkpt lat="49.09888458252" lon="3.1716930866241"><ele>120</ele><time>2026-4-28T16:38:26Z</time></trkpt>
<trkpt lat="49.098899841309" lon="3.171861410141"><ele>120</ele><time>2026-4-28T16:38:29Z</time></trkpt>
<trkpt lat="49.098899841309" lon="3.171861410141"><ele>120</ele><time>2026-4-28T16:38:32Z</time></trkpt>
<trkpt lat="49.098915100098" lon="3.1719686985016"><ele>120</ele><time>2026-4-28T16:38:35Z</time></trkpt>
<trkpt lat="49.098941802979" lon="3.1720767021179"><ele>120</ele><time>2026-4-28T16:38:38Z</time></trkpt>
<trkpt lat="49.098972320557" lon="3.1721739768982"><ele>120</ele><time>2026-4-28T16:38:41Z</time></trkpt>
<trkpt lat="49.098972320557" lon="3.1721739768982"><ele>120</ele><time>2026-4-28T16:38:44Z</time></trkpt>
<trkpt lat="49.09899520874" lon="3.1722710132599"><ele>120</ele><time>2026-4-28T16:38:47Z</time></trkpt>
<trkpt lat="49.09899520874" lon="3.1723861694336"><ele>120</ele><time>2026-4-28T16:38:50Z</time></trkpt>
<trkpt lat="49.09899520874" lon="3.172486782074"><ele>120</ele><time>2026-4-28T16:38:53Z</time></trkpt>
<trkpt lat="49.09899520874" lon="3.172486782074"><ele>120</ele><time>2026-4-28T16:38:56Z</time></trkpt>
<trkpt lat="49.098979949951" lon="3.1726496219635"><ele>121</ele><time>2026-4-28T16:38:59Z</time></trkpt>
<trkpt lat="49.09895324707" lon="3.1727266311646"><ele>121</ele><time>2026-4-28T16:39:2Z</time></trkpt>
<trkpt lat="49.09895324707" lon="3.1727266311646"><ele>121</ele><time>2026-4-28T16:39:5Z</time></trkpt>
<trkpt lat="49.09895324707" lon="3.1727266311646"><ele>121</ele><time>2026-4-28T16:39:8Z</time></trkpt>
<trkpt lat="49.098907470703" lon="3.1728632450104"><ele>121</ele><time>2026-4-28T16:39:11Z</time></trkpt>
<trkpt lat="49.098907470703" lon="3.1728632450104"><ele>121</ele><time>2026-4-28T16:39:14Z</time></trkpt>
<trkpt lat="49.098857879639" lon="3.1730082035065"><ele>121</ele><time>2026-4-28T16:39:17Z</time></trkpt>
<trkpt lat="49.098827362061" lon="3.1731233596802"><ele>121</ele><time>2026-4-28T16:39:20Z</time></trkpt>
<trkpt lat="49.098796844482" lon="3.1732275485992"><ele>121</ele><time>2026-4-28T16:39:23Z</time></trkpt>
<trkpt lat="49.098766326904" lon="3.1733226776123"><ele>121</ele><time>2026-4-28T16:39:26Z</time></trkpt>
<trkpt lat="49.098735809326" lon="3.1733999252319"><ele>121</ele><time>2026-4-28T16:39:29Z</time></trkpt>
<trkpt lat="49.098735809326" lon="3.1733999252319"><ele>121</ele><time>2026-4-28T16:39:32Z</time></trkpt>
<trkpt lat="49.098686218262" lon="3.1735382080078"><ele>121</ele><time>2026-4-28T16:39:35Z</time></trkpt>
<trkpt lat="49.098686218262" lon="3.1735382080078"><ele>121</ele><time>2026-4-28T16:39:38Z</time></trkpt>
<trkpt lat="49.098651885986" lon="3.1736197471619"><ele>121</ele><time>2026-4-28T16:39:41Z</time></trkpt>
<trkpt lat="49.098651885986" lon="3.1736197471619"><ele>121</ele><time>2026-4-28T16:39:44Z</time></trkpt>
<trkpt lat="49.098651885986" lon="3.1736197471619"><ele>121</ele><time>2026-4-28T16:39:47Z</time></trkpt>
<trkpt lat="49.098651885986" lon="3.1736197471619"><ele>121</ele><time>2026-4-28T16:39:50Z</time></trkpt>
<trkpt lat="49.098636627197" lon="3.173659324646"><ele>121</ele><time>2026-4-28T16:39:53Z</time></trkpt>
<trkpt lat="49.098606109619" lon="3.1737158298492"><ele>122</ele><time>2026-4-28T16:39:56Z</time></trkpt>
<trkpt lat="49.098567962646" lon="3.1737923622131"><ele>122</ele><time>2026-4-28T16:39:59Z</time></trkpt>
<trkpt lat="49.098537445068" lon="3.173862695694"><ele>122</ele><time>2026-4-28T16:40:2Z</time></trkpt>
<trkpt lat="49.098510742188" lon="3.1739249229431"><ele>123</ele><time>2026-4-28T16:40:5Z</time></trkpt>
<trkpt lat="49.098453521729" lon="3.1740343570709"><ele>123</ele><time>2026-4-28T16:40:8Z</time></trkpt>
<trkpt lat="49.098411560059" lon="3.1740918159485"><ele>123</ele><time>2026-4-28T16:40:11Z</time></trkpt>
<trkpt lat="49.098358154297" lon="3.1741700172424"><ele>123</ele><time>2026-4-28T16:40:14Z</time></trkpt>
<trkpt lat="49.098320007324" lon="3.1742811203003"><ele>123</ele><time>2026-4-28T16:40:17Z</time></trkpt>
<trkpt lat="49.098323822021" lon="3.1743974685669"><ele>124</ele><time>2026-4-28T16:40:20Z</time></trkpt>
<trkpt lat="49.098346710205" lon="3.17449259758"><ele>124</ele><time>2026-4-28T16:40:23Z</time></trkpt>
<trkpt lat="49.0983543396" lon="3.1745944023132"><ele>124</ele><time>2026-4-28T16:40:26Z</time></trkpt>
<trkpt lat="49.098365783691" lon="3.174720287323"><ele>123</ele><time>2026-4-28T16:40:29Z</time></trkpt>
<trkpt lat="49.098365783691" lon="3.1748406887054"><ele>123</ele><time>2026-4-28T16:40:32Z</time></trkpt>
<trkpt lat="49.098361968994" lon="3.174929857254"><ele>123</ele><time>2026-4-28T16:40:35Z</time></trkpt>
<trkpt lat="49.098361968994" lon="3.174929857254"><ele>123</ele><time>2026-4-28T16:40:38Z</time></trkpt>
<trkpt lat="49.098346710205" lon="3.175076007843"><ele>123</ele><time>2026-4-28T16:40:41Z</time></trkpt>
<trkpt lat="49.098365783691" lon="3.1752436161041"><ele>123</ele><time>2026-4-28T16:40:44Z</time></trkpt>
<trkpt lat="49.098388671875" lon="3.1754012107849"><ele>124</ele><time>2026-4-28T16:40:47Z</time></trkpt>
<trkpt lat="49.09839630127" lon="3.1755032539368"><ele>124</ele><time>2026-4-28T16:40:50Z</time></trkpt>
<trkpt lat="49.098434448242" lon="3.1755986213684"><ele>124</ele><time>2026-4-28T16:40:53Z</time></trkpt>
<trkpt lat="49.098468780518" lon="3.1756908893585"><ele>124</ele><time>2026-4-28T16:40:56Z</time></trkpt>
<trkpt lat="49.098514556885" lon="3.1757957935333"><ele>124</ele><time>2026-4-28T16:40:59Z</time></trkpt>
<trkpt lat="49.098552703857" lon="3.1758964061737"><ele>124</ele><time>2026-4-28T16:41:2Z</time></trkpt>
<trkpt lat="49.098575592041" lon="3.1760051250458"><ele>124</ele><time>2026-4-28T16:41:5Z</time></trkpt>
<trkpt lat="49.098583221436" lon="3.1761009693146"><ele>124</ele><time>2026-4-28T16:41:8Z</time></trkpt>
<trkpt lat="49.098583221436" lon="3.1761939525604"><ele>124</ele><time>2026-4-28T16:41:11Z</time></trkpt>
<trkpt lat="49.09859085083" lon="3.1762900352478"><ele>124</ele><time>2026-4-28T16:41:14Z</time></trkpt>
<trkpt lat="49.098598480225" lon="3.1764168739319"><ele>124</ele><time>2026-4-28T16:41:17Z</time></trkpt>
<trkpt lat="49.098606109619" lon="3.1765198707581"><ele>125</ele><time>2026-4-28T16:41:20Z</time></trkpt>
<trkpt lat="49.098606109619" lon="3.1766288280487"><ele>125</ele><time>2026-4-28T16:41:23Z</time></trkpt>
<trkpt lat="49.098606109619" lon="3.1766288280487"><ele>125</ele><time>2026-4-28T16:41:26Z</time></trkpt>
<trkpt lat="49.098613739014" lon="3.1767859458923"><ele>124</ele><time>2026-4-28T16:41:29Z</time></trkpt>
<trkpt lat="49.098613739014" lon="3.1767859458923"><ele>124</ele><time>2026-4-28T16:41:32Z</time></trkpt>
<trkpt lat="49.098625183105" lon="3.1769316196442"><ele>124</ele><time>2026-4-28T16:41:35Z</time></trkpt>
<trkpt lat="49.098625183105" lon="3.1769316196442"><ele>124</ele><time>2026-4-28T16:41:38Z</time></trkpt>
<trkpt lat="49.09867477417" lon="3.1770722866058"><ele>124</ele><time>2026-4-28T16:41:41Z</time></trkpt>
<trkpt lat="49.098712921143" lon="3.1771609783173"><ele>124</ele><time>2026-4-28T16:41:44Z</time></trkpt>
<trkpt lat="49.098754882812" lon="3.1772365570068"><ele>123</ele><time>2026-4-28T16:41:47Z</time></trkpt>
<trkpt lat="49.098850250244" lon="3.1773846149445"><ele>123</ele><time>2026-4-28T16:41:50Z</time></trkpt>
<trkpt lat="49.098899841309" lon="3.1774592399597"><ele>123</ele><time>2026-4-28T16:41:53Z</time></trkpt>
<trkpt lat="49.098976135254" lon="3.1775555610657"><ele>123</ele><time>2026-4-28T16:41:56Z</time></trkpt>
<trkpt lat="49.098976135254" lon="3.1775555610657"><ele>123</ele><time>2026-4-28T16:41:59Z</time></trkpt>
<trkpt lat="49.099040985107" lon="3.1776604652405"><ele>123</ele><time>2026-4-28T16:42:2Z</time></trkpt>
<trkpt lat="49.099040985107" lon="3.1776604652405"><ele>123</ele><time>2026-4-28T16:42:5Z</time></trkpt>
<trkpt lat="49.099102020264" lon="3.177784204483"><ele>123</ele><time>2026-4-28T16:42:8Z</time></trkpt>
<trkpt lat="49.099136352539" lon="3.1778798103333"><ele>123</ele><time>2026-4-28T16:42:11Z</time></trkpt>
<trkpt lat="49.099166870117" lon="3.1779563426971"><ele>123</ele><time>2026-4-28T16:42:14Z</time></trkpt>
<trkpt lat="49.099166870117" lon="3.1779563426971"><ele>123</ele><time>2026-4-28T16:42:17Z</time></trkpt>
<trkpt lat="49.099189758301" lon="3.1781051158905"><ele>122</ele><time>2026-4-28T16:42:20Z</time></trkpt>
<trkpt lat="49.099189758301" lon="3.1781051158905"><ele>122</ele><time>2026-4-28T16:42:23Z</time></trkpt>
<trkpt lat="49.099182128906" lon="3.1782655715942"><ele>122</ele><time>2026-4-28T16:42:26Z</time></trkpt>
<trkpt lat="49.099166870117" lon="3.1783564090729"><ele>122</ele><time>2026-4-28T16:42:29Z</time></trkpt>
<trkpt lat="49.099166870117" lon="3.1783564090729"><ele>122</ele><time>2026-4-28T16:42:32Z</time></trkpt>
<trkpt lat="49.099151611328" lon="3.1785044670105"><ele>122</ele><time>2026-4-28T16:42:35Z</time></trkpt>
<trkpt lat="49.099151611328" lon="3.1785044670105"><ele>122</ele><time>2026-4-28T16:42:38Z</time></trkpt>
<trkpt lat="49.099136352539" lon="3.1786725521088"><ele>122</ele><time>2026-4-28T16:42:41Z</time></trkpt>
<trkpt lat="49.099136352539" lon="3.1786725521088"><ele>122</ele><time>2026-4-28T16:42:44Z</time></trkpt>
<trkpt lat="49.099147796631" lon="3.178848028183"><ele>122</ele><time>2026-4-28T16:42:47Z</time></trkpt>
<trkpt lat="49.099147796631" lon="3.178848028183"><ele>122</ele><time>2026-4-28T16:42:50Z</time></trkpt>
<trkpt lat="49.099174499512" lon="3.1789638996124"><ele>122</ele><time>2026-4-28T16:42:53Z</time></trkpt>
<trkpt lat="49.099174499512" lon="3.1789638996124"><ele>122</ele><time>2026-4-28T16:42:56Z</time></trkpt>
<trkpt lat="49.099174499512" lon="3.1789638996124"><ele>122</ele><time>2026-4-28T16:42:59Z</time></trkpt>
<trkpt lat="49.099174499512" lon="3.1789638996124"><ele>122</ele><time>2026-4-28T16:43:2Z</time></trkpt>
<trkpt lat="49.099174499512" lon="3.1789638996124"><ele>122</ele><time>2026-4-28T16:43:5Z</time></trkpt>
<trkpt lat="49.099174499512" lon="3.1789638996124"><ele>122</ele><time>2026-4-28T16:43:8Z</time></trkpt>
<trkpt lat="49.099174499512" lon="3.1789638996124"><ele>122</ele><time>2026-4-28T16:43:11Z</time></trkpt>
<trkpt lat="49.099174499512" lon="3.1789638996124"><ele>122</ele><time>2026-4-28T16:43:14Z</time></trkpt>
<trkpt lat="49.099174499512" lon="3.1789638996124"><ele>122</ele><time>2026-4-28T16:43:17Z</time></trkpt>
<trkpt lat="49.099174499512" lon="3.1789638996124"><ele>122</ele><time>2026-4-28T16:43:20Z</time></trkpt>
<trkpt lat="49.099174499512" lon="3.1789638996124"><ele>122</ele><time>2026-4-28T16:43:23Z</time></trkpt>
<trkpt lat="49.099174499512" lon="3.1789638996124"><ele>122</ele><time>2026-4-28T16:43:26Z</time></trkpt>
<trkpt lat="49.099174499512" lon="3.1789638996124"><ele>122</ele><time>2026-4-28T16:43:29Z</time></trkpt>
<trkpt lat="49.099174499512" lon="3.1789638996124"><ele>122</ele><time>2026-4-28T16:43:32Z</time></trkpt>
<trkpt lat="49.099174499512" lon="3.1789638996124"><ele>122</ele><time>2026-4-28T16:43:35Z</time></trkpt>
<trkpt lat="49.099170684814" lon="3.179060459137"><ele>117</ele><time>2026-4-28T16:43:38Z</time></trkpt>
<trkpt lat="49.099170684814" lon="3.179060459137"><ele>117</ele><time>2026-4-28T16:43:41Z</time></trkpt>
<trkpt lat="49.099170684814" lon="3.179060459137"><ele>117</ele><time>2026-4-28T16:43:44Z</time></trkpt>
<trkpt lat="49.099170684814" lon="3.179060459137"><ele>117</ele><time>2026-4-28T16:43:47Z</time></trkpt>
<trkpt lat="49.099170684814" lon="3.179060459137"><ele>117</ele><time>2026-4-28T16:43:50Z</time></trkpt>
<trkpt lat="49.099170684814" lon="3.179060459137"><ele>117</ele><time>2026-4-28T16:43:53Z</time></trkpt>
<trkpt lat="49.099170684814" lon="3.179060459137"><ele>117</ele><time>2026-4-28T16:43:56Z</time></trkpt>
<trkpt lat="49.099170684814" lon="3.179060459137"><ele>117</ele><time>2026-4-28T16:43:59Z</time></trkpt>
<trkpt lat="49.099170684814" lon="3.179060459137"><ele>117</ele><time>2026-4-28T16:44:2Z</time></trkpt>
<trkpt lat="49.099250793457" lon="3.1793088912964"><ele>118</ele><time>2026-4-28T16:44:5Z</time></trkpt>
<trkpt lat="49.099250793457" lon="3.1793088912964"><ele>118</ele><time>2026-4-28T16:44:8Z</time></trkpt>
<trkpt lat="49.099311828613" lon="3.179386138916"><ele>118</ele><time>2026-4-28T16:44:11Z</time></trkpt>
<trkpt lat="49.099418640137" lon="3.1793088912964"><ele>118</ele><time>2026-4-28T16:44:14Z</time></trkpt>
<trkpt lat="49.099464416504" lon="3.1792547702789"><ele>118</ele><time>2026-4-28T16:44:17Z</time></trkpt>
<trkpt lat="49.099510192871" lon="3.1791911125183"><ele>118</ele><time>2026-4-28T16:44:20Z</time></trkpt>
<trkpt lat="49.099510192871" lon="3.1791911125183"><ele>118</ele><time>2026-4-28T16:44:23Z</time></trkpt>
<trkpt lat="49.099582672119" lon="3.1790766716003"><ele>118</ele><time>2026-4-28T16:44:26Z</time></trkpt>
<trkpt lat="49.099636077881" lon="3.1789956092834"><ele>118</ele><time>2026-4-28T16:44:29Z</time></trkpt>
<trkpt lat="49.09969329834" lon="3.1789150238037"><ele>118</ele><time>2026-4-28T16:44:32Z</time></trkpt>
<trkpt lat="49.099758148193" lon="3.1788003444672"><ele>119</ele><time>2026-4-28T16:44:35Z</time></trkpt>
<trkpt lat="49.099758148193" lon="3.1788003444672"><ele>119</ele><time>2026-4-28T16:44:38Z</time></trkpt>
<trkpt lat="49.099815368652" lon="3.178683757782"><ele>119</ele><time>2026-4-28T16:44:41Z</time></trkpt>
<trkpt lat="49.099815368652" lon="3.178683757782"><ele>119</ele><time>2026-4-28T16:44:44Z</time></trkpt>
<trkpt lat="49.099876403809" lon="3.178594827652"><ele>119</ele><time>2026-4-28T16:44:47Z</time></trkpt>
<trkpt lat="49.099876403809" lon="3.178594827652"><ele>119</ele><time>2026-4-28T16:44:50Z</time></trkpt>
<trkpt lat="49.099876403809" lon="3.178594827652"><ele>119</ele><time>2026-4-28T16:44:53Z</time></trkpt>
<trkpt lat="49.099876403809" lon="3.178594827652"><ele>119</ele><time>2026-4-28T16:44:56Z</time></trkpt>
<trkpt lat="49.099876403809" lon="3.178594827652"><ele>119</ele><time>2026-4-28T16:44:59Z</time></trkpt>
<trkpt lat="49.099876403809" lon="3.178594827652"><ele>119</ele><time>2026-4-28T16:45:2Z</time></trkpt>
<trkpt lat="49.099910736084" lon="3.1786305904388"><ele>120</ele><time>2026-4-28T16:45:5Z</time></trkpt>
<trkpt lat="49.099910736084" lon="3.1786305904388"><ele>120</ele><time>2026-4-28T16:45:8Z</time></trkpt>
<trkpt lat="49.099910736084" lon="3.1786305904388"><ele>120</ele><time>2026-4-28T16:45:11Z</time></trkpt>
<trkpt lat="49.099910736084" lon="3.1786305904388"><ele>120</ele><time>2026-4-28T16:45:14Z</time></trkpt>
<trkpt lat="49.099941253662" lon="3.1785764694214"><ele>119</ele><time>2026-4-28T16:45:17Z</time></trkpt>
<trkpt lat="49.099975585938" lon="3.1784999370575"><ele>119</ele><time>2026-4-28T16:45:20Z</time></trkpt>
<trkpt lat="49.100002288818" lon="3.1784269809723"><ele>119</ele><time>2026-4-28T16:45:23Z</time></trkpt>
<trkpt lat="49.100025177002" lon="3.1783418655396"><ele>119</ele><time>2026-4-28T16:45:26Z</time></trkpt>
<trkpt lat="49.100048065186" lon="3.1782484054565"><ele>119</ele><time>2026-4-28T16:45:29Z</time></trkpt>
<trkpt lat="49.100093841553" lon="3.1780686378479"><ele>119</ele><time>2026-4-28T16:45:32Z</time></trkpt>
<trkpt lat="49.100093841553" lon="3.1780686378479"><ele>119</ele><time>2026-4-28T16:45:35Z</time></trkpt>
<trkpt lat="49.100124359131" lon="3.1779317855835"><ele>120</ele><time>2026-4-28T16:45:38Z</time></trkpt>
<trkpt lat="49.100166320801" lon="3.1777801513672"><ele>121</ele><time>2026-4-28T16:45:41Z</time></trkpt>
<trkpt lat="49.100193023682" lon="3.1776928901672"><ele>121</ele><time>2026-4-28T16:45:44Z</time></trkpt>
<trkpt lat="49.100273132324" lon="3.1775965690613"><ele>122</ele><time>2026-4-28T16:45:47Z</time></trkpt>
<trkpt lat="49.100273132324" lon="3.1775965690613"><ele>122</ele><time>2026-4-28T16:45:50Z</time></trkpt>
<trkpt lat="49.100364685059" lon="3.1777408123016"><ele>122</ele><time>2026-4-28T16:45:53Z</time></trkpt>
<trkpt lat="49.100391387939" lon="3.1778483390808"><ele>122</ele><time>2026-4-28T16:45:56Z</time></trkpt>
<trkpt lat="49.100391387939" lon="3.1778483390808"><ele>122</ele><time>2026-4-28T16:45:59Z</time></trkpt>
<trkpt lat="49.100429534912" lon="3.1779894828796"><ele>122</ele><time>2026-4-28T16:46:2Z</time></trkpt>
<trkpt lat="49.100429534912" lon="3.1779894828796"><ele>122</ele><time>2026-4-28T16:46:5Z</time></trkpt>
<trkpt lat="49.100467681885" lon="3.1781487464905"><ele>122</ele><time>2026-4-28T16:46:8Z</time></trkpt>
<trkpt lat="49.100494384766" lon="3.1782917976379"><ele>122</ele><time>2026-4-28T16:46:11Z</time></trkpt>
<trkpt lat="49.100521087646" lon="3.178436756134"><ele>122</ele><time>2026-4-28T16:46:14Z</time></trkpt>
<trkpt lat="49.100536346436" lon="3.1785271167755"><ele>122</ele><time>2026-4-28T16:46:17Z</time></trkpt>
<trkpt lat="49.100566864014" lon="3.1786735057831"><ele>122</ele><time>2026-4-28T16:46:20Z</time></trkpt>
<trkpt lat="49.100566864014" lon="3.1786735057831"><ele>122</ele><time>2026-4-28T16:46:23Z</time></trkpt>
<trkpt lat="49.100597381592" lon="3.1787567138672"><ele>122</ele><time>2026-4-28T16:46:26Z</time></trkpt>
<trkpt lat="49.100597381592" lon="3.1787567138672"><ele>122</ele><time>2026-4-28T16:46:29Z</time></trkpt>
<trkpt lat="49.100597381592" lon="3.1787567138672"><ele>122</ele><time>2026-4-28T16:46:32Z</time></trkpt>
<trkpt lat="49.100597381592" lon="3.1787567138672"><ele>122</ele><time>2026-4-28T16:46:35Z</time></trkpt>
<trkpt lat="49.100597381592" lon="3.1787567138672"><ele>122</ele><time>2026-4-28T16:46:38Z</time></trkpt>
<trkpt lat="49.100597381592" lon="3.1787567138672"><ele>122</ele><time>2026-4-28T16:46:41Z</time></trkpt>
<trkpt lat="49.100597381592" lon="3.1787567138672"><ele>122</ele><time>2026-4-28T16:46:44Z</time></trkpt>
<trkpt lat="49.100597381592" lon="3.1787567138672"><ele>122</ele><time>2026-4-28T16:46:47Z</time></trkpt>
<trkpt lat="49.100597381592" lon="3.1787567138672"><ele>122</ele><time>2026-4-28T16:46:50Z</time></trkpt>
<trkpt lat="49.100597381592" lon="3.1787567138672"><ele>122</ele><time>2026-4-28T16:46:53Z</time></trkpt>
<trkpt lat="49.100597381592" lon="3.1787567138672"><ele>122</ele><time>2026-4-28T16:46:56Z</time></trkpt>
<trkpt lat="49.100612640381" lon="3.1788520812988"><ele>122</ele><time>2026-4-28T16:46:59Z</time></trkpt>
<trkpt lat="49.100616455078" lon="3.1789305210114"><ele>123</ele><time>2026-4-28T16:47:2Z</time></trkpt>
<trkpt lat="49.100624084473" lon="3.1790137290955"><ele>123</ele><time>2026-4-28T16:47:5Z</time></trkpt>
<trkpt lat="49.100631713867" lon="3.1791076660156"><ele>123</ele><time>2026-4-28T16:47:8Z</time></trkpt>
<trkpt lat="49.100639343262" lon="3.1791958808899"><ele>123</ele><time>2026-4-28T16:47:11Z</time></trkpt>
<trkpt lat="49.100658416748" lon="3.1793656349182"><ele>124</ele><time>2026-4-28T16:47:14Z</time></trkpt>
<trkpt lat="49.100677490234" lon="3.1795070171356"><ele>124</ele><time>2026-4-28T16:47:17Z</time></trkpt>
<trkpt lat="49.100677490234" lon="3.1795070171356"><ele>124</ele><time>2026-4-28T16:47:20Z</time></trkpt>
<trkpt lat="49.100639343262" lon="3.179630279541"><ele>124</ele><time>2026-4-28T16:47:23Z</time></trkpt>
<trkpt lat="49.100620269775" lon="3.1797497272491"><ele>124</ele><time>2026-4-28T16:47:26Z</time></trkpt>
<trkpt lat="49.10062789917" lon="3.1798634529114"><ele>124</ele><time>2026-4-28T16:47:29Z</time></trkpt>
<trkpt lat="49.10062789917" lon="3.1798634529114"><ele>124</ele><time>2026-4-28T16:47:32Z</time></trkpt>
<trkpt lat="49.100646972656" lon="3.1799921989441"><ele>124</ele><time>2026-4-28T16:47:35Z</time></trkpt>
<trkpt lat="49.100666046143" lon="3.1800956726074"><ele>124</ele><time>2026-4-28T16:47:38Z</time></trkpt>
<trkpt lat="49.100677490234" lon="3.1802093982697"><ele>124</ele><time>2026-4-28T16:47:41Z</time></trkpt>
<trkpt lat="49.100677490234" lon="3.1802093982697"><ele>124</ele><time>2026-4-28T16:47:44Z</time></trkpt>
<trkpt lat="49.100685119629" lon="3.1803407669067"><ele>124</ele><time>2026-4-28T16:47:47Z</time></trkpt>
<trkpt lat="49.100696563721" lon="3.1804802417755"><ele>124</ele><time>2026-4-28T16:47:50Z</time></trkpt>
<trkpt lat="49.100704193115" lon="3.1806235313416"><ele>123</ele><time>2026-4-28T16:47:53Z</time></trkpt>
<trkpt lat="49.100704193115" lon="3.1806235313416"><ele>123</ele><time>2026-4-28T16:47:56Z</time></trkpt>
<trkpt lat="49.10071182251" lon="3.1807358264923"><ele>123</ele><time>2026-4-28T16:47:59Z</time></trkpt>
<trkpt lat="49.10071182251" lon="3.1807358264923"><ele>123</ele><time>2026-4-28T16:48:2Z</time></trkpt>
<trkpt lat="49.10071182251" lon="3.1807358264923"><ele>123</ele><time>2026-4-28T16:48:5Z</time></trkpt>
<trkpt lat="49.100715637207" lon="3.1808776855469"><ele>123</ele><time>2026-4-28T16:48:8Z</time></trkpt>
<trkpt lat="49.100772857666" lon="3.1810381412506"><ele>122</ele><time>2026-4-28T16:48:11Z</time></trkpt>
<trkpt lat="49.100772857666" lon="3.1810381412506"><ele>122</ele><time>2026-4-28T16:48:14Z</time></trkpt>
<trkpt lat="49.100803375244" lon="3.1811347007751"><ele>122</ele><time>2026-4-28T16:48:17Z</time></trkpt>
<trkpt lat="49.100852966309" lon="3.1813197135925"><ele>122</ele><time>2026-4-28T16:48:20Z</time></trkpt>
<trkpt lat="49.100852966309" lon="3.1813197135925"><ele>122</ele><time>2026-4-28T16:48:23Z</time></trkpt>
<trkpt lat="49.100875854492" lon="3.1814041137695"><ele>122</ele><time>2026-4-28T16:48:26Z</time></trkpt>
<trkpt lat="49.100883483887" lon="3.1814923286438"><ele>122</ele><time>2026-4-28T16:48:29Z</time></trkpt>
<trkpt lat="49.100883483887" lon="3.1814923286438"><ele>122</ele><time>2026-4-28T16:48:32Z</time></trkpt>
<trkpt lat="49.100883483887" lon="3.1816601753235"><ele>123</ele><time>2026-4-28T16:48:35Z</time></trkpt>
<trkpt lat="49.100879669189" lon="3.1817786693573"><ele>123</ele><time>2026-4-28T16:48:38Z</time></trkpt>
<trkpt lat="49.100860595703" lon="3.1818909645081"><ele>124</ele><time>2026-4-28T16:48:41Z</time></trkpt>
<trkpt lat="49.100860595703" lon="3.1818909645081"><ele>124</ele><time>2026-4-28T16:48:44Z</time></trkpt>
<trkpt lat="49.100845336914" lon="3.1819751262665"><ele>124</ele><time>2026-4-28T16:48:47Z</time></trkpt>
<trkpt lat="49.100845336914" lon="3.1819751262665"><ele>124</ele><time>2026-4-28T16:48:50Z</time></trkpt>
<trkpt lat="49.100841522217" lon="3.1821193695068"><ele>125</ele><time>2026-4-28T16:48:53Z</time></trkpt>
<trkpt lat="49.100841522217" lon="3.1821193695068"><ele>125</ele><time>2026-4-28T16:48:56Z</time></trkpt>
<trkpt lat="49.100845336914" lon="3.1822197437286"><ele>125</ele><time>2026-4-28T16:48:59Z</time></trkpt>
<trkpt lat="49.100845336914" lon="3.1822197437286"><ele>125</ele><time>2026-4-28T16:49:2Z</time></trkpt>
<trkpt lat="49.100845336914" lon="3.1823613643646"><ele>126</ele><time>2026-4-28T16:49:5Z</time></trkpt>
<trkpt lat="49.100845336914" lon="3.1823613643646"><ele>126</ele><time>2026-4-28T16:49:8Z</time></trkpt>
<trkpt lat="49.100845336914" lon="3.1823613643646"><ele>126</ele><time>2026-4-28T16:49:11Z</time></trkpt>
<trkpt lat="49.100841522217" lon="3.1824905872345"><ele>127</ele><time>2026-4-28T16:49:14Z</time></trkpt>
<trkpt lat="49.100841522217" lon="3.1824905872345"><ele>127</ele><time>2026-4-28T16:49:17Z</time></trkpt>
<trkpt lat="49.100841522217" lon="3.1824905872345"><ele>127</ele><time>2026-4-28T16:49:20Z</time></trkpt>
<trkpt lat="49.100841522217" lon="3.1826486587524"><ele>127</ele><time>2026-4-28T16:49:23Z</time></trkpt>
<trkpt lat="49.10083770752" lon="3.1827571392059"><ele>128</ele><time>2026-4-28T16:49:26Z</time></trkpt>
<trkpt lat="49.100841522217" lon="3.1829102039337"><ele>128</ele><time>2026-4-28T16:49:29Z</time></trkpt>
<trkpt lat="49.100841522217" lon="3.1829102039337"><ele>128</ele><time>2026-4-28T16:49:32Z</time></trkpt>
<trkpt lat="49.100845336914" lon="3.1830804347992"><ele>127</ele><time>2026-4-28T16:49:35Z</time></trkpt>
<trkpt lat="49.100856781006" lon="3.1832129955292"><ele>126</ele><time>2026-4-28T16:49:38Z</time></trkpt>
<trkpt lat="49.100868225098" lon="3.1833107471466"><ele>126</ele><time>2026-4-28T16:49:41Z</time></trkpt>
<trkpt lat="49.100868225098" lon="3.1833107471466"><ele>126</ele><time>2026-4-28T16:49:44Z</time></trkpt>
<trkpt lat="49.100872039795" lon="3.1834073066711"><ele>126</ele><time>2026-4-28T16:49:47Z</time></trkpt>
<trkpt lat="49.100879669189" lon="3.1835210323334"><ele>126</ele><time>2026-4-28T16:49:50Z</time></trkpt>
<trkpt lat="49.100891113281" lon="3.1836333274841"><ele>126</ele><time>2026-4-28T16:49:53Z</time></trkpt>
<trkpt lat="49.100891113281" lon="3.1836333274841"><ele>126</ele><time>2026-4-28T16:49:56Z</time></trkpt>
<trkpt lat="49.10090637207" lon="3.1837475299835"><ele>126</ele><time>2026-4-28T16:49:59Z</time></trkpt>
<trkpt lat="49.100925445557" lon="3.1838536262512"><ele>125</ele><time>2026-4-28T16:50:2Z</time></trkpt>
<trkpt lat="49.100952148438" lon="3.1839647293091"><ele>125</ele><time>2026-4-28T16:50:5Z</time></trkpt>
<trkpt lat="49.100952148438" lon="3.1839647293091"><ele>125</ele><time>2026-4-28T16:50:8Z</time></trkpt>
<trkpt lat="49.100982666016" lon="3.1841125488281"><ele>125</ele><time>2026-4-28T16:50:11Z</time></trkpt>
<trkpt lat="49.100982666016" lon="3.1841125488281"><ele>125</ele><time>2026-4-28T16:50:14Z</time></trkpt>
<trkpt lat="49.100982666016" lon="3.1841125488281"><ele>125</ele><time>2026-4-28T16:50:17Z</time></trkpt>
<trkpt lat="49.101001739502" lon="3.1842045783997"><ele>125</ele><time>2026-4-28T16:50:20Z</time></trkpt>
<trkpt lat="49.101001739502" lon="3.1842045783997"><ele>125</ele><time>2026-4-28T16:50:23Z</time></trkpt>
<trkpt lat="49.101024627686" lon="3.1843378543854"><ele>124</ele><time>2026-4-28T16:50:26Z</time></trkpt>
<trkpt lat="49.101024627686" lon="3.1843378543854"><ele>124</ele><time>2026-4-28T16:50:29Z</time></trkpt>
<trkpt lat="49.101024627686" lon="3.1843378543854"><ele>124</ele><time>2026-4-28T16:50:32Z</time></trkpt>
<trkpt lat="49.101020812988" lon="3.1844584941864"><ele>124</ele><time>2026-4-28T16:50:35Z</time></trkpt>
<trkpt lat="49.101020812988" lon="3.1844584941864"><ele>124</ele><time>2026-4-28T16:50:38Z</time></trkpt>
<trkpt lat="49.101020812988" lon="3.1844584941864"><ele>124</ele><time>2026-4-28T16:50:41Z</time></trkpt>
<trkpt lat="49.101016998291" lon="3.184582233429"><ele>124</ele><time>2026-4-28T16:50:44Z</time></trkpt>
<trkpt lat="49.101016998291" lon="3.184582233429"><ele>124</ele><time>2026-4-28T16:50:47Z</time></trkpt>
<trkpt lat="49.101016998291" lon="3.1846804618835"><ele>124</ele><time>2026-4-28T16:50:50Z</time></trkpt>
<trkpt lat="49.101016998291" lon="3.1846804618835"><ele>124</ele><time>2026-4-28T16:50:53Z</time></trkpt>
<trkpt lat="49.101016998291" lon="3.1846804618835"><ele>124</ele><time>2026-4-28T16:50:56Z</time></trkpt>
<trkpt lat="49.101005554199" lon="3.1847672462463"><ele>124</ele><time>2026-4-28T16:50:59Z</time></trkpt>
<trkpt lat="49.101005554199" lon="3.1847672462463"><ele>124</ele><time>2026-4-28T16:51:2Z</time></trkpt>
<trkpt lat="49.101005554199" lon="3.1847672462463"><ele>124</ele><time>2026-4-28T16:51:5Z</time></trkpt>
<trkpt lat="49.101005554199" lon="3.1847672462463"><ele>124</ele><time>2026-4-28T16:51:8Z</time></trkpt>
<trkpt lat="49.101005554199" lon="3.1847672462463"><ele>124</ele><time>2026-4-28T16:51:11Z</time></trkpt>
<trkpt lat="49.100986480713" lon="3.1848776340485"><ele>126</ele><time>2026-4-28T16:51:14Z</time></trkpt>
<trkpt lat="49.100986480713" lon="3.1848776340485"><ele>126</ele><time>2026-4-28T16:51:17Z</time></trkpt>
<trkpt lat="49.100986480713" lon="3.1848776340485"><ele>126</ele><time>2026-4-28T16:51:20Z</time></trkpt>
<trkpt lat="49.100986480713" lon="3.1848776340485"><ele>126</ele><time>2026-4-28T16:51:23Z</time></trkpt>
<trkpt lat="49.100986480713" lon="3.1849343776703"><ele>126</ele><time>2026-4-28T16:51:26Z</time></trkpt>
<trkpt lat="49.100986480713" lon="3.1849343776703"><ele>126</ele><time>2026-4-28T16:51:29Z</time></trkpt>
<trkpt lat="49.100986480713" lon="3.1849827766418"><ele>126</ele><time>2026-4-28T16:51:32Z</time></trkpt>
<trkpt lat="49.100986480713" lon="3.185028553009"><ele>127</ele><time>2026-4-28T16:51:35Z</time></trkpt>
<trkpt lat="49.100986480713" lon="3.185028553009"><ele>127</ele><time>2026-4-28T16:51:38Z</time></trkpt>
<trkpt lat="49.100986480713" lon="3.185028553009"><ele>127</ele><time>2026-4-28T16:51:41Z</time></trkpt>
<trkpt lat="49.100986480713" lon="3.1850826740265"><ele>127</ele><time>2026-4-28T16:51:44Z</time></trkpt>
<trkpt lat="49.100986480713" lon="3.1850826740265"><ele>127</ele><time>2026-4-28T16:51:47Z</time></trkpt>
<trkpt lat="49.10099029541" lon="3.1851301193237"><ele>127</ele><time>2026-4-28T16:51:50Z</time></trkpt>
<trkpt lat="49.10099029541" lon="3.1851301193237"><ele>127</ele><time>2026-4-28T16:51:53Z</time></trkpt>
<trkpt lat="49.10099029541" lon="3.1851301193237"><ele>127</ele><time>2026-4-28T16:51:56Z</time></trkpt>
<trkpt lat="49.10099029541" lon="3.1851301193237"><ele>127</ele><time>2026-4-28T16:51:59Z</time></trkpt>
<trkpt lat="49.10099029541" lon="3.1851301193237"><ele>127</ele><time>2026-4-28T16:52:2Z</time></trkpt>
<trkpt lat="49.10099029541" lon="3.1851301193237"><ele>127</ele><time>2026-4-28T16:52:5Z</time></trkpt>
<trkpt lat="49.10099029541" lon="3.1851301193237"><ele>127</ele><time>2026-4-28T16:52:8Z</time></trkpt>
<trkpt lat="49.10099029541" lon="3.1851301193237"><ele>127</ele><time>2026-4-28T16:52:11Z</time></trkpt>
<trkpt lat="49.100982666016" lon="3.1853289604187"><ele>129</ele><time>2026-4-28T16:52:14Z</time></trkpt>
<trkpt lat="49.100982666016" lon="3.1854627132416"><ele>129</ele><time>2026-4-28T16:52:17Z</time></trkpt>
<trkpt lat="49.100982666016" lon="3.1854627132416"><ele>129</ele><time>2026-4-28T16:52:20Z</time></trkpt>
<trkpt lat="49.100982666016" lon="3.1855566501617"><ele>129</ele><time>2026-4-28T16:52:23Z</time></trkpt>
<trkpt lat="49.100986480713" lon="3.1856286525726"><ele>129</ele><time>2026-4-28T16:52:26Z</time></trkpt>
<trkpt lat="49.100986480713" lon="3.1856954097748"><ele>129</ele><time>2026-4-28T16:52:29Z</time></trkpt>
<trkpt lat="49.100986480713" lon="3.1858279705048"><ele>129</ele><time>2026-4-28T16:52:32Z</time></trkpt>
<trkpt lat="49.10099029541" lon="3.1859612464905"><ele>130</ele><time>2026-4-28T16:52:35Z</time></trkpt>
<trkpt lat="49.10099029541" lon="3.1859612464905"><ele>130</ele><time>2026-4-28T16:52:38Z</time></trkpt>
<trkpt lat="49.100978851318" lon="3.1860537528992"><ele>131</ele><time>2026-4-28T16:52:41Z</time></trkpt>
<trkpt lat="49.100978851318" lon="3.1860537528992"><ele>131</ele><time>2026-4-28T16:52:44Z</time></trkpt>
<trkpt lat="49.100978851318" lon="3.1861419677734"><ele>132</ele><time>2026-4-28T16:52:47Z</time></trkpt>
<trkpt lat="49.100978851318" lon="3.1861419677734"><ele>132</ele><time>2026-4-28T16:52:50Z</time></trkpt>
<trkpt lat="49.100978851318" lon="3.1862573623657"><ele>132</ele><time>2026-4-28T16:52:53Z</time></trkpt>
<trkpt lat="49.100994110107" lon="3.1863903999329"><ele>132</ele><time>2026-4-28T16:52:56Z</time></trkpt>
<trkpt lat="49.101005554199" lon="3.1865701675415"><ele>133</ele><time>2026-4-28T16:52:59Z</time></trkpt>
<trkpt lat="49.101009368896" lon="3.1866743564606"><ele>133</ele><time>2026-4-28T16:53:2Z</time></trkpt>
<trkpt lat="49.101016998291" lon="3.1868011951447"><ele>132</ele><time>2026-4-28T16:53:5Z</time></trkpt>
<trkpt lat="49.101039886475" lon="3.1869456768036"><ele>130</ele><time>2026-4-28T16:53:8Z</time></trkpt>
<trkpt lat="49.101070404053" lon="3.1871223449707"><ele>128</ele><time>2026-4-28T16:53:11Z</time></trkpt>
<trkpt lat="49.101104736328" lon="3.1873228549957"><ele>127</ele><time>2026-4-28T16:53:14Z</time></trkpt>
<trkpt lat="49.101100921631" lon="3.1875472068787"><ele>125</ele><time>2026-4-28T16:53:17Z</time></trkpt>
<trkpt lat="49.101055145264" lon="3.1877193450928"><ele>124</ele><time>2026-4-28T16:53:20Z</time></trkpt>
<trkpt lat="49.101013183594" lon="3.1878366470337"><ele>124</ele><time>2026-4-28T16:53:23Z</time></trkpt>
<trkpt lat="49.100971221924" lon="3.1879131793976"><ele>123</ele><time>2026-4-28T16:53:26Z</time></trkpt>
<trkpt lat="49.100971221924" lon="3.1879131793976"><ele>123</ele><time>2026-4-28T16:53:29Z</time></trkpt>
<trkpt lat="49.100971221924" lon="3.1879131793976"><ele>123</ele><time>2026-4-28T16:53:32Z</time></trkpt>
<trkpt lat="49.100971221924" lon="3.1879131793976"><ele>123</ele><time>2026-4-28T16:53:35Z</time></trkpt>
<trkpt lat="49.100971221924" lon="3.1879131793976"><ele>123</ele><time>2026-4-28T16:53:38Z</time></trkpt>
<trkpt lat="49.100971221924" lon="3.1879131793976"><ele>123</ele><time>2026-4-28T16:53:41Z</time></trkpt>
<trkpt lat="49.100872039795" lon="3.1881785392761"><ele>124</ele><time>2026-4-28T16:53:44Z</time></trkpt>
<trkpt lat="49.100849151611" lon="3.1882646083832"><ele>124</ele><time>2026-4-28T16:53:47Z</time></trkpt>
<trkpt lat="49.100849151611" lon="3.1882646083832"><ele>124</ele><time>2026-4-28T16:53:50Z</time></trkpt>
<trkpt lat="49.10082244873" lon="3.1883890628815"><ele>124</ele><time>2026-4-28T16:53:53Z</time></trkpt>
<trkpt lat="49.100799560547" lon="3.1885306835175"><ele>124</ele><time>2026-4-28T16:53:56Z</time></trkpt>
<trkpt lat="49.100784301758" lon="3.1887052059174"><ele>124</ele><time>2026-4-28T16:53:59Z</time></trkpt>
<trkpt lat="49.10075378418" lon="3.1888134479523"><ele>124</ele><time>2026-4-28T16:54:2Z</time></trkpt>
<trkpt lat="49.100700378418" lon="3.1889607906342"><ele>124</ele><time>2026-4-28T16:54:5Z</time></trkpt>
<trkpt lat="49.100643157959" lon="3.1890954971313"><ele>124</ele><time>2026-4-28T16:54:8Z</time></trkpt>
<trkpt lat="49.100593566895" lon="3.1892035007477"><ele>124</ele><time>2026-4-28T16:54:11Z</time></trkpt>
<trkpt lat="49.100540161133" lon="3.1893193721771"><ele>124</ele><time>2026-4-28T16:54:14Z</time></trkpt>
<trkpt lat="49.10050201416" lon="3.1894099712372"><ele>124</ele><time>2026-4-28T16:54:17Z</time></trkpt>
<trkpt lat="49.100475311279" lon="3.18949842453"><ele>124</ele><time>2026-4-28T16:54:20Z</time></trkpt>
<trkpt lat="49.100433349609" lon="3.1895935535431"><ele>124</ele><time>2026-4-28T16:54:23Z</time></trkpt>
<trkpt lat="49.100433349609" lon="3.1895935535431"><ele>124</ele><time>2026-4-28T16:54:26Z</time></trkpt>
<trkpt lat="49.100372314453" lon="3.1897041797638"><ele>124</ele><time>2026-4-28T16:54:29Z</time></trkpt>
<trkpt lat="49.10034942627" lon="3.1897854804993"><ele>124</ele><time>2026-4-28T16:54:32Z</time></trkpt>
<trkpt lat="49.100315093994" lon="3.1898853778839"><ele>124</ele><time>2026-4-28T16:54:35Z</time></trkpt>
<trkpt lat="49.100284576416" lon="3.1899960041046"><ele>124</ele><time>2026-4-28T16:54:38Z</time></trkpt>
<trkpt lat="49.100284576416" lon="3.1899960041046"><ele>124</ele><time>2026-4-28T16:54:41Z</time></trkpt>
<trkpt lat="49.100242614746" lon="3.1901535987854"><ele>124</ele><time>2026-4-28T16:54:44Z</time></trkpt>
<trkpt lat="49.100238800049" lon="3.1902513504028"><ele>123</ele><time>2026-4-28T16:54:47Z</time></trkpt>
<trkpt lat="49.100238800049" lon="3.1902513504028"><ele>123</ele><time>2026-4-28T16:54:50Z</time></trkpt>
<trkpt lat="49.100227355957" lon="3.1904444694519"><ele>123</ele><time>2026-4-28T16:54:53Z</time></trkpt>
<trkpt lat="49.100215911865" lon="3.1905784606934"><ele>123</ele><time>2026-4-28T16:54:56Z</time></trkpt>
<trkpt lat="49.100215911865" lon="3.1906924247742"><ele>123</ele><time>2026-4-28T16:54:59Z</time></trkpt>
<trkpt lat="49.100196838379" lon="3.1908280849457"><ele>123</ele><time>2026-4-28T16:55:2Z</time></trkpt>
<trkpt lat="49.100196838379" lon="3.1908280849457"><ele>123</ele><time>2026-4-28T16:55:5Z</time></trkpt>
<trkpt lat="49.100196838379" lon="3.1909754276276"><ele>123</ele><time>2026-4-28T16:55:8Z</time></trkpt>
<trkpt lat="49.100196838379" lon="3.1909754276276"><ele>123</ele><time>2026-4-28T16:55:11Z</time></trkpt>
<trkpt lat="49.100200653076" lon="3.1910939216614"><ele>123</ele><time>2026-4-28T16:55:14Z</time></trkpt>
<trkpt lat="49.100200653076" lon="3.1910939216614"><ele>123</ele><time>2026-4-28T16:55:17Z</time></trkpt>
<trkpt lat="49.10018157959" lon="3.1912372112274"><ele>122</ele><time>2026-4-28T16:55:20Z</time></trkpt>
<trkpt lat="49.10018157959" lon="3.1912372112274"><ele>122</ele><time>2026-4-28T16:55:23Z</time></trkpt>
<trkpt lat="49.100112915039" lon="3.1913540363312"><ele>122</ele><time>2026-4-28T16:55:26Z</time></trkpt>
<trkpt lat="49.100059509277" lon="3.1913800239563"><ele>122</ele><time>2026-4-28T16:55:29Z</time></trkpt>
<trkpt lat="49.099998474121" lon="3.1913352012634"><ele>122</ele><time>2026-4-28T16:55:32Z</time></trkpt>
<trkpt lat="49.099925994873" lon="3.1912693977356"><ele>122</ele><time>2026-4-28T16:55:35Z</time></trkpt>
<trkpt lat="49.099864959717" lon="3.1912000179291"><ele>122</ele><time>2026-4-28T16:55:38Z</time></trkpt>
<trkpt lat="49.099796295166" lon="3.1911127567291"><ele>122</ele><time>2026-4-28T16:55:41Z</time></trkpt>
<trkpt lat="49.099712371826" lon="3.1910128593445"><ele>121</ele><time>2026-4-28T16:55:44Z</time></trkpt>
<trkpt lat="49.099617004395" lon="3.1908977031708"><ele>121</ele><time>2026-4-28T16:55:47Z</time></trkpt>
<trkpt lat="49.099502563477" lon="3.1907572746277"><ele>121</ele><time>2026-4-28T16:55:50Z</time></trkpt>
<trkpt lat="49.099391937256" lon="3.1906273365021"><ele>122</ele><time>2026-4-28T16:55:53Z</time></trkpt>
<trkpt lat="49.099292755127" lon="3.1905076503754"><ele>121</ele><time>2026-4-28T16:55:56Z</time></trkpt>
<trkpt lat="49.099212646484" lon="3.1903994083405"><ele>121</ele><time>2026-4-28T16:55:59Z</time></trkpt>
<trkpt lat="49.099132537842" lon="3.1902906894684"><ele>121</ele><time>2026-4-28T16:56:2Z</time></trkpt>
<trkpt lat="49.099052429199" lon="3.1901850700378"><ele>121</ele><time>2026-4-28T16:56:5Z</time></trkpt>
<trkpt lat="49.098979949951" lon="3.1900887489319"><ele>122</ele><time>2026-4-28T16:56:8Z</time></trkpt>
<trkpt lat="49.098899841309" lon="3.1899919509888"><ele>122</ele><time>2026-4-28T16:56:11Z</time></trkpt>
<trkpt lat="49.098823547363" lon="3.1898941993713"><ele>122</ele><time>2026-4-28T16:56:14Z</time></trkpt>
<trkpt lat="49.098747253418" lon="3.1897850036621"><ele>121</ele><time>2026-4-28T16:56:17Z</time></trkpt>
<trkpt lat="49.09867477417" lon="3.1896867752075"><ele>121</ele><time>2026-4-28T16:56:20Z</time></trkpt>
<trkpt lat="49.098609924316" lon="3.1895909309387"><ele>120</ele><time>2026-4-28T16:56:23Z</time></trkpt>
<trkpt lat="49.098552703857" lon="3.1894907951355"><ele>118</ele><time>2026-4-28T16:56:26Z</time></trkpt>
<trkpt lat="49.098487854004" lon="3.1893708705902"><ele>119</ele><time>2026-4-28T16:56:29Z</time></trkpt>
<trkpt lat="49.098426818848" lon="3.1892507076263"><ele>120</ele><time>2026-4-28T16:56:32Z</time></trkpt>
<trkpt lat="49.098373413086" lon="3.189131975174"><ele>122</ele><time>2026-4-28T16:56:35Z</time></trkpt>
<trkpt lat="49.098331451416" lon="3.1890246868134"><ele>123</ele><time>2026-4-28T16:56:38Z</time></trkpt>
<trkpt lat="49.098281860352" lon="3.1888983249664"><ele>123</ele><time>2026-4-28T16:56:41Z</time></trkpt>
<trkpt lat="49.098236083984" lon="3.1887602806091"><ele>123</ele><time>2026-4-28T16:56:44Z</time></trkpt>
<trkpt lat="49.09818649292" lon="3.1886119842529"><ele>122</ele><time>2026-4-28T16:56:47Z</time></trkpt>
<trkpt lat="49.098136901855" lon="3.1884710788727"><ele>121</ele><time>2026-4-28T16:56:50Z</time></trkpt>
<trkpt lat="49.098091125488" lon="3.1883356571198"><ele>120</ele><time>2026-4-28T16:56:53Z</time></trkpt>
<trkpt lat="49.098049163818" lon="3.1882019042969"><ele>119</ele><time>2026-4-28T16:56:56Z</time></trkpt>
<trkpt lat="49.098003387451" lon="3.1880822181702"><ele>119</ele><time>2026-4-28T16:56:59Z</time></trkpt>
<trkpt lat="49.097957611084" lon="3.1879227161407"><ele>119</ele><time>2026-4-28T16:57:2Z</time></trkpt>
<trkpt lat="49.09790802002" lon="3.1877887248993"><ele>119</ele><time>2026-4-28T16:57:5Z</time></trkpt>
<trkpt lat="49.097846984863" lon="3.1876480579376"><ele>119</ele><time>2026-4-28T16:57:8Z</time></trkpt>
<trkpt lat="49.097846984863" lon="3.1876480579376"><ele>119</ele><time>2026-4-28T16:57:11Z</time></trkpt>
<trkpt lat="49.097785949707" lon="3.1875274181366"><ele>119</ele><time>2026-4-28T16:57:14Z</time></trkpt>
<trkpt lat="49.097728729248" lon="3.1874251365662"><ele>120</ele><time>2026-4-28T16:57:17Z</time></trkpt>
<trkpt lat="49.097660064697" lon="3.18732380867"><ele>119</ele><time>2026-4-28T16:57:20Z</time></trkpt>
<trkpt lat="49.097583770752" lon="3.1872243881226"><ele>120</ele><time>2026-4-28T16:57:23Z</time></trkpt>
<trkpt lat="49.097507476807" lon="3.1871292591095"><ele>120</ele><time>2026-4-28T16:57:26Z</time></trkpt>
<trkpt lat="49.097507476807" lon="3.1871292591095"><ele>120</ele><time>2026-4-28T16:57:29Z</time></trkpt>
<trkpt lat="49.097427368164" lon="3.1870360374451"><ele>119</ele><time>2026-4-28T16:57:32Z</time></trkpt>
<trkpt lat="49.097354888916" lon="3.1869490146637"><ele>118</ele><time>2026-4-28T16:57:35Z</time></trkpt>
<trkpt lat="49.097305297852" lon="3.1868846416473"><ele>118</ele><time>2026-4-28T16:57:38Z</time></trkpt>
<trkpt lat="49.097259521484" lon="3.186817407608"><ele>118</ele><time>2026-4-28T16:57:41Z</time></trkpt>
<trkpt lat="49.097259521484" lon="3.186817407608"><ele>118</ele><time>2026-4-28T16:57:44Z</time></trkpt>
<trkpt lat="49.097179412842" lon="3.1867613792419"><ele>117</ele><time>2026-4-28T16:57:47Z</time></trkpt>
<trkpt lat="49.097122192383" lon="3.1867244243622"><ele>117</ele><time>2026-4-28T16:57:50Z</time></trkpt>
<trkpt lat="49.097122192383" lon="3.1867244243622"><ele>117</ele><time>2026-4-28T16:57:53Z</time></trkpt>
<trkpt lat="49.097080230713" lon="3.1866929531097"><ele>117</ele><time>2026-4-28T16:57:56Z</time></trkpt>
<trkpt lat="49.097038269043" lon="3.1866595745087"><ele>117</ele><time>2026-4-28T16:57:59Z</time></trkpt>
<trkpt lat="49.096992492676" lon="3.1866254806519"><ele>117</ele><time>2026-4-28T16:58:2Z</time></trkpt>
<trkpt lat="49.096942901611" lon="3.1865992546082"><ele>117</ele><time>2026-4-28T16:58:5Z</time></trkpt>
<trkpt lat="49.096881866455" lon="3.1865780353546"><ele>117</ele><time>2026-4-28T16:58:8Z</time></trkpt>
<trkpt lat="49.096755981445" lon="3.1865491867065"><ele>117</ele><time>2026-4-28T16:58:11Z</time></trkpt>
<trkpt lat="49.096694946289" lon="3.1865487098694"><ele>117</ele><time>2026-4-28T16:58:14Z</time></trkpt>
<trkpt lat="49.096694946289" lon="3.1865487098694"><ele>117</ele><time>2026-4-28T16:58:17Z</time></trkpt>
<trkpt lat="49.096618652344" lon="3.1865375041962"><ele>117</ele><time>2026-4-28T16:58:20Z</time></trkpt>
<trkpt lat="49.096542358398" lon="3.1865270137787"><ele>117</ele><time>2026-4-28T16:58:23Z</time></trkpt>
<trkpt lat="49.096477508545" lon="3.186509847641"><ele>117</ele><time>2026-4-28T16:58:26Z</time></trkpt>
<trkpt lat="49.096477508545" lon="3.186509847641"><ele>117</ele><time>2026-4-28T16:58:29Z</time></trkpt>
<trkpt lat="49.096412658691" lon="3.186488866806"><ele>117</ele><time>2026-4-28T16:58:32Z</time></trkpt>
<trkpt lat="49.096347808838" lon="3.186455488205"><ele>117</ele><time>2026-4-28T16:58:35Z</time></trkpt>
<trkpt lat="49.096267700195" lon="3.1864056587219"><ele>117</ele><time>2026-4-28T16:58:38Z</time></trkpt>
<trkpt lat="49.096267700195" lon="3.1864056587219"><ele>117</ele><time>2026-4-28T16:58:41Z</time></trkpt>
<trkpt lat="49.096199035645" lon="3.1863379478455"><ele>117</ele><time>2026-4-28T16:58:44Z</time></trkpt>
<trkpt lat="49.096145629883" lon="3.186274766922"><ele>117</ele><time>2026-4-28T16:58:47Z</time></trkpt>
<trkpt lat="49.096099853516" lon="3.1861991882324"><ele>117</ele><time>2026-4-28T16:58:50Z</time></trkpt>
<trkpt lat="49.096099853516" lon="3.1861991882324"><ele>117</ele><time>2026-4-28T16:58:53Z</time></trkpt>
<trkpt lat="49.096054077148" lon="3.1861164569855"><ele>117</ele><time>2026-4-28T16:58:56Z</time></trkpt>
<trkpt lat="49.096012115479" lon="3.1860389709473"><ele>118</ele><time>2026-4-28T16:58:59Z</time></trkpt>
<trkpt lat="49.095973968506" lon="3.1859686374664"><ele>118</ele><time>2026-4-28T16:59:2Z</time></trkpt>
<trkpt lat="49.095973968506" lon="3.1859686374664"><ele>118</ele><time>2026-4-28T16:59:5Z</time></trkpt>
<trkpt lat="49.095973968506" lon="3.1859686374664"><ele>118</ele><time>2026-4-28T16:59:8Z</time></trkpt>
<trkpt lat="49.095905303955" lon="3.1858396530151"><ele>118</ele><time>2026-4-28T16:59:11Z</time></trkpt>
<trkpt lat="49.095905303955" lon="3.1858396530151"><ele>118</ele><time>2026-4-28T16:59:14Z</time></trkpt>
<trkpt lat="49.095905303955" lon="3.1858396530151"><ele>118</ele><time>2026-4-28T16:59:17Z</time></trkpt>
<trkpt lat="49.095825195312" lon="3.1857259273529"><ele>118</ele><time>2026-4-28T16:59:20Z</time></trkpt>
<trkpt lat="49.095825195312" lon="3.1857259273529"><ele>118</ele><time>2026-4-28T16:59:23Z</time></trkpt>
<trkpt lat="49.095722198486" lon="3.1856753826141"><ele>118</ele><time>2026-4-28T16:59:26Z</time></trkpt>
<trkpt lat="49.095722198486" lon="3.1856753826141"><ele>118</ele><time>2026-4-28T16:59:29Z</time></trkpt>
<trkpt lat="49.095722198486" lon="3.1856753826141"><ele>118</ele><time>2026-4-28T16:59:32Z</time></trkpt>
<trkpt lat="49.09561920166" lon="3.1856517791748"><ele>117</ele><time>2026-4-28T16:59:35Z</time></trkpt>
<trkpt lat="49.09561920166" lon="3.1856517791748"><ele>117</ele><time>2026-4-28T16:59:38Z</time></trkpt>
<trkpt lat="49.09561920166" lon="3.1856517791748"><ele>117</ele><time>2026-4-28T16:59:41Z</time></trkpt>
<trkpt lat="49.095508575439" lon="3.1856553554535"><ele>117</ele><time>2026-4-28T16:59:44Z</time></trkpt>
<trkpt lat="49.095508575439" lon="3.1856553554535"><ele>117</ele><time>2026-4-28T16:59:47Z</time></trkpt>
<trkpt lat="49.095413208008" lon="3.1856763362885"><ele>117</ele><time>2026-4-28T16:59:50Z</time></trkpt>
<trkpt lat="49.095413208008" lon="3.1856763362885"><ele>117</ele><time>2026-4-28T16:59:53Z</time></trkpt>
<trkpt lat="49.095413208008" lon="3.1856763362885"><ele>117</ele><time>2026-4-28T16:59:56Z</time></trkpt>
<trkpt lat="49.095317840576" lon="3.1856935024261"><ele>117</ele><time>2026-4-28T16:59:59Z</time></trkpt>
<trkpt lat="49.095317840576" lon="3.1856935024261"><ele>117</ele><time>2026-4-28T17:0:2Z</time></trkpt>
<trkpt lat="49.095317840576" lon="3.1856935024261"><ele>117</ele><time>2026-4-28T17:0:5Z</time></trkpt>
<trkpt lat="49.095230102539" lon="3.1856937408447"><ele>118</ele><time>2026-4-28T17:0:8Z</time></trkpt>
<trkpt lat="49.095230102539" lon="3.1856937408447"><ele>118</ele><time>2026-4-28T17:0:11Z</time></trkpt>
<trkpt lat="49.095138549805" lon="3.1857018470764"><ele>118</ele><time>2026-4-28T17:0:14Z</time></trkpt>
<trkpt lat="49.095138549805" lon="3.1857018470764"><ele>118</ele><time>2026-4-28T17:0:17Z</time></trkpt>
<trkpt lat="49.095077514648" lon="3.1857035160065"><ele>118</ele><time>2026-4-28T17:0:20Z</time></trkpt>
<trkpt lat="49.095016479492" lon="3.1857082843781"><ele>119</ele><time>2026-4-28T17:0:23Z</time></trkpt>
<trkpt lat="49.095016479492" lon="3.1857082843781"><ele>119</ele><time>2026-4-28T17:0:26Z</time></trkpt>
<trkpt lat="49.094917297363" lon="3.1857128143311"><ele>120</ele><time>2026-4-28T17:0:29Z</time></trkpt>
<trkpt lat="49.09485244751" lon="3.1857006549835"><ele>120</ele><time>2026-4-28T17:0:32Z</time></trkpt>
<trkpt lat="49.09485244751" lon="3.1857006549835"><ele>120</ele><time>2026-4-28T17:0:35Z</time></trkpt>
<trkpt lat="49.09485244751" lon="3.1857006549835"><ele>120</ele><time>2026-4-28T17:0:38Z</time></trkpt>
<trkpt lat="49.094787597656" lon="3.1856217384338"><ele>120</ele><time>2026-4-28T17:0:41Z</time></trkpt>
<trkpt lat="49.094757080078" lon="3.1855428218842"><ele>121</ele><time>2026-4-28T17:0:44Z</time></trkpt>
<trkpt lat="49.094757080078" lon="3.1855428218842"><ele>121</ele><time>2026-4-28T17:0:47Z</time></trkpt>
<trkpt lat="49.0947265625" lon="3.1854603290558"><ele>121</ele><time>2026-4-28T17:0:50Z</time></trkpt>
<trkpt lat="49.094699859619" lon="3.1853737831116"><ele>121</ele><time>2026-4-28T17:0:53Z</time></trkpt>
<trkpt lat="49.094669342041" lon="3.1852691173553"><ele>121</ele><time>2026-4-28T17:0:56Z</time></trkpt>
<trkpt lat="49.094669342041" lon="3.1852691173553"><ele>121</ele><time>2026-4-28T17:0:59Z</time></trkpt>
<trkpt lat="49.094646453857" lon="3.1851732730865"><ele>122</ele><time>2026-4-28T17:1:2Z</time></trkpt>
<trkpt lat="49.094619750977" lon="3.1850671768188"><ele>122</ele><time>2026-4-28T17:1:5Z</time></trkpt>
<trkpt lat="49.094589233398" lon="3.18496966362"><ele>122</ele><time>2026-4-28T17:1:8Z</time></trkpt>
<trkpt lat="49.094589233398" lon="3.18496966362"><ele>122</ele><time>2026-4-28T17:1:11Z</time></trkpt>
<trkpt lat="49.094562530518" lon="3.1848647594452"><ele>122</ele><time>2026-4-28T17:1:14Z</time></trkpt>
<trkpt lat="49.094532012939" lon="3.1847622394562"><ele>122</ele><time>2026-4-28T17:1:17Z</time></trkpt>
<trkpt lat="49.094505310059" lon="3.1846656799316"><ele>122</ele><time>2026-4-28T17:1:20Z</time></trkpt>
<trkpt lat="49.094505310059" lon="3.1846656799316"><ele>122</ele><time>2026-4-28T17:1:23Z</time></trkpt>
<trkpt lat="49.094463348389" lon="3.184531211853"><ele>122</ele><time>2026-4-28T17:1:26Z</time></trkpt>
<trkpt lat="49.094463348389" lon="3.184531211853"><ele>122</ele><time>2026-4-28T17:1:29Z</time></trkpt>
<trkpt lat="49.094463348389" lon="3.184531211853"><ele>122</ele><time>2026-4-28T17:1:32Z</time></trkpt>
<trkpt lat="49.094409942627" lon="3.1844747066498"><ele>122</ele><time>2026-4-28T17:1:35Z</time></trkpt>
<trkpt lat="49.094409942627" lon="3.1844747066498"><ele>122</ele><time>2026-4-28T17:1:38Z</time></trkpt>
<trkpt lat="49.094409942627" lon="3.1844747066498"><ele>122</ele><time>2026-4-28T17:1:41Z</time></trkpt>
<trkpt lat="49.094409942627" lon="3.1844747066498"><ele>122</ele><time>2026-4-28T17:1:44Z</time></trkpt>
<trkpt lat="49.094409942627" lon="3.1844747066498"><ele>122</ele><time>2026-4-28T17:1:47Z</time></trkpt>
<trkpt lat="49.094409942627" lon="3.1844747066498"><ele>122</ele><time>2026-4-28T17:1:50Z</time></trkpt>
<trkpt lat="49.094409942627" lon="3.1844747066498"><ele>122</ele><time>2026-4-28T17:1:53Z</time></trkpt>
<trkpt lat="49.094409942627" lon="3.1844747066498"><ele>122</ele><time>2026-4-28T17:1:56Z</time></trkpt>
<trkpt lat="49.094409942627" lon="3.1844747066498"><ele>122</ele><time>2026-4-28T17:1:59Z</time></trkpt>
<trkpt lat="49.094409942627" lon="3.1844747066498"><ele>122</ele><time>2026-4-28T17:2:2Z</time></trkpt>
<trkpt lat="49.094409942627" lon="3.1844747066498"><ele>122</ele><time>2026-4-28T17:2:5Z</time></trkpt>
<trkpt lat="49.094409942627" lon="3.1844747066498"><ele>122</ele><time>2026-4-28T17:2:8Z</time></trkpt>
<trkpt lat="49.094409942627" lon="3.1844747066498"><ele>122</ele><time>2026-4-28T17:2:11Z</time></trkpt>
<trkpt lat="49.094409942627" lon="3.1844747066498"><ele>122</ele><time>2026-4-28T17:2:14Z</time></trkpt>
<trkpt lat="49.094409942627" lon="3.1844747066498"><ele>122</ele><time>2026-4-28T17:2:17Z</time></trkpt>
<trkpt lat="49.094409942627" lon="3.1844747066498"><ele>122</ele><time>2026-4-28T17:2:20Z</time></trkpt>
<trkpt lat="49.094409942627" lon="3.1844747066498"><ele>122</ele><time>2026-4-28T17:2:23Z</time></trkpt>
<trkpt lat="49.094409942627" lon="3.1844747066498"><ele>122</ele><time>2026-4-28T17:2:26Z</time></trkpt>
<trkpt lat="49.094409942627" lon="3.1844747066498"><ele>122</ele><time>2026-4-28T17:2:29Z</time></trkpt>
<trkpt lat="49.094409942627" lon="3.1844747066498"><ele>122</ele><time>2026-4-28T17:2:32Z</time></trkpt>
<trkpt lat="49.094409942627" lon="3.1844747066498"><ele>122</ele><time>2026-4-28T17:2:35Z</time></trkpt>
<trkpt lat="49.094409942627" lon="3.1844747066498"><ele>122</ele><time>2026-4-28T17:2:38Z</time></trkpt>
<trkpt lat="49.094409942627" lon="3.1844747066498"><ele>122</ele><time>2026-4-28T17:2:41Z</time></trkpt>
<trkpt lat="49.094409942627" lon="3.1844747066498"><ele>122</ele><time>2026-4-28T17:2:44Z</time></trkpt>
<trkpt lat="49.094409942627" lon="3.1844747066498"><ele>122</ele><time>2026-4-28T17:2:47Z</time></trkpt>
<trkpt lat="49.094409942627" lon="3.1844747066498"><ele>122</ele><time>2026-4-28T17:2:50Z</time></trkpt>
<trkpt lat="49.094409942627" lon="3.1844747066498"><ele>122</ele><time>2026-4-28T17:2:53Z</time></trkpt>
<trkpt lat="49.094409942627" lon="3.1844747066498"><ele>122</ele><time>2026-4-28T17:2:56Z</time></trkpt>
<trkpt lat="49.094409942627" lon="3.1844747066498"><ele>122</ele><time>2026-4-28T17:2:59Z</time></trkpt>
<trkpt lat="49.094409942627" lon="3.1844747066498"><ele>122</ele><time>2026-4-28T17:3:2Z</time></trkpt>
<trkpt lat="49.094409942627" lon="3.1844747066498"><ele>122</ele><time>2026-4-28T17:3:5Z</time></trkpt>
<trkpt lat="49.094409942627" lon="3.1844747066498"><ele>122</ele><time>2026-4-28T17:3:8Z</time></trkpt>
<trkpt lat="49.094409942627" lon="3.1844747066498"><ele>122</ele><time>2026-4-28T17:3:11Z</time></trkpt>
<trkpt lat="49.094409942627" lon="3.1844747066498"><ele>122</ele><time>2026-4-28T17:3:14Z</time></trkpt>
<trkpt lat="49.094409942627" lon="3.1844747066498"><ele>122</ele><time>2026-4-28T17:3:17Z</time></trkpt>
<trkpt lat="49.094409942627" lon="3.1844747066498"><ele>122</ele><time>2026-4-28T17:3:20Z</time></trkpt>
<trkpt lat="49.094409942627" lon="3.1844747066498"><ele>122</ele><time>2026-4-28T17:3:23Z</time></trkpt>
<trkpt lat="49.094409942627" lon="3.1844747066498"><ele>122</ele><time>2026-4-28T17:3:26Z</time></trkpt>
<trkpt lat="49.094409942627" lon="3.1844747066498"><ele>122</ele><time>2026-4-28T17:3:29Z</time></trkpt>
<trkpt lat="49.094409942627" lon="3.1844747066498"><ele>122</ele><time>2026-4-28T17:3:32Z</time></trkpt>
<trkpt lat="49.094409942627" lon="3.1844747066498"><ele>122</ele><time>2026-4-28T17:3:35Z</time></trkpt>
<trkpt lat="49.094200134277" lon="3.1846299171448"><ele>132</ele><time>2026-4-28T17:3:38Z</time></trkpt>
<trkpt lat="49.094093322754" lon="3.1847212314606"><ele>132</ele><time>2026-4-28T17:3:41Z</time></trkpt>
<trkpt lat="49.094039916992" lon="3.1847820281982"><ele>132</ele><time>2026-4-28T17:3:44Z</time></trkpt>
<trkpt lat="49.094039916992" lon="3.1847820281982"><ele>132</ele><time>2026-4-28T17:3:47Z</time></trkpt>
<trkpt lat="49.094017028809" lon="3.1848258972168"><ele>132</ele><time>2026-4-28T17:3:50Z</time></trkpt>
<trkpt lat="49.094009399414" lon="3.1848711967468"><ele>132</ele><time>2026-4-28T17:3:53Z</time></trkpt>
<trkpt lat="49.094009399414" lon="3.1848711967468"><ele>132</ele><time>2026-4-28T17:3:56Z</time></trkpt>
<trkpt lat="49.094005584717" lon="3.1849255561829"><ele>133</ele><time>2026-4-28T17:3:59Z</time></trkpt>
<trkpt lat="49.094005584717" lon="3.1849255561829"><ele>133</ele><time>2026-4-28T17:4:2Z</time></trkpt>
<trkpt lat="49.094005584717" lon="3.1849255561829"><ele>133</ele><time>2026-4-28T17:4:5Z</time></trkpt>
<trkpt lat="49.094005584717" lon="3.1849255561829"><ele>133</ele><time>2026-4-28T17:4:8Z</time></trkpt>
<trkpt lat="49.094005584717" lon="3.1849255561829"><ele>133</ele><time>2026-4-28T17:4:11Z</time></trkpt>
<trkpt lat="49.094005584717" lon="3.1849255561829"><ele>133</ele><time>2026-4-28T17:4:14Z</time></trkpt>
<trkpt lat="49.094005584717" lon="3.1849255561829"><ele>133</ele><time>2026-4-28T17:4:17Z</time></trkpt>
<trkpt lat="49.094005584717" lon="3.1849255561829"><ele>133</ele><time>2026-4-28T17:4:20Z</time></trkpt>
<trkpt lat="49.09395980835" lon="3.1850557327271"><ele>136</ele><time>2026-4-28T17:4:23Z</time></trkpt>
<trkpt lat="49.093929290771" lon="3.1851336956024"><ele>137</ele><time>2026-4-28T17:4:26Z</time></trkpt>
<trkpt lat="49.093898773193" lon="3.1851918697357"><ele>138</ele><time>2026-4-28T17:4:29Z</time></trkpt>
<trkpt lat="49.093864440918" lon="3.1852388381958"><ele>138</ele><time>2026-4-28T17:4:32Z</time></trkpt>
<trkpt lat="49.09383392334" lon="3.1852810382843"><ele>139</ele><time>2026-4-28T17:4:35Z</time></trkpt>
<trkpt lat="49.093776702881" lon="3.1853559017181"><ele>140</ele><time>2026-4-28T17:4:38Z</time></trkpt>
<trkpt lat="49.093776702881" lon="3.1853559017181"><ele>140</ele><time>2026-4-28T17:4:41Z</time></trkpt>
<trkpt lat="49.093727111816" lon="3.1854147911072"><ele>141</ele><time>2026-4-28T17:4:44Z</time></trkpt>
<trkpt lat="49.093727111816" lon="3.1854147911072"><ele>141</ele><time>2026-4-28T17:4:47Z</time></trkpt>
<trkpt lat="49.093727111816" lon="3.1854147911072"><ele>141</ele><time>2026-4-28T17:4:50Z</time></trkpt>
<trkpt lat="49.093669891357" lon="3.1854701042175"><ele>142</ele><time>2026-4-28T17:4:53Z</time></trkpt>
<trkpt lat="49.093669891357" lon="3.1854701042175"><ele>142</ele><time>2026-4-28T17:4:56Z</time></trkpt>
<trkpt lat="49.093605041504" lon="3.1855318546295"><ele>142</ele><time>2026-4-28T17:4:59Z</time></trkpt>
<trkpt lat="49.093605041504" lon="3.1855318546295"><ele>142</ele><time>2026-4-28T17:5:2Z</time></trkpt>
<trkpt lat="49.093536376953" lon="3.1855554580688"><ele>143</ele><time>2026-4-28T17:5:5Z</time></trkpt>
<trkpt lat="49.093536376953" lon="3.1855554580688"><ele>143</ele><time>2026-4-28T17:5:8Z</time></trkpt>
<trkpt lat="49.093467712402" lon="3.1856071949005"><ele>145</ele><time>2026-4-28T17:5:11Z</time></trkpt>
<trkpt lat="49.093414306641" lon="3.1856555938721"><ele>145</ele><time>2026-4-28T17:5:14Z</time></trkpt>
<trkpt lat="49.093414306641" lon="3.1856555938721"><ele>145</ele><time>2026-4-28T17:5:17Z</time></trkpt>
<trkpt lat="49.093368530273" lon="3.1857340335846"><ele>146</ele><time>2026-4-28T17:5:20Z</time></trkpt>
<trkpt lat="49.093368530273" lon="3.1857340335846"><ele>146</ele><time>2026-4-28T17:5:23Z</time></trkpt>
<trkpt lat="49.093368530273" lon="3.1857340335846"><ele>146</ele><time>2026-4-28T17:5:26Z</time></trkpt>
<trkpt lat="49.093368530273" lon="3.1857340335846"><ele>146</ele><time>2026-4-28T17:5:29Z</time></trkpt>
<trkpt lat="49.093368530273" lon="3.1857340335846"><ele>146</ele><time>2026-4-28T17:5:32Z</time></trkpt>
<trkpt lat="49.093368530273" lon="3.1857340335846"><ele>146</ele><time>2026-4-28T17:5:35Z</time></trkpt>
<trkpt lat="49.093368530273" lon="3.1857340335846"><ele>146</ele><time>2026-4-28T17:5:38Z</time></trkpt>
<trkpt lat="49.093368530273" lon="3.1857340335846"><ele>146</ele><time>2026-4-28T17:5:41Z</time></trkpt>
<trkpt lat="49.093368530273" lon="3.1857340335846"><ele>146</ele><time>2026-4-28T17:5:44Z</time></trkpt>
<trkpt lat="49.093215942383" lon="3.1857540607452"><ele>149</ele><time>2026-4-28T17:5:47Z</time></trkpt>
<trkpt lat="49.093215942383" lon="3.1857540607452"><ele>149</ele><time>2026-4-28T17:5:50Z</time></trkpt>
<trkpt lat="49.093132019043" lon="3.1857562065125"><ele>149</ele><time>2026-4-28T17:5:53Z</time></trkpt>
<trkpt lat="49.093032836914" lon="3.1857488155365"><ele>149</ele><time>2026-4-28T17:5:56Z</time></trkpt>
<trkpt lat="49.093032836914" lon="3.1857488155365"><ele>149</ele><time>2026-4-28T17:5:59Z</time></trkpt>
<trkpt lat="49.09294128418" lon="3.1857407093048"><ele>150</ele><time>2026-4-28T17:6:2Z</time></trkpt>
<trkpt lat="49.09294128418" lon="3.1857407093048"><ele>150</ele><time>2026-4-28T17:6:5Z</time></trkpt>
<trkpt lat="49.092845916748" lon="3.1857318878174"><ele>150</ele><time>2026-4-28T17:6:8Z</time></trkpt>
<trkpt lat="49.092777252197" lon="3.1857078075409"><ele>150</ele><time>2026-4-28T17:6:11Z</time></trkpt>
<trkpt lat="49.092777252197" lon="3.1857078075409"><ele>150</ele><time>2026-4-28T17:6:14Z</time></trkpt>
<trkpt lat="49.092712402344" lon="3.1856913566589"><ele>151</ele><time>2026-4-28T17:6:17Z</time></trkpt>
<trkpt lat="49.092712402344" lon="3.1856913566589"><ele>151</ele><time>2026-4-28T17:6:20Z</time></trkpt>
<trkpt lat="49.092712402344" lon="3.1856913566589"><ele>151</ele><time>2026-4-28T17:6:23Z</time></trkpt>
<trkpt lat="49.092678070068" lon="3.1856806278229"><ele>151</ele><time>2026-4-28T17:6:26Z</time></trkpt>
<trkpt lat="49.092639923096" lon="3.1856722831726"><ele>151</ele><time>2026-4-28T17:6:29Z</time></trkpt>
<trkpt lat="49.09260559082" lon="3.1856641769409"><ele>152</ele><time>2026-4-28T17:6:32Z</time></trkpt>
<trkpt lat="49.09260559082" lon="3.1856641769409"><ele>152</ele><time>2026-4-28T17:6:35Z</time></trkpt>
<trkpt lat="49.092567443848" lon="3.1856570243835"><ele>152</ele><time>2026-4-28T17:6:38Z</time></trkpt>
<trkpt lat="49.092533111572" lon="3.1856503486633"><ele>152</ele><time>2026-4-28T17:6:41Z</time></trkpt>
<trkpt lat="49.092460632324" lon="3.1856381893158"><ele>152</ele><time>2026-4-28T17:6:44Z</time></trkpt>
<trkpt lat="49.092460632324" lon="3.1856381893158"><ele>152</ele><time>2026-4-28T17:6:47Z</time></trkpt>
<trkpt lat="49.092460632324" lon="3.1856381893158"><ele>152</ele><time>2026-4-28T17:6:50Z</time></trkpt>
<trkpt lat="49.092388153076" lon="3.1856300830841"><ele>153</ele><time>2026-4-28T17:6:53Z</time></trkpt>
<trkpt lat="49.092388153076" lon="3.1856300830841"><ele>153</ele><time>2026-4-28T17:6:56Z</time></trkpt>
<trkpt lat="49.092388153076" lon="3.1856300830841"><ele>153</ele><time>2026-4-28T17:6:59Z</time></trkpt>
<trkpt lat="49.092388153076" lon="3.1856300830841"><ele>153</ele><time>2026-4-28T17:7:2Z</time></trkpt>
<trkpt lat="49.092308044434" lon="3.1856184005737"><ele>153</ele><time>2026-4-28T17:7:5Z</time></trkpt>
<trkpt lat="49.092308044434" lon="3.1856184005737"><ele>153</ele><time>2026-4-28T17:7:8Z</time></trkpt>
<trkpt lat="49.092308044434" lon="3.1856184005737"><ele>153</ele><time>2026-4-28T17:7:11Z</time></trkpt>
<trkpt lat="49.092250823975" lon="3.1855919361115"><ele>153</ele><time>2026-4-28T17:7:14Z</time></trkpt>
<trkpt lat="49.092250823975" lon="3.1855919361115"><ele>153</ele><time>2026-4-28T17:7:17Z</time></trkpt>
<trkpt lat="49.092250823975" lon="3.1855919361115"><ele>153</ele><time>2026-4-28T17:7:20Z</time></trkpt>
<trkpt lat="49.092250823975" lon="3.1855919361115"><ele>153</ele><time>2026-4-28T17:7:23Z</time></trkpt>
<trkpt lat="49.092170715332" lon="3.185564994812"><ele>154</ele><time>2026-4-28T17:7:26Z</time></trkpt>
<trkpt lat="49.092170715332" lon="3.185564994812"><ele>154</ele><time>2026-4-28T17:7:29Z</time></trkpt>
<trkpt lat="49.092109680176" lon="3.1855545043945"><ele>154</ele><time>2026-4-28T17:7:32Z</time></trkpt>
<trkpt lat="49.092109680176" lon="3.1855545043945"><ele>154</ele><time>2026-4-28T17:7:35Z</time></trkpt>
<trkpt lat="49.092109680176" lon="3.1855545043945"><ele>154</ele><time>2026-4-28T17:7:38Z</time></trkpt>
<trkpt lat="49.092044830322" lon="3.1855435371399"><ele>155</ele><time>2026-4-28T17:7:41Z</time></trkpt>
<trkpt lat="49.092044830322" lon="3.1855435371399"><ele>155</ele><time>2026-4-28T17:7:44Z</time></trkpt>
<trkpt lat="49.091983795166" lon="3.1855382919312"><ele>155</ele><time>2026-4-28T17:7:47Z</time></trkpt>
<trkpt lat="49.091983795166" lon="3.1855382919312"><ele>155</ele><time>2026-4-28T17:7:50Z</time></trkpt>
<trkpt lat="49.091983795166" lon="3.1855382919312"><ele>155</ele><time>2026-4-28T17:7:53Z</time></trkpt>
<trkpt lat="49.091983795166" lon="3.1855382919312"><ele>155</ele><time>2026-4-28T17:7:56Z</time></trkpt>
<trkpt lat="49.091907501221" lon="3.1855282783508"><ele>155</ele><time>2026-4-28T17:7:59Z</time></trkpt>
<trkpt lat="49.091907501221" lon="3.1855282783508"><ele>155</ele><time>2026-4-28T17:8:2Z</time></trkpt>
<trkpt lat="49.091846466064" lon="3.1855220794678"><ele>156</ele><time>2026-4-28T17:8:5Z</time></trkpt>
<trkpt lat="49.091846466064" lon="3.1855220794678"><ele>156</ele><time>2026-4-28T17:8:8Z</time></trkpt>
<trkpt lat="49.091846466064" lon="3.1855220794678"><ele>156</ele><time>2026-4-28T17:8:11Z</time></trkpt>
<trkpt lat="49.091773986816" lon="3.1855478286743"><ele>156</ele><time>2026-4-28T17:8:14Z</time></trkpt>
<trkpt lat="49.091705322266" lon="3.1855306625366"><ele>157</ele><time>2026-4-28T17:8:17Z</time></trkpt>
<trkpt lat="49.091705322266" lon="3.1855306625366"><ele>157</ele><time>2026-4-28T17:8:20Z</time></trkpt>
<trkpt lat="49.091667175293" lon="3.1854031085968"><ele>157</ele><time>2026-4-28T17:8:23Z</time></trkpt>
<trkpt lat="49.091663360596" lon="3.1852693557739"><ele>157</ele><time>2026-4-28T17:8:26Z</time></trkpt>
<trkpt lat="49.091659545898" lon="3.1850934028625"><ele>157</ele><time>2026-4-28T17:8:29Z</time></trkpt>
<trkpt lat="49.091655731201" lon="3.1849966049194"><ele>157</ele><time>2026-4-28T17:8:32Z</time></trkpt>
<trkpt lat="49.091651916504" lon="3.1848981380463"><ele>157</ele><time>2026-4-28T17:8:35Z</time></trkpt>
<trkpt lat="49.091648101807" lon="3.1847941875458"><ele>158</ele><time>2026-4-28T17:8:38Z</time></trkpt>
<trkpt lat="49.091644287109" lon="3.1846699714661"><ele>158</ele><time>2026-4-28T17:8:41Z</time></trkpt>
<trkpt lat="49.091644287109" lon="3.1845591068268"><ele>158</ele><time>2026-4-28T17:8:44Z</time></trkpt>
<trkpt lat="49.091644287109" lon="3.1844623088837"><ele>158</ele><time>2026-4-28T17:8:47Z</time></trkpt>
<trkpt lat="49.091651916504" lon="3.1843552589417"><ele>158</ele><time>2026-4-28T17:8:50Z</time></trkpt>
<trkpt lat="49.091655731201" lon="3.1842355728149"><ele>158</ele><time>2026-4-28T17:8:53Z</time></trkpt>
<trkpt lat="49.091648101807" lon="3.1841375827789"><ele>158</ele><time>2026-4-28T17:8:56Z</time></trkpt>
<trkpt lat="49.091594696045" lon="3.1840946674347"><ele>158</ele><time>2026-4-28T17:8:59Z</time></trkpt>
<trkpt lat="49.091594696045" lon="3.1840946674347"><ele>158</ele><time>2026-4-28T17:9:2Z</time></trkpt>
<trkpt lat="49.091529846191" lon="3.1841771602631"><ele>158</ele><time>2026-4-28T17:9:5Z</time></trkpt>
<trkpt lat="49.091529846191" lon="3.1841771602631"><ele>158</ele><time>2026-4-28T17:9:8Z</time></trkpt>
<trkpt lat="49.09147644043" lon="3.1842622756958"><ele>158</ele><time>2026-4-28T17:9:11Z</time></trkpt>
<trkpt lat="49.09147644043" lon="3.1842622756958"><ele>158</ele><time>2026-4-28T17:9:14Z</time></trkpt>
<trkpt lat="49.091407775879" lon="3.1843461990356"><ele>158</ele><time>2026-4-28T17:9:17Z</time></trkpt>
<trkpt lat="49.091407775879" lon="3.1843461990356"><ele>158</ele><time>2026-4-28T17:9:20Z</time></trkpt>
<trkpt lat="49.091358184814" lon="3.1844074726105"><ele>159</ele><time>2026-4-28T17:9:23Z</time></trkpt>
<trkpt lat="49.091358184814" lon="3.1844074726105"><ele>159</ele><time>2026-4-28T17:9:26Z</time></trkpt>
<trkpt lat="49.091289520264" lon="3.1844835281372"><ele>159</ele><time>2026-4-28T17:9:29Z</time></trkpt>
<trkpt lat="49.091289520264" lon="3.1844835281372"><ele>159</ele><time>2026-4-28T17:9:32Z</time></trkpt>
<trkpt lat="49.091220855713" lon="3.1845483779907"><ele>159</ele><time>2026-4-28T17:9:35Z</time></trkpt>
<trkpt lat="49.091220855713" lon="3.1845483779907"><ele>159</ele><time>2026-4-28T17:9:38Z</time></trkpt>
<trkpt lat="49.091156005859" lon="3.1846058368683"><ele>159</ele><time>2026-4-28T17:9:41Z</time></trkpt>
<trkpt lat="49.091156005859" lon="3.1846058368683"><ele>159</ele><time>2026-4-28T17:9:44Z</time></trkpt>
<trkpt lat="49.091083526611" lon="3.1846613883972"><ele>159</ele><time>2026-4-28T17:9:47Z</time></trkpt>
<trkpt lat="49.091083526611" lon="3.1846613883972"><ele>159</ele><time>2026-4-28T17:9:50Z</time></trkpt>
<trkpt lat="49.091018676758" lon="3.1847128868103"><ele>159</ele><time>2026-4-28T17:9:53Z</time></trkpt>
<trkpt lat="49.091018676758" lon="3.1847128868103"><ele>159</ele><time>2026-4-28T17:9:56Z</time></trkpt>
<trkpt lat="49.090965270996" lon="3.1847641468048"><ele>159</ele><time>2026-4-28T17:9:59Z</time></trkpt>
<trkpt lat="49.090965270996" lon="3.1847641468048"><ele>159</ele><time>2026-4-28T17:10:2Z</time></trkpt>
<trkpt lat="49.090911865234" lon="3.1848199367523"><ele>159</ele><time>2026-4-28T17:10:5Z</time></trkpt>
<trkpt lat="49.090911865234" lon="3.1848199367523"><ele>159</ele><time>2026-4-28T17:10:8Z</time></trkpt>
<trkpt lat="49.090881347656" lon="3.184858083725"><ele>159</ele><time>2026-4-28T17:10:11Z</time></trkpt>
<trkpt lat="49.090850830078" lon="3.1848888397217"><ele>159</ele><time>2026-4-28T17:10:14Z</time></trkpt>
<trkpt lat="49.090824127197" lon="3.184916973114"><ele>159</ele><time>2026-4-28T17:10:17Z</time></trkpt>
<trkpt lat="49.090793609619" lon="3.1849422454834"><ele>159</ele><time>2026-4-28T17:10:20Z</time></trkpt>
<trkpt lat="49.090763092041" lon="3.1849677562714"><ele>160</ele><time>2026-4-28T17:10:23Z</time></trkpt>
<trkpt lat="49.090705871582" lon="3.1850163936615"><ele>160</ele><time>2026-4-28T17:10:26Z</time></trkpt>
<trkpt lat="49.090705871582" lon="3.1850163936615"><ele>160</ele><time>2026-4-28T17:10:29Z</time></trkpt>
<trkpt lat="49.090644836426" lon="3.1850709915161"><ele>160</ele><time>2026-4-28T17:10:32Z</time></trkpt>
<trkpt lat="49.090644836426" lon="3.1850709915161"><ele>160</ele><time>2026-4-28T17:10:35Z</time></trkpt>
<trkpt lat="49.090599060059" lon="3.1851196289062"><ele>160</ele><time>2026-4-28T17:10:38Z</time></trkpt>
<trkpt lat="49.090599060059" lon="3.1851196289062"><ele>160</ele><time>2026-4-28T17:10:41Z</time></trkpt>
<trkpt lat="49.090549468994" lon="3.1851618289948"><ele>160</ele><time>2026-4-28T17:10:44Z</time></trkpt>
<trkpt lat="49.090549468994" lon="3.1851618289948"><ele>160</ele><time>2026-4-28T17:10:47Z</time></trkpt>
<trkpt lat="49.090484619141" lon="3.1852130889893"><ele>160</ele><time>2026-4-28T17:10:50Z</time></trkpt>
<trkpt lat="49.090484619141" lon="3.1852130889893"><ele>160</ele><time>2026-4-28T17:10:53Z</time></trkpt>
<trkpt lat="49.090427398682" lon="3.1852765083313"><ele>160</ele><time>2026-4-28T17:10:56Z</time></trkpt>
<trkpt lat="49.090427398682" lon="3.1852765083313"><ele>160</ele><time>2026-4-28T17:10:59Z</time></trkpt>
<trkpt lat="49.090427398682" lon="3.1852765083313"><ele>160</ele><time>2026-4-28T17:11:2Z</time></trkpt>
<trkpt lat="49.090362548828" lon="3.1853475570679"><ele>161</ele><time>2026-4-28T17:11:5Z</time></trkpt>
<trkpt lat="49.090362548828" lon="3.1853475570679"><ele>161</ele><time>2026-4-28T17:11:8Z</time></trkpt>
<trkpt lat="49.090301513672" lon="3.1854009628296"><ele>161</ele><time>2026-4-28T17:11:11Z</time></trkpt>
<trkpt lat="49.090301513672" lon="3.1854009628296"><ele>161</ele><time>2026-4-28T17:11:14Z</time></trkpt>
<trkpt lat="49.090240478516" lon="3.1854653358459"><ele>161</ele><time>2026-4-28T17:11:17Z</time></trkpt>
<trkpt lat="49.090240478516" lon="3.1854653358459"><ele>161</ele><time>2026-4-28T17:11:20Z</time></trkpt>
<trkpt lat="49.090187072754" lon="3.1855108737946"><ele>161</ele><time>2026-4-28T17:11:23Z</time></trkpt>
<trkpt lat="49.090187072754" lon="3.1855108737946"><ele>161</ele><time>2026-4-28T17:11:26Z</time></trkpt>
<trkpt lat="49.090126037598" lon="3.1855568885803"><ele>162</ele><time>2026-4-28T17:11:29Z</time></trkpt>
<trkpt lat="49.090126037598" lon="3.1855568885803"><ele>162</ele><time>2026-4-28T17:11:32Z</time></trkpt>
<trkpt lat="49.090068817139" lon="3.1855955123901"><ele>162</ele><time>2026-4-28T17:11:35Z</time></trkpt>
<trkpt lat="49.090068817139" lon="3.1855955123901"><ele>162</ele><time>2026-4-28T17:11:38Z</time></trkpt>
<trkpt lat="49.090068817139" lon="3.1855955123901"><ele>162</ele><time>2026-4-28T17:11:41Z</time></trkpt>
<trkpt lat="49.090000152588" lon="3.1856777667999"><ele>163</ele><time>2026-4-28T17:11:44Z</time></trkpt>
<trkpt lat="49.090000152588" lon="3.1856777667999"><ele>163</ele><time>2026-4-28T17:11:47Z</time></trkpt>
<trkpt lat="49.089939117432" lon="3.185742855072"><ele>164</ele><time>2026-4-28T17:11:50Z</time></trkpt>
<trkpt lat="49.08988571167" lon="3.1857931613922"><ele>164</ele><time>2026-4-28T17:11:53Z</time></trkpt>
<trkpt lat="49.08988571167" lon="3.1857931613922"><ele>164</ele><time>2026-4-28T17:11:56Z</time></trkpt>
<trkpt lat="49.089832305908" lon="3.1858470439911"><ele>165</ele><time>2026-4-28T17:11:59Z</time></trkpt>
<trkpt lat="49.089832305908" lon="3.1858470439911"><ele>165</ele><time>2026-4-28T17:12:2Z</time></trkpt>
<trkpt lat="49.08975982666" lon="3.1859223842621"><ele>165</ele><time>2026-4-28T17:12:5Z</time></trkpt>
<trkpt lat="49.089706420898" lon="3.1859788894653"><ele>166</ele><time>2026-4-28T17:12:8Z</time></trkpt>
<trkpt lat="49.089706420898" lon="3.1859788894653"><ele>166</ele><time>2026-4-28T17:12:11Z</time></trkpt>
<trkpt lat="49.089706420898" lon="3.1859788894653"><ele>166</ele><time>2026-4-28T17:12:14Z</time></trkpt>
<trkpt lat="49.089641571045" lon="3.186047077179"><ele>166</ele><time>2026-4-28T17:12:17Z</time></trkpt>
<trkpt lat="49.089641571045" lon="3.186047077179"><ele>166</ele><time>2026-4-28T17:12:20Z</time></trkpt>
<trkpt lat="49.089588165283" lon="3.1860966682434"><ele>167</ele><time>2026-4-28T17:12:23Z</time></trkpt>
<trkpt lat="49.089588165283" lon="3.1860966682434"><ele>167</ele><time>2026-4-28T17:12:26Z</time></trkpt>
<trkpt lat="49.089588165283" lon="3.1860966682434"><ele>167</ele><time>2026-4-28T17:12:29Z</time></trkpt>
<trkpt lat="49.089519500732" lon="3.1861448287964"><ele>167</ele><time>2026-4-28T17:12:32Z</time></trkpt>
<trkpt lat="49.089519500732" lon="3.1861448287964"><ele>167</ele><time>2026-4-28T17:12:35Z</time></trkpt>
<trkpt lat="49.089469909668" lon="3.1861836910248"><ele>168</ele><time>2026-4-28T17:12:38Z</time></trkpt>
<trkpt lat="49.089469909668" lon="3.1861836910248"><ele>168</ele><time>2026-4-28T17:12:41Z</time></trkpt>
<trkpt lat="49.089412689209" lon="3.1862387657166"><ele>168</ele><time>2026-4-28T17:12:44Z</time></trkpt>
<trkpt lat="49.089412689209" lon="3.1862387657166"><ele>168</ele><time>2026-4-28T17:12:47Z</time></trkpt>
<trkpt lat="49.089347839355" lon="3.1863057613373"><ele>168</ele><time>2026-4-28T17:12:50Z</time></trkpt>
<trkpt lat="49.089347839355" lon="3.1863057613373"><ele>168</ele><time>2026-4-28T17:12:53Z</time></trkpt>
<trkpt lat="49.089347839355" lon="3.1863057613373"><ele>168</ele><time>2026-4-28T17:12:56Z</time></trkpt>
<trkpt lat="49.089321136475" lon="3.1863369941711"><ele>169</ele><time>2026-4-28T17:12:59Z</time></trkpt>
<trkpt lat="49.089298248291" lon="3.1863625049591"><ele>169</ele><time>2026-4-28T17:13:2Z</time></trkpt>
<trkpt lat="49.08927154541" lon="3.1863887310028"><ele>170</ele><time>2026-4-28T17:13:5Z</time></trkpt>
<trkpt lat="49.089241027832" lon="3.1864166259766"><ele>170</ele><time>2026-4-28T17:13:8Z</time></trkpt>
<trkpt lat="49.089214324951" lon="3.1864447593689"><ele>170</ele><time>2026-4-28T17:13:11Z</time></trkpt>
<trkpt lat="49.089153289795" lon="3.1865026950836"><ele>171</ele><time>2026-4-28T17:13:14Z</time></trkpt>
<trkpt lat="49.089088439941" lon="3.1865565776825"><ele>172</ele><time>2026-4-28T17:13:17Z</time></trkpt>
<trkpt lat="49.089023590088" lon="3.1866199970245"><ele>172</ele><time>2026-4-28T17:13:20Z</time></trkpt>
<trkpt lat="49.089023590088" lon="3.1866199970245"><ele>172</ele><time>2026-4-28T17:13:23Z</time></trkpt>
<trkpt lat="49.088973999023" lon="3.1866805553436"><ele>173</ele><time>2026-4-28T17:13:26Z</time></trkpt>
<trkpt lat="49.088928222656" lon="3.1867213249207"><ele>174</ele><time>2026-4-28T17:13:29Z</time></trkpt>
<trkpt lat="49.088878631592" lon="3.1867873668671"><ele>175</ele><time>2026-4-28T17:13:32Z</time></trkpt>
<trkpt lat="49.088878631592" lon="3.1867873668671"><ele>175</ele><time>2026-4-28T17:13:35Z</time></trkpt>
<trkpt lat="49.08882522583" lon="3.1868541240692"><ele>175</ele><time>2026-4-28T17:13:38Z</time></trkpt>
<trkpt lat="49.08882522583" lon="3.1868541240692"><ele>175</ele><time>2026-4-28T17:13:41Z</time></trkpt>
<trkpt lat="49.08882522583" lon="3.1868541240692"><ele>175</ele><time>2026-4-28T17:13:44Z</time></trkpt>
<trkpt lat="49.088764190674" lon="3.1869368553162"><ele>176</ele><time>2026-4-28T17:13:47Z</time></trkpt>
<trkpt lat="49.088764190674" lon="3.1869368553162"><ele>176</ele><time>2026-4-28T17:13:50Z</time></trkpt>
<trkpt lat="49.088714599609" lon="3.1870021820068"><ele>177</ele><time>2026-4-28T17:13:53Z</time></trkpt>
<trkpt lat="49.088714599609" lon="3.1870021820068"><ele>177</ele><time>2026-4-28T17:13:56Z</time></trkpt>
<trkpt lat="49.088672637939" lon="3.1870572566986"><ele>178</ele><time>2026-4-28T17:13:59Z</time></trkpt>
<trkpt lat="49.088672637939" lon="3.1870572566986"><ele>178</ele><time>2026-4-28T17:14:2Z</time></trkpt>
<trkpt lat="49.08863067627" lon="3.1871137619019"><ele>178</ele><time>2026-4-28T17:14:5Z</time></trkpt>
<trkpt lat="49.088573455811" lon="3.1871938705444"><ele>179</ele><time>2026-4-28T17:14:8Z</time></trkpt>
<trkpt lat="49.088523864746" lon="3.1872663497925"><ele>180</ele><time>2026-4-28T17:14:11Z</time></trkpt>
<trkpt lat="49.088523864746" lon="3.1872663497925"><ele>180</ele><time>2026-4-28T17:14:14Z</time></trkpt>
<trkpt lat="49.088474273682" lon="3.1873281002045"><ele>180</ele><time>2026-4-28T17:14:17Z</time></trkpt>
<trkpt lat="49.088474273682" lon="3.1873281002045"><ele>180</ele><time>2026-4-28T17:14:20Z</time></trkpt>
<trkpt lat="49.088409423828" lon="3.1873841285706"><ele>180</ele><time>2026-4-28T17:14:23Z</time></trkpt>
<trkpt lat="49.088356018066" lon="3.1874499320984"><ele>180</ele><time>2026-4-28T17:14:26Z</time></trkpt>
<trkpt lat="49.088356018066" lon="3.1874499320984"><ele>180</ele><time>2026-4-28T17:14:29Z</time></trkpt>
<trkpt lat="49.088356018066" lon="3.1874499320984"><ele>180</ele><time>2026-4-28T17:14:32Z</time></trkpt>
<trkpt lat="49.088356018066" lon="3.1874499320984"><ele>180</ele><time>2026-4-28T17:14:35Z</time></trkpt>
<trkpt lat="49.088356018066" lon="3.1874499320984"><ele>180</ele><time>2026-4-28T17:14:38Z</time></trkpt>
<trkpt lat="49.088356018066" lon="3.1874499320984"><ele>180</ele><time>2026-4-28T17:14:41Z</time></trkpt>
<trkpt lat="49.088356018066" lon="3.1874499320984"><ele>180</ele><time>2026-4-28T17:14:44Z</time></trkpt>
<trkpt lat="49.088356018066" lon="3.1874499320984"><ele>180</ele><time>2026-4-28T17:14:47Z</time></trkpt>
<trkpt lat="49.088356018066" lon="3.1874499320984"><ele>180</ele><time>2026-4-28T17:14:50Z</time></trkpt>
<trkpt lat="49.088356018066" lon="3.1874499320984"><ele>180</ele><time>2026-4-28T17:14:53Z</time></trkpt>
<trkpt lat="49.088356018066" lon="3.1874499320984"><ele>180</ele><time>2026-4-28T17:14:56Z</time></trkpt>
<trkpt lat="49.088356018066" lon="3.1874499320984"><ele>180</ele><time>2026-4-28T17:14:59Z</time></trkpt>
<trkpt lat="49.088356018066" lon="3.1874499320984"><ele>180</ele><time>2026-4-28T17:15:2Z</time></trkpt>
<trkpt lat="49.088356018066" lon="3.1874499320984"><ele>180</ele><time>2026-4-28T17:15:5Z</time></trkpt>
<trkpt lat="49.088356018066" lon="3.1874499320984"><ele>180</ele><time>2026-4-28T17:15:8Z</time></trkpt>
<trkpt lat="49.088356018066" lon="3.1874499320984"><ele>180</ele><time>2026-4-28T17:15:11Z</time></trkpt>
<trkpt lat="49.088356018066" lon="3.1874499320984"><ele>180</ele><time>2026-4-28T17:15:14Z</time></trkpt>
<trkpt lat="49.088356018066" lon="3.1874499320984"><ele>180</ele><time>2026-4-28T17:15:17Z</time></trkpt>
<trkpt lat="49.088356018066" lon="3.1874499320984"><ele>180</ele><time>2026-4-28T17:15:20Z</time></trkpt>
<trkpt lat="49.088356018066" lon="3.1874499320984"><ele>180</ele><time>2026-4-28T17:15:23Z</time></trkpt>
<trkpt lat="49.088356018066" lon="3.1874499320984"><ele>180</ele><time>2026-4-28T17:15:26Z</time></trkpt>
<trkpt lat="49.088356018066" lon="3.1874499320984"><ele>180</ele><time>2026-4-28T17:15:29Z</time></trkpt>
<trkpt lat="49.088356018066" lon="3.1874499320984"><ele>180</ele><time>2026-4-28T17:15:32Z</time></trkpt>
<trkpt lat="49.088356018066" lon="3.1874499320984"><ele>180</ele><time>2026-4-28T17:15:35Z</time></trkpt>
<trkpt lat="49.088356018066" lon="3.1874499320984"><ele>180</ele><time>2026-4-28T17:15:38Z</time></trkpt>
<trkpt lat="49.088356018066" lon="3.1874499320984"><ele>180</ele><time>2026-4-28T17:15:41Z</time></trkpt>
<trkpt lat="49.088356018066" lon="3.1874499320984"><ele>180</ele><time>2026-4-28T17:15:44Z</time></trkpt>
<trkpt lat="49.088356018066" lon="3.1874499320984"><ele>180</ele><time>2026-4-28T17:15:47Z</time></trkpt>
<trkpt lat="49.088356018066" lon="3.1874499320984"><ele>180</ele><time>2026-4-28T17:15:50Z</time></trkpt>
<trkpt lat="49.088356018066" lon="3.1874499320984"><ele>180</ele><time>2026-4-28T17:15:53Z</time></trkpt>
<trkpt lat="49.088356018066" lon="3.1874499320984"><ele>180</ele><time>2026-4-28T17:15:56Z</time></trkpt>
<trkpt lat="49.088356018066" lon="3.1874499320984"><ele>180</ele><time>2026-4-28T17:15:59Z</time></trkpt>
<trkpt lat="49.088356018066" lon="3.1874499320984"><ele>180</ele><time>2026-4-28T17:16:2Z</time></trkpt>
<trkpt lat="49.088356018066" lon="3.1874499320984"><ele>180</ele><time>2026-4-28T17:16:5Z</time></trkpt>
<trkpt lat="49.088356018066" lon="3.1874499320984"><ele>180</ele><time>2026-4-28T17:16:8Z</time></trkpt>
<trkpt lat="49.088356018066" lon="3.1874499320984"><ele>180</ele><time>2026-4-28T17:16:11Z</time></trkpt>
<trkpt lat="49.088356018066" lon="3.1874499320984"><ele>180</ele><time>2026-4-28T17:16:14Z</time></trkpt>
<trkpt lat="49.088356018066" lon="3.1874499320984"><ele>180</ele><time>2026-4-28T17:16:17Z</time></trkpt>
<trkpt lat="49.088260650635" lon="3.1875524520874"><ele>182</ele><time>2026-4-28T17:16:20Z</time></trkpt>
<trkpt lat="49.088195800781" lon="3.1876125335693"><ele>182</ele><time>2026-4-28T17:16:23Z</time></trkpt>
<trkpt lat="49.08814239502" lon="3.1876566410065"><ele>182</ele><time>2026-4-28T17:16:26Z</time></trkpt>
<trkpt lat="49.088088989258" lon="3.1876964569092"><ele>182</ele><time>2026-4-28T17:16:29Z</time></trkpt>
<trkpt lat="49.088035583496" lon="3.1877360343933"><ele>182</ele><time>2026-4-28T17:16:32Z</time></trkpt>
<trkpt lat="49.087909698486" lon="3.187837600708"><ele>182</ele><time>2026-4-28T17:16:35Z</time></trkpt>
<trkpt lat="49.087825775146" lon="3.1879181861877"><ele>182</ele><time>2026-4-28T17:16:38Z</time></trkpt>
<trkpt lat="49.087745666504" lon="3.1879990100861"><ele>181</ele><time>2026-4-28T17:16:41Z</time></trkpt>
<trkpt lat="49.087669372559" lon="3.1880724430084"><ele>181</ele><time>2026-4-28T17:16:44Z</time></trkpt>
<trkpt lat="49.087593078613" lon="3.1881573200226"><ele>180</ele><time>2026-4-28T17:16:47Z</time></trkpt>
<trkpt lat="49.087501525879" lon="3.1882700920105"><ele>179</ele><time>2026-4-28T17:16:50Z</time></trkpt>
<trkpt lat="49.087406158447" lon="3.1883883476257"><ele>179</ele><time>2026-4-28T17:16:53Z</time></trkpt>
<trkpt lat="49.087310791016" lon="3.1885056495667"><ele>178</ele><time>2026-4-28T17:16:56Z</time></trkpt>
<trkpt lat="49.087200164795" lon="3.1886358261108"><ele>178</ele><time>2026-4-28T17:16:59Z</time></trkpt>
<trkpt lat="49.087089538574" lon="3.1887559890747"><ele>177</ele><time>2026-4-28T17:17:2Z</time></trkpt>
<trkpt lat="49.086986541748" lon="3.1888697147369"><ele>176</ele><time>2026-4-28T17:17:5Z</time></trkpt>
<trkpt lat="49.086883544922" lon="3.1889801025391"><ele>175</ele><time>2026-4-28T17:17:8Z</time></trkpt>
<trkpt lat="49.086772918701" lon="3.1890888214111"><ele>176</ele><time>2026-4-28T17:17:11Z</time></trkpt>
<trkpt lat="49.086666107178" lon="3.1891808509827"><ele>178</ele><time>2026-4-28T17:17:14Z</time></trkpt>
<trkpt lat="49.086566925049" lon="3.1892726421356"><ele>179</ele><time>2026-4-28T17:17:17Z</time></trkpt>
<trkpt lat="49.086490631104" lon="3.189356803894"><ele>180</ele><time>2026-4-28T17:17:20Z</time></trkpt>
<trkpt lat="49.086421966553" lon="3.189462184906"><ele>180</ele><time>2026-4-28T17:17:23Z</time></trkpt>
<trkpt lat="49.086368560791" lon="3.1895549297333"><ele>180</ele><time>2026-4-28T17:17:26Z</time></trkpt>
<trkpt lat="49.086368560791" lon="3.1895549297333"><ele>180</ele><time>2026-4-28T17:17:29Z</time></trkpt>
<trkpt lat="49.086311340332" lon="3.1896524429321"><ele>179</ele><time>2026-4-28T17:17:32Z</time></trkpt>
<trkpt lat="49.086311340332" lon="3.1896524429321"><ele>179</ele><time>2026-4-28T17:17:35Z</time></trkpt>
<trkpt lat="49.08625793457" lon="3.1897449493408"><ele>179</ele><time>2026-4-28T17:17:38Z</time></trkpt>
<trkpt lat="49.08625793457" lon="3.1897449493408"><ele>179</ele><time>2026-4-28T17:17:41Z</time></trkpt>
<trkpt lat="49.08625793457" lon="3.1897449493408"><ele>179</ele><time>2026-4-28T17:17:44Z</time></trkpt>
<trkpt lat="49.0862159729" lon="3.1898319721222"><ele>179</ele><time>2026-4-28T17:17:47Z</time></trkpt>
<trkpt lat="49.0862159729" lon="3.1898319721222"><ele>179</ele><time>2026-4-28T17:17:50Z</time></trkpt>
<trkpt lat="49.086170196533" lon="3.1899101734161"><ele>179</ele><time>2026-4-28T17:17:53Z</time></trkpt>
<trkpt lat="49.086170196533" lon="3.1899101734161"><ele>179</ele><time>2026-4-28T17:17:56Z</time></trkpt>
<trkpt lat="49.086170196533" lon="3.1899101734161"><ele>179</ele><time>2026-4-28T17:17:59Z</time></trkpt>
<trkpt lat="49.086132049561" lon="3.1899833679199"><ele>179</ele><time>2026-4-28T17:18:2Z</time></trkpt>
<trkpt lat="49.086132049561" lon="3.1899833679199"><ele>179</ele><time>2026-4-28T17:18:5Z</time></trkpt>
<trkpt lat="49.086093902588" lon="3.190060377121"><ele>179</ele><time>2026-4-28T17:18:8Z</time></trkpt>
<trkpt lat="49.086093902588" lon="3.190060377121"><ele>179</ele><time>2026-4-28T17:18:11Z</time></trkpt>
<trkpt lat="49.086093902588" lon="3.190060377121"><ele>179</ele><time>2026-4-28T17:18:14Z</time></trkpt>
<trkpt lat="49.086044311523" lon="3.1901564598083"><ele>179</ele><time>2026-4-28T17:18:17Z</time></trkpt>
<trkpt lat="49.086044311523" lon="3.1901564598083"><ele>179</ele><time>2026-4-28T17:18:20Z</time></trkpt>
<trkpt lat="49.085983276367" lon="3.1902358531952"><ele>179</ele><time>2026-4-28T17:18:23Z</time></trkpt>
<trkpt lat="49.085983276367" lon="3.1902358531952"><ele>179</ele><time>2026-4-28T17:18:26Z</time></trkpt>
<trkpt lat="49.085983276367" lon="3.1902358531952"><ele>179</ele><time>2026-4-28T17:18:29Z</time></trkpt>
<trkpt lat="49.0859375" lon="3.1903188228607"><ele>179</ele><time>2026-4-28T17:18:32Z</time></trkpt>
<trkpt lat="49.0859375" lon="3.1903188228607"><ele>179</ele><time>2026-4-28T17:18:35Z</time></trkpt>
<trkpt lat="49.085899353027" lon="3.190417766571"><ele>179</ele><time>2026-4-28T17:18:38Z</time></trkpt>
<trkpt lat="49.085899353027" lon="3.190417766571"><ele>179</ele><time>2026-4-28T17:18:41Z</time></trkpt>
<trkpt lat="49.085868835449" lon="3.1904983520508"><ele>179</ele><time>2026-4-28T17:18:44Z</time></trkpt>
<trkpt lat="49.085868835449" lon="3.1904983520508"><ele>179</ele><time>2026-4-28T17:18:47Z</time></trkpt>
<trkpt lat="49.085830688477" lon="3.1905624866486"><ele>180</ele><time>2026-4-28T17:18:50Z</time></trkpt>
<trkpt lat="49.085784912109" lon="3.1906354427338"><ele>180</ele><time>2026-4-28T17:18:53Z</time></trkpt>
<trkpt lat="49.085739135742" lon="3.1907076835632"><ele>180</ele><time>2026-4-28T17:18:56Z</time></trkpt>
<trkpt lat="49.085739135742" lon="3.1907076835632"><ele>180</ele><time>2026-4-28T17:18:59Z</time></trkpt>
<trkpt lat="49.08568572998" lon="3.1907644271851"><ele>180</ele><time>2026-4-28T17:19:2Z</time></trkpt>
<trkpt lat="49.085609436035" lon="3.1907942295074"><ele>181</ele><time>2026-4-28T17:19:5Z</time></trkpt>
<trkpt lat="49.085609436035" lon="3.1907942295074"><ele>181</ele><time>2026-4-28T17:19:8Z</time></trkpt>
<trkpt lat="49.085609436035" lon="3.1907942295074"><ele>181</ele><time>2026-4-28T17:19:11Z</time></trkpt>
<trkpt lat="49.085609436035" lon="3.1907942295074"><ele>181</ele><time>2026-4-28T17:19:14Z</time></trkpt>
<trkpt lat="49.085609436035" lon="3.1907942295074"><ele>181</ele><time>2026-4-28T17:19:17Z</time></trkpt>
<trkpt lat="49.085609436035" lon="3.1907942295074"><ele>181</ele><time>2026-4-28T17:19:20Z</time></trkpt>
<trkpt lat="49.08557510376" lon="3.1908118724823"><ele>182</ele><time>2026-4-28T17:19:23Z</time></trkpt>
<trkpt lat="49.08557510376" lon="3.1908118724823"><ele>182</ele><time>2026-4-28T17:19:26Z</time></trkpt>
<trkpt lat="49.08557510376" lon="3.1908118724823"><ele>182</ele><time>2026-4-28T17:19:29Z</time></trkpt>
<trkpt lat="49.08557510376" lon="3.1908118724823"><ele>182</ele><time>2026-4-28T17:19:32Z</time></trkpt>
<trkpt lat="49.08557510376" lon="3.1908118724823"><ele>182</ele><time>2026-4-28T17:19:35Z</time></trkpt>
<trkpt lat="49.085411071777" lon="3.1909911632538"><ele>182</ele><time>2026-4-28T17:19:38Z</time></trkpt>
<trkpt lat="49.085411071777" lon="3.1909911632538"><ele>182</ele><time>2026-4-28T17:19:41Z</time></trkpt>
<trkpt lat="49.085361480713" lon="3.1910486221313"><ele>182</ele><time>2026-4-28T17:19:44Z</time></trkpt>
<trkpt lat="49.085304260254" lon="3.1911151409149"><ele>182</ele><time>2026-4-28T17:19:47Z</time></trkpt>
<trkpt lat="49.085235595703" lon="3.1911833286285"><ele>181</ele><time>2026-4-28T17:19:50Z</time></trkpt>
<trkpt lat="49.085235595703" lon="3.1911833286285"><ele>181</ele><time>2026-4-28T17:19:53Z</time></trkpt>
<trkpt lat="49.08517074585" lon="3.1912815570831"><ele>180</ele><time>2026-4-28T17:19:56Z</time></trkpt>
<trkpt lat="49.085079193115" lon="3.1913778781891"><ele>179</ele><time>2026-4-28T17:19:59Z</time></trkpt>
<trkpt lat="49.084980010986" lon="3.1914732456207"><ele>178</ele><time>2026-4-28T17:20:2Z</time></trkpt>
<trkpt lat="49.084980010986" lon="3.1914732456207"><ele>178</ele><time>2026-4-28T17:20:5Z</time></trkpt>
<trkpt lat="49.08487701416" lon="3.1915588378906"><ele>177</ele><time>2026-4-28T17:20:8Z</time></trkpt>
<trkpt lat="49.084758758545" lon="3.1916553974152"><ele>176</ele><time>2026-4-28T17:20:11Z</time></trkpt>
<trkpt lat="49.084613800049" lon="3.191766500473"><ele>175</ele><time>2026-4-28T17:20:14Z</time></trkpt>
<trkpt lat="49.084613800049" lon="3.191766500473"><ele>175</ele><time>2026-4-28T17:20:17Z</time></trkpt>
<trkpt lat="49.084468841553" lon="3.1918802261353"><ele>174</ele><time>2026-4-28T17:20:20Z</time></trkpt>
<trkpt lat="49.084327697754" lon="3.1919882297516"><ele>173</ele><time>2026-4-28T17:20:23Z</time></trkpt>
<trkpt lat="49.084178924561" lon="3.1920948028564"><ele>171</ele><time>2026-4-28T17:20:26Z</time></trkpt>
<trkpt lat="49.084178924561" lon="3.1920948028564"><ele>171</ele><time>2026-4-28T17:20:29Z</time></trkpt>
<trkpt lat="49.084037780762" lon="3.1921937465668"><ele>170</ele><time>2026-4-28T17:20:32Z</time></trkpt>
<trkpt lat="49.083904266357" lon="3.1922779083252"><ele>169</ele><time>2026-4-28T17:20:35Z</time></trkpt>
<trkpt lat="49.083766937256" lon="3.1923525333405"><ele>169</ele><time>2026-4-28T17:20:38Z</time></trkpt>
<trkpt lat="49.083766937256" lon="3.1923525333405"><ele>169</ele><time>2026-4-28T17:20:41Z</time></trkpt>
<trkpt lat="49.083614349365" lon="3.1924197673798"><ele>168</ele><time>2026-4-28T17:20:44Z</time></trkpt>
<trkpt lat="49.083461761475" lon="3.1924715042114"><ele>166</ele><time>2026-4-28T17:20:47Z</time></trkpt>
<trkpt lat="49.083312988281" lon="3.1925075054169"><ele>165</ele><time>2026-4-28T17:20:50Z</time></trkpt>
<trkpt lat="49.083312988281" lon="3.1925075054169"><ele>165</ele><time>2026-4-28T17:20:53Z</time></trkpt>
<trkpt lat="49.083190917969" lon="3.1925268173218"><ele>165</ele><time>2026-4-28T17:20:56Z</time></trkpt>
<trkpt lat="49.083084106445" lon="3.1925456523895"><ele>164</ele><time>2026-4-28T17:20:59Z</time></trkpt>
<trkpt lat="49.082996368408" lon="3.1925723552704"><ele>163</ele><time>2026-4-28T17:21:2Z</time></trkpt>
<trkpt lat="49.082996368408" lon="3.1925723552704"><ele>163</ele><time>2026-4-28T17:21:5Z</time></trkpt>
<trkpt lat="49.082939147949" lon="3.1926205158234"><ele>163</ele><time>2026-4-28T17:21:8Z</time></trkpt>
<trkpt lat="49.082866668701" lon="3.1927170753479"><ele>163</ele><time>2026-4-28T17:21:11Z</time></trkpt>
<trkpt lat="49.082790374756" lon="3.1928176879883"><ele>164</ele><time>2026-4-28T17:21:14Z</time></trkpt>
<trkpt lat="49.082790374756" lon="3.1928176879883"><ele>164</ele><time>2026-4-28T17:21:17Z</time></trkpt>
<trkpt lat="49.082725524902" lon="3.1928963661194"><ele>165</ele><time>2026-4-28T17:21:20Z</time></trkpt>
<trkpt lat="49.082668304443" lon="3.192962884903"><ele>165</ele><time>2026-4-28T17:21:23Z</time></trkpt>
<trkpt lat="49.082626342773" lon="3.1930205821991"><ele>165</ele><time>2026-4-28T17:21:26Z</time></trkpt>
<trkpt lat="49.082626342773" lon="3.1930205821991"><ele>165</ele><time>2026-4-28T17:21:29Z</time></trkpt>
<trkpt lat="49.082626342773" lon="3.1930205821991"><ele>165</ele><time>2026-4-28T17:21:32Z</time></trkpt>
<trkpt lat="49.082553863525" lon="3.1931235790253"><ele>165</ele><time>2026-4-28T17:21:35Z</time></trkpt>
<trkpt lat="49.082553863525" lon="3.1931235790253"><ele>165</ele><time>2026-4-28T17:21:38Z</time></trkpt>
<trkpt lat="49.082553863525" lon="3.1931235790253"><ele>165</ele><time>2026-4-28T17:21:41Z</time></trkpt>
<trkpt lat="49.08247756958" lon="3.1932215690613"><ele>165</ele><time>2026-4-28T17:21:44Z</time></trkpt>
<trkpt lat="49.08247756958" lon="3.1932215690613"><ele>165</ele><time>2026-4-28T17:21:47Z</time></trkpt>
<trkpt lat="49.082401275635" lon="3.1933267116547"><ele>165</ele><time>2026-4-28T17:21:50Z</time></trkpt>
<trkpt lat="49.082401275635" lon="3.1933267116547"><ele>165</ele><time>2026-4-28T17:21:53Z</time></trkpt>
<trkpt lat="49.082401275635" lon="3.1933267116547"><ele>165</ele><time>2026-4-28T17:21:56Z</time></trkpt>
<trkpt lat="49.082324981689" lon="3.1934266090393"><ele>165</ele><time>2026-4-28T17:21:59Z</time></trkpt>
<trkpt lat="49.082324981689" lon="3.1934266090393"><ele>165</ele><time>2026-4-28T17:22:2Z</time></trkpt>
<trkpt lat="49.082324981689" lon="3.1934266090393"><ele>165</ele><time>2026-4-28T17:22:5Z</time></trkpt>
<trkpt lat="49.082248687744" lon="3.1935214996338"><ele>165</ele><time>2026-4-28T17:22:8Z</time></trkpt>
<trkpt lat="49.082172393799" lon="3.1936058998108"><ele>165</ele><time>2026-4-28T17:22:11Z</time></trkpt>
<trkpt lat="49.082172393799" lon="3.1936058998108"><ele>165</ele><time>2026-4-28T17:22:14Z</time></trkpt>
<trkpt lat="49.082122802734" lon="3.1936480998993"><ele>165</ele><time>2026-4-28T17:22:17Z</time></trkpt>
<trkpt lat="49.082038879395" lon="3.1937260627747"><ele>165</ele><time>2026-4-28T17:22:20Z</time></trkpt>
<trkpt lat="49.082038879395" lon="3.1937260627747"><ele>165</ele><time>2026-4-28T17:22:23Z</time></trkpt>
<trkpt lat="49.081985473633" lon="3.1937792301178"><ele>165</ele><time>2026-4-28T17:22:26Z</time></trkpt>
<trkpt lat="49.081920623779" lon="3.193840265274"><ele>166</ele><time>2026-4-28T17:22:29Z</time></trkpt>
<trkpt lat="49.081859588623" lon="3.1939001083374"><ele>166</ele><time>2026-4-28T17:22:32Z</time></trkpt>
<trkpt lat="49.081859588623" lon="3.1939001083374"><ele>166</ele><time>2026-4-28T17:22:35Z</time></trkpt>
<trkpt lat="49.081798553467" lon="3.193959236145"><ele>166</ele><time>2026-4-28T17:22:38Z</time></trkpt>
<trkpt lat="49.081729888916" lon="3.1940257549286"><ele>166</ele><time>2026-4-28T17:22:41Z</time></trkpt>
<trkpt lat="49.081665039062" lon="3.1940953731537"><ele>167</ele><time>2026-4-28T17:22:44Z</time></trkpt>
<trkpt lat="49.081665039062" lon="3.1940953731537"><ele>167</ele><time>2026-4-28T17:22:47Z</time></trkpt>
<trkpt lat="49.081611633301" lon="3.194150686264"><ele>167</ele><time>2026-4-28T17:22:50Z</time></trkpt>
<trkpt lat="49.081611633301" lon="3.194150686264"><ele>167</ele><time>2026-4-28T17:22:53Z</time></trkpt>
<trkpt lat="49.081611633301" lon="3.194150686264"><ele>167</ele><time>2026-4-28T17:22:56Z</time></trkpt>
<trkpt lat="49.081611633301" lon="3.194150686264"><ele>167</ele><time>2026-4-28T17:22:59Z</time></trkpt>
<trkpt lat="49.081550598145" lon="3.1941938400269"><ele>167</ele><time>2026-4-28T17:23:2Z</time></trkpt>
<trkpt lat="49.081550598145" lon="3.1941938400269"><ele>167</ele><time>2026-4-28T17:23:5Z</time></trkpt>
<trkpt lat="49.081493377686" lon="3.1942644119263"><ele>166</ele><time>2026-4-28T17:23:8Z</time></trkpt>
<trkpt lat="49.081436157227" lon="3.1943197250366"><ele>166</ele><time>2026-4-28T17:23:11Z</time></trkpt>
<trkpt lat="49.081382751465" lon="3.194365978241"><ele>166</ele><time>2026-4-28T17:23:14Z</time></trkpt>
<trkpt lat="49.081382751465" lon="3.194365978241"><ele>166</ele><time>2026-4-28T17:23:17Z</time></trkpt>
<trkpt lat="49.081321716309" lon="3.1944136619568"><ele>166</ele><time>2026-4-28T17:23:20Z</time></trkpt>
<trkpt lat="49.081256866455" lon="3.1944630146027"><ele>166</ele><time>2026-4-28T17:23:23Z</time></trkpt>
<trkpt lat="49.081188201904" lon="3.1945164203644"><ele>166</ele><time>2026-4-28T17:23:26Z</time></trkpt>
<trkpt lat="49.081188201904" lon="3.1945164203644"><ele>166</ele><time>2026-4-28T17:23:29Z</time></trkpt>
<trkpt lat="49.081115722656" lon="3.1945719718933"><ele>166</ele><time>2026-4-28T17:23:32Z</time></trkpt>
<trkpt lat="49.081050872803" lon="3.1946043968201"><ele>166</ele><time>2026-4-28T17:23:35Z</time></trkpt>
<trkpt lat="49.080986022949" lon="3.1946401596069"><ele>165</ele><time>2026-4-28T17:23:38Z</time></trkpt>
<trkpt lat="49.080986022949" lon="3.1946401596069"><ele>165</ele><time>2026-4-28T17:23:41Z</time></trkpt>
<trkpt lat="49.080924987793" lon="3.1947212219238"><ele>165</ele><time>2026-4-28T17:23:44Z</time></trkpt>
<trkpt lat="49.080860137939" lon="3.1948153972626"><ele>165</ele><time>2026-4-28T17:23:47Z</time></trkpt>
<trkpt lat="49.080795288086" lon="3.194931268692"><ele>165</ele><time>2026-4-28T17:23:50Z</time></trkpt>
<trkpt lat="49.080795288086" lon="3.194931268692"><ele>165</ele><time>2026-4-28T17:23:53Z</time></trkpt>
<trkpt lat="49.080741882324" lon="3.195023059845"><ele>165</ele><time>2026-4-28T17:23:56Z</time></trkpt>
<trkpt lat="49.08069229126" lon="3.1950967311859"><ele>165</ele><time>2026-4-28T17:23:59Z</time></trkpt>
<trkpt lat="49.08069229126" lon="3.1950967311859"><ele>165</ele><time>2026-4-28T17:24:2Z</time></trkpt>
<trkpt lat="49.08069229126" lon="3.1950967311859"><ele>165</ele><time>2026-4-28T17:24:5Z</time></trkpt>
<trkpt lat="49.08069229126" lon="3.1950967311859"><ele>165</ele><time>2026-4-28T17:24:8Z</time></trkpt>
<trkpt lat="49.080635070801" lon="3.1952369213104"><ele>165</ele><time>2026-4-28T17:24:11Z</time></trkpt>
<trkpt lat="49.080635070801" lon="3.1952369213104"><ele>165</ele><time>2026-4-28T17:24:14Z</time></trkpt>
<trkpt lat="49.080635070801" lon="3.1952369213104"><ele>165</ele><time>2026-4-28T17:24:17Z</time></trkpt>
<trkpt lat="49.080635070801" lon="3.1952369213104"><ele>165</ele><time>2026-4-28T17:24:20Z</time></trkpt>
<trkpt lat="49.080635070801" lon="3.1952369213104"><ele>165</ele><time>2026-4-28T17:24:23Z</time></trkpt>
<trkpt lat="49.080635070801" lon="3.1952369213104"><ele>165</ele><time>2026-4-28T17:24:26Z</time></trkpt>
<trkpt lat="49.080635070801" lon="3.1952369213104"><ele>165</ele><time>2026-4-28T17:24:29Z</time></trkpt>
<trkpt lat="49.080585479736" lon="3.1953358650208"><ele>165</ele><time>2026-4-28T17:24:32Z</time></trkpt>
<trkpt lat="49.080585479736" lon="3.1953358650208"><ele>165</ele><time>2026-4-28T17:24:35Z</time></trkpt>
<trkpt lat="49.080513000488" lon="3.1954207420349"><ele>165</ele><time>2026-4-28T17:24:38Z</time></trkpt>
<trkpt lat="49.080463409424" lon="3.1954824924469"><ele>165</ele><time>2026-4-28T17:24:41Z</time></trkpt>
<trkpt lat="49.080413818359" lon="3.1955387592316"><ele>165</ele><time>2026-4-28T17:24:44Z</time></trkpt>
<trkpt lat="49.080413818359" lon="3.1955387592316"><ele>165</ele><time>2026-4-28T17:24:47Z</time></trkpt>
<trkpt lat="49.080352783203" lon="3.1956102848053"><ele>165</ele><time>2026-4-28T17:24:50Z</time></trkpt>
<trkpt lat="49.080284118652" lon="3.1956958770752"><ele>165</ele><time>2026-4-28T17:24:53Z</time></trkpt>
<trkpt lat="49.080219268799" lon="3.1957795619965"><ele>164</ele><time>2026-4-28T17:24:56Z</time></trkpt>
<trkpt lat="49.080219268799" lon="3.1957795619965"><ele>164</ele><time>2026-4-28T17:24:59Z</time></trkpt>
<trkpt lat="49.080158233643" lon="3.1958563327789"><ele>164</ele><time>2026-4-28T17:25:2Z</time></trkpt>
<trkpt lat="49.080116271973" lon="3.1959121227264"><ele>164</ele><time>2026-4-28T17:25:5Z</time></trkpt>
<trkpt lat="49.080066680908" lon="3.1959745883942"><ele>164</ele><time>2026-4-28T17:25:8Z</time></trkpt>
<trkpt lat="49.080066680908" lon="3.1959745883942"><ele>164</ele><time>2026-4-28T17:25:11Z</time></trkpt>
<trkpt lat="49.080066680908" lon="3.1959745883942"><ele>164</ele><time>2026-4-28T17:25:14Z</time></trkpt>
<trkpt lat="49.080001831055" lon="3.1960456371307"><ele>164</ele><time>2026-4-28T17:25:17Z</time></trkpt>
<trkpt lat="49.080001831055" lon="3.1960456371307"><ele>164</ele><time>2026-4-28T17:25:20Z</time></trkpt>
<trkpt lat="49.080001831055" lon="3.1960456371307"><ele>164</ele><time>2026-4-28T17:25:23Z</time></trkpt>
<trkpt lat="49.079940795898" lon="3.1961317062378"><ele>163</ele><time>2026-4-28T17:25:26Z</time></trkpt>
<trkpt lat="49.079872131348" lon="3.1962358951569"><ele>163</ele><time>2026-4-28T17:25:29Z</time></trkpt>
<trkpt lat="49.079872131348" lon="3.1962358951569"><ele>163</ele><time>2026-4-28T17:25:32Z</time></trkpt>
<trkpt lat="49.079830169678" lon="3.1963043212891"><ele>163</ele><time>2026-4-28T17:25:35Z</time></trkpt>
<trkpt lat="49.079795837402" lon="3.1963813304901"><ele>162</ele><time>2026-4-28T17:25:38Z</time></trkpt>
<trkpt lat="49.079750061035" lon="3.196469783783"><ele>162</ele><time>2026-4-28T17:25:41Z</time></trkpt>
<trkpt lat="49.079750061035" lon="3.196469783783"><ele>162</ele><time>2026-4-28T17:25:44Z</time></trkpt>
<trkpt lat="49.079711914062" lon="3.1965429782867"><ele>162</ele><time>2026-4-28T17:25:47Z</time></trkpt>
<trkpt lat="49.079711914062" lon="3.1965429782867"><ele>162</ele><time>2026-4-28T17:25:50Z</time></trkpt>
<trkpt lat="49.079711914062" lon="3.1965429782867"><ele>162</ele><time>2026-4-28T17:25:53Z</time></trkpt>
<trkpt lat="49.07967376709" lon="3.1965866088867"><ele>162</ele><time>2026-4-28T17:25:56Z</time></trkpt>
<trkpt lat="49.079635620117" lon="3.1966350078583"><ele>162</ele><time>2026-4-28T17:25:59Z</time></trkpt>
<trkpt lat="49.079593658447" lon="3.1966791152954"><ele>162</ele><time>2026-4-28T17:26:2Z</time></trkpt>
<trkpt lat="49.079551696777" lon="3.1967177391052"><ele>162</ele><time>2026-4-28T17:26:5Z</time></trkpt>
<trkpt lat="49.079517364502" lon="3.1967494487762"><ele>161</ele><time>2026-4-28T17:26:8Z</time></trkpt>
<trkpt lat="49.079448699951" lon="3.1968061923981"><ele>161</ele><time>2026-4-28T17:26:11Z</time></trkpt>
<trkpt lat="49.079448699951" lon="3.1968061923981"><ele>161</ele><time>2026-4-28T17:26:14Z</time></trkpt>
<trkpt lat="49.0793800354" lon="3.196843624115"><ele>160</ele><time>2026-4-28T17:26:17Z</time></trkpt>
<trkpt lat="49.0793800354" lon="3.196843624115"><ele>160</ele><time>2026-4-28T17:26:20Z</time></trkpt>
<trkpt lat="49.079296112061" lon="3.1969227790833"><ele>160</ele><time>2026-4-28T17:26:23Z</time></trkpt>
<trkpt lat="49.07922744751" lon="3.1969747543335"><ele>159</ele><time>2026-4-28T17:26:26Z</time></trkpt>
<trkpt lat="49.079128265381" lon="3.1970343589783"><ele>157</ele><time>2026-4-28T17:26:29Z</time></trkpt>
<trkpt lat="49.079010009766" lon="3.1970884799957"><ele>154</ele><time>2026-4-28T17:26:32Z</time></trkpt>
<trkpt lat="49.078868865967" lon="3.1971366405487"><ele>152</ele><time>2026-4-28T17:26:35Z</time></trkpt>
<trkpt lat="49.07873916626" lon="3.1971662044525"><ele>152</ele><time>2026-4-28T17:26:38Z</time></trkpt>
<trkpt lat="49.078636169434" lon="3.1971809864044"><ele>151</ele><time>2026-4-28T17:26:41Z</time></trkpt>
<trkpt lat="49.078556060791" lon="3.197208404541"><ele>151</ele><time>2026-4-28T17:26:44Z</time></trkpt>
<trkpt lat="49.078495025635" lon="3.1972694396973"><ele>151</ele><time>2026-4-28T17:26:47Z</time></trkpt>
<trkpt lat="49.078453063965" lon="3.1973342895508"><ele>151</ele><time>2026-4-28T17:26:50Z</time></trkpt>
<trkpt lat="49.0784034729" lon="3.1973931789398"><ele>151</ele><time>2026-4-28T17:26:53Z</time></trkpt>
<trkpt lat="49.0784034729" lon="3.1973931789398"><ele>151</ele><time>2026-4-28T17:26:56Z</time></trkpt>
<trkpt lat="49.078323364258" lon="3.1975038051605"><ele>151</ele><time>2026-4-28T17:26:59Z</time></trkpt>
<trkpt lat="49.078266143799" lon="3.1975698471069"><ele>151</ele><time>2026-4-28T17:27:2Z</time></trkpt>
<trkpt lat="49.078212738037" lon="3.197639465332"><ele>151</ele><time>2026-4-28T17:27:5Z</time></trkpt>
<trkpt lat="49.078170776367" lon="3.1977014541626"><ele>151</ele><time>2026-4-28T17:27:8Z</time></trkpt>
<trkpt lat="49.078170776367" lon="3.1977014541626"><ele>151</ele><time>2026-4-28T17:27:11Z</time></trkpt>
<trkpt lat="49.078090667725" lon="3.1977889537811"><ele>151</ele><time>2026-4-28T17:27:14Z</time></trkpt>
<trkpt lat="49.078090667725" lon="3.1977889537811"><ele>151</ele><time>2026-4-28T17:27:17Z</time></trkpt>
<trkpt lat="49.077991485596" lon="3.1978890895844"><ele>151</ele><time>2026-4-28T17:27:20Z</time></trkpt>
<trkpt lat="49.077991485596" lon="3.1978890895844"><ele>151</ele><time>2026-4-28T17:27:23Z</time></trkpt>
<trkpt lat="49.077907562256" lon="3.1979959011078"><ele>151</ele><time>2026-4-28T17:27:26Z</time></trkpt>
<trkpt lat="49.077861785889" lon="3.1980493068695"><ele>151</ele><time>2026-4-28T17:27:29Z</time></trkpt>
<trkpt lat="49.077861785889" lon="3.1980493068695"><ele>151</ele><time>2026-4-28T17:27:32Z</time></trkpt>
<trkpt lat="49.077766418457" lon="3.1981360912323"><ele>151</ele><time>2026-4-28T17:27:35Z</time></trkpt>
<trkpt lat="49.077663421631" lon="3.1982204914093"><ele>151</ele><time>2026-4-28T17:27:38Z</time></trkpt>
<trkpt lat="49.077610015869" lon="3.1982572078705"><ele>151</ele><time>2026-4-28T17:27:41Z</time></trkpt>
<trkpt lat="49.077556610107" lon="3.1983163356781"><ele>150</ele><time>2026-4-28T17:27:44Z</time></trkpt>
<trkpt lat="49.07751083374" lon="3.1983737945557"><ele>150</ele><time>2026-4-28T17:27:47Z</time></trkpt>
<trkpt lat="49.077465057373" lon="3.1984341144562"><ele>150</ele><time>2026-4-28T17:27:50Z</time></trkpt>
<trkpt lat="49.077419281006" lon="3.1984901428223"><ele>150</ele><time>2026-4-28T17:27:53Z</time></trkpt>
<trkpt lat="49.077419281006" lon="3.1984901428223"><ele>150</ele><time>2026-4-28T17:27:56Z</time></trkpt>
<trkpt lat="49.077335357666" lon="3.1985878944397"><ele>149</ele><time>2026-4-28T17:27:59Z</time></trkpt>
<trkpt lat="49.077293395996" lon="3.1986486911774"><ele>149</ele><time>2026-4-28T17:28:2Z</time></trkpt>
<trkpt lat="49.07723236084" lon="3.198704957962"><ele>148</ele><time>2026-4-28T17:28:5Z</time></trkpt>
<trkpt lat="49.077167510986" lon="3.1987688541412"><ele>148</ele><time>2026-4-28T17:28:8Z</time></trkpt>
<trkpt lat="49.07710647583" lon="3.1988396644592"><ele>148</ele><time>2026-4-28T17:28:11Z</time></trkpt>
<trkpt lat="49.077049255371" lon="3.1989166736603"><ele>147</ele><time>2026-4-28T17:28:14Z</time></trkpt>
<trkpt lat="49.076992034912" lon="3.1989984512329"><ele>147</ele><time>2026-4-28T17:28:17Z</time></trkpt>
<trkpt lat="49.07693862915" lon="3.1990761756897"><ele>146</ele><time>2026-4-28T17:28:20Z</time></trkpt>
<trkpt lat="49.07693862915" lon="3.1990761756897"><ele>146</ele><time>2026-4-28T17:28:23Z</time></trkpt>
<trkpt lat="49.076862335205" lon="3.1991958618164"><ele>145</ele><time>2026-4-28T17:28:26Z</time></trkpt>
<trkpt lat="49.076862335205" lon="3.1991958618164"><ele>145</ele><time>2026-4-28T17:28:29Z</time></trkpt>
<trkpt lat="49.076793670654" lon="3.1992943286896"><ele>144</ele><time>2026-4-28T17:28:32Z</time></trkpt>
<trkpt lat="49.076793670654" lon="3.1992943286896"><ele>144</ele><time>2026-4-28T17:28:35Z</time></trkpt>
<trkpt lat="49.076717376709" lon="3.199387550354"><ele>144</ele><time>2026-4-28T17:28:38Z</time></trkpt>
<trkpt lat="49.076717376709" lon="3.199387550354"><ele>144</ele><time>2026-4-28T17:28:41Z</time></trkpt>
<trkpt lat="49.07666015625" lon="3.1994774341583"><ele>143</ele><time>2026-4-28T17:28:44Z</time></trkpt>
<trkpt lat="49.07666015625" lon="3.1994774341583"><ele>143</ele><time>2026-4-28T17:28:47Z</time></trkpt>
<trkpt lat="49.076591491699" lon="3.1995575428009"><ele>143</ele><time>2026-4-28T17:28:50Z</time></trkpt>
<trkpt lat="49.076591491699" lon="3.1995575428009"><ele>143</ele><time>2026-4-28T17:28:53Z</time></trkpt>
<trkpt lat="49.076507568359" lon="3.1996202468872"><ele>142</ele><time>2026-4-28T17:28:56Z</time></trkpt>
<trkpt lat="49.076507568359" lon="3.1996202468872"><ele>142</ele><time>2026-4-28T17:28:59Z</time></trkpt>
<trkpt lat="49.07642364502" lon="3.1996641159058"><ele>142</ele><time>2026-4-28T17:29:2Z</time></trkpt>
<trkpt lat="49.07642364502" lon="3.1996641159058"><ele>142</ele><time>2026-4-28T17:29:5Z</time></trkpt>
<trkpt lat="49.076335906982" lon="3.1996788978577"><ele>142</ele><time>2026-4-28T17:29:8Z</time></trkpt>
<trkpt lat="49.076335906982" lon="3.1996788978577"><ele>142</ele><time>2026-4-28T17:29:11Z</time></trkpt>
<trkpt lat="49.076225280762" lon="3.1997220516205"><ele>141</ele><time>2026-4-28T17:29:14Z</time></trkpt>
<trkpt lat="49.076225280762" lon="3.1997220516205"><ele>141</ele><time>2026-4-28T17:29:17Z</time></trkpt>
<trkpt lat="49.076141357422" lon="3.1997520923615"><ele>141</ele><time>2026-4-28T17:29:20Z</time></trkpt>
<trkpt lat="49.076072692871" lon="3.1997802257538"><ele>141</ele><time>2026-4-28T17:29:23Z</time></trkpt>
<trkpt lat="49.076072692871" lon="3.1997802257538"><ele>141</ele><time>2026-4-28T17:29:26Z</time></trkpt>
<trkpt lat="49.076000213623" lon="3.1998209953308"><ele>141</ele><time>2026-4-28T17:29:29Z</time></trkpt>
<trkpt lat="49.076000213623" lon="3.1998209953308"><ele>141</ele><time>2026-4-28T17:29:32Z</time></trkpt>
<trkpt lat="49.075904846191" lon="3.1998910903931"><ele>141</ele><time>2026-4-28T17:29:35Z</time></trkpt>
<trkpt lat="49.075904846191" lon="3.1998910903931"><ele>141</ele><time>2026-4-28T17:29:38Z</time></trkpt>
<trkpt lat="49.075790405273" lon="3.1999640464783"><ele>141</ele><time>2026-4-28T17:29:41Z</time></trkpt>
<trkpt lat="49.075729370117" lon="3.2000093460083"><ele>141</ele><time>2026-4-28T17:29:44Z</time></trkpt>
<trkpt lat="49.075668334961" lon="3.2000515460968"><ele>141</ele><time>2026-4-28T17:29:47Z</time></trkpt>
<trkpt lat="49.075618743896" lon="3.2000906467438"><ele>141</ele><time>2026-4-28T17:29:50Z</time></trkpt>
<trkpt lat="49.075565338135" lon="3.2001209259033"><ele>141</ele><time>2026-4-28T17:29:53Z</time></trkpt>
<trkpt lat="49.075565338135" lon="3.2001209259033"><ele>141</ele><time>2026-4-28T17:29:56Z</time></trkpt>
<trkpt lat="49.075481414795" lon="3.200159072876"><ele>141</ele><time>2026-4-28T17:29:59Z</time></trkpt>
<trkpt lat="49.075481414795" lon="3.200159072876"><ele>141</ele><time>2026-4-28T17:30:2Z</time></trkpt>
<trkpt lat="49.075412750244" lon="3.2002222537994"><ele>141</ele><time>2026-4-28T17:30:5Z</time></trkpt>
<trkpt lat="49.075412750244" lon="3.2002222537994"><ele>141</ele><time>2026-4-28T17:30:8Z</time></trkpt>
<trkpt lat="49.075328826904" lon="3.2002773284912"><ele>141</ele><time>2026-4-28T17:30:11Z</time></trkpt>
<trkpt lat="49.07527923584" lon="3.2003207206726"><ele>141</ele><time>2026-4-28T17:30:14Z</time></trkpt>
<trkpt lat="49.075222015381" lon="3.2003719806671"><ele>141</ele><time>2026-4-28T17:30:17Z</time></trkpt>
<trkpt lat="49.07515335083" lon="3.2004489898682"><ele>141</ele><time>2026-4-28T17:30:20Z</time></trkpt>
<trkpt lat="49.075103759766" lon="3.2005035877228"><ele>141</ele><time>2026-4-28T17:30:23Z</time></trkpt>
<trkpt lat="49.075057983398" lon="3.2005534172058"><ele>141</ele><time>2026-4-28T17:30:26Z</time></trkpt>
<trkpt lat="49.074974060059" lon="3.2006349563599"><ele>141</ele><time>2026-4-28T17:30:29Z</time></trkpt>
<trkpt lat="49.074974060059" lon="3.2006349563599"><ele>141</ele><time>2026-4-28T17:30:32Z</time></trkpt>
<trkpt lat="49.074893951416" lon="3.200706243515"><ele>141</ele><time>2026-4-28T17:30:35Z</time></trkpt>
<trkpt lat="49.074829101562" lon="3.2007472515106"><ele>141</ele><time>2026-4-28T17:30:38Z</time></trkpt>
<trkpt lat="49.074829101562" lon="3.2007472515106"><ele>141</ele><time>2026-4-28T17:30:41Z</time></trkpt>
<trkpt lat="49.074829101562" lon="3.2007472515106"><ele>141</ele><time>2026-4-28T17:30:44Z</time></trkpt>
<trkpt lat="49.074829101562" lon="3.2007472515106"><ele>141</ele><time>2026-4-28T17:30:47Z</time></trkpt>
<trkpt lat="49.074829101562" lon="3.2007472515106"><ele>141</ele><time>2026-4-28T17:30:50Z</time></trkpt>
<trkpt lat="49.074829101562" lon="3.2007472515106"><ele>141</ele><time>2026-4-28T17:30:53Z</time></trkpt>
<trkpt lat="49.074829101562" lon="3.2007472515106"><ele>141</ele><time>2026-4-28T17:30:56Z</time></trkpt>
<trkpt lat="49.074829101562" lon="3.2007472515106"><ele>141</ele><time>2026-4-28T17:30:59Z</time></trkpt>
<trkpt lat="49.074829101562" lon="3.2007472515106"><ele>141</ele><time>2026-4-28T17:31:2Z</time></trkpt>
<trkpt lat="49.074829101562" lon="3.2007472515106"><ele>141</ele><time>2026-4-28T17:31:5Z</time></trkpt>
<trkpt lat="49.074829101562" lon="3.2007472515106"><ele>141</ele><time>2026-4-28T17:31:8Z</time></trkpt>
<trkpt lat="49.074829101562" lon="3.2007472515106"><ele>141</ele><time>2026-4-28T17:31:11Z</time></trkpt>
<trkpt lat="49.074695587158" lon="3.2008926868439"><ele>142</ele><time>2026-4-28T17:31:14Z</time></trkpt>
<trkpt lat="49.074615478516" lon="3.2009913921356"><ele>142</ele><time>2026-4-28T17:31:17Z</time></trkpt>
<trkpt lat="49.074565887451" lon="3.2010650634766"><ele>142</ele><time>2026-4-28T17:31:20Z</time></trkpt>
<trkpt lat="49.074527740479" lon="3.2011234760284"><ele>142</ele><time>2026-4-28T17:31:23Z</time></trkpt>
<trkpt lat="49.0744972229" lon="3.2011754512787"><ele>143</ele><time>2026-4-28T17:31:26Z</time></trkpt>
<trkpt lat="49.074432373047" lon="3.2012665271759"><ele>143</ele><time>2026-4-28T17:31:29Z</time></trkpt>
<trkpt lat="49.074432373047" lon="3.2012665271759"><ele>143</ele><time>2026-4-28T17:31:32Z</time></trkpt>
<trkpt lat="49.074390411377" lon="3.20134973526"><ele>143</ele><time>2026-4-28T17:31:35Z</time></trkpt>
<trkpt lat="49.074390411377" lon="3.20134973526"><ele>143</ele><time>2026-4-28T17:31:38Z</time></trkpt>
<trkpt lat="49.074356079102" lon="3.2014524936676"><ele>144</ele><time>2026-4-28T17:31:41Z</time></trkpt>
<trkpt lat="49.074329376221" lon="3.2015368938446"><ele>144</ele><time>2026-4-28T17:31:44Z</time></trkpt>
<trkpt lat="49.074329376221" lon="3.2015368938446"><ele>144</ele><time>2026-4-28T17:31:47Z</time></trkpt>
<trkpt lat="49.074283599854" lon="3.2016608715057"><ele>145</ele><time>2026-4-28T17:31:50Z</time></trkpt>
<trkpt lat="49.074253082275" lon="3.2017364501953"><ele>145</ele><time>2026-4-28T17:31:53Z</time></trkpt>
<trkpt lat="49.074214935303" lon="3.2018370628357"><ele>146</ele><time>2026-4-28T17:31:56Z</time></trkpt>
<trkpt lat="49.074214935303" lon="3.2018370628357"><ele>146</ele><time>2026-4-28T17:31:59Z</time></trkpt>
<trkpt lat="49.074184417725" lon="3.2019422054291"><ele>146</ele><time>2026-4-28T17:32:2Z</time></trkpt>
<trkpt lat="49.074153900146" lon="3.2020621299744"><ele>146</ele><time>2026-4-28T17:32:5Z</time></trkpt>
<trkpt lat="49.074123382568" lon="3.2021770477295"><ele>145</ele><time>2026-4-28T17:32:8Z</time></trkpt>
<trkpt lat="49.074123382568" lon="3.2021770477295"><ele>145</ele><time>2026-4-28T17:32:11Z</time></trkpt>
<trkpt lat="49.074073791504" lon="3.202329158783"><ele>145</ele><time>2026-4-28T17:32:14Z</time></trkpt>
<trkpt lat="49.074073791504" lon="3.202329158783"><ele>145</ele><time>2026-4-28T17:32:17Z</time></trkpt>
<trkpt lat="49.074035644531" lon="3.2024245262146"><ele>145</ele><time>2026-4-28T17:32:20Z</time></trkpt>
<trkpt lat="49.074035644531" lon="3.2024245262146"><ele>145</ele><time>2026-4-28T17:32:23Z</time></trkpt>
<trkpt lat="49.073989868164" lon="3.2025282382965"><ele>146</ele><time>2026-4-28T17:32:26Z</time></trkpt>
<trkpt lat="49.073989868164" lon="3.2025282382965"><ele>146</ele><time>2026-4-28T17:32:29Z</time></trkpt>
<trkpt lat="49.073955535889" lon="3.2026433944702"><ele>146</ele><time>2026-4-28T17:32:32Z</time></trkpt>
<trkpt lat="49.073955535889" lon="3.2026433944702"><ele>146</ele><time>2026-4-28T17:32:35Z</time></trkpt>
<trkpt lat="49.073909759521" lon="3.2028026580811"><ele>146</ele><time>2026-4-28T17:32:38Z</time></trkpt>
<trkpt lat="49.073909759521" lon="3.2028026580811"><ele>146</ele><time>2026-4-28T17:32:41Z</time></trkpt>
<trkpt lat="49.073909759521" lon="3.2028026580811"><ele>146</ele><time>2026-4-28T17:32:44Z</time></trkpt>
<trkpt lat="49.073909759521" lon="3.2028026580811"><ele>146</ele><time>2026-4-28T17:32:47Z</time></trkpt>
<trkpt lat="49.073909759521" lon="3.2028026580811"><ele>146</ele><time>2026-4-28T17:32:50Z</time></trkpt>
<trkpt lat="49.073909759521" lon="3.2028026580811"><ele>146</ele><time>2026-4-28T17:32:53Z</time></trkpt>
<trkpt lat="49.073909759521" lon="3.2028026580811"><ele>146</ele><time>2026-4-28T17:32:56Z</time></trkpt>
<trkpt lat="49.073909759521" lon="3.2028026580811"><ele>146</ele><time>2026-4-28T17:32:59Z</time></trkpt>
<trkpt lat="49.073909759521" lon="3.2028026580811"><ele>146</ele><time>2026-4-28T17:33:2Z</time></trkpt>
<trkpt lat="49.073909759521" lon="3.2028026580811"><ele>146</ele><time>2026-4-28T17:33:5Z</time></trkpt>
<trkpt lat="49.073909759521" lon="3.2028026580811"><ele>146</ele><time>2026-4-28T17:33:8Z</time></trkpt>
<trkpt lat="49.073909759521" lon="3.2028026580811"><ele>146</ele><time>2026-4-28T17:33:11Z</time></trkpt>
<trkpt lat="49.073833465576" lon="3.2030608654022"><ele>144</ele><time>2026-4-28T17:33:14Z</time></trkpt>
<trkpt lat="49.073783874512" lon="3.2032556533813"><ele>145</ele><time>2026-4-28T17:33:17Z</time></trkpt>
<trkpt lat="49.073749542236" lon="3.2033915519714"><ele>146</ele><time>2026-4-28T17:33:20Z</time></trkpt>
<trkpt lat="49.073749542236" lon="3.2033915519714"><ele>146</ele><time>2026-4-28T17:33:23Z</time></trkpt>
<trkpt lat="49.073719024658" lon="3.2034883499146"><ele>147</ele><time>2026-4-28T17:33:26Z</time></trkpt>
<trkpt lat="49.073692321777" lon="3.2035636901855"><ele>148</ele><time>2026-4-28T17:33:29Z</time></trkpt>
<trkpt lat="49.073638916016" lon="3.2037072181702"><ele>148</ele><time>2026-4-28T17:33:32Z</time></trkpt>
<trkpt lat="49.073638916016" lon="3.2037072181702"><ele>148</ele><time>2026-4-28T17:33:35Z</time></trkpt>
<trkpt lat="49.073612213135" lon="3.2038290500641"><ele>149</ele><time>2026-4-28T17:33:38Z</time></trkpt>
<trkpt lat="49.073612213135" lon="3.2038290500641"><ele>149</ele><time>2026-4-28T17:33:41Z</time></trkpt>
<trkpt lat="49.073596954346" lon="3.203937292099"><ele>150</ele><time>2026-4-28T17:33:44Z</time></trkpt>
<trkpt lat="49.073570251465" lon="3.2040524482727"><ele>151</ele><time>2026-4-28T17:33:47Z</time></trkpt>
<trkpt lat="49.073570251465" lon="3.2040524482727"><ele>151</ele><time>2026-4-28T17:33:50Z</time></trkpt>
<trkpt lat="49.073570251465" lon="3.2040524482727"><ele>151</ele><time>2026-4-28T17:33:53Z</time></trkpt>
<trkpt lat="49.073558807373" lon="3.2041747570038"><ele>152</ele><time>2026-4-28T17:33:56Z</time></trkpt>
<trkpt lat="49.073558807373" lon="3.2041747570038"><ele>152</ele><time>2026-4-28T17:33:59Z</time></trkpt>
<trkpt lat="49.073558807373" lon="3.2041747570038"><ele>152</ele><time>2026-4-28T17:34:2Z</time></trkpt>
<trkpt lat="49.073535919189" lon="3.2043018341064"><ele>153</ele><time>2026-4-28T17:34:5Z</time></trkpt>
<trkpt lat="49.0735206604" lon="3.2043981552124"><ele>153</ele><time>2026-4-28T17:34:8Z</time></trkpt>
<trkpt lat="49.073501586914" lon="3.204482793808"><ele>153</ele><time>2026-4-28T17:34:11Z</time></trkpt>
<trkpt lat="49.073501586914" lon="3.204482793808"><ele>153</ele><time>2026-4-28T17:34:14Z</time></trkpt>
<trkpt lat="49.073486328125" lon="3.2046353816986"><ele>153</ele><time>2026-4-28T17:34:17Z</time></trkpt>
<trkpt lat="49.073486328125" lon="3.2046353816986"><ele>153</ele><time>2026-4-28T17:34:20Z</time></trkpt>
<trkpt lat="49.073471069336" lon="3.2047863006592"><ele>153</ele><time>2026-4-28T17:34:23Z</time></trkpt>
<trkpt lat="49.073463439941" lon="3.2048766613007"><ele>153</ele><time>2026-4-28T17:34:26Z</time></trkpt>
<trkpt lat="49.073463439941" lon="3.2048766613007"><ele>153</ele><time>2026-4-28T17:34:29Z</time></trkpt>
<trkpt lat="49.07345199585" lon="3.2049632072449"><ele>153</ele><time>2026-4-28T17:34:32Z</time></trkpt>
<trkpt lat="49.073444366455" lon="3.2051186561584"><ele>153</ele><time>2026-4-28T17:34:35Z</time></trkpt>
<trkpt lat="49.073444366455" lon="3.2051186561584"><ele>153</ele><time>2026-4-28T17:34:38Z</time></trkpt>
<trkpt lat="49.07345199585" lon="3.205242395401"><ele>153</ele><time>2026-4-28T17:34:41Z</time></trkpt>
<trkpt lat="49.07345199585" lon="3.205242395401"><ele>153</ele><time>2026-4-28T17:34:44Z</time></trkpt>
<trkpt lat="49.073463439941" lon="3.2053499221802"><ele>152</ele><time>2026-4-28T17:34:47Z</time></trkpt>
<trkpt lat="49.073463439941" lon="3.2053499221802"><ele>152</ele><time>2026-4-28T17:34:50Z</time></trkpt>
<trkpt lat="49.07349395752" lon="3.2054500579834"><ele>152</ele><time>2026-4-28T17:34:53Z</time></trkpt>
<trkpt lat="49.07349395752" lon="3.2054500579834"><ele>152</ele><time>2026-4-28T17:34:56Z</time></trkpt>
<trkpt lat="49.073501586914" lon="3.2055685520172"><ele>151</ele><time>2026-4-28T17:34:59Z</time></trkpt>
<trkpt lat="49.073501586914" lon="3.2055685520172"><ele>151</ele><time>2026-4-28T17:35:2Z</time></trkpt>
<trkpt lat="49.073463439941" lon="3.2056481838226"><ele>150</ele><time>2026-4-28T17:35:5Z</time></trkpt>
<trkpt lat="49.073463439941" lon="3.2056481838226"><ele>150</ele><time>2026-4-28T17:35:8Z</time></trkpt>
<trkpt lat="49.07341003418" lon="3.2057149410248"><ele>150</ele><time>2026-4-28T17:35:11Z</time></trkpt>
<trkpt lat="49.07341003418" lon="3.2057149410248"><ele>150</ele><time>2026-4-28T17:35:14Z</time></trkpt>
<trkpt lat="49.07341003418" lon="3.2057149410248"><ele>150</ele><time>2026-4-28T17:35:17Z</time></trkpt>
<trkpt lat="49.073352813721" lon="3.2057988643646"><ele>150</ele><time>2026-4-28T17:35:20Z</time></trkpt>
<trkpt lat="49.073352813721" lon="3.2057988643646"><ele>150</ele><time>2026-4-28T17:35:23Z</time></trkpt>
<trkpt lat="49.073303222656" lon="3.205846786499"><ele>149</ele><time>2026-4-28T17:35:26Z</time></trkpt>
<trkpt lat="49.073303222656" lon="3.205846786499"><ele>149</ele><time>2026-4-28T17:35:29Z</time></trkpt>
<trkpt lat="49.073257446289" lon="3.2059142589569"><ele>149</ele><time>2026-4-28T17:35:32Z</time></trkpt>
<trkpt lat="49.073257446289" lon="3.2059142589569"><ele>149</ele><time>2026-4-28T17:35:35Z</time></trkpt>
<trkpt lat="49.073207855225" lon="3.205991268158"><ele>148</ele><time>2026-4-28T17:35:38Z</time></trkpt>
<trkpt lat="49.073150634766" lon="3.2060735225677"><ele>148</ele><time>2026-4-28T17:35:41Z</time></trkpt>
<trkpt lat="49.073150634766" lon="3.2060735225677"><ele>148</ele><time>2026-4-28T17:35:44Z</time></trkpt>
<trkpt lat="49.073085784912" lon="3.2061922550201"><ele>148</ele><time>2026-4-28T17:35:47Z</time></trkpt>
<trkpt lat="49.073017120361" lon="3.2063031196594"><ele>148</ele><time>2026-4-28T17:35:50Z</time></trkpt>
<trkpt lat="49.072967529297" lon="3.2063727378845"><ele>148</ele><time>2026-4-28T17:35:53Z</time></trkpt>
<trkpt lat="49.072967529297" lon="3.2063727378845"><ele>148</ele><time>2026-4-28T17:35:56Z</time></trkpt>
<trkpt lat="49.072914123535" lon="3.2064497470856"><ele>148</ele><time>2026-4-28T17:35:59Z</time></trkpt>
<trkpt lat="49.072860717773" lon="3.2065298557281"><ele>148</ele><time>2026-4-28T17:36:2Z</time></trkpt>
<trkpt lat="49.072788238525" lon="3.2066290378571"><ele>149</ele><time>2026-4-28T17:36:5Z</time></trkpt>
<trkpt lat="49.072788238525" lon="3.2066290378571"><ele>149</ele><time>2026-4-28T17:36:8Z</time></trkpt>
<trkpt lat="49.07271194458" lon="3.2067227363586"><ele>149</ele><time>2026-4-28T17:36:11Z</time></trkpt>
<trkpt lat="49.072662353516" lon="3.2067966461182"><ele>149</ele><time>2026-4-28T17:36:14Z</time></trkpt>
<trkpt lat="49.072662353516" lon="3.2067966461182"><ele>149</ele><time>2026-4-28T17:36:17Z</time></trkpt>
<trkpt lat="49.072597503662" lon="3.2068819999695"><ele>149</ele><time>2026-4-28T17:36:20Z</time></trkpt>
<trkpt lat="49.072597503662" lon="3.2068819999695"><ele>149</ele><time>2026-4-28T17:36:23Z</time></trkpt>
<trkpt lat="49.072555541992" lon="3.2069284915924"><ele>148</ele><time>2026-4-28T17:36:26Z</time></trkpt>
<trkpt lat="49.07251739502" lon="3.2069754600525"><ele>148</ele><time>2026-4-28T17:36:29Z</time></trkpt>
<trkpt lat="49.072479248047" lon="3.2070250511169"><ele>148</ele><time>2026-4-28T17:36:32Z</time></trkpt>
<trkpt lat="49.072448730469" lon="3.2070746421814"><ele>148</ele><time>2026-4-28T17:36:35Z</time></trkpt>
<trkpt lat="49.072414398193" lon="3.2071254253387"><ele>148</ele><time>2026-4-28T17:36:38Z</time></trkpt>
<trkpt lat="49.072345733643" lon="3.2072451114655"><ele>148</ele><time>2026-4-28T17:36:41Z</time></trkpt>
<trkpt lat="49.072269439697" lon="3.2073605060577"><ele>148</ele><time>2026-4-28T17:36:44Z</time></trkpt>
<trkpt lat="49.072269439697" lon="3.2073605060577"><ele>148</ele><time>2026-4-28T17:36:47Z</time></trkpt>
<trkpt lat="49.072219848633" lon="3.2074477672577"><ele>148</ele><time>2026-4-28T17:36:50Z</time></trkpt>
<trkpt lat="49.072219848633" lon="3.2074477672577"><ele>148</ele><time>2026-4-28T17:36:53Z</time></trkpt>
<trkpt lat="49.072151184082" lon="3.2075250148773"><ele>148</ele><time>2026-4-28T17:36:56Z</time></trkpt>
<trkpt lat="49.072151184082" lon="3.2075250148773"><ele>148</ele><time>2026-4-28T17:36:59Z</time></trkpt>
<trkpt lat="49.072082519531" lon="3.2076156139374"><ele>149</ele><time>2026-4-28T17:37:2Z</time></trkpt>
<trkpt lat="49.072082519531" lon="3.2076156139374"><ele>149</ele><time>2026-4-28T17:37:5Z</time></trkpt>
<trkpt lat="49.072017669678" lon="3.207709312439"><ele>150</ele><time>2026-4-28T17:37:8Z</time></trkpt>
<trkpt lat="49.072017669678" lon="3.207709312439"><ele>150</ele><time>2026-4-28T17:37:11Z</time></trkpt>
<trkpt lat="49.071971893311" lon="3.2077949047089"><ele>150</ele><time>2026-4-28T17:37:14Z</time></trkpt>
<trkpt lat="49.071971893311" lon="3.2077949047089"><ele>150</ele><time>2026-4-28T17:37:17Z</time></trkpt>
<trkpt lat="49.071922302246" lon="3.2079191207886"><ele>151</ele><time>2026-4-28T17:37:20Z</time></trkpt>
<trkpt lat="49.071922302246" lon="3.2079191207886"><ele>151</ele><time>2026-4-28T17:37:23Z</time></trkpt>
<trkpt lat="49.07186126709" lon="3.2080268859863"><ele>151</ele><time>2026-4-28T17:37:26Z</time></trkpt>
<trkpt lat="49.071800231934" lon="3.2080914974213"><ele>152</ele><time>2026-4-28T17:37:29Z</time></trkpt>
<trkpt lat="49.071750640869" lon="3.2081484794617"><ele>152</ele><time>2026-4-28T17:37:32Z</time></trkpt>
<trkpt lat="49.071750640869" lon="3.2081484794617"><ele>152</ele><time>2026-4-28T17:37:35Z</time></trkpt>
<trkpt lat="49.071685791016" lon="3.2082340717316"><ele>152</ele><time>2026-4-28T17:37:38Z</time></trkpt>
<trkpt lat="49.071685791016" lon="3.2082340717316"><ele>152</ele><time>2026-4-28T17:37:41Z</time></trkpt>
<trkpt lat="49.071605682373" lon="3.2083263397217"><ele>152</ele><time>2026-4-28T17:37:44Z</time></trkpt>
<trkpt lat="49.071552276611" lon="3.2083785533905"><ele>152</ele><time>2026-4-28T17:37:47Z</time></trkpt>
<trkpt lat="49.071506500244" lon="3.2084271907806"><ele>152</ele><time>2026-4-28T17:37:50Z</time></trkpt>
<trkpt lat="49.071506500244" lon="3.2084271907806"><ele>152</ele><time>2026-4-28T17:37:53Z</time></trkpt>
<trkpt lat="49.071437835693" lon="3.2085056304932"><ele>153</ele><time>2026-4-28T17:37:56Z</time></trkpt>
<trkpt lat="49.07137298584" lon="3.2085902690887"><ele>153</ele><time>2026-4-28T17:37:59Z</time></trkpt>
<trkpt lat="49.071311950684" lon="3.2087006568909"><ele>152</ele><time>2026-4-28T17:38:2Z</time></trkpt>
<trkpt lat="49.071311950684" lon="3.2087006568909"><ele>152</ele><time>2026-4-28T17:38:5Z</time></trkpt>
<trkpt lat="49.071228027344" lon="3.2088146209717"><ele>152</ele><time>2026-4-28T17:38:8Z</time></trkpt>
<trkpt lat="49.071228027344" lon="3.2088146209717"><ele>152</ele><time>2026-4-28T17:38:11Z</time></trkpt>
<trkpt lat="49.071228027344" lon="3.2088146209717"><ele>152</ele><time>2026-4-28T17:38:14Z</time></trkpt>
<trkpt lat="49.071155548096" lon="3.2089350223541"><ele>152</ele><time>2026-4-28T17:38:17Z</time></trkpt>
<trkpt lat="49.071155548096" lon="3.2089350223541"><ele>152</ele><time>2026-4-28T17:38:20Z</time></trkpt>
<trkpt lat="49.071098327637" lon="3.209041595459"><ele>151</ele><time>2026-4-28T17:38:23Z</time></trkpt>
<trkpt lat="49.071098327637" lon="3.209041595459"><ele>151</ele><time>2026-4-28T17:38:26Z</time></trkpt>
<trkpt lat="49.071033477783" lon="3.2091810703278"><ele>150</ele><time>2026-4-28T17:38:29Z</time></trkpt>
<trkpt lat="49.071033477783" lon="3.2091810703278"><ele>150</ele><time>2026-4-28T17:38:32Z</time></trkpt>
<trkpt lat="49.070938110352" lon="3.2093045711517"><ele>150</ele><time>2026-4-28T17:38:35Z</time></trkpt>
<trkpt lat="49.070938110352" lon="3.2093045711517"><ele>150</ele><time>2026-4-28T17:38:38Z</time></trkpt>
<trkpt lat="49.070865631104" lon="3.2093946933746"><ele>150</ele><time>2026-4-28T17:38:41Z</time></trkpt>
<trkpt lat="49.070816040039" lon="3.2094531059265"><ele>150</ele><time>2026-4-28T17:38:44Z</time></trkpt>
<trkpt lat="49.070816040039" lon="3.2094531059265"><ele>150</ele><time>2026-4-28T17:38:47Z</time></trkpt>
<trkpt lat="49.070724487305" lon="3.2095580101013"><ele>150</ele><time>2026-4-28T17:38:50Z</time></trkpt>
<trkpt lat="49.070648193359" lon="3.2096290588379"><ele>150</ele><time>2026-4-28T17:38:53Z</time></trkpt>
<trkpt lat="49.070648193359" lon="3.2096290588379"><ele>150</ele><time>2026-4-28T17:38:56Z</time></trkpt>
<trkpt lat="49.070648193359" lon="3.2096290588379"><ele>150</ele><time>2026-4-28T17:38:59Z</time></trkpt>
<trkpt lat="49.070545196533" lon="3.2097411155701"><ele>150</ele><time>2026-4-28T17:39:2Z</time></trkpt>
<trkpt lat="49.070545196533" lon="3.2097411155701"><ele>150</ele><time>2026-4-28T17:39:5Z</time></trkpt>
<trkpt lat="49.07048034668" lon="3.2098188400269"><ele>150</ele><time>2026-4-28T17:39:8Z</time></trkpt>
<trkpt lat="49.07043838501" lon="3.2098927497864"><ele>150</ele><time>2026-4-28T17:39:11Z</time></trkpt>
<trkpt lat="49.070384979248" lon="3.2099828720093"><ele>151</ele><time>2026-4-28T17:39:14Z</time></trkpt>
<trkpt lat="49.070304870605" lon="3.2100963592529"><ele>151</ele><time>2026-4-28T17:39:17Z</time></trkpt>
<trkpt lat="49.070232391357" lon="3.2101988792419"><ele>151</ele><time>2026-4-28T17:39:20Z</time></trkpt>
<trkpt lat="49.07014465332" lon="3.2102961540222"><ele>152</ele><time>2026-4-28T17:39:23Z</time></trkpt>
<trkpt lat="49.070087432861" lon="3.2103502750397"><ele>152</ele><time>2026-4-28T17:39:26Z</time></trkpt>
<trkpt lat="49.070087432861" lon="3.2103502750397"><ele>152</ele><time>2026-4-28T17:39:29Z</time></trkpt>
<trkpt lat="49.070087432861" lon="3.2103502750397"><ele>152</ele><time>2026-4-28T17:39:32Z</time></trkpt>
<trkpt lat="49.070030212402" lon="3.2104105949402"><ele>153</ele><time>2026-4-28T17:39:35Z</time></trkpt>
<trkpt lat="49.070030212402" lon="3.2104105949402"><ele>153</ele><time>2026-4-28T17:39:38Z</time></trkpt>
<trkpt lat="49.070030212402" lon="3.2104105949402"><ele>153</ele><time>2026-4-28T17:39:41Z</time></trkpt>
<trkpt lat="49.069995880127" lon="3.2104544639587"><ele>154</ele><time>2026-4-28T17:39:44Z</time></trkpt>
<trkpt lat="49.069965362549" lon="3.2104923725128"><ele>155</ele><time>2026-4-28T17:39:47Z</time></trkpt>
<trkpt lat="49.069934844971" lon="3.2105343341827"><ele>155</ele><time>2026-4-28T17:39:50Z</time></trkpt>
<trkpt lat="49.069934844971" lon="3.2105343341827"><ele>155</ele><time>2026-4-28T17:39:53Z</time></trkpt>
<trkpt lat="49.06990814209" lon="3.2105760574341"><ele>156</ele><time>2026-4-28T17:39:56Z</time></trkpt>
<trkpt lat="49.069881439209" lon="3.2106153964996"><ele>156</ele><time>2026-4-28T17:39:59Z</time></trkpt>
<trkpt lat="49.069816589355" lon="3.2107112407684"><ele>157</ele><time>2026-4-28T17:40:2Z</time></trkpt>
<trkpt lat="49.069816589355" lon="3.2107112407684"><ele>157</ele><time>2026-4-28T17:40:5Z</time></trkpt>
<trkpt lat="49.069736480713" lon="3.2108147144318"><ele>157</ele><time>2026-4-28T17:40:8Z</time></trkpt>
<trkpt lat="49.069736480713" lon="3.2108147144318"><ele>157</ele><time>2026-4-28T17:40:11Z</time></trkpt>
<trkpt lat="49.069679260254" lon="3.2109181880951"><ele>158</ele><time>2026-4-28T17:40:14Z</time></trkpt>
<trkpt lat="49.069606781006" lon="3.2110283374786"><ele>158</ele><time>2026-4-28T17:40:17Z</time></trkpt>
<trkpt lat="49.069606781006" lon="3.2110283374786"><ele>158</ele><time>2026-4-28T17:40:20Z</time></trkpt>
<trkpt lat="49.069549560547" lon="3.211131811142"><ele>158</ele><time>2026-4-28T17:40:23Z</time></trkpt>
<trkpt lat="49.069549560547" lon="3.211131811142"><ele>158</ele><time>2026-4-28T17:40:26Z</time></trkpt>
<trkpt lat="49.069484710693" lon="3.2112267017365"><ele>158</ele><time>2026-4-28T17:40:29Z</time></trkpt>
<trkpt lat="49.069484710693" lon="3.2112267017365"><ele>158</ele><time>2026-4-28T17:40:32Z</time></trkpt>
<trkpt lat="49.069484710693" lon="3.2112267017365"><ele>158</ele><time>2026-4-28T17:40:35Z</time></trkpt>
<trkpt lat="49.069393157959" lon="3.2113199234009"><ele>158</ele><time>2026-4-28T17:40:38Z</time></trkpt>
<trkpt lat="49.069393157959" lon="3.2113199234009"><ele>158</ele><time>2026-4-28T17:40:41Z</time></trkpt>
<trkpt lat="49.069309234619" lon="3.211391210556"><ele>158</ele><time>2026-4-28T17:40:44Z</time></trkpt>
<trkpt lat="49.069309234619" lon="3.211391210556"><ele>158</ele><time>2026-4-28T17:40:47Z</time></trkpt>
<trkpt lat="49.06921005249" lon="3.2114698886871"><ele>158</ele><time>2026-4-28T17:40:50Z</time></trkpt>
<trkpt lat="49.06921005249" lon="3.2114698886871"><ele>158</ele><time>2026-4-28T17:40:53Z</time></trkpt>
<trkpt lat="49.06921005249" lon="3.2114698886871"><ele>158</ele><time>2026-4-28T17:40:56Z</time></trkpt>
<trkpt lat="49.06921005249" lon="3.2114698886871"><ele>158</ele><time>2026-4-28T17:40:59Z</time></trkpt>
<trkpt lat="49.069122314453" lon="3.2115879058838"><ele>157</ele><time>2026-4-28T17:41:2Z</time></trkpt>
<trkpt lat="49.069122314453" lon="3.2115879058838"><ele>157</ele><time>2026-4-28T17:41:5Z</time></trkpt>
<trkpt lat="49.069122314453" lon="3.2115879058838"><ele>157</ele><time>2026-4-28T17:41:8Z</time></trkpt>
<trkpt lat="49.069122314453" lon="3.2115879058838"><ele>157</ele><time>2026-4-28T17:41:11Z</time></trkpt>
<trkpt lat="49.069038391113" lon="3.2116997241974"><ele>157</ele><time>2026-4-28T17:41:14Z</time></trkpt>
<trkpt lat="49.069038391113" lon="3.2116997241974"><ele>157</ele><time>2026-4-28T17:41:17Z</time></trkpt>
<trkpt lat="49.069038391113" lon="3.2116997241974"><ele>157</ele><time>2026-4-28T17:41:20Z</time></trkpt>
<trkpt lat="49.069038391113" lon="3.2116997241974"><ele>157</ele><time>2026-4-28T17:41:23Z</time></trkpt>
<trkpt lat="49.068946838379" lon="3.2118120193481"><ele>157</ele><time>2026-4-28T17:41:26Z</time></trkpt>
<trkpt lat="49.068946838379" lon="3.2118120193481"><ele>157</ele><time>2026-4-28T17:41:29Z</time></trkpt>
<trkpt lat="49.06884765625" lon="3.2119255065918"><ele>156</ele><time>2026-4-28T17:41:32Z</time></trkpt>
<trkpt lat="49.06884765625" lon="3.2119255065918"><ele>156</ele><time>2026-4-28T17:41:35Z</time></trkpt>
<trkpt lat="49.068733215332" lon="3.2120320796967"><ele>156</ele><time>2026-4-28T17:41:38Z</time></trkpt>
<trkpt lat="49.0686378479" lon="3.2121303081512"><ele>156</ele><time>2026-4-28T17:41:41Z</time></trkpt>
<trkpt lat="49.0686378479" lon="3.2121303081512"><ele>156</ele><time>2026-4-28T17:41:44Z</time></trkpt>
<trkpt lat="49.068550109863" lon="3.2122259140015"><ele>156</ele><time>2026-4-28T17:41:47Z</time></trkpt>
<trkpt lat="49.068550109863" lon="3.2122259140015"><ele>156</ele><time>2026-4-28T17:41:50Z</time></trkpt>
<trkpt lat="49.068550109863" lon="3.2122259140015"><ele>156</ele><time>2026-4-28T17:41:53Z</time></trkpt>
<trkpt lat="49.068470001221" lon="3.2123055458069"><ele>156</ele><time>2026-4-28T17:41:56Z</time></trkpt>
<trkpt lat="49.068393707275" lon="3.2123837471008"><ele>156</ele><time>2026-4-28T17:41:59Z</time></trkpt>
<trkpt lat="49.068294525146" lon="3.2124893665314"><ele>156</ele><time>2026-4-28T17:42:2Z</time></trkpt>
<trkpt lat="49.068294525146" lon="3.2124893665314"><ele>156</ele><time>2026-4-28T17:42:5Z</time></trkpt>
<trkpt lat="49.068225860596" lon="3.2125813961029"><ele>156</ele><time>2026-4-28T17:42:8Z</time></trkpt>
<trkpt lat="49.068172454834" lon="3.2126533985138"><ele>156</ele><time>2026-4-28T17:42:11Z</time></trkpt>
<trkpt lat="49.068172454834" lon="3.2126533985138"><ele>156</ele><time>2026-4-28T17:42:14Z</time></trkpt>
<trkpt lat="49.067932128906" lon="3.2129502296448"><ele>156</ele><time>2026-4-28T17:42:17Z</time></trkpt>
<trkpt lat="49.067932128906" lon="3.2129502296448"><ele>156</ele><time>2026-4-28T17:42:20Z</time></trkpt>
<trkpt lat="49.067848205566" lon="3.2130761146545"><ele>157</ele><time>2026-4-28T17:42:23Z</time></trkpt>
<trkpt lat="49.06778717041" lon="3.2131636142731"><ele>157</ele><time>2026-4-28T17:42:26Z</time></trkpt>
<trkpt lat="49.06778717041" lon="3.2131636142731"><ele>157</ele><time>2026-4-28T17:42:29Z</time></trkpt>
<trkpt lat="49.06770324707" lon="3.2132530212402"><ele>157</ele><time>2026-4-28T17:42:32Z</time></trkpt>
<trkpt lat="49.06770324707" lon="3.2132530212402"><ele>157</ele><time>2026-4-28T17:42:35Z</time></trkpt>
<trkpt lat="49.06761932373" lon="3.213353395462"><ele>157</ele><time>2026-4-28T17:42:38Z</time></trkpt>
<trkpt lat="49.067573547363" lon="3.2134220600128"><ele>157</ele><time>2026-4-28T17:42:41Z</time></trkpt>
<trkpt lat="49.067535400391" lon="3.2134838104248"><ele>157</ele><time>2026-4-28T17:42:44Z</time></trkpt>
<trkpt lat="49.067485809326" lon="3.2135646343231"><ele>157</ele><time>2026-4-28T17:42:47Z</time></trkpt>
<trkpt lat="49.067485809326" lon="3.2135646343231"><ele>157</ele><time>2026-4-28T17:42:50Z</time></trkpt>
<trkpt lat="49.067428588867" lon="3.2136418819427"><ele>157</ele><time>2026-4-28T17:42:53Z</time></trkpt>
<trkpt lat="49.067428588867" lon="3.2136418819427"><ele>157</ele><time>2026-4-28T17:42:56Z</time></trkpt>
<trkpt lat="49.067378997803" lon="3.213710308075"><ele>158</ele><time>2026-4-28T17:42:59Z</time></trkpt>
<trkpt lat="49.067378997803" lon="3.213710308075"><ele>158</ele><time>2026-4-28T17:43:2Z</time></trkpt>
<trkpt lat="49.067317962646" lon="3.213790178299"><ele>158</ele><time>2026-4-28T17:43:5Z</time></trkpt>
<trkpt lat="49.067317962646" lon="3.213790178299"><ele>158</ele><time>2026-4-28T17:43:8Z</time></trkpt>
<trkpt lat="49.06725692749" lon="3.2138645648956"><ele>158</ele><time>2026-4-28T17:43:11Z</time></trkpt>
<trkpt lat="49.06725692749" lon="3.2138645648956"><ele>158</ele><time>2026-4-28T17:43:14Z</time></trkpt>
<trkpt lat="49.06725692749" lon="3.2138645648956"><ele>158</ele><time>2026-4-28T17:43:17Z</time></trkpt>
<trkpt lat="49.06725692749" lon="3.2138645648956"><ele>158</ele><time>2026-4-28T17:43:20Z</time></trkpt>
<trkpt lat="49.06725692749" lon="3.2138645648956"><ele>158</ele><time>2026-4-28T17:43:23Z</time></trkpt>
<trkpt lat="49.06725692749" lon="3.2138645648956"><ele>158</ele><time>2026-4-28T17:43:26Z</time></trkpt>
<trkpt lat="49.06725692749" lon="3.2138645648956"><ele>158</ele><time>2026-4-28T17:43:29Z</time></trkpt>
<trkpt lat="49.06725692749" lon="3.2138645648956"><ele>158</ele><time>2026-4-28T17:43:32Z</time></trkpt>
<trkpt lat="49.06725692749" lon="3.2138645648956"><ele>158</ele><time>2026-4-28T17:43:35Z</time></trkpt>
<trkpt lat="49.06725692749" lon="3.2138645648956"><ele>158</ele><time>2026-4-28T17:43:38Z</time></trkpt>
<trkpt lat="49.06725692749" lon="3.2138645648956"><ele>158</ele><time>2026-4-28T17:43:41Z</time></trkpt>
<trkpt lat="49.06725692749" lon="3.2138645648956"><ele>158</ele><time>2026-4-28T17:43:44Z</time></trkpt>
<trkpt lat="49.06725692749" lon="3.2138645648956"><ele>158</ele><time>2026-4-28T17:43:47Z</time></trkpt>
<trkpt lat="49.06725692749" lon="3.2138645648956"><ele>158</ele><time>2026-4-28T17:43:50Z</time></trkpt>
<trkpt lat="49.06725692749" lon="3.2138645648956"><ele>158</ele><time>2026-4-28T17:43:53Z</time></trkpt>
<trkpt lat="49.06725692749" lon="3.2138645648956"><ele>158</ele><time>2026-4-28T17:43:56Z</time></trkpt>
<trkpt lat="49.06725692749" lon="3.2138645648956"><ele>158</ele><time>2026-4-28T17:43:59Z</time></trkpt>
<trkpt lat="49.06725692749" lon="3.2138645648956"><ele>158</ele><time>2026-4-28T17:44:2Z</time></trkpt>
<trkpt lat="49.066284179688" lon="3.2162718772888"><ele>179</ele><time>2026-4-28T17:44:5Z</time></trkpt>
<trkpt lat="49.066284179688" lon="3.2162718772888"><ele>179</ele><time>2026-4-28T17:44:8Z</time></trkpt>
<trkpt lat="49.066284179688" lon="3.2162718772888"><ele>179</ele><time>2026-4-28T17:44:11Z</time></trkpt>
<trkpt lat="49.066284179688" lon="3.2162718772888"><ele>179</ele><time>2026-4-28T17:44:14Z</time></trkpt>
<trkpt lat="49.066284179688" lon="3.2162718772888"><ele>179</ele><time>2026-4-28T17:44:17Z</time></trkpt>
<trkpt lat="49.066284179688" lon="3.2162718772888"><ele>179</ele><time>2026-4-28T17:44:20Z</time></trkpt>
<trkpt lat="49.066284179688" lon="3.2162718772888"><ele>179</ele><time>2026-4-28T17:44:23Z</time></trkpt>
<trkpt lat="49.066177368164" lon="3.2163913249969"><ele>176</ele><time>2026-4-28T17:44:26Z</time></trkpt>
<trkpt lat="49.066177368164" lon="3.2163913249969"><ele>176</ele><time>2026-4-28T17:44:29Z</time></trkpt>
<trkpt lat="49.066177368164" lon="3.2163913249969"><ele>176</ele><time>2026-4-28T17:44:32Z</time></trkpt>
<trkpt lat="49.066177368164" lon="3.2163913249969"><ele>176</ele><time>2026-4-28T17:44:35Z</time></trkpt>
<trkpt lat="49.066177368164" lon="3.2163913249969"><ele>176</ele><time>2026-4-28T17:44:38Z</time></trkpt>
<trkpt lat="49.066177368164" lon="3.2163913249969"><ele>176</ele><time>2026-4-28T17:44:41Z</time></trkpt>
<trkpt lat="49.066177368164" lon="3.2163913249969"><ele>176</ele><time>2026-4-28T17:44:44Z</time></trkpt>
<trkpt lat="49.066177368164" lon="3.2163913249969"><ele>176</ele><time>2026-4-28T17:44:47Z</time></trkpt>
<trkpt lat="49.066177368164" lon="3.2163913249969"><ele>176</ele><time>2026-4-28T17:44:50Z</time></trkpt>
<trkpt lat="49.066177368164" lon="3.2163913249969"><ele>176</ele><time>2026-4-28T17:44:53Z</time></trkpt>
<trkpt lat="49.066177368164" lon="3.2163913249969"><ele>176</ele><time>2026-4-28T17:44:56Z</time></trkpt>
<trkpt lat="49.066177368164" lon="3.2163913249969"><ele>176</ele><time>2026-4-28T17:44:59Z</time></trkpt>
<trkpt lat="49.066177368164" lon="3.2163913249969"><ele>176</ele><time>2026-4-28T17:45:2Z</time></trkpt>
<trkpt lat="49.066017150879" lon="3.2165522575378"><ele>175</ele><time>2026-4-28T17:45:5Z</time></trkpt>
<trkpt lat="49.066017150879" lon="3.2165522575378"><ele>175</ele><time>2026-4-28T17:45:8Z</time></trkpt>
<trkpt lat="49.065925598145" lon="3.2166457176208"><ele>176</ele><time>2026-4-28T17:45:11Z</time></trkpt>
<trkpt lat="49.065872192383" lon="3.2166986465454"><ele>176</ele><time>2026-4-28T17:45:14Z</time></trkpt>
<trkpt lat="49.065872192383" lon="3.2166986465454"><ele>176</ele><time>2026-4-28T17:45:17Z</time></trkpt>
<trkpt lat="49.065872192383" lon="3.2166986465454"><ele>176</ele><time>2026-4-28T17:45:20Z</time></trkpt>
<trkpt lat="49.065872192383" lon="3.2166986465454"><ele>176</ele><time>2026-4-28T17:45:23Z</time></trkpt>
<trkpt lat="49.065872192383" lon="3.2166986465454"><ele>176</ele><time>2026-4-28T17:45:26Z</time></trkpt>
<trkpt lat="49.065872192383" lon="3.2166986465454"><ele>176</ele><time>2026-4-28T17:45:29Z</time></trkpt>
<trkpt lat="49.065872192383" lon="3.2166986465454"><ele>176</ele><time>2026-4-28T17:45:32Z</time></trkpt>
<trkpt lat="49.065872192383" lon="3.2166986465454"><ele>176</ele><time>2026-4-28T17:45:35Z</time></trkpt>
<trkpt lat="49.065872192383" lon="3.2166986465454"><ele>176</ele><time>2026-4-28T17:45:38Z</time></trkpt>
<trkpt lat="49.065872192383" lon="3.2166986465454"><ele>176</ele><time>2026-4-28T17:45:41Z</time></trkpt>
<trkpt lat="49.065784454346" lon="3.2167983055115"><ele>177</ele><time>2026-4-28T17:45:44Z</time></trkpt>
<trkpt lat="49.065727233887" lon="3.2168622016907"><ele>177</ele><time>2026-4-28T17:45:47Z</time></trkpt>
<trkpt lat="49.065727233887" lon="3.2168622016907"><ele>177</ele><time>2026-4-28T17:45:50Z</time></trkpt>
<trkpt lat="49.065685272217" lon="3.2169086933136"><ele>177</ele><time>2026-4-28T17:45:53Z</time></trkpt>
<trkpt lat="49.065647125244" lon="3.2169444561005"><ele>176</ele><time>2026-4-28T17:45:56Z</time></trkpt>
<trkpt lat="49.065620422363" lon="3.2169704437256"><ele>176</ele><time>2026-4-28T17:45:59Z</time></trkpt>
<trkpt lat="49.065620422363" lon="3.2169704437256"><ele>176</ele><time>2026-4-28T17:46:2Z</time></trkpt>
<trkpt lat="49.065559387207" lon="3.2170312404633"><ele>176</ele><time>2026-4-28T17:46:5Z</time></trkpt>
<trkpt lat="49.065559387207" lon="3.2170312404633"><ele>176</ele><time>2026-4-28T17:46:8Z</time></trkpt>
<trkpt lat="49.065483093262" lon="3.2170867919922"><ele>176</ele><time>2026-4-28T17:46:11Z</time></trkpt>
<trkpt lat="49.065483093262" lon="3.2170867919922"><ele>176</ele><time>2026-4-28T17:46:14Z</time></trkpt>
<trkpt lat="49.065410614014" lon="3.2171499729156"><ele>176</ele><time>2026-4-28T17:46:17Z</time></trkpt>
<trkpt lat="49.065410614014" lon="3.2171499729156"><ele>176</ele><time>2026-4-28T17:46:20Z</time></trkpt>
<trkpt lat="49.065357208252" lon="3.2172026634216"><ele>177</ele><time>2026-4-28T17:46:23Z</time></trkpt>
<trkpt lat="49.065357208252" lon="3.2172026634216"><ele>177</ele><time>2026-4-28T17:46:26Z</time></trkpt>
<trkpt lat="49.065357208252" lon="3.2172026634216"><ele>177</ele><time>2026-4-28T17:46:29Z</time></trkpt>
<trkpt lat="49.065357208252" lon="3.2172026634216"><ele>177</ele><time>2026-4-28T17:46:32Z</time></trkpt>
<trkpt lat="49.065307617188" lon="3.2172582149506"><ele>178</ele><time>2026-4-28T17:46:35Z</time></trkpt>
<trkpt lat="49.065307617188" lon="3.2172582149506"><ele>178</ele><time>2026-4-28T17:46:38Z</time></trkpt>
<trkpt lat="49.065307617188" lon="3.2172582149506"><ele>178</ele><time>2026-4-28T17:46:41Z</time></trkpt>
<trkpt lat="49.06526184082" lon="3.2173125743866"><ele>178</ele><time>2026-4-28T17:46:44Z</time></trkpt>
<trkpt lat="49.06526184082" lon="3.2173125743866"><ele>178</ele><time>2026-4-28T17:46:47Z</time></trkpt>
<trkpt lat="49.065208435059" lon="3.2173810005188"><ele>179</ele><time>2026-4-28T17:46:50Z</time></trkpt>
<trkpt lat="49.065208435059" lon="3.2173810005188"><ele>179</ele><time>2026-4-28T17:46:53Z</time></trkpt>
<trkpt lat="49.065208435059" lon="3.2173810005188"><ele>179</ele><time>2026-4-28T17:46:56Z</time></trkpt>
<trkpt lat="49.065208435059" lon="3.2173810005188"><ele>179</ele><time>2026-4-28T17:46:59Z</time></trkpt>
<trkpt lat="49.065208435059" lon="3.2173810005188"><ele>179</ele><time>2026-4-28T17:47:2Z</time></trkpt>
<trkpt lat="49.065208435059" lon="3.2173810005188"><ele>179</ele><time>2026-4-28T17:47:5Z</time></trkpt>
<trkpt lat="49.065208435059" lon="3.2173810005188"><ele>179</ele><time>2026-4-28T17:47:8Z</time></trkpt>
<trkpt lat="49.065208435059" lon="3.2173810005188"><ele>179</ele><time>2026-4-28T17:47:11Z</time></trkpt>
<trkpt lat="49.065208435059" lon="3.2173810005188"><ele>179</ele><time>2026-4-28T17:47:14Z</time></trkpt>
<trkpt lat="49.065208435059" lon="3.2173810005188"><ele>179</ele><time>2026-4-28T17:47:17Z</time></trkpt>
<trkpt lat="49.065208435059" lon="3.2173810005188"><ele>179</ele><time>2026-4-28T17:47:20Z</time></trkpt>
<trkpt lat="49.065208435059" lon="3.2173810005188"><ele>179</ele><time>2026-4-28T17:47:23Z</time></trkpt>
<trkpt lat="49.065208435059" lon="3.2173810005188"><ele>179</ele><time>2026-4-28T17:47:26Z</time></trkpt>
<trkpt lat="49.065208435059" lon="3.2173810005188"><ele>179</ele><time>2026-4-28T17:47:29Z</time></trkpt>
<trkpt lat="49.065208435059" lon="3.2173810005188"><ele>179</ele><time>2026-4-28T17:47:32Z</time></trkpt>
<trkpt lat="49.065208435059" lon="3.2173810005188"><ele>179</ele><time>2026-4-28T17:47:35Z</time></trkpt>
<trkpt lat="49.065208435059" lon="3.2173810005188"><ele>179</ele><time>2026-4-28T17:47:38Z</time></trkpt>
<trkpt lat="49.065208435059" lon="3.2173810005188"><ele>179</ele><time>2026-4-28T17:47:41Z</time></trkpt>
<trkpt lat="49.065208435059" lon="3.2173810005188"><ele>179</ele><time>2026-4-28T17:47:44Z</time></trkpt>
<trkpt lat="49.065208435059" lon="3.2173810005188"><ele>179</ele><time>2026-4-28T17:47:47Z</time></trkpt>
<trkpt lat="49.065208435059" lon="3.2173810005188"><ele>179</ele><time>2026-4-28T17:47:50Z</time></trkpt>
<trkpt lat="49.065208435059" lon="3.2173810005188"><ele>179</ele><time>2026-4-28T17:47:53Z</time></trkpt>
<trkpt lat="49.065006256104" lon="3.217668056488"><ele>193</ele><time>2026-4-28T17:47:56Z</time></trkpt>
<trkpt lat="49.064895629883" lon="3.2178199291229"><ele>193</ele><time>2026-4-28T17:47:59Z</time></trkpt>
<trkpt lat="49.064823150635" lon="3.2179052829742"><ele>193</ele><time>2026-4-28T17:48:2Z</time></trkpt>
<trkpt lat="49.064823150635" lon="3.2179052829742"><ele>193</ele><time>2026-4-28T17:48:5Z</time></trkpt>
<trkpt lat="49.064777374268" lon="3.2179570198059"><ele>193</ele><time>2026-4-28T17:48:8Z</time></trkpt>
<trkpt lat="49.064739227295" lon="3.2179913520813"><ele>193</ele><time>2026-4-28T17:48:11Z</time></trkpt>
<trkpt lat="49.064685821533" lon="3.2180399894714"><ele>193</ele><time>2026-4-28T17:48:14Z</time></trkpt>
<trkpt lat="49.064685821533" lon="3.2180399894714"><ele>193</ele><time>2026-4-28T17:48:17Z</time></trkpt>
<trkpt lat="49.064685821533" lon="3.2180399894714"><ele>193</ele><time>2026-4-28T17:48:20Z</time></trkpt>
<trkpt lat="49.064685821533" lon="3.2180399894714"><ele>193</ele><time>2026-4-28T17:48:23Z</time></trkpt>
<trkpt lat="49.064617156982" lon="3.2180671691895"><ele>194</ele><time>2026-4-28T17:48:26Z</time></trkpt>
<trkpt lat="49.064563751221" lon="3.218022108078"><ele>194</ele><time>2026-4-28T17:48:29Z</time></trkpt>
<trkpt lat="49.064563751221" lon="3.218022108078"><ele>194</ele><time>2026-4-28T17:48:32Z</time></trkpt>
<trkpt lat="49.064491271973" lon="3.2179343700409"><ele>194</ele><time>2026-4-28T17:48:35Z</time></trkpt>
<trkpt lat="49.064491271973" lon="3.2179343700409"><ele>194</ele><time>2026-4-28T17:48:38Z</time></trkpt>
<trkpt lat="49.064434051514" lon="3.2178821563721"><ele>194</ele><time>2026-4-28T17:48:41Z</time></trkpt>
<trkpt lat="49.064376831055" lon="3.2178387641907"><ele>194</ele><time>2026-4-28T17:48:44Z</time></trkpt>
<trkpt lat="49.064376831055" lon="3.2178387641907"><ele>194</ele><time>2026-4-28T17:48:47Z</time></trkpt>
<trkpt lat="49.064311981201" lon="3.2178137302399"><ele>194</ele><time>2026-4-28T17:48:50Z</time></trkpt>
<trkpt lat="49.064311981201" lon="3.2178137302399"><ele>194</ele><time>2026-4-28T17:48:53Z</time></trkpt>
<trkpt lat="49.064231872559" lon="3.2177937030792"><ele>194</ele><time>2026-4-28T17:48:56Z</time></trkpt>
<trkpt lat="49.064140319824" lon="3.2178094387054"><ele>195</ele><time>2026-4-28T17:48:59Z</time></trkpt>
<trkpt lat="49.064140319824" lon="3.2178094387054"><ele>195</ele><time>2026-4-28T17:49:2Z</time></trkpt>
<trkpt lat="49.064052581787" lon="3.2178320884705"><ele>195</ele><time>2026-4-28T17:49:5Z</time></trkpt>
<trkpt lat="49.064052581787" lon="3.2178320884705"><ele>195</ele><time>2026-4-28T17:49:8Z</time></trkpt>
<trkpt lat="49.063968658447" lon="3.217885017395"><ele>195</ele><time>2026-4-28T17:49:11Z</time></trkpt>
<trkpt lat="49.063892364502" lon="3.2179520130157"><ele>195</ele><time>2026-4-28T17:49:14Z</time></trkpt>
<trkpt lat="49.063892364502" lon="3.2179520130157"><ele>195</ele><time>2026-4-28T17:49:17Z</time></trkpt>
<trkpt lat="49.063823699951" lon="3.2180216312408"><ele>196</ele><time>2026-4-28T17:49:20Z</time></trkpt>
<trkpt lat="49.063823699951" lon="3.2180216312408"><ele>196</ele><time>2026-4-28T17:49:23Z</time></trkpt>
<trkpt lat="49.0637550354" lon="3.2181177139282"><ele>196</ele><time>2026-4-28T17:49:26Z</time></trkpt>
<trkpt lat="49.063690185547" lon="3.218225479126"><ele>196</ele><time>2026-4-28T17:49:29Z</time></trkpt>
<trkpt lat="49.063690185547" lon="3.218225479126"><ele>196</ele><time>2026-4-28T17:49:32Z</time></trkpt>
<trkpt lat="49.063629150391" lon="3.218329668045"><ele>197</ele><time>2026-4-28T17:49:35Z</time></trkpt>
<trkpt lat="49.063629150391" lon="3.218329668045"><ele>197</ele><time>2026-4-28T17:49:38Z</time></trkpt>
<trkpt lat="49.063571929932" lon="3.2184343338013"><ele>197</ele><time>2026-4-28T17:49:41Z</time></trkpt>
<trkpt lat="49.063503265381" lon="3.218554019928"><ele>197</ele><time>2026-4-28T17:49:44Z</time></trkpt>
<trkpt lat="49.063503265381" lon="3.218554019928"><ele>197</ele><time>2026-4-28T17:49:47Z</time></trkpt>
<trkpt lat="49.063438415527" lon="3.2186646461487"><ele>198</ele><time>2026-4-28T17:49:50Z</time></trkpt>
<trkpt lat="49.063438415527" lon="3.2186646461487"><ele>198</ele><time>2026-4-28T17:49:53Z</time></trkpt>
<trkpt lat="49.063438415527" lon="3.2186646461487"><ele>198</ele><time>2026-4-28T17:49:56Z</time></trkpt>
<trkpt lat="49.063373565674" lon="3.2187750339508"><ele>199</ele><time>2026-4-28T17:49:59Z</time></trkpt>
<trkpt lat="49.063373565674" lon="3.2187750339508"><ele>199</ele><time>2026-4-28T17:50:2Z</time></trkpt>
<trkpt lat="49.063312530518" lon="3.2188854217529"><ele>199</ele><time>2026-4-28T17:50:5Z</time></trkpt>
<trkpt lat="49.063312530518" lon="3.2188854217529"><ele>199</ele><time>2026-4-28T17:50:8Z</time></trkpt>
<trkpt lat="49.063312530518" lon="3.2188854217529"><ele>199</ele><time>2026-4-28T17:50:11Z</time></trkpt>
<trkpt lat="49.063255310059" lon="3.2189741134644"><ele>199</ele><time>2026-4-28T17:50:14Z</time></trkpt>
<trkpt lat="49.063255310059" lon="3.2189741134644"><ele>199</ele><time>2026-4-28T17:50:17Z</time></trkpt>
<trkpt lat="49.063255310059" lon="3.2189741134644"><ele>199</ele><time>2026-4-28T17:50:20Z</time></trkpt>
<trkpt lat="49.063201904297" lon="3.2190766334534"><ele>200</ele><time>2026-4-28T17:50:23Z</time></trkpt>
<trkpt lat="49.063201904297" lon="3.2190766334534"><ele>200</ele><time>2026-4-28T17:50:26Z</time></trkpt>
<trkpt lat="49.063140869141" lon="3.2191903591156"><ele>200</ele><time>2026-4-28T17:50:29Z</time></trkpt>
<trkpt lat="49.063140869141" lon="3.2191903591156"><ele>200</ele><time>2026-4-28T17:50:32Z</time></trkpt>
<trkpt lat="49.063079833984" lon="3.2193009853363"><ele>201</ele><time>2026-4-28T17:50:35Z</time></trkpt>
<trkpt lat="49.063079833984" lon="3.2193009853363"><ele>201</ele><time>2026-4-28T17:50:38Z</time></trkpt>
<trkpt lat="49.063079833984" lon="3.2193009853363"><ele>201</ele><time>2026-4-28T17:50:41Z</time></trkpt>
<trkpt lat="49.063018798828" lon="3.2194049358368"><ele>201</ele><time>2026-4-28T17:50:44Z</time></trkpt>
<trkpt lat="49.063018798828" lon="3.2194049358368"><ele>201</ele><time>2026-4-28T17:50:47Z</time></trkpt>
<trkpt lat="49.062961578369" lon="3.2195022106171"><ele>202</ele><time>2026-4-28T17:50:50Z</time></trkpt>
<trkpt lat="49.062961578369" lon="3.2195022106171"><ele>202</ele><time>2026-4-28T17:50:53Z</time></trkpt>
<trkpt lat="49.062961578369" lon="3.2195022106171"><ele>202</ele><time>2026-4-28T17:50:56Z</time></trkpt>
<trkpt lat="49.062908172607" lon="3.21959233284"><ele>202</ele><time>2026-4-28T17:50:59Z</time></trkpt>
<trkpt lat="49.062908172607" lon="3.21959233284"><ele>202</ele><time>2026-4-28T17:51:2Z</time></trkpt>
<trkpt lat="49.062885284424" lon="3.219642162323"><ele>203</ele><time>2026-4-28T17:51:5Z</time></trkpt>
<trkpt lat="49.062866210938" lon="3.2196888923645"><ele>203</ele><time>2026-4-28T17:51:8Z</time></trkpt>
<trkpt lat="49.062843322754" lon="3.2197284698486"><ele>203</ele><time>2026-4-28T17:51:11Z</time></trkpt>
<trkpt lat="49.062843322754" lon="3.2197284698486"><ele>203</ele><time>2026-4-28T17:51:14Z</time></trkpt>
<trkpt lat="49.062816619873" lon="3.2197692394257"><ele>203</ele><time>2026-4-28T17:51:17Z</time></trkpt>
<trkpt lat="49.062793731689" lon="3.2198090553284"><ele>204</ele><time>2026-4-28T17:51:20Z</time></trkpt>
<trkpt lat="49.062747955322" lon="3.2198874950409"><ele>204</ele><time>2026-4-28T17:51:23Z</time></trkpt>
<trkpt lat="49.062747955322" lon="3.2198874950409"><ele>204</ele><time>2026-4-28T17:51:26Z</time></trkpt>
<trkpt lat="49.062686920166" lon="3.2199800014496"><ele>204</ele><time>2026-4-28T17:51:29Z</time></trkpt>
<trkpt lat="49.062686920166" lon="3.2199800014496"><ele>204</ele><time>2026-4-28T17:51:32Z</time></trkpt>
<trkpt lat="49.062618255615" lon="3.220057964325"><ele>205</ele><time>2026-4-28T17:51:35Z</time></trkpt>
<trkpt lat="49.062618255615" lon="3.220057964325"><ele>205</ele><time>2026-4-28T17:51:38Z</time></trkpt>
<trkpt lat="49.062549591064" lon="3.2201457023621"><ele>205</ele><time>2026-4-28T17:51:41Z</time></trkpt>
<trkpt lat="49.062549591064" lon="3.2201457023621"><ele>205</ele><time>2026-4-28T17:51:44Z</time></trkpt>
<trkpt lat="49.062477111816" lon="3.2202370166779"><ele>206</ele><time>2026-4-28T17:51:47Z</time></trkpt>
<trkpt lat="49.062477111816" lon="3.2202370166779"><ele>206</ele><time>2026-4-28T17:51:50Z</time></trkpt>
<trkpt lat="49.062412261963" lon="3.2203092575073"><ele>206</ele><time>2026-4-28T17:51:53Z</time></trkpt>
<trkpt lat="49.062339782715" lon="3.2203872203827"><ele>207</ele><time>2026-4-28T17:51:56Z</time></trkpt>
<trkpt lat="49.062267303467" lon="3.2204473018646"><ele>207</ele><time>2026-4-28T17:51:59Z</time></trkpt>
<trkpt lat="49.062267303467" lon="3.2204473018646"><ele>207</ele><time>2026-4-28T17:52:2Z</time></trkpt>
<trkpt lat="49.062194824219" lon="3.2205100059509"><ele>208</ele><time>2026-4-28T17:52:5Z</time></trkpt>
<trkpt lat="49.062194824219" lon="3.2205100059509"><ele>208</ele><time>2026-4-28T17:52:8Z</time></trkpt>
<trkpt lat="49.062126159668" lon="3.2205839157104"><ele>208</ele><time>2026-4-28T17:52:11Z</time></trkpt>
<trkpt lat="49.06205368042" lon="3.2206494808197"><ele>208</ele><time>2026-4-28T17:52:14Z</time></trkpt>
<trkpt lat="49.06205368042" lon="3.2206494808197"><ele>208</ele><time>2026-4-28T17:52:17Z</time></trkpt>
<trkpt lat="49.061973571777" lon="3.2207362651825"><ele>209</ele><time>2026-4-28T17:52:20Z</time></trkpt>
<trkpt lat="49.061904907227" lon="3.220810174942"><ele>209</ele><time>2026-4-28T17:52:23Z</time></trkpt>
<trkpt lat="49.061904907227" lon="3.220810174942"><ele>209</ele><time>2026-4-28T17:52:26Z</time></trkpt>
<trkpt lat="49.061836242676" lon="3.2208781242371"><ele>209</ele><time>2026-4-28T17:52:29Z</time></trkpt>
<trkpt lat="49.061836242676" lon="3.2208781242371"><ele>209</ele><time>2026-4-28T17:52:32Z</time></trkpt>
<trkpt lat="49.061752319336" lon="3.2209572792053"><ele>210</ele><time>2026-4-28T17:52:35Z</time></trkpt>
<trkpt lat="49.061660766602" lon="3.2210488319397"><ele>210</ele><time>2026-4-28T17:52:38Z</time></trkpt>
<trkpt lat="49.061584472656" lon="3.2211282253265"><ele>210</ele><time>2026-4-28T17:52:41Z</time></trkpt>
<trkpt lat="49.061584472656" lon="3.2211282253265"><ele>210</ele><time>2026-4-28T17:52:44Z</time></trkpt>
<trkpt lat="49.061500549316" lon="3.2212061882019"><ele>211</ele><time>2026-4-28T17:52:47Z</time></trkpt>
<trkpt lat="49.061500549316" lon="3.2212061882019"><ele>211</ele><time>2026-4-28T17:52:50Z</time></trkpt>
<trkpt lat="49.061412811279" lon="3.2212941646576"><ele>211</ele><time>2026-4-28T17:52:53Z</time></trkpt>
<trkpt lat="49.061321258545" lon="3.2213790416718"><ele>212</ele><time>2026-4-28T17:52:56Z</time></trkpt>
<trkpt lat="49.061321258545" lon="3.2213790416718"><ele>212</ele><time>2026-4-28T17:52:59Z</time></trkpt>
<trkpt lat="49.061237335205" lon="3.221467256546"><ele>212</ele><time>2026-4-28T17:53:2Z</time></trkpt>
<trkpt lat="49.061237335205" lon="3.221467256546"><ele>212</ele><time>2026-4-28T17:53:5Z</time></trkpt>
<trkpt lat="49.061145782471" lon="3.2215456962585"><ele>212</ele><time>2026-4-28T17:53:8Z</time></trkpt>
<trkpt lat="49.061061859131" lon="3.2216408252716"><ele>213</ele><time>2026-4-28T17:53:11Z</time></trkpt>
<trkpt lat="49.061061859131" lon="3.2216408252716"><ele>213</ele><time>2026-4-28T17:53:14Z</time></trkpt>
<trkpt lat="49.061012268066" lon="3.2216866016388"><ele>213</ele><time>2026-4-28T17:53:17Z</time></trkpt>
<trkpt lat="49.061012268066" lon="3.2216866016388"><ele>213</ele><time>2026-4-28T17:53:20Z</time></trkpt>
<trkpt lat="49.060935974121" lon="3.2217612266541"><ele>213</ele><time>2026-4-28T17:53:23Z</time></trkpt>
<trkpt lat="49.060935974121" lon="3.2217612266541"><ele>213</ele><time>2026-4-28T17:53:26Z</time></trkpt>
<trkpt lat="49.060935974121" lon="3.2217612266541"><ele>213</ele><time>2026-4-28T17:53:29Z</time></trkpt>
<trkpt lat="49.060855865479" lon="3.2218332290649"><ele>214</ele><time>2026-4-28T17:53:32Z</time></trkpt>
<trkpt lat="49.060855865479" lon="3.2218332290649"><ele>214</ele><time>2026-4-28T17:53:35Z</time></trkpt>
<trkpt lat="49.060855865479" lon="3.2218332290649"><ele>214</ele><time>2026-4-28T17:53:38Z</time></trkpt>
<trkpt lat="49.06078338623" lon="3.2219035625458"><ele>214</ele><time>2026-4-28T17:53:41Z</time></trkpt>
<trkpt lat="49.06078338623" lon="3.2219035625458"><ele>214</ele><time>2026-4-28T17:53:44Z</time></trkpt>
<trkpt lat="49.06078338623" lon="3.2219035625458"><ele>214</ele><time>2026-4-28T17:53:47Z</time></trkpt>
<trkpt lat="49.06078338623" lon="3.2219035625458"><ele>214</ele><time>2026-4-28T17:53:50Z</time></trkpt>
<trkpt lat="49.06078338623" lon="3.2219035625458"><ele>214</ele><time>2026-4-28T17:53:53Z</time></trkpt>
<trkpt lat="49.06078338623" lon="3.2219035625458"><ele>214</ele><time>2026-4-28T17:53:56Z</time></trkpt>
<trkpt lat="49.06078338623" lon="3.2219035625458"><ele>214</ele><time>2026-4-28T17:53:59Z</time></trkpt>
<trkpt lat="49.06078338623" lon="3.2219035625458"><ele>214</ele><time>2026-4-28T17:54:2Z</time></trkpt>
<trkpt lat="49.060771942139" lon="3.2218549251556"><ele>211</ele><time>2026-4-28T17:54:5Z</time></trkpt>
<trkpt lat="49.060771942139" lon="3.2218549251556"><ele>211</ele><time>2026-4-28T17:54:8Z</time></trkpt>
<trkpt lat="49.060718536377" lon="3.2219288349152"><ele>211</ele><time>2026-4-28T17:54:11Z</time></trkpt>
<trkpt lat="49.060718536377" lon="3.2219288349152"><ele>211</ele><time>2026-4-28T17:54:14Z</time></trkpt>
<trkpt lat="49.060718536377" lon="3.2219288349152"><ele>211</ele><time>2026-4-28T17:54:17Z</time></trkpt>
<trkpt lat="49.060718536377" lon="3.2219288349152"><ele>211</ele><time>2026-4-28T17:54:20Z</time></trkpt>
<trkpt lat="49.060718536377" lon="3.2219288349152"><ele>211</ele><time>2026-4-28T17:54:23Z</time></trkpt>
<trkpt lat="49.060718536377" lon="3.2219288349152"><ele>211</ele><time>2026-4-28T17:54:26Z</time></trkpt>
<trkpt lat="49.060718536377" lon="3.2219288349152"><ele>211</ele><time>2026-4-28T17:54:29Z</time></trkpt>
<trkpt lat="49.060718536377" lon="3.2219288349152"><ele>211</ele><time>2026-4-28T17:54:32Z</time></trkpt>
<trkpt lat="49.060718536377" lon="3.2219288349152"><ele>211</ele><time>2026-4-28T17:54:35Z</time></trkpt>
<trkpt lat="49.060718536377" lon="3.2219288349152"><ele>211</ele><time>2026-4-28T17:54:38Z</time></trkpt>
<trkpt lat="49.060546875" lon="3.2221229076385"><ele>213</ele><time>2026-4-28T17:54:41Z</time></trkpt>
<trkpt lat="49.060474395752" lon="3.2222142219543"><ele>214</ele><time>2026-4-28T17:54:44Z</time></trkpt>
<trkpt lat="49.060474395752" lon="3.2222142219543"><ele>214</ele><time>2026-4-28T17:54:47Z</time></trkpt>
<trkpt lat="49.060390472412" lon="3.2222769260406"><ele>214</ele><time>2026-4-28T17:54:50Z</time></trkpt>
<trkpt lat="49.060321807861" lon="3.2222576141357"><ele>214</ele><time>2026-4-28T17:54:53Z</time></trkpt>
<trkpt lat="49.060321807861" lon="3.2222576141357"><ele>214</ele><time>2026-4-28T17:54:56Z</time></trkpt>
<trkpt lat="49.060272216797" lon="3.2221829891205"><ele>214</ele><time>2026-4-28T17:54:59Z</time></trkpt>
<trkpt lat="49.060245513916" lon="3.2220480442047"><ele>214</ele><time>2026-4-28T17:55:2Z</time></trkpt>
<trkpt lat="49.0602684021" lon="3.2218632698059"><ele>215</ele><time>2026-4-28T17:55:5Z</time></trkpt>
<trkpt lat="49.060283660889" lon="3.2216675281525"><ele>215</ele><time>2026-4-28T17:55:8Z</time></trkpt>
<trkpt lat="49.06029510498" lon="3.2214806079865"><ele>215</ele><time>2026-4-28T17:55:11Z</time></trkpt>
<trkpt lat="49.060298919678" lon="3.2212843894958"><ele>214</ele><time>2026-4-28T17:55:14Z</time></trkpt>
<trkpt lat="49.060298919678" lon="3.221111536026"><ele>213</ele><time>2026-4-28T17:55:17Z</time></trkpt>
<trkpt lat="49.060298919678" lon="3.2209360599518"><ele>213</ele><time>2026-4-28T17:55:20Z</time></trkpt>
<trkpt lat="49.06029510498" lon="3.2207250595093"><ele>214</ele><time>2026-4-28T17:55:23Z</time></trkpt>
<trkpt lat="49.06029510498" lon="3.2207250595093"><ele>214</ele><time>2026-4-28T17:55:26Z</time></trkpt>
<trkpt lat="49.060291290283" lon="3.2205233573914"><ele>214</ele><time>2026-4-28T17:55:29Z</time></trkpt>
<trkpt lat="49.06029510498" lon="3.2203114032745"><ele>213</ele><time>2026-4-28T17:55:32Z</time></trkpt>
<trkpt lat="49.060298919678" lon="3.2200996875763"><ele>213</ele><time>2026-4-28T17:55:35Z</time></trkpt>
<trkpt lat="49.060298919678" lon="3.2200996875763"><ele>213</ele><time>2026-4-28T17:55:38Z</time></trkpt>
<trkpt lat="49.060302734375" lon="3.2198934555054"><ele>212</ele><time>2026-4-28T17:55:41Z</time></trkpt>
<trkpt lat="49.060302734375" lon="3.2196855545044"><ele>210</ele><time>2026-4-28T17:55:44Z</time></trkpt>
<trkpt lat="49.060306549072" lon="3.2194921970367"><ele>209</ele><time>2026-4-28T17:55:47Z</time></trkpt>
<trkpt lat="49.060306549072" lon="3.2194921970367"><ele>209</ele><time>2026-4-28T17:55:50Z</time></trkpt>
<trkpt lat="49.060314178467" lon="3.2192931175232"><ele>208</ele><time>2026-4-28T17:55:53Z</time></trkpt>
<trkpt lat="49.060321807861" lon="3.2190930843353"><ele>206</ele><time>2026-4-28T17:55:56Z</time></trkpt>
<trkpt lat="49.060314178467" lon="3.2188928127289"><ele>205</ele><time>2026-4-28T17:55:59Z</time></trkpt>
<trkpt lat="49.060314178467" lon="3.2188928127289"><ele>205</ele><time>2026-4-28T17:56:2Z</time></trkpt>
<trkpt lat="49.060291290283" lon="3.2186906337738"><ele>205</ele><time>2026-4-28T17:56:5Z</time></trkpt>
<trkpt lat="49.0602684021" lon="3.2185060977936"><ele>203</ele><time>2026-4-28T17:56:8Z</time></trkpt>
<trkpt lat="49.060237884521" lon="3.2183027267456"><ele>203</ele><time>2026-4-28T17:56:11Z</time></trkpt>
<trkpt lat="49.060203552246" lon="3.2181041240692"><ele>202</ele><time>2026-4-28T17:56:14Z</time></trkpt>
<trkpt lat="49.060169219971" lon="3.2179040908813"><ele>201</ele><time>2026-4-28T17:56:17Z</time></trkpt>
<trkpt lat="49.060127258301" lon="3.2176783084869"><ele>200</ele><time>2026-4-28T17:56:20Z</time></trkpt>
<trkpt lat="49.060127258301" lon="3.2176783084869"><ele>200</ele><time>2026-4-28T17:56:23Z</time></trkpt>
<trkpt lat="49.060092926025" lon="3.2174561023712"><ele>201</ele><time>2026-4-28T17:56:26Z</time></trkpt>
<trkpt lat="49.060066223145" lon="3.2172501087189"><ele>201</ele><time>2026-4-28T17:56:29Z</time></trkpt>
<trkpt lat="49.060043334961" lon="3.217052936554"><ele>200</ele><time>2026-4-28T17:56:32Z</time></trkpt>
<trkpt lat="49.060043334961" lon="3.217052936554"><ele>200</ele><time>2026-4-28T17:56:35Z</time></trkpt>
<trkpt lat="49.060028076172" lon="3.2168822288513"><ele>200</ele><time>2026-4-28T17:56:38Z</time></trkpt>
<trkpt lat="49.060020446777" lon="3.2167670726776"><ele>199</ele><time>2026-4-28T17:56:41Z</time></trkpt>
<trkpt lat="49.060020446777" lon="3.2167670726776"><ele>199</ele><time>2026-4-28T17:56:44Z</time></trkpt>
<trkpt lat="49.060020446777" lon="3.2167670726776"><ele>199</ele><time>2026-4-28T17:56:47Z</time></trkpt>
<trkpt lat="49.059989929199" lon="3.2166125774384"><ele>199</ele><time>2026-4-28T17:56:50Z</time></trkpt>
<trkpt lat="49.059989929199" lon="3.2166125774384"><ele>199</ele><time>2026-4-28T17:56:53Z</time></trkpt>
<trkpt lat="49.059936523438" lon="3.2165069580078"><ele>199</ele><time>2026-4-28T17:56:56Z</time></trkpt>
<trkpt lat="49.059936523438" lon="3.2165069580078"><ele>199</ele><time>2026-4-28T17:56:59Z</time></trkpt>
<trkpt lat="49.059936523438" lon="3.2165069580078"><ele>199</ele><time>2026-4-28T17:57:2Z</time></trkpt>
<trkpt lat="49.059898376465" lon="3.2163777351379"><ele>199</ele><time>2026-4-28T17:57:5Z</time></trkpt>
<trkpt lat="49.059883117676" lon="3.2162756919861"><ele>199</ele><time>2026-4-28T17:57:8Z</time></trkpt>
<trkpt lat="49.059883117676" lon="3.2162756919861"><ele>199</ele><time>2026-4-28T17:57:11Z</time></trkpt>
<trkpt lat="49.059860229492" lon="3.2161512374878"><ele>199</ele><time>2026-4-28T17:57:14Z</time></trkpt>
<trkpt lat="49.059833526611" lon="3.2160353660583"><ele>198</ele><time>2026-4-28T17:57:17Z</time></trkpt>
<trkpt lat="49.059795379639" lon="3.2159383296967"><ele>198</ele><time>2026-4-28T17:57:20Z</time></trkpt>
<trkpt lat="49.059795379639" lon="3.2159383296967"><ele>198</ele><time>2026-4-28T17:57:23Z</time></trkpt>
<trkpt lat="49.059757232666" lon="3.2158572673798"><ele>198</ele><time>2026-4-28T17:57:26Z</time></trkpt>
<trkpt lat="49.059757232666" lon="3.2158572673798"><ele>198</ele><time>2026-4-28T17:57:29Z</time></trkpt>
<trkpt lat="49.059715270996" lon="3.2157833576202"><ele>197</ele><time>2026-4-28T17:57:32Z</time></trkpt>
<trkpt lat="49.059715270996" lon="3.2157833576202"><ele>197</ele><time>2026-4-28T17:57:35Z</time></trkpt>
<trkpt lat="49.059715270996" lon="3.2157833576202"><ele>197</ele><time>2026-4-28T17:57:38Z</time></trkpt>
<trkpt lat="49.059726715088" lon="3.2156889438629"><ele>196</ele><time>2026-4-28T17:57:41Z</time></trkpt>
<trkpt lat="49.059726715088" lon="3.2156889438629"><ele>196</ele><time>2026-4-28T17:57:44Z</time></trkpt>
<trkpt lat="49.059719085693" lon="3.2155365943909"><ele>195</ele><time>2026-4-28T17:57:47Z</time></trkpt>
<trkpt lat="49.059684753418" lon="3.2154321670532"><ele>194</ele><time>2026-4-28T17:57:50Z</time></trkpt>
<trkpt lat="49.059684753418" lon="3.2154321670532"><ele>194</ele><time>2026-4-28T17:57:53Z</time></trkpt>
<trkpt lat="49.059646606445" lon="3.2153074741364"><ele>194</ele><time>2026-4-28T17:57:56Z</time></trkpt>
<trkpt lat="49.05961227417" lon="3.2151956558228"><ele>190</ele><time>2026-4-28T17:57:59Z</time></trkpt>
<trkpt lat="49.059574127197" lon="3.2150523662567"><ele>186</ele><time>2026-4-28T17:58:2Z</time></trkpt>
<trkpt lat="49.059535980225" lon="3.2148973941803"><ele>183</ele><time>2026-4-28T17:58:5Z</time></trkpt>
<trkpt lat="49.059497833252" lon="3.2147414684296"><ele>181</ele><time>2026-4-28T17:58:8Z</time></trkpt>
<trkpt lat="49.059463500977" lon="3.2145781517029"><ele>178</ele><time>2026-4-28T17:58:11Z</time></trkpt>
<trkpt lat="49.059463500977" lon="3.2145781517029"><ele>178</ele><time>2026-4-28T17:58:14Z</time></trkpt>
<trkpt lat="49.059425354004" lon="3.214423418045"><ele>176</ele><time>2026-4-28T17:58:17Z</time></trkpt>
<trkpt lat="49.059387207031" lon="3.2142848968506"><ele>174</ele><time>2026-4-28T17:58:20Z</time></trkpt>
<trkpt lat="49.059368133545" lon="3.2141952514648"><ele>174</ele><time>2026-4-28T17:58:23Z</time></trkpt>
<trkpt lat="49.059368133545" lon="3.2141952514648"><ele>174</ele><time>2026-4-28T17:58:26Z</time></trkpt>
<trkpt lat="49.059349060059" lon="3.2140989303589"><ele>174</ele><time>2026-4-28T17:58:29Z</time></trkpt>
<trkpt lat="49.059349060059" lon="3.2140989303589"><ele>174</ele><time>2026-4-28T17:58:32Z</time></trkpt>
<trkpt lat="49.059349060059" lon="3.2140989303589"><ele>174</ele><time>2026-4-28T17:58:35Z</time></trkpt>
<trkpt lat="49.059391021729" lon="3.2139887809753"><ele>174</ele><time>2026-4-28T17:58:38Z</time></trkpt>
<trkpt lat="49.059452056885" lon="3.2138779163361"><ele>171</ele><time>2026-4-28T17:58:41Z</time></trkpt>
<trkpt lat="49.059513092041" lon="3.2137899398804"><ele>170</ele><time>2026-4-28T17:58:44Z</time></trkpt>
<trkpt lat="49.059558868408" lon="3.2137200832367"><ele>170</ele><time>2026-4-28T17:58:47Z</time></trkpt>
<trkpt lat="49.059589385986" lon="3.2136633396149"><ele>169</ele><time>2026-4-28T17:58:50Z</time></trkpt>
<trkpt lat="49.059623718262" lon="3.2135586738586"><ele>169</ele><time>2026-4-28T17:58:53Z</time></trkpt>
<trkpt lat="49.059623718262" lon="3.2135586738586"><ele>169</ele><time>2026-4-28T17:58:56Z</time></trkpt>
<trkpt lat="49.059623718262" lon="3.2135586738586"><ele>169</ele><time>2026-4-28T17:58:59Z</time></trkpt>
<trkpt lat="49.059619903564" lon="3.2134420871735"><ele>168</ele><time>2026-4-28T17:59:2Z</time></trkpt>
<trkpt lat="49.059619903564" lon="3.2134420871735"><ele>168</ele><time>2026-4-28T17:59:5Z</time></trkpt>
<trkpt lat="49.059616088867" lon="3.2133445739746"><ele>168</ele><time>2026-4-28T17:59:8Z</time></trkpt>
<trkpt lat="49.059616088867" lon="3.2133445739746"><ele>168</ele><time>2026-4-28T17:59:11Z</time></trkpt>
<trkpt lat="49.059631347656" lon="3.2132475376129"><ele>168</ele><time>2026-4-28T17:59:14Z</time></trkpt>
<trkpt lat="49.059631347656" lon="3.2132475376129"><ele>168</ele><time>2026-4-28T17:59:17Z</time></trkpt>
<trkpt lat="49.059631347656" lon="3.2132475376129"><ele>168</ele><time>2026-4-28T17:59:20Z</time></trkpt>
<trkpt lat="49.059631347656" lon="3.2132475376129"><ele>168</ele><time>2026-4-28T17:59:23Z</time></trkpt>
<trkpt lat="49.059642791748" lon="3.2131114006042"><ele>168</ele><time>2026-4-28T17:59:26Z</time></trkpt>
<trkpt lat="49.059642791748" lon="3.2131114006042"><ele>168</ele><time>2026-4-28T17:59:29Z</time></trkpt>
<trkpt lat="49.059642791748" lon="3.2131114006042"><ele>168</ele><time>2026-4-28T17:59:32Z</time></trkpt>
<trkpt lat="49.059642791748" lon="3.2131114006042"><ele>168</ele><time>2026-4-28T17:59:35Z</time></trkpt>
<trkpt lat="49.059669494629" lon="3.2129988670349"><ele>168</ele><time>2026-4-28T17:59:38Z</time></trkpt>
<trkpt lat="49.059669494629" lon="3.2129988670349"><ele>168</ele><time>2026-4-28T17:59:41Z</time></trkpt>
<trkpt lat="49.059669494629" lon="3.2129988670349"><ele>168</ele><time>2026-4-28T17:59:44Z</time></trkpt>
<trkpt lat="49.059688568115" lon="3.2128841876984"><ele>168</ele><time>2026-4-28T17:59:47Z</time></trkpt>
<trkpt lat="49.059688568115" lon="3.2128841876984"><ele>168</ele><time>2026-4-28T17:59:50Z</time></trkpt>
<trkpt lat="49.059688568115" lon="3.2128841876984"><ele>168</ele><time>2026-4-28T17:59:53Z</time></trkpt>
<trkpt lat="49.059688568115" lon="3.2128841876984"><ele>168</ele><time>2026-4-28T17:59:56Z</time></trkpt>
<trkpt lat="49.059711456299" lon="3.2127766609192"><ele>168</ele><time>2026-4-28T17:59:59Z</time></trkpt>
<trkpt lat="49.059711456299" lon="3.2127766609192"><ele>168</ele><time>2026-4-28T18:0:2Z</time></trkpt>
<trkpt lat="49.059711456299" lon="3.2127766609192"><ele>168</ele><time>2026-4-28T18:0:5Z</time></trkpt>
<trkpt lat="49.059711456299" lon="3.2127766609192"><ele>168</ele><time>2026-4-28T18:0:8Z</time></trkpt>
<trkpt lat="49.05973815918" lon="3.2126779556274"><ele>168</ele><time>2026-4-28T18:0:11Z</time></trkpt>
<trkpt lat="49.05973815918" lon="3.2126779556274"><ele>168</ele><time>2026-4-28T18:0:14Z</time></trkpt>
<trkpt lat="49.05973815918" lon="3.2126779556274"><ele>168</ele><time>2026-4-28T18:0:17Z</time></trkpt>
<trkpt lat="49.05973815918" lon="3.2126779556274"><ele>168</ele><time>2026-4-28T18:0:20Z</time></trkpt>
<trkpt lat="49.05980682373" lon="3.2125654220581"><ele>169</ele><time>2026-4-28T18:0:23Z</time></trkpt>
<trkpt lat="49.05980682373" lon="3.2125654220581"><ele>169</ele><time>2026-4-28T18:0:26Z</time></trkpt>
<trkpt lat="49.0598487854" lon="3.2125046253204"><ele>169</ele><time>2026-4-28T18:0:29Z</time></trkpt>
<trkpt lat="49.0598487854" lon="3.2125046253204"><ele>169</ele><time>2026-4-28T18:0:32Z</time></trkpt>
<trkpt lat="49.059879302979" lon="3.2124326229095"><ele>169</ele><time>2026-4-28T18:0:35Z</time></trkpt>
<trkpt lat="49.059879302979" lon="3.2124326229095"><ele>169</ele><time>2026-4-28T18:0:38Z</time></trkpt>
<trkpt lat="49.059940338135" lon="3.2123491764069"><ele>169</ele><time>2026-4-28T18:0:41Z</time></trkpt>
<trkpt lat="49.059940338135" lon="3.2123491764069"><ele>169</ele><time>2026-4-28T18:0:44Z</time></trkpt>
<trkpt lat="49.059940338135" lon="3.2123491764069"><ele>169</ele><time>2026-4-28T18:0:47Z</time></trkpt>
<trkpt lat="49.059970855713" lon="3.2122793197632"><ele>169</ele><time>2026-4-28T18:0:50Z</time></trkpt>
<trkpt lat="49.059970855713" lon="3.2122793197632"><ele>169</ele><time>2026-4-28T18:0:53Z</time></trkpt>
<trkpt lat="49.059970855713" lon="3.2122793197632"><ele>169</ele><time>2026-4-28T18:0:56Z</time></trkpt>
<trkpt lat="49.06001663208" lon="3.2121970653534"><ele>169</ele><time>2026-4-28T18:0:59Z</time></trkpt>
<trkpt lat="49.06001663208" lon="3.2121970653534"><ele>169</ele><time>2026-4-28T18:1:2Z</time></trkpt>
<trkpt lat="49.060054779053" lon="3.2120923995972"><ele>170</ele><time>2026-4-28T18:1:5Z</time></trkpt>
<trkpt lat="49.060054779053" lon="3.2120923995972"><ele>170</ele><time>2026-4-28T18:1:8Z</time></trkpt>
<trkpt lat="49.060108184814" lon="3.2119929790497"><ele>170</ele><time>2026-4-28T18:1:11Z</time></trkpt>
<trkpt lat="49.060150146484" lon="3.2119226455688"><ele>170</ele><time>2026-4-28T18:1:14Z</time></trkpt>
<trkpt lat="49.060176849365" lon="3.2118685245514"><ele>170</ele><time>2026-4-28T18:1:17Z</time></trkpt>
<trkpt lat="49.060195922852" lon="3.2118229866028"><ele>170</ele><time>2026-4-28T18:1:20Z</time></trkpt>
<trkpt lat="49.060214996338" lon="3.2117841243744"><ele>170</ele><time>2026-4-28T18:1:23Z</time></trkpt>
<trkpt lat="49.060234069824" lon="3.2117464542389"><ele>170</ele><time>2026-4-28T18:1:26Z</time></trkpt>
<trkpt lat="49.060253143311" lon="3.211709022522"><ele>170</ele><time>2026-4-28T18:1:29Z</time></trkpt>
<trkpt lat="49.06029510498" lon="3.2116377353668"><ele>171</ele><time>2026-4-28T18:1:32Z</time></trkpt>
<trkpt lat="49.06029510498" lon="3.2116377353668"><ele>171</ele><time>2026-4-28T18:1:35Z</time></trkpt>
<trkpt lat="49.06029510498" lon="3.2116377353668"><ele>171</ele><time>2026-4-28T18:1:38Z</time></trkpt>
<trkpt lat="49.060348510742" lon="3.2115387916565"><ele>171</ele><time>2026-4-28T18:1:41Z</time></trkpt>
<trkpt lat="49.060348510742" lon="3.2115387916565"><ele>171</ele><time>2026-4-28T18:1:44Z</time></trkpt>
<trkpt lat="49.060386657715" lon="3.2114641666412"><ele>171</ele><time>2026-4-28T18:1:47Z</time></trkpt>
<trkpt lat="49.060386657715" lon="3.2114641666412"><ele>171</ele><time>2026-4-28T18:1:50Z</time></trkpt>
<trkpt lat="49.060386657715" lon="3.2114641666412"><ele>171</ele><time>2026-4-28T18:1:53Z</time></trkpt>
<trkpt lat="49.060440063477" lon="3.2113645076752"><ele>171</ele><time>2026-4-28T18:1:56Z</time></trkpt>
<trkpt lat="49.060440063477" lon="3.2113645076752"><ele>171</ele><time>2026-4-28T18:1:59Z</time></trkpt>
<trkpt lat="49.060440063477" lon="3.2113645076752"><ele>171</ele><time>2026-4-28T18:2:2Z</time></trkpt>
<trkpt lat="49.060482025146" lon="3.2112627029419"><ele>172</ele><time>2026-4-28T18:2:5Z</time></trkpt>
<trkpt lat="49.060482025146" lon="3.2112627029419"><ele>172</ele><time>2026-4-28T18:2:8Z</time></trkpt>
<trkpt lat="49.060482025146" lon="3.2112627029419"><ele>172</ele><time>2026-4-28T18:2:11Z</time></trkpt>
<trkpt lat="49.060508728027" lon="3.211128950119"><ele>173</ele><time>2026-4-28T18:2:14Z</time></trkpt>
<trkpt lat="49.060539245605" lon="3.2110185623169"><ele>174</ele><time>2026-4-28T18:2:17Z</time></trkpt>
<trkpt lat="49.060573577881" lon="3.2108936309814"><ele>174</ele><time>2026-4-28T18:2:20Z</time></trkpt>
<trkpt lat="49.060573577881" lon="3.2108936309814"><ele>174</ele><time>2026-4-28T18:2:23Z</time></trkpt>
<trkpt lat="49.060600280762" lon="3.2107708454132"><ele>174</ele><time>2026-4-28T18:2:26Z</time></trkpt>
<trkpt lat="49.060623168945" lon="3.2106537818909"><ele>175</ele><time>2026-4-28T18:2:29Z</time></trkpt>
<trkpt lat="49.060623168945" lon="3.2106537818909"><ele>175</ele><time>2026-4-28T18:2:32Z</time></trkpt>
<trkpt lat="49.060642242432" lon="3.2105481624603"><ele>175</ele><time>2026-4-28T18:2:35Z</time></trkpt>
<trkpt lat="49.060642242432" lon="3.2105481624603"><ele>175</ele><time>2026-4-28T18:2:38Z</time></trkpt>
<trkpt lat="49.060668945312" lon="3.2104437351227"><ele>176</ele><time>2026-4-28T18:2:41Z</time></trkpt>
<trkpt lat="49.060668945312" lon="3.2104437351227"><ele>176</ele><time>2026-4-28T18:2:44Z</time></trkpt>
<trkpt lat="49.060695648193" lon="3.2103357315063"><ele>176</ele><time>2026-4-28T18:2:47Z</time></trkpt>
<trkpt lat="49.060695648193" lon="3.2103357315063"><ele>176</ele><time>2026-4-28T18:2:50Z</time></trkpt>
<trkpt lat="49.060729980469" lon="3.2102313041687"><ele>177</ele><time>2026-4-28T18:2:53Z</time></trkpt>
<trkpt lat="49.060729980469" lon="3.2102313041687"><ele>177</ele><time>2026-4-28T18:2:56Z</time></trkpt>
<trkpt lat="49.060760498047" lon="3.2101464271545"><ele>177</ele><time>2026-4-28T18:2:59Z</time></trkpt>
<trkpt lat="49.060760498047" lon="3.2101464271545"><ele>177</ele><time>2026-4-28T18:3:2Z</time></trkpt>
<trkpt lat="49.060787200928" lon="3.2100639343262"><ele>177</ele><time>2026-4-28T18:3:5Z</time></trkpt>
<trkpt lat="49.060787200928" lon="3.2100639343262"><ele>177</ele><time>2026-4-28T18:3:8Z</time></trkpt>
<trkpt lat="49.060806274414" lon="3.2099702358246"><ele>178</ele><time>2026-4-28T18:3:11Z</time></trkpt>
<trkpt lat="49.060806274414" lon="3.2099702358246"><ele>178</ele><time>2026-4-28T18:3:14Z</time></trkpt>
<trkpt lat="49.060817718506" lon="3.2098698616028"><ele>178</ele><time>2026-4-28T18:3:17Z</time></trkpt>
<trkpt lat="49.060840606689" lon="3.2097826004028"><ele>179</ele><time>2026-4-28T18:3:20Z</time></trkpt>
<trkpt lat="49.06086730957" lon="3.2096838951111"><ele>179</ele><time>2026-4-28T18:3:23Z</time></trkpt>
<trkpt lat="49.06086730957" lon="3.2096838951111"><ele>179</ele><time>2026-4-28T18:3:26Z</time></trkpt>
<trkpt lat="49.060894012451" lon="3.2095854282379"><ele>179</ele><time>2026-4-28T18:3:29Z</time></trkpt>
<trkpt lat="49.060894012451" lon="3.2095854282379"><ele>179</ele><time>2026-4-28T18:3:32Z</time></trkpt>
<trkpt lat="49.060916900635" lon="3.2094883918762"><ele>180</ele><time>2026-4-28T18:3:35Z</time></trkpt>
<trkpt lat="49.060916900635" lon="3.2094883918762"><ele>180</ele><time>2026-4-28T18:3:38Z</time></trkpt>
<trkpt lat="49.060935974121" lon="3.2094073295593"><ele>180</ele><time>2026-4-28T18:3:41Z</time></trkpt>
<trkpt lat="49.060935974121" lon="3.2094073295593"><ele>180</ele><time>2026-4-28T18:3:44Z</time></trkpt>
<trkpt lat="49.060962677002" lon="3.2092843055725"><ele>180</ele><time>2026-4-28T18:3:47Z</time></trkpt>
<trkpt lat="49.061000823975" lon="3.2090849876404"><ele>180</ele><time>2026-4-28T18:3:50Z</time></trkpt>
<trkpt lat="49.061023712158" lon="3.2089562416077"><ele>180</ele><time>2026-4-28T18:3:53Z</time></trkpt>
<trkpt lat="49.061042785645" lon="3.2088313102722"><ele>180</ele><time>2026-4-28T18:3:56Z</time></trkpt>
<trkpt lat="49.061061859131" lon="3.2087123394012"><ele>180</ele><time>2026-4-28T18:3:59Z</time></trkpt>
<trkpt lat="49.06107711792" lon="3.2085990905762"><ele>180</ele><time>2026-4-28T18:4:2Z</time></trkpt>
<trkpt lat="49.061092376709" lon="3.2084858417511"><ele>180</ele><time>2026-4-28T18:4:5Z</time></trkpt>
<trkpt lat="49.061103820801" lon="3.2083873748779"><ele>180</ele><time>2026-4-28T18:4:8Z</time></trkpt>
<trkpt lat="49.06111907959" lon="3.2082896232605"><ele>180</ele><time>2026-4-28T18:4:11Z</time></trkpt>
<trkpt lat="49.061134338379" lon="3.2081952095032"><ele>180</ele><time>2026-4-28T18:4:14Z</time></trkpt>
<trkpt lat="49.061145782471" lon="3.208108663559"><ele>180</ele><time>2026-4-28T18:4:17Z</time></trkpt>
<trkpt lat="49.061145782471" lon="3.208108663559"><ele>180</ele><time>2026-4-28T18:4:20Z</time></trkpt>
<trkpt lat="49.061168670654" lon="3.2079722881317"><ele>180</ele><time>2026-4-28T18:4:23Z</time></trkpt>
<trkpt lat="49.061168670654" lon="3.2079722881317"><ele>180</ele><time>2026-4-28T18:4:26Z</time></trkpt>
<trkpt lat="49.061168670654" lon="3.2079722881317"><ele>180</ele><time>2026-4-28T18:4:29Z</time></trkpt>
<trkpt lat="49.061176300049" lon="3.2079045772552"><ele>181</ele><time>2026-4-28T18:4:32Z</time></trkpt>
<trkpt lat="49.061183929443" lon="3.207839012146"><ele>181</ele><time>2026-4-28T18:4:35Z</time></trkpt>
<trkpt lat="49.061183929443" lon="3.207839012146"><ele>181</ele><time>2026-4-28T18:4:38Z</time></trkpt>
<trkpt lat="49.061187744141" lon="3.2077734470367"><ele>181</ele><time>2026-4-28T18:4:41Z</time></trkpt>
<trkpt lat="49.061195373535" lon="3.2077033519745"><ele>181</ele><time>2026-4-28T18:4:44Z</time></trkpt>
<trkpt lat="49.06120300293" lon="3.2076327800751"><ele>181</ele><time>2026-4-28T18:4:47Z</time></trkpt>
<trkpt lat="49.06120300293" lon="3.2076327800751"><ele>181</ele><time>2026-4-28T18:4:50Z</time></trkpt>
<trkpt lat="49.061222076416" lon="3.2075116634369"><ele>181</ele><time>2026-4-28T18:4:53Z</time></trkpt>
<trkpt lat="49.061222076416" lon="3.2075116634369"><ele>181</ele><time>2026-4-28T18:4:56Z</time></trkpt>
<trkpt lat="49.061233520508" lon="3.2073996067047"><ele>181</ele><time>2026-4-28T18:4:59Z</time></trkpt>
<trkpt lat="49.061233520508" lon="3.2073996067047"><ele>181</ele><time>2026-4-28T18:5:2Z</time></trkpt>
<trkpt lat="49.061233520508" lon="3.2073996067047"><ele>181</ele><time>2026-4-28T18:5:5Z</time></trkpt>
<trkpt lat="49.061252593994" lon="3.2072925567627"><ele>182</ele><time>2026-4-28T18:5:8Z</time></trkpt>
<trkpt lat="49.061252593994" lon="3.2072925567627"><ele>182</ele><time>2026-4-28T18:5:11Z</time></trkpt>
<trkpt lat="49.061252593994" lon="3.2072925567627"><ele>182</ele><time>2026-4-28T18:5:14Z</time></trkpt>
<trkpt lat="49.061267852783" lon="3.2071952819824"><ele>182</ele><time>2026-4-28T18:5:17Z</time></trkpt>
<trkpt lat="49.061267852783" lon="3.2071952819824"><ele>182</ele><time>2026-4-28T18:5:20Z</time></trkpt>
<trkpt lat="49.061283111572" lon="3.2070546150208"><ele>182</ele><time>2026-4-28T18:5:23Z</time></trkpt>
<trkpt lat="49.061283111572" lon="3.2070546150208"><ele>182</ele><time>2026-4-28T18:5:26Z</time></trkpt>
<trkpt lat="49.061283111572" lon="3.2070546150208"><ele>182</ele><time>2026-4-28T18:5:29Z</time></trkpt>
<trkpt lat="49.06128692627" lon="3.2069225311279"><ele>183</ele><time>2026-4-28T18:5:32Z</time></trkpt>
<trkpt lat="49.06128692627" lon="3.2069225311279"><ele>183</ele><time>2026-4-28T18:5:35Z</time></trkpt>
<trkpt lat="49.06128692627" lon="3.2069225311279"><ele>183</ele><time>2026-4-28T18:5:38Z</time></trkpt>
<trkpt lat="49.061290740967" lon="3.2068238258362"><ele>183</ele><time>2026-4-28T18:5:41Z</time></trkpt>
<trkpt lat="49.061290740967" lon="3.2068238258362"><ele>183</ele><time>2026-4-28T18:5:44Z</time></trkpt>
<trkpt lat="49.061302185059" lon="3.2066977024078"><ele>183</ele><time>2026-4-28T18:5:47Z</time></trkpt>
<trkpt lat="49.061302185059" lon="3.2066977024078"><ele>183</ele><time>2026-4-28T18:5:50Z</time></trkpt>
<trkpt lat="49.061302185059" lon="3.2066977024078"><ele>183</ele><time>2026-4-28T18:5:53Z</time></trkpt>
<trkpt lat="49.06128692627" lon="3.2065668106079"><ele>184</ele><time>2026-4-28T18:5:56Z</time></trkpt>
<trkpt lat="49.06128692627" lon="3.2065668106079"><ele>184</ele><time>2026-4-28T18:5:59Z</time></trkpt>
<trkpt lat="49.06128692627" lon="3.2065668106079"><ele>184</ele><time>2026-4-28T18:6:2Z</time></trkpt>
<trkpt lat="49.06128692627" lon="3.2065668106079"><ele>184</ele><time>2026-4-28T18:6:5Z</time></trkpt>
<trkpt lat="49.06128692627" lon="3.2065668106079"><ele>184</ele><time>2026-4-28T18:6:8Z</time></trkpt>
<trkpt lat="49.06128692627" lon="3.2065668106079"><ele>184</ele><time>2026-4-28T18:6:11Z</time></trkpt>
<trkpt lat="49.06128692627" lon="3.2065668106079"><ele>184</ele><time>2026-4-28T18:6:14Z</time></trkpt>
<trkpt lat="49.06128692627" lon="3.2065668106079"><ele>184</ele><time>2026-4-28T18:6:17Z</time></trkpt>
<trkpt lat="49.06128692627" lon="3.2065668106079"><ele>184</ele><time>2026-4-28T18:6:20Z</time></trkpt>
<trkpt lat="49.06128692627" lon="3.2065668106079"><ele>184</ele><time>2026-4-28T18:6:23Z</time></trkpt>
<trkpt lat="49.06128692627" lon="3.2065668106079"><ele>184</ele><time>2026-4-28T18:6:26Z</time></trkpt>
<trkpt lat="49.061340332031" lon="3.2065863609314"><ele>185</ele><time>2026-4-28T18:6:29Z</time></trkpt>
<trkpt lat="49.061340332031" lon="3.2065863609314"><ele>185</ele><time>2026-4-28T18:6:32Z</time></trkpt>
<trkpt lat="49.061340332031" lon="3.2065863609314"><ele>185</ele><time>2026-4-28T18:6:35Z</time></trkpt>
<trkpt lat="49.061340332031" lon="3.2065863609314"><ele>185</ele><time>2026-4-28T18:6:38Z</time></trkpt>
<trkpt lat="49.061340332031" lon="3.2065863609314"><ele>185</ele><time>2026-4-28T18:6:41Z</time></trkpt>
<trkpt lat="49.061340332031" lon="3.2065863609314"><ele>185</ele><time>2026-4-28T18:6:44Z</time></trkpt>
<trkpt lat="49.061340332031" lon="3.2065863609314"><ele>185</ele><time>2026-4-28T18:6:47Z</time></trkpt>
<trkpt lat="49.061130523682" lon="3.2065906524658"><ele>186</ele><time>2026-4-28T18:6:50Z</time></trkpt>
<trkpt lat="49.061046600342" lon="3.2065765857697"><ele>187</ele><time>2026-4-28T18:6:53Z</time></trkpt>
<trkpt lat="49.061046600342" lon="3.2065765857697"><ele>187</ele><time>2026-4-28T18:6:56Z</time></trkpt>
<trkpt lat="49.060955047607" lon="3.2065544128418"><ele>187</ele><time>2026-4-28T18:6:59Z</time></trkpt>
<trkpt lat="49.060955047607" lon="3.2065544128418"><ele>187</ele><time>2026-4-28T18:7:2Z</time></trkpt>
<trkpt lat="49.06086730957" lon="3.2065227031708"><ele>187</ele><time>2026-4-28T18:7:5Z</time></trkpt>
<trkpt lat="49.060794830322" lon="3.206508398056"><ele>188</ele><time>2026-4-28T18:7:8Z</time></trkpt>
<trkpt lat="49.060794830322" lon="3.206508398056"><ele>188</ele><time>2026-4-28T18:7:11Z</time></trkpt>
<trkpt lat="49.060710906982" lon="3.2064914703369"><ele>188</ele><time>2026-4-28T18:7:14Z</time></trkpt>
<trkpt lat="49.060710906982" lon="3.2064914703369"><ele>188</ele><time>2026-4-28T18:7:17Z</time></trkpt>
<trkpt lat="49.060634613037" lon="3.2064673900604"><ele>188</ele><time>2026-4-28T18:7:20Z</time></trkpt>
<trkpt lat="49.060554504395" lon="3.206435918808"><ele>189</ele><time>2026-4-28T18:7:23Z</time></trkpt>
<trkpt lat="49.060554504395" lon="3.206435918808"><ele>189</ele><time>2026-4-28T18:7:26Z</time></trkpt>
<trkpt lat="49.060470581055" lon="3.206404209137"><ele>189</ele><time>2026-4-28T18:7:29Z</time></trkpt>
<trkpt lat="49.060470581055" lon="3.206404209137"><ele>189</ele><time>2026-4-28T18:7:32Z</time></trkpt>
<trkpt lat="49.060398101807" lon="3.206375837326"><ele>190</ele><time>2026-4-28T18:7:35Z</time></trkpt>
<trkpt lat="49.060398101807" lon="3.206375837326"><ele>190</ele><time>2026-4-28T18:7:38Z</time></trkpt>
<trkpt lat="49.060325622559" lon="3.2063627243042"><ele>190</ele><time>2026-4-28T18:7:41Z</time></trkpt>
<trkpt lat="49.060325622559" lon="3.2063627243042"><ele>190</ele><time>2026-4-28T18:7:44Z</time></trkpt>
<trkpt lat="49.060245513916" lon="3.2063546180725"><ele>191</ele><time>2026-4-28T18:7:47Z</time></trkpt>
<trkpt lat="49.060245513916" lon="3.2063546180725"><ele>191</ele><time>2026-4-28T18:7:50Z</time></trkpt>
<trkpt lat="49.060165405273" lon="3.2063372135162"><ele>191</ele><time>2026-4-28T18:7:53Z</time></trkpt>
<trkpt lat="49.060165405273" lon="3.2063372135162"><ele>191</ele><time>2026-4-28T18:7:56Z</time></trkpt>
<trkpt lat="49.060096740723" lon="3.2063276767731"><ele>192</ele><time>2026-4-28T18:7:59Z</time></trkpt>
<trkpt lat="49.060096740723" lon="3.2063276767731"><ele>192</ele><time>2026-4-28T18:8:2Z</time></trkpt>
<trkpt lat="49.060039520264" lon="3.2063000202179"><ele>193</ele><time>2026-4-28T18:8:5Z</time></trkpt>
<trkpt lat="49.060039520264" lon="3.2063000202179"><ele>193</ele><time>2026-4-28T18:8:8Z</time></trkpt>
<trkpt lat="49.060035705566" lon="3.2062394618988"><ele>193</ele><time>2026-4-28T18:8:11Z</time></trkpt>
<trkpt lat="49.060035705566" lon="3.2061793804169"><ele>194</ele><time>2026-4-28T18:8:14Z</time></trkpt>
<trkpt lat="49.060039520264" lon="3.2061212062836"><ele>194</ele><time>2026-4-28T18:8:17Z</time></trkpt>
<trkpt lat="49.060039520264" lon="3.2060649394989"><ele>194</ele><time>2026-4-28T18:8:20Z</time></trkpt>
<trkpt lat="49.060035705566" lon="3.2060070037842"><ele>194</ele><time>2026-4-28T18:8:23Z</time></trkpt>
<trkpt lat="49.060028076172" lon="3.2058794498444"><ele>195</ele><time>2026-4-28T18:8:26Z</time></trkpt>
<trkpt lat="49.060009002686" lon="3.2057399749756"><ele>196</ele><time>2026-4-28T18:8:29Z</time></trkpt>
<trkpt lat="49.060009002686" lon="3.2057399749756"><ele>196</ele><time>2026-4-28T18:8:32Z</time></trkpt>
<trkpt lat="49.060001373291" lon="3.2056021690369"><ele>196</ele><time>2026-4-28T18:8:35Z</time></trkpt>
<trkpt lat="49.060001373291" lon="3.2054810523987"><ele>197</ele><time>2026-4-28T18:8:38Z</time></trkpt>
<trkpt lat="49.060009002686" lon="3.2053744792938"><ele>197</ele><time>2026-4-28T18:8:41Z</time></trkpt>
<trkpt lat="49.060009002686" lon="3.2053744792938"><ele>197</ele><time>2026-4-28T18:8:44Z</time></trkpt>
<trkpt lat="49.060020446777" lon="3.2052874565125"><ele>198</ele><time>2026-4-28T18:8:47Z</time></trkpt>
<trkpt lat="49.060020446777" lon="3.2052874565125"><ele>198</ele><time>2026-4-28T18:8:50Z</time></trkpt>
<trkpt lat="49.060039520264" lon="3.205197095871"><ele>199</ele><time>2026-4-28T18:8:53Z</time></trkpt>
<trkpt lat="49.060039520264" lon="3.205197095871"><ele>199</ele><time>2026-4-28T18:8:56Z</time></trkpt>
<trkpt lat="49.060062408447" lon="3.2051162719727"><ele>199</ele><time>2026-4-28T18:8:59Z</time></trkpt>
<trkpt lat="49.060062408447" lon="3.2051162719727"><ele>199</ele><time>2026-4-28T18:9:2Z</time></trkpt>
<trkpt lat="49.060089111328" lon="3.2050194740295"><ele>200</ele><time>2026-4-28T18:9:5Z</time></trkpt>
<trkpt lat="49.060115814209" lon="3.2049160003662"><ele>200</ele><time>2026-4-28T18:9:8Z</time></trkpt>
<trkpt lat="49.060134887695" lon="3.2047915458679"><ele>200</ele><time>2026-4-28T18:9:11Z</time></trkpt>
<trkpt lat="49.060134887695" lon="3.2047915458679"><ele>200</ele><time>2026-4-28T18:9:14Z</time></trkpt>
<trkpt lat="49.060134887695" lon="3.2046706676483"><ele>200</ele><time>2026-4-28T18:9:17Z</time></trkpt>
<trkpt lat="49.060096740723" lon="3.2045331001282"><ele>200</ele><time>2026-4-28T18:9:20Z</time></trkpt>
<trkpt lat="49.060054779053" lon="3.2044148445129"><ele>201</ele><time>2026-4-28T18:9:23Z</time></trkpt>
<trkpt lat="49.060054779053" lon="3.2044148445129"><ele>201</ele><time>2026-4-28T18:9:26Z</time></trkpt>
<trkpt lat="49.060001373291" lon="3.204320192337"><ele>201</ele><time>2026-4-28T18:9:29Z</time></trkpt>
<trkpt lat="49.059951782227" lon="3.2042453289032"><ele>202</ele><time>2026-4-28T18:9:32Z</time></trkpt>
<trkpt lat="49.059951782227" lon="3.2042453289032"><ele>202</ele><time>2026-4-28T18:9:35Z</time></trkpt>
<trkpt lat="49.059902191162" lon="3.2041687965393"><ele>202</ele><time>2026-4-28T18:9:38Z</time></trkpt>
<trkpt lat="49.059902191162" lon="3.2041687965393"><ele>202</ele><time>2026-4-28T18:9:41Z</time></trkpt>
<trkpt lat="49.059860229492" lon="3.2040867805481"><ele>203</ele><time>2026-4-28T18:9:44Z</time></trkpt>
<trkpt lat="49.059860229492" lon="3.2040867805481"><ele>203</ele><time>2026-4-28T18:9:47Z</time></trkpt>
<trkpt lat="49.059814453125" lon="3.2040143013"><ele>204</ele><time>2026-4-28T18:9:50Z</time></trkpt>
<trkpt lat="49.059814453125" lon="3.2040143013"><ele>204</ele><time>2026-4-28T18:9:53Z</time></trkpt>
<trkpt lat="49.059761047363" lon="3.2039430141449"><ele>204</ele><time>2026-4-28T18:9:56Z</time></trkpt>
<trkpt lat="49.059761047363" lon="3.2039430141449"><ele>204</ele><time>2026-4-28T18:9:59Z</time></trkpt>
<trkpt lat="49.059761047363" lon="3.2039430141449"><ele>204</ele><time>2026-4-28T18:10:2Z</time></trkpt>
<trkpt lat="49.05969619751" lon="3.2038650512695"><ele>205</ele><time>2026-4-28T18:10:5Z</time></trkpt>
<trkpt lat="49.05969619751" lon="3.2038650512695"><ele>205</ele><time>2026-4-28T18:10:8Z</time></trkpt>
<trkpt lat="49.059646606445" lon="3.2037971019745"><ele>205</ele><time>2026-4-28T18:10:11Z</time></trkpt>
<trkpt lat="49.059646606445" lon="3.2037971019745"><ele>205</ele><time>2026-4-28T18:10:14Z</time></trkpt>
<trkpt lat="49.059646606445" lon="3.2037971019745"><ele>205</ele><time>2026-4-28T18:10:17Z</time></trkpt>
<trkpt lat="49.059581756592" lon="3.2037091255188"><ele>205</ele><time>2026-4-28T18:10:20Z</time></trkpt>
<trkpt lat="49.059581756592" lon="3.2037091255188"><ele>205</ele><time>2026-4-28T18:10:23Z</time></trkpt>
<trkpt lat="49.059535980225" lon="3.2036426067352"><ele>206</ele><time>2026-4-28T18:10:26Z</time></trkpt>
<trkpt lat="49.059535980225" lon="3.2036426067352"><ele>206</ele><time>2026-4-28T18:10:29Z</time></trkpt>
<trkpt lat="49.059471130371" lon="3.2035386562347"><ele>206</ele><time>2026-4-28T18:10:32Z</time></trkpt>
<trkpt lat="49.059421539307" lon="3.2034637928009"><ele>207</ele><time>2026-4-28T18:10:35Z</time></trkpt>
<trkpt lat="49.059421539307" lon="3.2034637928009"><ele>207</ele><time>2026-4-28T18:10:38Z</time></trkpt>
<trkpt lat="49.059371948242" lon="3.2033746242523"><ele>207</ele><time>2026-4-28T18:10:41Z</time></trkpt>
<trkpt lat="49.059371948242" lon="3.2033746242523"><ele>207</ele><time>2026-4-28T18:10:44Z</time></trkpt>
<trkpt lat="49.059352874756" lon="3.2033286094666"><ele>208</ele><time>2026-4-28T18:10:47Z</time></trkpt>
<trkpt lat="49.05933380127" lon="3.2032752037048"><ele>209</ele><time>2026-4-28T18:10:50Z</time></trkpt>
<trkpt lat="49.059322357178" lon="3.2032186985016"><ele>209</ele><time>2026-4-28T18:10:53Z</time></trkpt>
<trkpt lat="49.059314727783" lon="3.2031617164612"><ele>210</ele><time>2026-4-28T18:10:56Z</time></trkpt>
<trkpt lat="49.059303283691" lon="3.2030942440033"><ele>210</ele><time>2026-4-28T18:10:59Z</time></trkpt>
<trkpt lat="49.059288024902" lon="3.2029407024384"><ele>210</ele><time>2026-4-28T18:11:2Z</time></trkpt>
<trkpt lat="49.059288024902" lon="3.2029407024384"><ele>210</ele><time>2026-4-28T18:11:5Z</time></trkpt>
<trkpt lat="49.059268951416" lon="3.2028074264526"><ele>211</ele><time>2026-4-28T18:11:8Z</time></trkpt>
<trkpt lat="49.059268951416" lon="3.2026941776276"><ele>212</ele><time>2026-4-28T18:11:11Z</time></trkpt>
<trkpt lat="49.059268951416" lon="3.2026941776276"><ele>212</ele><time>2026-4-28T18:11:14Z</time></trkpt>
<trkpt lat="49.059288024902" lon="3.2025964260101"><ele>212</ele><time>2026-4-28T18:11:17Z</time></trkpt>
<trkpt lat="49.059288024902" lon="3.2025964260101"><ele>212</ele><time>2026-4-28T18:11:20Z</time></trkpt>
<trkpt lat="49.059288024902" lon="3.2025964260101"><ele>212</ele><time>2026-4-28T18:11:23Z</time></trkpt>
<trkpt lat="49.059288024902" lon="3.2025964260101"><ele>212</ele><time>2026-4-28T18:11:26Z</time></trkpt>
<trkpt lat="49.059288024902" lon="3.2025964260101"><ele>212</ele><time>2026-4-28T18:11:29Z</time></trkpt>
<trkpt lat="49.059288024902" lon="3.2025964260101"><ele>212</ele><time>2026-4-28T18:11:32Z</time></trkpt>
<trkpt lat="49.059242248535" lon="3.2023179531097"><ele>214</ele><time>2026-4-28T18:11:35Z</time></trkpt>
<trkpt lat="49.059219360352" lon="3.2022061347961"><ele>215</ele><time>2026-4-28T18:11:38Z</time></trkpt>
<trkpt lat="49.059219360352" lon="3.2022061347961"><ele>215</ele><time>2026-4-28T18:11:41Z</time></trkpt>
<trkpt lat="49.05920791626" lon="3.202052116394"><ele>215</ele><time>2026-4-28T18:11:44Z</time></trkpt>
<trkpt lat="49.059200286865" lon="3.201956987381"><ele>216</ele><time>2026-4-28T18:11:47Z</time></trkpt>
<trkpt lat="49.059188842773" lon="3.2018685340881"><ele>216</ele><time>2026-4-28T18:11:50Z</time></trkpt>
<trkpt lat="49.059177398682" lon="3.2017784118652"><ele>216</ele><time>2026-4-28T18:11:53Z</time></trkpt>
<trkpt lat="49.059169769287" lon="3.201687335968"><ele>216</ele><time>2026-4-28T18:11:56Z</time></trkpt>
<trkpt lat="49.05916595459" lon="3.2015817165375"><ele>216</ele><time>2026-4-28T18:11:59Z</time></trkpt>
<trkpt lat="49.059154510498" lon="3.2014729976654"><ele>216</ele><time>2026-4-28T18:12:2Z</time></trkpt>
<trkpt lat="49.059143066406" lon="3.2013535499573"><ele>216</ele><time>2026-4-28T18:12:5Z</time></trkpt>
<trkpt lat="49.059131622314" lon="3.2012369632721"><ele>216</ele><time>2026-4-28T18:12:8Z</time></trkpt>
<trkpt lat="49.059116363525" lon="3.201117515564"><ele>216</ele><time>2026-4-28T18:12:11Z</time></trkpt>
<trkpt lat="49.059101104736" lon="3.2009887695312"><ele>217</ele><time>2026-4-28T18:12:14Z</time></trkpt>
<trkpt lat="49.059085845947" lon="3.200855255127"><ele>218</ele><time>2026-4-28T18:12:17Z</time></trkpt>
<trkpt lat="49.059074401855" lon="3.200731754303"><ele>218</ele><time>2026-4-28T18:12:20Z</time></trkpt>
<trkpt lat="49.059062957764" lon="3.2006199359894"><ele>219</ele><time>2026-4-28T18:12:23Z</time></trkpt>
<trkpt lat="49.059051513672" lon="3.2005000114441"><ele>219</ele><time>2026-4-28T18:12:26Z</time></trkpt>
<trkpt lat="49.059032440186" lon="3.2003846168518"><ele>219</ele><time>2026-4-28T18:12:29Z</time></trkpt>
<trkpt lat="49.059017181396" lon="3.2002785205841"><ele>219</ele><time>2026-4-28T18:12:32Z</time></trkpt>
<trkpt lat="49.059009552002" lon="3.200183391571"><ele>219</ele><time>2026-4-28T18:12:35Z</time></trkpt>
<trkpt lat="49.059001922607" lon="3.2000813484192"><ele>219</ele><time>2026-4-28T18:12:38Z</time></trkpt>
<trkpt lat="49.05899810791" lon="3.1999878883362"><ele>219</ele><time>2026-4-28T18:12:41Z</time></trkpt>
<trkpt lat="49.05899810791" lon="3.1999878883362"><ele>219</ele><time>2026-4-28T18:12:44Z</time></trkpt>
<trkpt lat="49.058986663818" lon="3.1998867988586"><ele>219</ele><time>2026-4-28T18:12:47Z</time></trkpt>
<trkpt lat="49.058979034424" lon="3.1997940540314"><ele>219</ele><time>2026-4-28T18:12:50Z</time></trkpt>
<trkpt lat="49.058971405029" lon="3.1997060775757"><ele>219</ele><time>2026-4-28T18:12:53Z</time></trkpt>
<trkpt lat="49.058971405029" lon="3.1997060775757"><ele>219</ele><time>2026-4-28T18:12:56Z</time></trkpt>
<trkpt lat="49.058959960938" lon="3.1996126174927"><ele>219</ele><time>2026-4-28T18:12:59Z</time></trkpt>
<trkpt lat="49.058952331543" lon="3.1995143890381"><ele>219</ele><time>2026-4-28T18:13:2Z</time></trkpt>
<trkpt lat="49.058940887451" lon="3.1994137763977"><ele>219</ele><time>2026-4-28T18:13:5Z</time></trkpt>
<trkpt lat="49.058940887451" lon="3.1994137763977"><ele>219</ele><time>2026-4-28T18:13:8Z</time></trkpt>
<trkpt lat="49.058929443359" lon="3.1993153095245"><ele>219</ele><time>2026-4-28T18:13:11Z</time></trkpt>
<trkpt lat="49.058921813965" lon="3.1992115974426"><ele>219</ele><time>2026-4-28T18:13:14Z</time></trkpt>
<trkpt lat="49.05891418457" lon="3.1991157531738"><ele>219</ele><time>2026-4-28T18:13:17Z</time></trkpt>
<trkpt lat="49.05891418457" lon="3.1991157531738"><ele>219</ele><time>2026-4-28T18:13:20Z</time></trkpt>
<trkpt lat="49.058906555176" lon="3.1990141868591"><ele>219</ele><time>2026-4-28T18:13:23Z</time></trkpt>
<trkpt lat="49.058898925781" lon="3.198912858963"><ele>219</ele><time>2026-4-28T18:13:26Z</time></trkpt>
<trkpt lat="49.058887481689" lon="3.1987955570221"><ele>219</ele><time>2026-4-28T18:13:29Z</time></trkpt>
<trkpt lat="49.058887481689" lon="3.1987955570221"><ele>219</ele><time>2026-4-28T18:13:32Z</time></trkpt>
<trkpt lat="49.058879852295" lon="3.1986875534058"><ele>219</ele><time>2026-4-28T18:13:35Z</time></trkpt>
<trkpt lat="49.058868408203" lon="3.1985638141632"><ele>218</ele><time>2026-4-28T18:13:38Z</time></trkpt>
<trkpt lat="49.058856964111" lon="3.1984372138977"><ele>218</ele><time>2026-4-28T18:13:41Z</time></trkpt>
<trkpt lat="49.058856964111" lon="3.1984372138977"><ele>218</ele><time>2026-4-28T18:13:44Z</time></trkpt>
<trkpt lat="49.058841705322" lon="3.1983067989349"><ele>218</ele><time>2026-4-28T18:13:47Z</time></trkpt>
<trkpt lat="49.058822631836" lon="3.1981709003448"><ele>219</ele><time>2026-4-28T18:13:50Z</time></trkpt>
<trkpt lat="49.058811187744" lon="3.1980266571045"><ele>220</ele><time>2026-4-28T18:13:53Z</time></trkpt>
<trkpt lat="49.058811187744" lon="3.1980266571045"><ele>220</ele><time>2026-4-28T18:13:56Z</time></trkpt>
<trkpt lat="49.058795928955" lon="3.1979060173035"><ele>220</ele><time>2026-4-28T18:13:59Z</time></trkpt>
<trkpt lat="49.058780670166" lon="3.1977941989899"><ele>220</ele><time>2026-4-28T18:14:2Z</time></trkpt>
<trkpt lat="49.058765411377" lon="3.1976678371429"><ele>221</ele><time>2026-4-28T18:14:5Z</time></trkpt>
<trkpt lat="49.058765411377" lon="3.1976678371429"><ele>221</ele><time>2026-4-28T18:14:8Z</time></trkpt>
<trkpt lat="49.058753967285" lon="3.1975514888763"><ele>221</ele><time>2026-4-28T18:14:11Z</time></trkpt>
<trkpt lat="49.058742523193" lon="3.1974482536316"><ele>221</ele><time>2026-4-28T18:14:14Z</time></trkpt>
<trkpt lat="49.058731079102" lon="3.1973407268524"><ele>221</ele><time>2026-4-28T18:14:17Z</time></trkpt>
<trkpt lat="49.058731079102" lon="3.1973407268524"><ele>221</ele><time>2026-4-28T18:14:20Z</time></trkpt>
<trkpt lat="49.058727264404" lon="3.1972396373749"><ele>221</ele><time>2026-4-28T18:14:23Z</time></trkpt>
<trkpt lat="49.058727264404" lon="3.1971406936646"><ele>221</ele><time>2026-4-28T18:14:26Z</time></trkpt>
<trkpt lat="49.058727264404" lon="3.1971406936646"><ele>221</ele><time>2026-4-28T18:14:29Z</time></trkpt>
<trkpt lat="49.058727264404" lon="3.1971406936646"><ele>221</ele><time>2026-4-28T18:14:32Z</time></trkpt>
<trkpt lat="49.058715820312" lon="3.196977853775"><ele>221</ele><time>2026-4-28T18:14:35Z</time></trkpt>
<trkpt lat="49.058700561523" lon="3.1968786716461"><ele>221</ele><time>2026-4-28T18:14:38Z</time></trkpt>
<trkpt lat="49.058689117432" lon="3.1967737674713"><ele>221</ele><time>2026-4-28T18:14:41Z</time></trkpt>
<trkpt lat="49.058689117432" lon="3.1967737674713"><ele>221</ele><time>2026-4-28T18:14:44Z</time></trkpt>
<trkpt lat="49.05867767334" lon="3.1966769695282"><ele>221</ele><time>2026-4-28T18:14:47Z</time></trkpt>
<trkpt lat="49.058662414551" lon="3.196572303772"><ele>221</ele><time>2026-4-28T18:14:50Z</time></trkpt>
<trkpt lat="49.058650970459" lon="3.1964581012726"><ele>221</ele><time>2026-4-28T18:14:53Z</time></trkpt>
<trkpt lat="49.058650970459" lon="3.1964581012726"><ele>221</ele><time>2026-4-28T18:14:56Z</time></trkpt>
<trkpt lat="49.058639526367" lon="3.1963338851929"><ele>221</ele><time>2026-4-28T18:14:59Z</time></trkpt>
<trkpt lat="49.058631896973" lon="3.1962213516235"><ele>222</ele><time>2026-4-28T18:15:2Z</time></trkpt>
<trkpt lat="49.058620452881" lon="3.196106672287"><ele>223</ele><time>2026-4-28T18:15:5Z</time></trkpt>
<trkpt lat="49.058620452881" lon="3.196106672287"><ele>223</ele><time>2026-4-28T18:15:8Z</time></trkpt>
<trkpt lat="49.058601379395" lon="3.1959803104401"><ele>224</ele><time>2026-4-28T18:15:11Z</time></trkpt>
<trkpt lat="49.058589935303" lon="3.195850610733"><ele>225</ele><time>2026-4-28T18:15:14Z</time></trkpt>
<trkpt lat="49.058582305908" lon="3.1957287788391"><ele>225</ele><time>2026-4-28T18:15:17Z</time></trkpt>
<trkpt lat="49.058582305908" lon="3.1957287788391"><ele>225</ele><time>2026-4-28T18:15:20Z</time></trkpt>
<trkpt lat="49.058570861816" lon="3.1956098079681"><ele>225</ele><time>2026-4-28T18:15:23Z</time></trkpt>
<trkpt lat="49.058563232422" lon="3.195484161377"><ele>225</ele><time>2026-4-28T18:15:26Z</time></trkpt>
<trkpt lat="49.058547973633" lon="3.1953456401825"><ele>225</ele><time>2026-4-28T18:15:29Z</time></trkpt>
<trkpt lat="49.058547973633" lon="3.1953456401825"><ele>225</ele><time>2026-4-28T18:15:32Z</time></trkpt>
<trkpt lat="49.058528900146" lon="3.1952285766602"><ele>225</ele><time>2026-4-28T18:15:35Z</time></trkpt>
<trkpt lat="49.058506011963" lon="3.1951131820679"><ele>224</ele><time>2026-4-28T18:15:38Z</time></trkpt>
<trkpt lat="49.058475494385" lon="3.194988489151"><ele>223</ele><time>2026-4-28T18:15:41Z</time></trkpt>
<trkpt lat="49.058475494385" lon="3.194988489151"><ele>223</ele><time>2026-4-28T18:15:44Z</time></trkpt>
<trkpt lat="49.058429718018" lon="3.1948583126068"><ele>222</ele><time>2026-4-28T18:15:47Z</time></trkpt>
<trkpt lat="49.058387756348" lon="3.1947395801544"><ele>222</ele><time>2026-4-28T18:15:50Z</time></trkpt>
<trkpt lat="49.058349609375" lon="3.1946194171906"><ele>223</ele><time>2026-4-28T18:15:53Z</time></trkpt>
<trkpt lat="49.058349609375" lon="3.1946194171906"><ele>223</ele><time>2026-4-28T18:15:56Z</time></trkpt>
<trkpt lat="49.058307647705" lon="3.1945042610168"><ele>223</ele><time>2026-4-28T18:15:59Z</time></trkpt>
<trkpt lat="49.058258056641" lon="3.1943678855896"><ele>223</ele><time>2026-4-28T18:16:2Z</time></trkpt>
<trkpt lat="49.058212280273" lon="3.1942267417908"><ele>224</ele><time>2026-4-28T18:16:5Z</time></trkpt>
<trkpt lat="49.058212280273" lon="3.1942267417908"><ele>224</ele><time>2026-4-28T18:16:8Z</time></trkpt>
<trkpt lat="49.058158874512" lon="3.1940903663635"><ele>224</ele><time>2026-4-28T18:16:11Z</time></trkpt>
<trkpt lat="49.05810546875" lon="3.1939597129822"><ele>223</ele><time>2026-4-28T18:16:14Z</time></trkpt>
<trkpt lat="49.058055877686" lon="3.1938314437866"><ele>222</ele><time>2026-4-28T18:16:17Z</time></trkpt>
<trkpt lat="49.058055877686" lon="3.1938314437866"><ele>222</ele><time>2026-4-28T18:16:20Z</time></trkpt>
<trkpt lat="49.058010101318" lon="3.1936960220337"><ele>221</ele><time>2026-4-28T18:16:23Z</time></trkpt>
<trkpt lat="49.057964324951" lon="3.1935539245605"><ele>220</ele><time>2026-4-28T18:16:26Z</time></trkpt>
<trkpt lat="49.057933807373" lon="3.1934571266174"><ele>218</ele><time>2026-4-28T18:16:29Z</time></trkpt>
<trkpt lat="49.057933807373" lon="3.1934571266174"><ele>218</ele><time>2026-4-28T18:16:32Z</time></trkpt>
<trkpt lat="49.057888031006" lon="3.1933238506317"><ele>216</ele><time>2026-4-28T18:16:35Z</time></trkpt>
<trkpt lat="49.057842254639" lon="3.1931936740875"><ele>215</ele><time>2026-4-28T18:16:38Z</time></trkpt>
<trkpt lat="49.057796478271" lon="3.1930615901947"><ele>215</ele><time>2026-4-28T18:16:41Z</time></trkpt>
<trkpt lat="49.057796478271" lon="3.1930615901947"><ele>215</ele><time>2026-4-28T18:16:44Z</time></trkpt>
<trkpt lat="49.057746887207" lon="3.1929161548615"><ele>215</ele><time>2026-4-28T18:16:47Z</time></trkpt>
<trkpt lat="49.057697296143" lon="3.1927719116211"><ele>215</ele><time>2026-4-28T18:16:50Z</time></trkpt>
<trkpt lat="49.057647705078" lon="3.1926243305206"><ele>214</ele><time>2026-4-28T18:16:53Z</time></trkpt>
<trkpt lat="49.057647705078" lon="3.1926243305206"><ele>214</ele><time>2026-4-28T18:16:56Z</time></trkpt>
<trkpt lat="49.057598114014" lon="3.1924951076508"><ele>214</ele><time>2026-4-28T18:16:59Z</time></trkpt>
<trkpt lat="49.057537078857" lon="3.1923422813416"><ele>213</ele><time>2026-4-28T18:17:2Z</time></trkpt>
<trkpt lat="49.057483673096" lon="3.1921932697296"><ele>213</ele><time>2026-4-28T18:17:5Z</time></trkpt>
<trkpt lat="49.057483673096" lon="3.1921932697296"><ele>213</ele><time>2026-4-28T18:17:8Z</time></trkpt>
<trkpt lat="49.057426452637" lon="3.1920385360718"><ele>213</ele><time>2026-4-28T18:17:11Z</time></trkpt>
<trkpt lat="49.057369232178" lon="3.1918709278107"><ele>212</ele><time>2026-4-28T18:17:14Z</time></trkpt>
<trkpt lat="49.057308197021" lon="3.1916961669922"><ele>211</ele><time>2026-4-28T18:17:17Z</time></trkpt>
<trkpt lat="49.057308197021" lon="3.1916961669922"><ele>211</ele><time>2026-4-28T18:17:20Z</time></trkpt>
<trkpt lat="49.057243347168" lon="3.1915192604065"><ele>210</ele><time>2026-4-28T18:17:23Z</time></trkpt>
<trkpt lat="49.057174682617" lon="3.1913380622864"><ele>209</ele><time>2026-4-28T18:17:26Z</time></trkpt>
<trkpt lat="49.057113647461" lon="3.191166639328"><ele>209</ele><time>2026-4-28T18:17:29Z</time></trkpt>
<trkpt lat="49.057113647461" lon="3.191166639328"><ele>209</ele><time>2026-4-28T18:17:32Z</time></trkpt>
<trkpt lat="49.057048797607" lon="3.1909914016724"><ele>210</ele><time>2026-4-28T18:17:35Z</time></trkpt>
<trkpt lat="49.056983947754" lon="3.1908094882965"><ele>210</ele><time>2026-4-28T18:17:38Z</time></trkpt>
<trkpt lat="49.056934356689" lon="3.1906638145447"><ele>211</ele><time>2026-4-28T18:17:41Z</time></trkpt>
<trkpt lat="49.056934356689" lon="3.1906638145447"><ele>211</ele><time>2026-4-28T18:17:44Z</time></trkpt>
<trkpt lat="49.05687713623" lon="3.1905057430267"><ele>211</ele><time>2026-4-28T18:17:47Z</time></trkpt>
<trkpt lat="49.056827545166" lon="3.1903541088104"><ele>212</ele><time>2026-4-28T18:17:50Z</time></trkpt>
<trkpt lat="49.056789398193" lon="3.1902146339417"><ele>212</ele><time>2026-4-28T18:17:53Z</time></trkpt>
<trkpt lat="49.056789398193" lon="3.1902146339417"><ele>212</ele><time>2026-4-28T18:17:56Z</time></trkpt>
<trkpt lat="49.056758880615" lon="3.1900839805603"><ele>212</ele><time>2026-4-28T18:17:59Z</time></trkpt>
<trkpt lat="49.056747436523" lon="3.1899704933167"><ele>212</ele><time>2026-4-28T18:18:2Z</time></trkpt>
<trkpt lat="49.056755065918" lon="3.1898632049561"><ele>212</ele><time>2026-4-28T18:18:5Z</time></trkpt>
<trkpt lat="49.056755065918" lon="3.1898632049561"><ele>212</ele><time>2026-4-28T18:18:8Z</time></trkpt>
<trkpt lat="49.056762695312" lon="3.1897649765015"><ele>212</ele><time>2026-4-28T18:18:11Z</time></trkpt>
<trkpt lat="49.056770324707" lon="3.1896607875824"><ele>212</ele><time>2026-4-28T18:18:14Z</time></trkpt>
<trkpt lat="49.056777954102" lon="3.1895627975464"><ele>212</ele><time>2026-4-28T18:18:17Z</time></trkpt>
<trkpt lat="49.056777954102" lon="3.1895627975464"><ele>212</ele><time>2026-4-28T18:18:20Z</time></trkpt>
<trkpt lat="49.056781768799" lon="3.1894736289978"><ele>212</ele><time>2026-4-28T18:18:23Z</time></trkpt>
<trkpt lat="49.056781768799" lon="3.1894736289978"><ele>212</ele><time>2026-4-28T18:18:26Z</time></trkpt>
<trkpt lat="49.056789398193" lon="3.1893210411072"><ele>212</ele><time>2026-4-28T18:18:29Z</time></trkpt>
<trkpt lat="49.056789398193" lon="3.1893210411072"><ele>212</ele><time>2026-4-28T18:18:32Z</time></trkpt>
<trkpt lat="49.056797027588" lon="3.189156293869"><ele>212</ele><time>2026-4-28T18:18:35Z</time></trkpt>
<trkpt lat="49.056797027588" lon="3.189156293869"><ele>212</ele><time>2026-4-28T18:18:38Z</time></trkpt>
<trkpt lat="49.056800842285" lon="3.1890013217926"><ele>212</ele><time>2026-4-28T18:18:41Z</time></trkpt>
<trkpt lat="49.056800842285" lon="3.1890013217926"><ele>212</ele><time>2026-4-28T18:18:44Z</time></trkpt>
<trkpt lat="49.056804656982" lon="3.1888432502747"><ele>212</ele><time>2026-4-28T18:18:47Z</time></trkpt>
<trkpt lat="49.056804656982" lon="3.1888432502747"><ele>212</ele><time>2026-4-28T18:18:50Z</time></trkpt>
<trkpt lat="49.056804656982" lon="3.188690662384"><ele>212</ele><time>2026-4-28T18:18:53Z</time></trkpt>
<trkpt lat="49.056804656982" lon="3.188690662384"><ele>212</ele><time>2026-4-28T18:18:56Z</time></trkpt>
<trkpt lat="49.056812286377" lon="3.1885321140289"><ele>212</ele><time>2026-4-28T18:18:59Z</time></trkpt>
<trkpt lat="49.056816101074" lon="3.1883597373962"><ele>212</ele><time>2026-4-28T18:19:2Z</time></trkpt>
<trkpt lat="49.056819915771" lon="3.1882708072662"><ele>212</ele><time>2026-4-28T18:19:5Z</time></trkpt>
<trkpt lat="49.056831359863" lon="3.1881058216095"><ele>212</ele><time>2026-4-28T18:19:8Z</time></trkpt>
<trkpt lat="49.056831359863" lon="3.1881058216095"><ele>212</ele><time>2026-4-28T18:19:11Z</time></trkpt>
<trkpt lat="49.056831359863" lon="3.1879329681396"><ele>212</ele><time>2026-4-28T18:19:14Z</time></trkpt>
<trkpt lat="49.056831359863" lon="3.1879329681396"><ele>212</ele><time>2026-4-28T18:19:17Z</time></trkpt>
<trkpt lat="49.056835174561" lon="3.1877591609955"><ele>212</ele><time>2026-4-28T18:19:20Z</time></trkpt>
<trkpt lat="49.056835174561" lon="3.1877591609955"><ele>212</ele><time>2026-4-28T18:19:23Z</time></trkpt>
<trkpt lat="49.056846618652" lon="3.1876056194305"><ele>212</ele><time>2026-4-28T18:19:26Z</time></trkpt>
<trkpt lat="49.05685043335" lon="3.1875183582306"><ele>212</ele><time>2026-4-28T18:19:29Z</time></trkpt>
<trkpt lat="49.056854248047" lon="3.1874263286591"><ele>212</ele><time>2026-4-28T18:19:32Z</time></trkpt>
<trkpt lat="49.056854248047" lon="3.1873292922974"><ele>212</ele><time>2026-4-28T18:19:35Z</time></trkpt>
<trkpt lat="49.056854248047" lon="3.1872413158417"><ele>212</ele><time>2026-4-28T18:19:38Z</time></trkpt>
<trkpt lat="49.056854248047" lon="3.1871452331543"><ele>212</ele><time>2026-4-28T18:19:41Z</time></trkpt>
<trkpt lat="49.056854248047" lon="3.1870512962341"><ele>211</ele><time>2026-4-28T18:19:44Z</time></trkpt>
<trkpt lat="49.056858062744" lon="3.1869411468506"><ele>211</ele><time>2026-4-28T18:19:47Z</time></trkpt>
<trkpt lat="49.056858062744" lon="3.1868276596069"><ele>212</ele><time>2026-4-28T18:19:50Z</time></trkpt>
<trkpt lat="49.056858062744" lon="3.1867175102234"><ele>212</ele><time>2026-4-28T18:19:53Z</time></trkpt>
<trkpt lat="49.056861877441" lon="3.1866118907928"><ele>212</ele><time>2026-4-28T18:19:56Z</time></trkpt>
<trkpt lat="49.056861877441" lon="3.1865005493164"><ele>212</ele><time>2026-4-28T18:19:59Z</time></trkpt>
<trkpt lat="49.056865692139" lon="3.1863963603973"><ele>212</ele><time>2026-4-28T18:20:2Z</time></trkpt>
<trkpt lat="49.056865692139" lon="3.1862933635712"><ele>212</ele><time>2026-4-28T18:20:5Z</time></trkpt>
<trkpt lat="49.056865692139" lon="3.1861846446991"><ele>212</ele><time>2026-4-28T18:20:8Z</time></trkpt>
<trkpt lat="49.056865692139" lon="3.1860718727112"><ele>212</ele><time>2026-4-28T18:20:11Z</time></trkpt>
<trkpt lat="49.056865692139" lon="3.1859636306763"><ele>212</ele><time>2026-4-28T18:20:14Z</time></trkpt>
<trkpt lat="49.056869506836" lon="3.1858670711517"><ele>212</ele><time>2026-4-28T18:20:17Z</time></trkpt>
<trkpt lat="49.056869506836" lon="3.1857781410217"><ele>212</ele><time>2026-4-28T18:20:20Z</time></trkpt>
<trkpt lat="49.056869506836" lon="3.1856880187988"><ele>212</ele><time>2026-4-28T18:20:23Z</time></trkpt>
<trkpt lat="49.056873321533" lon="3.1855850219727"><ele>211</ele><time>2026-4-28T18:20:26Z</time></trkpt>
<trkpt lat="49.05687713623" lon="3.185462474823"><ele>211</ele><time>2026-4-28T18:20:29Z</time></trkpt>
<trkpt lat="49.056873321533" lon="3.1853530406952"><ele>211</ele><time>2026-4-28T18:20:32Z</time></trkpt>
<trkpt lat="49.056880950928" lon="3.1852626800537"><ele>211</ele><time>2026-4-28T18:20:35Z</time></trkpt>
<trkpt lat="49.05689239502" lon="3.1851618289948"><ele>211</ele><time>2026-4-28T18:20:38Z</time></trkpt>
<trkpt lat="49.056900024414" lon="3.1850488185883"><ele>211</ele><time>2026-4-28T18:20:41Z</time></trkpt>
<trkpt lat="49.056903839111" lon="3.1849136352539"><ele>209</ele><time>2026-4-28T18:20:44Z</time></trkpt>
<trkpt lat="49.056903839111" lon="3.1847867965698"><ele>208</ele><time>2026-4-28T18:20:47Z</time></trkpt>
<trkpt lat="49.05689239502" lon="3.1846613883972"><ele>207</ele><time>2026-4-28T18:20:50Z</time></trkpt>
<trkpt lat="49.056869506836" lon="3.1845679283142"><ele>206</ele><time>2026-4-28T18:20:53Z</time></trkpt>
<trkpt lat="49.056831359863" lon="3.1844666004181"><ele>206</ele><time>2026-4-28T18:20:56Z</time></trkpt>
<trkpt lat="49.056793212891" lon="3.1843748092651"><ele>206</ele><time>2026-4-28T18:20:59Z</time></trkpt>
<trkpt lat="49.056793212891" lon="3.1843748092651"><ele>206</ele><time>2026-4-28T18:21:2Z</time></trkpt>
<trkpt lat="49.056770324707" lon="3.1842708587646"><ele>206</ele><time>2026-4-28T18:21:5Z</time></trkpt>
<trkpt lat="49.056827545166" lon="3.1842384338379"><ele>206</ele><time>2026-4-28T18:21:8Z</time></trkpt>
<trkpt lat="49.056911468506" lon="3.1842467784882"><ele>206</ele><time>2026-4-28T18:21:11Z</time></trkpt>
<trkpt lat="49.057014465332" lon="3.184278011322"><ele>206</ele><time>2026-4-28T18:21:14Z</time></trkpt>
<trkpt lat="49.057121276855" lon="3.1843206882477"><ele>205</ele><time>2026-4-28T18:21:17Z</time></trkpt>
<trkpt lat="49.057250976562" lon="3.1843712329865"><ele>204</ele><time>2026-4-28T18:21:20Z</time></trkpt>
<trkpt lat="49.057392120361" lon="3.1844236850739"><ele>204</ele><time>2026-4-28T18:21:23Z</time></trkpt>
<trkpt lat="49.057540893555" lon="3.1844787597656"><ele>202</ele><time>2026-4-28T18:21:26Z</time></trkpt>
<trkpt lat="49.057697296143" lon="3.1845314502716"><ele>201</ele><time>2026-4-28T18:21:29Z</time></trkpt>
<trkpt lat="49.057861328125" lon="3.1845796108246"><ele>199</ele><time>2026-4-28T18:21:32Z</time></trkpt>
<trkpt lat="49.058017730713" lon="3.1846272945404"><ele>198</ele><time>2026-4-28T18:21:35Z</time></trkpt>
<trkpt lat="49.058174133301" lon="3.1846842765808"><ele>198</ele><time>2026-4-28T18:21:38Z</time></trkpt>
<trkpt lat="49.058334350586" lon="3.1847624778748"><ele>198</ele><time>2026-4-28T18:21:41Z</time></trkpt>
<trkpt lat="49.058475494385" lon="3.1848566532135"><ele>197</ele><time>2026-4-28T18:21:44Z</time></trkpt>
<trkpt lat="49.058620452881" lon="3.1849675178528"><ele>197</ele><time>2026-4-28T18:21:47Z</time></trkpt>
<trkpt lat="49.058769226074" lon="3.1850905418396"><ele>197</ele><time>2026-4-28T18:21:50Z</time></trkpt>
<trkpt lat="49.05891418457" lon="3.1852216720581"><ele>196</ele><time>2026-4-28T18:21:53Z</time></trkpt>
<trkpt lat="49.059055328369" lon="3.1853573322296"><ele>195</ele><time>2026-4-28T18:21:56Z</time></trkpt>
<trkpt lat="49.059192657471" lon="3.185492515564"><ele>194</ele><time>2026-4-28T18:21:59Z</time></trkpt>
<trkpt lat="49.059326171875" lon="3.1856245994568"><ele>192</ele><time>2026-4-28T18:22:2Z</time></trkpt>
<trkpt lat="49.059459686279" lon="3.1857590675354"><ele>191</ele><time>2026-4-28T18:22:5Z</time></trkpt>
<trkpt lat="49.059593200684" lon="3.1858987808228"><ele>191</ele><time>2026-4-28T18:22:8Z</time></trkpt>
<trkpt lat="49.059722900391" lon="3.1860299110413"><ele>190</ele><time>2026-4-28T18:22:11Z</time></trkpt>
<trkpt lat="49.059841156006" lon="3.1861455440521"><ele>189</ele><time>2026-4-28T18:22:14Z</time></trkpt>
<trkpt lat="49.059959411621" lon="3.1862654685974"><ele>188</ele><time>2026-4-28T18:22:17Z</time></trkpt>
<trkpt lat="49.060085296631" lon="3.1863873004913"><ele>188</ele><time>2026-4-28T18:22:20Z</time></trkpt>
<trkpt lat="49.060207366943" lon="3.1865026950836"><ele>187</ele><time>2026-4-28T18:22:23Z</time></trkpt>
<trkpt lat="49.060306549072" lon="3.1866073608398"><ele>187</ele><time>2026-4-28T18:22:26Z</time></trkpt>
<trkpt lat="49.060401916504" lon="3.186704158783"><ele>186</ele><time>2026-4-28T18:22:29Z</time></trkpt>
<trkpt lat="49.060508728027" lon="3.1868121623993"><ele>186</ele><time>2026-4-28T18:22:32Z</time></trkpt>
<trkpt lat="49.060611724854" lon="3.1869192123413"><ele>186</ele><time>2026-4-28T18:22:35Z</time></trkpt>
<trkpt lat="49.060722351074" lon="3.1870145797729"><ele>187</ele><time>2026-4-28T18:22:38Z</time></trkpt>
<trkpt lat="49.060821533203" lon="3.1871070861816"><ele>188</ele><time>2026-4-28T18:22:41Z</time></trkpt>
<trkpt lat="49.060932159424" lon="3.1872217655182"><ele>188</ele><time>2026-4-28T18:22:44Z</time></trkpt>
<trkpt lat="49.06103515625" lon="3.1873300075531"><ele>190</ele><time>2026-4-28T18:22:47Z</time></trkpt>
<trkpt lat="49.061141967773" lon="3.1874372959137"><ele>190</ele><time>2026-4-28T18:22:50Z</time></trkpt>
<trkpt lat="49.061252593994" lon="3.1875395774841"><ele>190</ele><time>2026-4-28T18:22:53Z</time></trkpt>
<trkpt lat="49.061359405518" lon="3.1876316070557"><ele>189</ele><time>2026-4-28T18:22:56Z</time></trkpt>
<trkpt lat="49.061470031738" lon="3.1877255439758"><ele>188</ele><time>2026-4-28T18:22:59Z</time></trkpt>
<trkpt lat="49.061573028564" lon="3.1878197193146"><ele>187</ele><time>2026-4-28T18:23:2Z</time></trkpt>
<trkpt lat="49.061672210693" lon="3.1879103183746"><ele>186</ele><time>2026-4-28T18:23:5Z</time></trkpt>
<trkpt lat="49.061767578125" lon="3.1880006790161"><ele>185</ele><time>2026-4-28T18:23:8Z</time></trkpt>
<trkpt lat="49.061866760254" lon="3.1880924701691"><ele>184</ele><time>2026-4-28T18:23:11Z</time></trkpt>
<trkpt lat="49.061958312988" lon="3.1881804466248"><ele>185</ele><time>2026-4-28T18:23:14Z</time></trkpt>
<trkpt lat="49.062049865723" lon="3.1882650852203"><ele>185</ele><time>2026-4-28T18:23:17Z</time></trkpt>
<trkpt lat="49.062133789062" lon="3.1883432865143"><ele>185</ele><time>2026-4-28T18:23:20Z</time></trkpt>
<trkpt lat="49.062213897705" lon="3.1884095668793"><ele>185</ele><time>2026-4-28T18:23:23Z</time></trkpt>
<trkpt lat="49.062286376953" lon="3.1884608268738"><ele>185</ele><time>2026-4-28T18:23:26Z</time></trkpt>
<trkpt lat="49.062347412109" lon="3.1884970664978"><ele>185</ele><time>2026-4-28T18:23:29Z</time></trkpt>
<trkpt lat="49.062347412109" lon="3.1884970664978"><ele>185</ele><time>2026-4-28T18:23:32Z</time></trkpt>
<trkpt lat="49.062347412109" lon="3.1884970664978"><ele>185</ele><time>2026-4-28T18:23:35Z</time></trkpt>
<trkpt lat="49.062347412109" lon="3.1884970664978"><ele>185</ele><time>2026-4-28T18:23:38Z</time></trkpt>
<trkpt lat="49.062347412109" lon="3.1884970664978"><ele>185</ele><time>2026-4-28T18:23:41Z</time></trkpt>
<trkpt lat="49.062347412109" lon="3.1884970664978"><ele>185</ele><time>2026-4-28T18:23:44Z</time></trkpt>
<trkpt lat="49.062347412109" lon="3.1884970664978"><ele>185</ele><time>2026-4-28T18:23:47Z</time></trkpt>
<trkpt lat="49.062347412109" lon="3.1884970664978"><ele>185</ele><time>2026-4-28T18:23:50Z</time></trkpt>
<trkpt lat="49.062423706055" lon="3.1885573863983"><ele>184</ele><time>2026-4-28T18:23:53Z</time></trkpt>
<trkpt lat="49.062423706055" lon="3.1885573863983"><ele>184</ele><time>2026-4-28T18:23:56Z</time></trkpt>
<trkpt lat="49.062450408936" lon="3.1885781288147"><ele>183</ele><time>2026-4-28T18:23:59Z</time></trkpt>
<trkpt lat="49.062450408936" lon="3.1885781288147"><ele>183</ele><time>2026-4-28T18:24:2Z</time></trkpt>
<trkpt lat="49.062408447266" lon="3.1885454654694"><ele>183</ele><time>2026-4-28T18:24:5Z</time></trkpt>
<trkpt lat="49.06237411499" lon="3.1885280609131"><ele>183</ele><time>2026-4-28T18:24:8Z</time></trkpt>
<trkpt lat="49.06237411499" lon="3.1885280609131"><ele>183</ele><time>2026-4-28T18:24:11Z</time></trkpt>
<trkpt lat="49.06237411499" lon="3.1885280609131"><ele>183</ele><time>2026-4-28T18:24:14Z</time></trkpt>
<trkpt lat="49.062355041504" lon="3.1885583400726"><ele>183</ele><time>2026-4-28T18:24:17Z</time></trkpt>
<trkpt lat="49.062355041504" lon="3.1885583400726"><ele>183</ele><time>2026-4-28T18:24:20Z</time></trkpt>
<trkpt lat="49.062355041504" lon="3.1885583400726"><ele>183</ele><time>2026-4-28T18:24:23Z</time></trkpt>
<trkpt lat="49.062351226807" lon="3.1886157989502"><ele>184</ele><time>2026-4-28T18:24:26Z</time></trkpt>
<trkpt lat="49.062358856201" lon="3.1886682510376"><ele>184</ele><time>2026-4-28T18:24:29Z</time></trkpt>
<trkpt lat="49.062366485596" lon="3.1887190341949"><ele>184</ele><time>2026-4-28T18:24:32Z</time></trkpt>
<trkpt lat="49.062366485596" lon="3.1887190341949"><ele>184</ele><time>2026-4-28T18:24:35Z</time></trkpt>
<trkpt lat="49.062381744385" lon="3.1887791156769"><ele>185</ele><time>2026-4-28T18:24:38Z</time></trkpt>
<trkpt lat="49.062393188477" lon="3.1888382434845"><ele>185</ele><time>2026-4-28T18:24:41Z</time></trkpt>
<trkpt lat="49.062419891357" lon="3.1889445781708"><ele>185</ele><time>2026-4-28T18:24:44Z</time></trkpt>
<trkpt lat="49.062419891357" lon="3.1889445781708"><ele>185</ele><time>2026-4-28T18:24:47Z</time></trkpt>
<trkpt lat="49.062419891357" lon="3.1889445781708"><ele>185</ele><time>2026-4-28T18:24:50Z</time></trkpt>
<trkpt lat="49.062419891357" lon="3.1889445781708"><ele>185</ele><time>2026-4-28T18:24:53Z</time></trkpt>
<trkpt lat="49.062446594238" lon="3.1890602111816"><ele>186</ele><time>2026-4-28T18:24:56Z</time></trkpt>
<trkpt lat="49.062446594238" lon="3.1890602111816"><ele>186</ele><time>2026-4-28T18:24:59Z</time></trkpt>
<trkpt lat="49.062446594238" lon="3.1890602111816"><ele>186</ele><time>2026-4-28T18:25:2Z</time></trkpt>
<trkpt lat="49.062446594238" lon="3.1890602111816"><ele>186</ele><time>2026-4-28T18:25:5Z</time></trkpt>
<trkpt lat="49.062465667725" lon="3.1891560554504"><ele>187</ele><time>2026-4-28T18:25:8Z</time></trkpt>
<trkpt lat="49.062465667725" lon="3.1891560554504"><ele>187</ele><time>2026-4-28T18:25:11Z</time></trkpt>
<trkpt lat="49.062465667725" lon="3.1891560554504"><ele>187</ele><time>2026-4-28T18:25:14Z</time></trkpt>
<trkpt lat="49.062465667725" lon="3.1891560554504"><ele>187</ele><time>2026-4-28T18:25:17Z</time></trkpt>
<trkpt lat="49.062484741211" lon="3.1892516613007"><ele>188</ele><time>2026-4-28T18:25:20Z</time></trkpt>
<trkpt lat="49.062484741211" lon="3.1892516613007"><ele>188</ele><time>2026-4-28T18:25:23Z</time></trkpt>
<trkpt lat="49.062484741211" lon="3.1892516613007"><ele>188</ele><time>2026-4-28T18:25:26Z</time></trkpt>
<trkpt lat="49.062492370605" lon="3.1893603801727"><ele>189</ele><time>2026-4-28T18:25:29Z</time></trkpt>
<trkpt lat="49.062492370605" lon="3.1893603801727"><ele>189</ele><time>2026-4-28T18:25:32Z</time></trkpt>
<trkpt lat="49.062492370605" lon="3.1893603801727"><ele>189</ele><time>2026-4-28T18:25:35Z</time></trkpt>
<trkpt lat="49.062492370605" lon="3.1893603801727"><ele>189</ele><time>2026-4-28T18:25:38Z</time></trkpt>
<trkpt lat="49.0625" lon="3.1894483566284"><ele>190</ele><time>2026-4-28T18:25:41Z</time></trkpt>
<trkpt lat="49.0625" lon="3.1894483566284"><ele>190</ele><time>2026-4-28T18:25:44Z</time></trkpt>
<trkpt lat="49.062515258789" lon="3.1895596981049"><ele>191</ele><time>2026-4-28T18:25:47Z</time></trkpt>
<trkpt lat="49.062515258789" lon="3.1895596981049"><ele>191</ele><time>2026-4-28T18:25:50Z</time></trkpt>
<trkpt lat="49.062538146973" lon="3.1896529197693"><ele>192</ele><time>2026-4-28T18:25:53Z</time></trkpt>
<trkpt lat="49.062538146973" lon="3.1896529197693"><ele>192</ele><time>2026-4-28T18:25:56Z</time></trkpt>
<trkpt lat="49.062538146973" lon="3.1896529197693"><ele>192</ele><time>2026-4-28T18:25:59Z</time></trkpt>
<trkpt lat="49.062557220459" lon="3.1897430419922"><ele>193</ele><time>2026-4-28T18:26:2Z</time></trkpt>
<trkpt lat="49.062557220459" lon="3.1897430419922"><ele>193</ele><time>2026-4-28T18:26:5Z</time></trkpt>
<trkpt lat="49.062595367432" lon="3.1898565292358"><ele>193</ele><time>2026-4-28T18:26:8Z</time></trkpt>
<trkpt lat="49.062595367432" lon="3.1898565292358"><ele>193</ele><time>2026-4-28T18:26:11Z</time></trkpt>
<trkpt lat="49.062595367432" lon="3.1898565292358"><ele>193</ele><time>2026-4-28T18:26:14Z</time></trkpt>
<trkpt lat="49.062622070312" lon="3.1899621486664"><ele>194</ele><time>2026-4-28T18:26:17Z</time></trkpt>
<trkpt lat="49.062622070312" lon="3.1899621486664"><ele>194</ele><time>2026-4-28T18:26:20Z</time></trkpt>
<trkpt lat="49.062622070312" lon="3.1899621486664"><ele>194</ele><time>2026-4-28T18:26:23Z</time></trkpt>
<trkpt lat="49.062622070312" lon="3.1899621486664"><ele>194</ele><time>2026-4-28T18:26:26Z</time></trkpt>
<trkpt lat="49.062644958496" lon="3.190069437027"><ele>195</ele><time>2026-4-28T18:26:29Z</time></trkpt>
<trkpt lat="49.062644958496" lon="3.190069437027"><ele>195</ele><time>2026-4-28T18:26:32Z</time></trkpt>
<trkpt lat="49.062644958496" lon="3.190069437027"><ele>195</ele><time>2026-4-28T18:26:35Z</time></trkpt>
<trkpt lat="49.062644958496" lon="3.190069437027"><ele>195</ele><time>2026-4-28T18:26:38Z</time></trkpt>
<trkpt lat="49.06266784668" lon="3.1901547908783"><ele>195</ele><time>2026-4-28T18:26:41Z</time></trkpt>
<trkpt lat="49.06266784668" lon="3.1901547908783"><ele>195</ele><time>2026-4-28T18:26:44Z</time></trkpt>
<trkpt lat="49.062694549561" lon="3.1902792453766"><ele>195</ele><time>2026-4-28T18:26:47Z</time></trkpt>
<trkpt lat="49.062694549561" lon="3.1902792453766"><ele>195</ele><time>2026-4-28T18:26:50Z</time></trkpt>
<trkpt lat="49.06270980835" lon="3.1903872489929"><ele>196</ele><time>2026-4-28T18:26:53Z</time></trkpt>
<trkpt lat="49.06270980835" lon="3.1903872489929"><ele>196</ele><time>2026-4-28T18:26:56Z</time></trkpt>
<trkpt lat="49.062725067139" lon="3.1904897689819"><ele>197</ele><time>2026-4-28T18:26:59Z</time></trkpt>
<trkpt lat="49.062725067139" lon="3.1904897689819"><ele>197</ele><time>2026-4-28T18:27:2Z</time></trkpt>
<trkpt lat="49.062725067139" lon="3.1904897689819"><ele>197</ele><time>2026-4-28T18:27:5Z</time></trkpt>
<trkpt lat="49.062725067139" lon="3.1904897689819"><ele>197</ele><time>2026-4-28T18:27:8Z</time></trkpt>
<trkpt lat="49.062725067139" lon="3.1904897689819"><ele>197</ele><time>2026-4-28T18:27:11Z</time></trkpt>
<trkpt lat="49.062740325928" lon="3.1905510425568"><ele>197</ele><time>2026-4-28T18:27:14Z</time></trkpt>
<trkpt lat="49.062740325928" lon="3.1905510425568"><ele>197</ele><time>2026-4-28T18:27:17Z</time></trkpt>
<trkpt lat="49.06275177002" lon="3.1906049251556"><ele>198</ele><time>2026-4-28T18:27:20Z</time></trkpt>
<trkpt lat="49.062763214111" lon="3.1906549930573"><ele>198</ele><time>2026-4-28T18:27:23Z</time></trkpt>
<trkpt lat="49.062774658203" lon="3.1907014846802"><ele>198</ele><time>2026-4-28T18:27:26Z</time></trkpt>
<trkpt lat="49.062774658203" lon="3.1907014846802"><ele>198</ele><time>2026-4-28T18:27:29Z</time></trkpt>
<trkpt lat="49.062786102295" lon="3.1907505989075"><ele>198</ele><time>2026-4-28T18:27:32Z</time></trkpt>
<trkpt lat="49.062812805176" lon="3.1908473968506"><ele>198</ele><time>2026-4-28T18:27:35Z</time></trkpt>
<trkpt lat="49.062812805176" lon="3.1908473968506"><ele>198</ele><time>2026-4-28T18:27:38Z</time></trkpt>
<trkpt lat="49.062831878662" lon="3.1909308433533"><ele>198</ele><time>2026-4-28T18:27:41Z</time></trkpt>
<trkpt lat="49.062858581543" lon="3.191027879715"><ele>199</ele><time>2026-4-28T18:27:44Z</time></trkpt>
<trkpt lat="49.062858581543" lon="3.191027879715"><ele>199</ele><time>2026-4-28T18:27:47Z</time></trkpt>
<trkpt lat="49.062858581543" lon="3.191027879715"><ele>199</ele><time>2026-4-28T18:27:50Z</time></trkpt>
<trkpt lat="49.062873840332" lon="3.191116809845"><ele>200</ele><time>2026-4-28T18:27:53Z</time></trkpt>
<trkpt lat="49.062873840332" lon="3.191116809845"><ele>200</ele><time>2026-4-28T18:27:56Z</time></trkpt>
<trkpt lat="49.062873840332" lon="3.191116809845"><ele>200</ele><time>2026-4-28T18:27:59Z</time></trkpt>
<trkpt lat="49.062896728516" lon="3.1912322044373"><ele>200</ele><time>2026-4-28T18:28:2Z</time></trkpt>
<trkpt lat="49.062896728516" lon="3.1912322044373"><ele>200</ele><time>2026-4-28T18:28:5Z</time></trkpt>
<trkpt lat="49.062915802002" lon="3.1913161277771"><ele>200</ele><time>2026-4-28T18:28:8Z</time></trkpt>
<trkpt lat="49.062915802002" lon="3.1913161277771"><ele>200</ele><time>2026-4-28T18:28:11Z</time></trkpt>
<trkpt lat="49.062931060791" lon="3.1914052963257"><ele>201</ele><time>2026-4-28T18:28:14Z</time></trkpt>
<trkpt lat="49.062957763672" lon="3.1915240287781"><ele>201</ele><time>2026-4-28T18:28:17Z</time></trkpt>
<trkpt lat="49.062984466553" lon="3.1916317939758"><ele>202</ele><time>2026-4-28T18:28:20Z</time></trkpt>
<trkpt lat="49.062984466553" lon="3.1916317939758"><ele>202</ele><time>2026-4-28T18:28:23Z</time></trkpt>
<trkpt lat="49.063007354736" lon="3.1917254924774"><ele>202</ele><time>2026-4-28T18:28:26Z</time></trkpt>
<trkpt lat="49.063007354736" lon="3.1917254924774"><ele>202</ele><time>2026-4-28T18:28:29Z</time></trkpt>
<trkpt lat="49.063007354736" lon="3.1917254924774"><ele>202</ele><time>2026-4-28T18:28:32Z</time></trkpt>
<trkpt lat="49.063037872314" lon="3.1918277740479"><ele>203</ele><time>2026-4-28T18:28:35Z</time></trkpt>
<trkpt lat="49.063037872314" lon="3.1918277740479"><ele>203</ele><time>2026-4-28T18:28:38Z</time></trkpt>
<trkpt lat="49.063037872314" lon="3.1918277740479"><ele>203</ele><time>2026-4-28T18:28:41Z</time></trkpt>
<trkpt lat="49.063045501709" lon="3.1919584274292"><ele>203</ele><time>2026-4-28T18:28:44Z</time></trkpt>
<trkpt lat="49.063045501709" lon="3.1919584274292"><ele>203</ele><time>2026-4-28T18:28:47Z</time></trkpt>
<trkpt lat="49.063064575195" lon="3.1920819282532"><ele>204</ele><time>2026-4-28T18:28:50Z</time></trkpt>
<trkpt lat="49.063064575195" lon="3.1920819282532"><ele>204</ele><time>2026-4-28T18:28:53Z</time></trkpt>
<trkpt lat="49.063064575195" lon="3.1920819282532"><ele>204</ele><time>2026-4-28T18:28:56Z</time></trkpt>
<trkpt lat="49.063091278076" lon="3.1921713352203"><ele>205</ele><time>2026-4-28T18:28:59Z</time></trkpt>
<trkpt lat="49.063091278076" lon="3.1921713352203"><ele>205</ele><time>2026-4-28T18:29:2Z</time></trkpt>
<trkpt lat="49.063140869141" lon="3.1922430992126"><ele>206</ele><time>2026-4-28T18:29:5Z</time></trkpt>
<trkpt lat="49.063140869141" lon="3.1922430992126"><ele>206</ele><time>2026-4-28T18:29:8Z</time></trkpt>
<trkpt lat="49.063186645508" lon="3.192364692688"><ele>207</ele><time>2026-4-28T18:29:11Z</time></trkpt>
<trkpt lat="49.063186645508" lon="3.192364692688"><ele>207</ele><time>2026-4-28T18:29:14Z</time></trkpt>
<trkpt lat="49.063186645508" lon="3.192364692688"><ele>207</ele><time>2026-4-28T18:29:17Z</time></trkpt>
<trkpt lat="49.063220977783" lon="3.1924984455109"><ele>208</ele><time>2026-4-28T18:29:20Z</time></trkpt>
<trkpt lat="49.063220977783" lon="3.1924984455109"><ele>208</ele><time>2026-4-28T18:29:23Z</time></trkpt>
<trkpt lat="49.063259124756" lon="3.1925814151764"><ele>209</ele><time>2026-4-28T18:29:26Z</time></trkpt>
<trkpt lat="49.063259124756" lon="3.1925814151764"><ele>209</ele><time>2026-4-28T18:29:29Z</time></trkpt>
<trkpt lat="49.063270568848" lon="3.1926810741425"><ele>210</ele><time>2026-4-28T18:29:32Z</time></trkpt>
<trkpt lat="49.063270568848" lon="3.1926810741425"><ele>210</ele><time>2026-4-28T18:29:35Z</time></trkpt>
<trkpt lat="49.063270568848" lon="3.1926810741425"><ele>210</ele><time>2026-4-28T18:29:38Z</time></trkpt>
<trkpt lat="49.063270568848" lon="3.1926810741425"><ele>210</ele><time>2026-4-28T18:29:41Z</time></trkpt>
<trkpt lat="49.063270568848" lon="3.1926810741425"><ele>210</ele><time>2026-4-28T18:29:44Z</time></trkpt>
<trkpt lat="49.063270568848" lon="3.1926810741425"><ele>210</ele><time>2026-4-28T18:29:47Z</time></trkpt>
<trkpt lat="49.063270568848" lon="3.1926810741425"><ele>210</ele><time>2026-4-28T18:29:50Z</time></trkpt>
<trkpt lat="49.063270568848" lon="3.1926810741425"><ele>210</ele><time>2026-4-28T18:29:53Z</time></trkpt>
<trkpt lat="49.063270568848" lon="3.1926810741425"><ele>210</ele><time>2026-4-28T18:29:56Z</time></trkpt>
<trkpt lat="49.063270568848" lon="3.1926810741425"><ele>210</ele><time>2026-4-28T18:29:59Z</time></trkpt>
<trkpt lat="49.063270568848" lon="3.1926810741425"><ele>210</ele><time>2026-4-28T18:30:2Z</time></trkpt>
<trkpt lat="49.063270568848" lon="3.1926810741425"><ele>210</ele><time>2026-4-28T18:30:5Z</time></trkpt>
<trkpt lat="49.063270568848" lon="3.1926810741425"><ele>210</ele><time>2026-4-28T18:30:8Z</time></trkpt>
<trkpt lat="49.063270568848" lon="3.1926810741425"><ele>210</ele><time>2026-4-28T18:30:11Z</time></trkpt>
<trkpt lat="49.063270568848" lon="3.1926810741425"><ele>210</ele><time>2026-4-28T18:30:14Z</time></trkpt>
<trkpt lat="49.063270568848" lon="3.1926810741425"><ele>210</ele><time>2026-4-28T18:30:17Z</time></trkpt>
<trkpt lat="49.063270568848" lon="3.1926810741425"><ele>210</ele><time>2026-4-28T18:30:20Z</time></trkpt>
<trkpt lat="49.063270568848" lon="3.1926810741425"><ele>210</ele><time>2026-4-28T18:30:23Z</time></trkpt>
<trkpt lat="49.063190460205" lon="3.1924722194672"><ele>211</ele><time>2026-4-28T18:30:26Z</time></trkpt>
<trkpt lat="49.063190460205" lon="3.1924722194672"><ele>211</ele><time>2026-4-28T18:30:29Z</time></trkpt>
<trkpt lat="49.063148498535" lon="3.1923522949219"><ele>211</ele><time>2026-4-28T18:30:32Z</time></trkpt>
<trkpt lat="49.063125610352" lon="3.1922669410706"><ele>210</ele><time>2026-4-28T18:30:35Z</time></trkpt>
<trkpt lat="49.063106536865" lon="3.1921901702881"><ele>210</ele><time>2026-4-28T18:30:38Z</time></trkpt>
<trkpt lat="49.063106536865" lon="3.1921901702881"><ele>210</ele><time>2026-4-28T18:30:41Z</time></trkpt>
<trkpt lat="49.063091278076" lon="3.1921043395996"><ele>210</ele><time>2026-4-28T18:30:44Z</time></trkpt>
<trkpt lat="49.063060760498" lon="3.1919424533844"><ele>210</ele><time>2026-4-28T18:30:47Z</time></trkpt>
<trkpt lat="49.063060760498" lon="3.1919424533844"><ele>210</ele><time>2026-4-28T18:30:50Z</time></trkpt>
<trkpt lat="49.06303024292" lon="3.1918051242828"><ele>210</ele><time>2026-4-28T18:30:53Z</time></trkpt>
<trkpt lat="49.06303024292" lon="3.1918051242828"><ele>210</ele><time>2026-4-28T18:30:56Z</time></trkpt>
<trkpt lat="49.06303024292" lon="3.1918051242828"><ele>210</ele><time>2026-4-28T18:30:59Z</time></trkpt>
<trkpt lat="49.06303024292" lon="3.1918051242828"><ele>210</ele><time>2026-4-28T18:31:2Z</time></trkpt>
<trkpt lat="49.06303024292" lon="3.1918051242828"><ele>210</ele><time>2026-4-28T18:31:5Z</time></trkpt>
<trkpt lat="49.06303024292" lon="3.1918051242828"><ele>210</ele><time>2026-4-28T18:31:8Z</time></trkpt>
<trkpt lat="49.06303024292" lon="3.1918051242828"><ele>210</ele><time>2026-4-28T18:31:11Z</time></trkpt>
<trkpt lat="49.06303024292" lon="3.1918051242828"><ele>210</ele><time>2026-4-28T18:31:14Z</time></trkpt>
<trkpt lat="49.06303024292" lon="3.1918051242828"><ele>210</ele><time>2026-4-28T18:31:17Z</time></trkpt>
<trkpt lat="49.06303024292" lon="3.1918051242828"><ele>210</ele><time>2026-4-28T18:31:20Z</time></trkpt>
<trkpt lat="49.06303024292" lon="3.1918051242828"><ele>210</ele><time>2026-4-28T18:31:23Z</time></trkpt>
<trkpt lat="49.06303024292" lon="3.1918051242828"><ele>210</ele><time>2026-4-28T18:31:26Z</time></trkpt>
<trkpt lat="49.06303024292" lon="3.1918051242828"><ele>210</ele><time>2026-4-28T18:31:29Z</time></trkpt>
<trkpt lat="49.06303024292" lon="3.1918051242828"><ele>210</ele><time>2026-4-28T18:31:32Z</time></trkpt>
<trkpt lat="49.06303024292" lon="3.1918051242828"><ele>210</ele><time>2026-4-28T18:31:35Z</time></trkpt>
<trkpt lat="49.063068389893" lon="3.1919987201691"><ele>209</ele><time>2026-4-28T18:31:38Z</time></trkpt>
<trkpt lat="49.063098907471" lon="3.1921098232269"><ele>209</ele><time>2026-4-28T18:31:41Z</time></trkpt>
<trkpt lat="49.063117980957" lon="3.1921744346619"><ele>209</ele><time>2026-4-28T18:31:44Z</time></trkpt>
<trkpt lat="49.063133239746" lon="3.1922168731689"><ele>209</ele><time>2026-4-28T18:31:47Z</time></trkpt>
<trkpt lat="49.063133239746" lon="3.1922168731689"><ele>209</ele><time>2026-4-28T18:31:50Z</time></trkpt>
<trkpt lat="49.063152313232" lon="3.1922698020935"><ele>210</ele><time>2026-4-28T18:31:53Z</time></trkpt>
<trkpt lat="49.063163757324" lon="3.1923158168793"><ele>210</ele><time>2026-4-28T18:31:56Z</time></trkpt>
<trkpt lat="49.063175201416" lon="3.1923627853394"><ele>210</ele><time>2026-4-28T18:31:59Z</time></trkpt>
<trkpt lat="49.063175201416" lon="3.1923627853394"><ele>210</ele><time>2026-4-28T18:32:2Z</time></trkpt>
<trkpt lat="49.063190460205" lon="3.1924214363098"><ele>211</ele><time>2026-4-28T18:32:5Z</time></trkpt>
<trkpt lat="49.0631980896" lon="3.1924698352814"><ele>211</ele><time>2026-4-28T18:32:8Z</time></trkpt>
<trkpt lat="49.063209533691" lon="3.1925139427185"><ele>212</ele><time>2026-4-28T18:32:11Z</time></trkpt>
<trkpt lat="49.063209533691" lon="3.1925139427185"><ele>212</ele><time>2026-4-28T18:32:14Z</time></trkpt>
<trkpt lat="49.063209533691" lon="3.1925139427185"><ele>212</ele><time>2026-4-28T18:32:17Z</time></trkpt>
<trkpt lat="49.063209533691" lon="3.1925139427185"><ele>212</ele><time>2026-4-28T18:32:20Z</time></trkpt>
<trkpt lat="49.063209533691" lon="3.1925139427185"><ele>212</ele><time>2026-4-28T18:32:23Z</time></trkpt>
<trkpt lat="49.063209533691" lon="3.1925139427185"><ele>212</ele><time>2026-4-28T18:32:26Z</time></trkpt>
<trkpt lat="49.063209533691" lon="3.1925139427185"><ele>212</ele><time>2026-4-28T18:32:29Z</time></trkpt>
<trkpt lat="49.063209533691" lon="3.1925139427185"><ele>212</ele><time>2026-4-28T18:32:32Z</time></trkpt>
<trkpt lat="49.063209533691" lon="3.1925139427185"><ele>212</ele><time>2026-4-28T18:32:35Z</time></trkpt>
<trkpt lat="49.063209533691" lon="3.1925139427185"><ele>212</ele><time>2026-4-28T18:32:38Z</time></trkpt>
<trkpt lat="49.063209533691" lon="3.1925139427185"><ele>212</ele><time>2026-4-28T18:32:41Z</time></trkpt>
<trkpt lat="49.063209533691" lon="3.1925139427185"><ele>212</ele><time>2026-4-28T18:32:44Z</time></trkpt>
<trkpt lat="49.063209533691" lon="3.1925139427185"><ele>212</ele><time>2026-4-28T18:32:47Z</time></trkpt>
<trkpt lat="49.063209533691" lon="3.1925139427185"><ele>212</ele><time>2026-4-28T18:32:50Z</time></trkpt>
<trkpt lat="49.063209533691" lon="3.1925139427185"><ele>212</ele><time>2026-4-28T18:32:53Z</time></trkpt>
<trkpt lat="49.063209533691" lon="3.1925139427185"><ele>212</ele><time>2026-4-28T18:32:56Z</time></trkpt>
<trkpt lat="49.063209533691" lon="3.1925139427185"><ele>212</ele><time>2026-4-28T18:32:59Z</time></trkpt>
<trkpt lat="49.063209533691" lon="3.1925139427185"><ele>212</ele><time>2026-4-28T18:33:2Z</time></trkpt>
<trkpt lat="49.063209533691" lon="3.1925139427185"><ele>212</ele><time>2026-4-28T18:33:5Z</time></trkpt>
<trkpt lat="49.063182830811" lon="3.1924278736115"><ele>210</ele><time>2026-4-28T18:33:8Z</time></trkpt>
<trkpt lat="49.063159942627" lon="3.1923594474792"><ele>210</ele><time>2026-4-28T18:33:11Z</time></trkpt>
<trkpt lat="49.063137054443" lon="3.1922967433929"><ele>210</ele><time>2026-4-28T18:33:14Z</time></trkpt>
<trkpt lat="49.06311416626" lon="3.1922307014465"><ele>210</ele><time>2026-4-28T18:33:17Z</time></trkpt>
<trkpt lat="49.063091278076" lon="3.1921415328979"><ele>210</ele><time>2026-4-28T18:33:20Z</time></trkpt>
<trkpt lat="49.063049316406" lon="3.1919362545013"><ele>210</ele><time>2026-4-28T18:33:23Z</time></trkpt>
<trkpt lat="49.063049316406" lon="3.1919362545013"><ele>210</ele><time>2026-4-28T18:33:26Z</time></trkpt>
<trkpt lat="49.063014984131" lon="3.191755771637"><ele>210</ele><time>2026-4-28T18:33:29Z</time></trkpt>
<trkpt lat="49.06298828125" lon="3.1916439533234"><ele>210</ele><time>2026-4-28T18:33:32Z</time></trkpt>
<trkpt lat="49.062965393066" lon="3.1915476322174"><ele>210</ele><time>2026-4-28T18:33:35Z</time></trkpt>
<trkpt lat="49.062934875488" lon="3.191427230835"><ele>210</ele><time>2026-4-28T18:33:38Z</time></trkpt>
<trkpt lat="49.062908172607" lon="3.1912996768951"><ele>208</ele><time>2026-4-28T18:33:41Z</time></trkpt>
<trkpt lat="49.062873840332" lon="3.1911768913269"><ele>208</ele><time>2026-4-28T18:33:44Z</time></trkpt>
<trkpt lat="49.062839508057" lon="3.1910533905029"><ele>207</ele><time>2026-4-28T18:33:47Z</time></trkpt>
<trkpt lat="49.062812805176" lon="3.1909260749817"><ele>206</ele><time>2026-4-28T18:33:50Z</time></trkpt>
<trkpt lat="49.062812805176" lon="3.1909260749817"><ele>206</ele><time>2026-4-28T18:33:53Z</time></trkpt>
<trkpt lat="49.062782287598" lon="3.190779209137"><ele>204</ele><time>2026-4-28T18:33:56Z</time></trkpt>
<trkpt lat="49.062763214111" lon="3.1906435489655"><ele>202</ele><time>2026-4-28T18:33:59Z</time></trkpt>
<trkpt lat="49.06273651123" lon="3.1904902458191"><ele>202</ele><time>2026-4-28T18:34:2Z</time></trkpt>
<trkpt lat="49.06273651123" lon="3.1904902458191"><ele>202</ele><time>2026-4-28T18:34:5Z</time></trkpt>
<trkpt lat="49.062698364258" lon="3.1903266906738"><ele>202</ele><time>2026-4-28T18:34:8Z</time></trkpt>
<trkpt lat="49.062656402588" lon="3.1901586055756"><ele>202</ele><time>2026-4-28T18:34:11Z</time></trkpt>
<trkpt lat="49.062610626221" lon="3.189973115921"><ele>201</ele><time>2026-4-28T18:34:14Z</time></trkpt>
<trkpt lat="49.062610626221" lon="3.189973115921"><ele>201</ele><time>2026-4-28T18:34:17Z</time></trkpt>
<trkpt lat="49.062564849854" lon="3.189759016037"><ele>201</ele><time>2026-4-28T18:34:20Z</time></trkpt>
<trkpt lat="49.062519073486" lon="3.189546585083"><ele>199</ele><time>2026-4-28T18:34:23Z</time></trkpt>
<trkpt lat="49.062477111816" lon="3.1893467903137"><ele>198</ele><time>2026-4-28T18:34:26Z</time></trkpt>
<trkpt lat="49.062477111816" lon="3.1893467903137"><ele>198</ele><time>2026-4-28T18:34:29Z</time></trkpt>
<trkpt lat="49.062442779541" lon="3.1891012191772"><ele>196</ele><time>2026-4-28T18:34:32Z</time></trkpt>
<trkpt lat="49.062408447266" lon="3.1888680458069"><ele>194</ele><time>2026-4-28T18:34:35Z</time></trkpt>
<trkpt lat="49.06237411499" lon="3.1886579990387"><ele>193</ele><time>2026-4-28T18:34:38Z</time></trkpt>
<trkpt lat="49.06237411499" lon="3.1886579990387"><ele>193</ele><time>2026-4-28T18:34:41Z</time></trkpt>
<trkpt lat="49.062339782715" lon="3.1885125637054"><ele>191</ele><time>2026-4-28T18:34:44Z</time></trkpt>
<trkpt lat="49.062282562256" lon="3.1884212493896"><ele>189</ele><time>2026-4-28T18:34:47Z</time></trkpt>
<trkpt lat="49.062206268311" lon="3.1883866786957"><ele>187</ele><time>2026-4-28T18:34:50Z</time></trkpt>
<trkpt lat="49.062206268311" lon="3.1883866786957"><ele>187</ele><time>2026-4-28T18:34:53Z</time></trkpt>
<trkpt lat="49.062126159668" lon="3.1883428096771"><ele>185</ele><time>2026-4-28T18:34:56Z</time></trkpt>
<trkpt lat="49.062038421631" lon="3.1882772445679"><ele>185</ele><time>2026-4-28T18:34:59Z</time></trkpt>
<trkpt lat="49.061950683594" lon="3.1881995201111"><ele>185</ele><time>2026-4-28T18:35:2Z</time></trkpt>
<trkpt lat="49.061950683594" lon="3.1881995201111"><ele>185</ele><time>2026-4-28T18:35:5Z</time></trkpt>
<trkpt lat="49.061882019043" lon="3.1881368160248"><ele>185</ele><time>2026-4-28T18:35:8Z</time></trkpt>
<trkpt lat="49.0618019104" lon="3.1880633831024"><ele>185</ele><time>2026-4-28T18:35:11Z</time></trkpt>
<trkpt lat="49.061737060547" lon="3.1879959106445"><ele>185</ele><time>2026-4-28T18:35:14Z</time></trkpt>
<trkpt lat="49.061737060547" lon="3.1879959106445"><ele>185</ele><time>2026-4-28T18:35:17Z</time></trkpt>
<trkpt lat="49.061668395996" lon="3.1879315376282"><ele>185</ele><time>2026-4-28T18:35:20Z</time></trkpt>
<trkpt lat="49.061595916748" lon="3.1878700256348"><ele>185</ele><time>2026-4-28T18:35:23Z</time></trkpt>
<trkpt lat="49.0615234375" lon="3.187807559967"><ele>185</ele><time>2026-4-28T18:35:26Z</time></trkpt>
<trkpt lat="49.0615234375" lon="3.187807559967"><ele>185</ele><time>2026-4-28T18:35:29Z</time></trkpt>
<trkpt lat="49.061447143555" lon="3.1877384185791"><ele>186</ele><time>2026-4-28T18:35:32Z</time></trkpt>
<trkpt lat="49.061367034912" lon="3.1876623630524"><ele>188</ele><time>2026-4-28T18:35:35Z</time></trkpt>
<trkpt lat="49.06128692627" lon="3.1875898838043"><ele>189</ele><time>2026-4-28T18:35:38Z</time></trkpt>
<trkpt lat="49.06128692627" lon="3.1875898838043"><ele>189</ele><time>2026-4-28T18:35:41Z</time></trkpt>
<trkpt lat="49.061214447021" lon="3.1875150203705"><ele>189</ele><time>2026-4-28T18:35:44Z</time></trkpt>
<trkpt lat="49.061153411865" lon="3.187450170517"><ele>189</ele><time>2026-4-28T18:35:47Z</time></trkpt>
<trkpt lat="49.061080932617" lon="3.1873834133148"><ele>189</ele><time>2026-4-28T18:35:50Z</time></trkpt>
<trkpt lat="49.061080932617" lon="3.1873834133148"><ele>189</ele><time>2026-4-28T18:35:53Z</time></trkpt>
<trkpt lat="49.061008453369" lon="3.1873195171356"><ele>189</ele><time>2026-4-28T18:35:56Z</time></trkpt>
<trkpt lat="49.060928344727" lon="3.187243938446"><ele>190</ele><time>2026-4-28T18:35:59Z</time></trkpt>
<trkpt lat="49.060871124268" lon="3.1871869564056"><ele>190</ele><time>2026-4-28T18:36:2Z</time></trkpt>
<trkpt lat="49.060871124268" lon="3.1871869564056"><ele>190</ele><time>2026-4-28T18:36:5Z</time></trkpt>
<trkpt lat="49.060810089111" lon="3.1871373653412"><ele>190</ele><time>2026-4-28T18:36:8Z</time></trkpt>
<trkpt lat="49.060733795166" lon="3.1870720386505"><ele>190</ele><time>2026-4-28T18:36:11Z</time></trkpt>
<trkpt lat="49.060661315918" lon="3.1870183944702"><ele>191</ele><time>2026-4-28T18:36:14Z</time></trkpt>
<trkpt lat="49.060661315918" lon="3.1870183944702"><ele>191</ele><time>2026-4-28T18:36:17Z</time></trkpt>
<trkpt lat="49.060577392578" lon="3.1869480609894"><ele>191</ele><time>2026-4-28T18:36:20Z</time></trkpt>
<trkpt lat="49.060512542725" lon="3.1868767738342"><ele>191</ele><time>2026-4-28T18:36:23Z</time></trkpt>
<trkpt lat="49.060443878174" lon="3.1868047714233"><ele>192</ele><time>2026-4-28T18:36:26Z</time></trkpt>
<trkpt lat="49.060443878174" lon="3.1868047714233"><ele>192</ele><time>2026-4-28T18:36:29Z</time></trkpt>
<trkpt lat="49.06037902832" lon="3.1867401599884"><ele>192</ele><time>2026-4-28T18:36:32Z</time></trkpt>
<trkpt lat="49.060317993164" lon="3.1866834163666"><ele>192</ele><time>2026-4-28T18:36:35Z</time></trkpt>
<trkpt lat="49.060256958008" lon="3.186628818512"><ele>192</ele><time>2026-4-28T18:36:38Z</time></trkpt>
<trkpt lat="49.060256958008" lon="3.186628818512"><ele>192</ele><time>2026-4-28T18:36:41Z</time></trkpt>
<trkpt lat="49.060199737549" lon="3.1865649223328"><ele>192</ele><time>2026-4-28T18:36:44Z</time></trkpt>
<trkpt lat="49.060134887695" lon="3.186497926712"><ele>193</ele><time>2026-4-28T18:36:47Z</time></trkpt>
<trkpt lat="49.060070037842" lon="3.1864354610443"><ele>193</ele><time>2026-4-28T18:36:50Z</time></trkpt>
<trkpt lat="49.060070037842" lon="3.1864354610443"><ele>193</ele><time>2026-4-28T18:36:53Z</time></trkpt>
<trkpt lat="49.059993743896" lon="3.1863656044006"><ele>192</ele><time>2026-4-28T18:36:56Z</time></trkpt>
<trkpt lat="49.059921264648" lon="3.1862976551056"><ele>192</ele><time>2026-4-28T18:36:59Z</time></trkpt>
<trkpt lat="49.059837341309" lon="3.1862235069275"><ele>192</ele><time>2026-4-28T18:37:2Z</time></trkpt>
<trkpt lat="49.059837341309" lon="3.1862235069275"><ele>192</ele><time>2026-4-28T18:37:5Z</time></trkpt>
<trkpt lat="49.059753417969" lon="3.1861443519592"><ele>191</ele><time>2026-4-28T18:37:8Z</time></trkpt>
<trkpt lat="49.059677124023" lon="3.1860687732697"><ele>191</ele><time>2026-4-28T18:37:11Z</time></trkpt>
<trkpt lat="49.059608459473" lon="3.1859931945801"><ele>190</ele><time>2026-4-28T18:37:14Z</time></trkpt>
<trkpt lat="49.059608459473" lon="3.1859931945801"><ele>190</ele><time>2026-4-28T18:37:17Z</time></trkpt>
<trkpt lat="49.059547424316" lon="3.1859233379364"><ele>190</ele><time>2026-4-28T18:37:20Z</time></trkpt>
<trkpt lat="49.059482574463" lon="3.1858587265015"><ele>190</ele><time>2026-4-28T18:37:23Z</time></trkpt>
<trkpt lat="49.059413909912" lon="3.1857891082764"><ele>190</ele><time>2026-4-28T18:37:26Z</time></trkpt>
<trkpt lat="49.059413909912" lon="3.1857891082764"><ele>190</ele><time>2026-4-28T18:37:29Z</time></trkpt>
<trkpt lat="49.05936050415" lon="3.1857357025146"><ele>190</ele><time>2026-4-28T18:37:32Z</time></trkpt>
<trkpt lat="49.059314727783" lon="3.185683965683"><ele>191</ele><time>2026-4-28T18:37:35Z</time></trkpt>
<trkpt lat="49.059253692627" lon="3.1856288909912"><ele>191</ele><time>2026-4-28T18:37:38Z</time></trkpt>
<trkpt lat="49.059253692627" lon="3.1856288909912"><ele>191</ele><time>2026-4-28T18:37:41Z</time></trkpt>
<trkpt lat="49.059196472168" lon="3.1855714321136"><ele>191</ele><time>2026-4-28T18:37:44Z</time></trkpt>
<trkpt lat="49.059139251709" lon="3.1855146884918"><ele>191</ele><time>2026-4-28T18:37:47Z</time></trkpt>
<trkpt lat="49.059085845947" lon="3.1854622364044"><ele>191</ele><time>2026-4-28T18:37:50Z</time></trkpt>
<trkpt lat="49.059085845947" lon="3.1854622364044"><ele>191</ele><time>2026-4-28T18:37:53Z</time></trkpt>
<trkpt lat="49.059036254883" lon="3.1854078769684"><ele>191</ele><time>2026-4-28T18:37:56Z</time></trkpt>
<trkpt lat="49.058982849121" lon="3.1853511333466"><ele>191</ele><time>2026-4-28T18:37:59Z</time></trkpt>
<trkpt lat="49.058982849121" lon="3.1853511333466"><ele>191</ele><time>2026-4-28T18:38:2Z</time></trkpt>
<trkpt lat="49.058982849121" lon="3.1853511333466"><ele>191</ele><time>2026-4-28T18:38:5Z</time></trkpt>
<trkpt lat="49.058887481689" lon="3.185254573822"><ele>192</ele><time>2026-4-28T18:38:8Z</time></trkpt>
<trkpt lat="49.058834075928" lon="3.1852014064789"><ele>192</ele><time>2026-4-28T18:38:11Z</time></trkpt>
<trkpt lat="49.058780670166" lon="3.1851525306702"><ele>192</ele><time>2026-4-28T18:38:14Z</time></trkpt>
<trkpt lat="49.058780670166" lon="3.1851525306702"><ele>192</ele><time>2026-4-28T18:38:17Z</time></trkpt>
<trkpt lat="49.058723449707" lon="3.1850936412811"><ele>192</ele><time>2026-4-28T18:38:20Z</time></trkpt>
<trkpt lat="49.058658599854" lon="3.1850316524506"><ele>192</ele><time>2026-4-28T18:38:23Z</time></trkpt>
<trkpt lat="49.058597564697" lon="3.1849803924561"><ele>193</ele><time>2026-4-28T18:38:26Z</time></trkpt>
<trkpt lat="49.058597564697" lon="3.1849803924561"><ele>193</ele><time>2026-4-28T18:38:29Z</time></trkpt>
<trkpt lat="49.058536529541" lon="3.1849284172058"><ele>193</ele><time>2026-4-28T18:38:32Z</time></trkpt>
<trkpt lat="49.05846786499" lon="3.1848740577698"><ele>193</ele><time>2026-4-28T18:38:35Z</time></trkpt>
<trkpt lat="49.058414459229" lon="3.1848268508911"><ele>193</ele><time>2026-4-28T18:38:38Z</time></trkpt>
<trkpt lat="49.058414459229" lon="3.1848268508911"><ele>193</ele><time>2026-4-28T18:38:41Z</time></trkpt>
<trkpt lat="49.058361053467" lon="3.1847860813141"><ele>193</ele><time>2026-4-28T18:38:44Z</time></trkpt>
<trkpt lat="49.058307647705" lon="3.1847438812256"><ele>193</ele><time>2026-4-28T18:38:47Z</time></trkpt>
<trkpt lat="49.058242797852" lon="3.1846969127655"><ele>194</ele><time>2026-4-28T18:38:50Z</time></trkpt>
<trkpt lat="49.058242797852" lon="3.1846969127655"><ele>194</ele><time>2026-4-28T18:38:53Z</time></trkpt>
<trkpt lat="49.058185577393" lon="3.1846618652344"><ele>194</ele><time>2026-4-28T18:38:56Z</time></trkpt>
<trkpt lat="49.058124542236" lon="3.184632062912"><ele>194</ele><time>2026-4-28T18:38:59Z</time></trkpt>
<trkpt lat="49.05806350708" lon="3.1846098899841"><ele>194</ele><time>2026-4-28T18:39:2Z</time></trkpt>
<trkpt lat="49.05806350708" lon="3.1846098899841"><ele>194</ele><time>2026-4-28T18:39:5Z</time></trkpt>
<trkpt lat="49.057998657227" lon="3.1845862865448"><ele>194</ele><time>2026-4-28T18:39:8Z</time></trkpt>
<trkpt lat="49.057926177979" lon="3.184565782547"><ele>194</ele><time>2026-4-28T18:39:11Z</time></trkpt>
<trkpt lat="49.057857513428" lon="3.1845433712006"><ele>195</ele><time>2026-4-28T18:39:14Z</time></trkpt>
<trkpt lat="49.057857513428" lon="3.1845433712006"><ele>195</ele><time>2026-4-28T18:39:17Z</time></trkpt>
<trkpt lat="49.057792663574" lon="3.1845247745514"><ele>195</ele><time>2026-4-28T18:39:20Z</time></trkpt>
<trkpt lat="49.057723999023" lon="3.1845107078552"><ele>195</ele><time>2026-4-28T18:39:23Z</time></trkpt>
<trkpt lat="49.05765914917" lon="3.184493303299"><ele>195</ele><time>2026-4-28T18:39:26Z</time></trkpt>
<trkpt lat="49.05765914917" lon="3.184493303299"><ele>195</ele><time>2026-4-28T18:39:29Z</time></trkpt>
<trkpt lat="49.057590484619" lon="3.1844782829285"><ele>195</ele><time>2026-4-28T18:39:32Z</time></trkpt>
<trkpt lat="49.057525634766" lon="3.1844642162323"><ele>196</ele><time>2026-4-28T18:39:35Z</time></trkpt>
<trkpt lat="49.057464599609" lon="3.1844465732574"><ele>196</ele><time>2026-4-28T18:39:38Z</time></trkpt>
<trkpt lat="49.057464599609" lon="3.1844465732574"><ele>196</ele><time>2026-4-28T18:39:41Z</time></trkpt>
<trkpt lat="49.057399749756" lon="3.1844265460968"><ele>196</ele><time>2026-4-28T18:39:44Z</time></trkpt>
<trkpt lat="49.057342529297" lon="3.1844098567963"><ele>196</ele><time>2026-4-28T18:39:47Z</time></trkpt>
<trkpt lat="49.057285308838" lon="3.1843919754028"><ele>196</ele><time>2026-4-28T18:39:50Z</time></trkpt>
<trkpt lat="49.057285308838" lon="3.1843919754028"><ele>196</ele><time>2026-4-28T18:39:53Z</time></trkpt>
<trkpt lat="49.057216644287" lon="3.1843748092651"><ele>197</ele><time>2026-4-28T18:39:56Z</time></trkpt>
<trkpt lat="49.057147979736" lon="3.1843569278717"><ele>197</ele><time>2026-4-28T18:39:59Z</time></trkpt>
<trkpt lat="49.05708694458" lon="3.1843395233154"><ele>197</ele><time>2026-4-28T18:40:2Z</time></trkpt>
<trkpt lat="49.05708694458" lon="3.1843395233154"><ele>197</ele><time>2026-4-28T18:40:5Z</time></trkpt>
<trkpt lat="49.057022094727" lon="3.1843240261078"><ele>197</ele><time>2026-4-28T18:40:8Z</time></trkpt>
<trkpt lat="49.05696105957" lon="3.1843073368073"><ele>198</ele><time>2026-4-28T18:40:11Z</time></trkpt>
<trkpt lat="49.056896209717" lon="3.1842877864838"><ele>198</ele><time>2026-4-28T18:40:14Z</time></trkpt>
<trkpt lat="49.056896209717" lon="3.1842877864838"><ele>198</ele><time>2026-4-28T18:40:17Z</time></trkpt>
<trkpt lat="49.056835174561" lon="3.1842651367188"><ele>198</ele><time>2026-4-28T18:40:20Z</time></trkpt>
<trkpt lat="49.056770324707" lon="3.1842405796051"><ele>199</ele><time>2026-4-28T18:40:23Z</time></trkpt>
<trkpt lat="49.056713104248" lon="3.1842060089111"><ele>199</ele><time>2026-4-28T18:40:26Z</time></trkpt>
<trkpt lat="49.056713104248" lon="3.1842060089111"><ele>199</ele><time>2026-4-28T18:40:29Z</time></trkpt>
<trkpt lat="49.056652069092" lon="3.1841564178467"><ele>199</ele><time>2026-4-28T18:40:32Z</time></trkpt>
<trkpt lat="49.05659866333" lon="3.1840507984161"><ele>201</ele><time>2026-4-28T18:40:35Z</time></trkpt>
<trkpt lat="49.05655670166" lon="3.1838901042938"><ele>203</ele><time>2026-4-28T18:40:38Z</time></trkpt>
<trkpt lat="49.05655670166" lon="3.1838901042938"><ele>203</ele><time>2026-4-28T18:40:41Z</time></trkpt>
<trkpt lat="49.05655670166" lon="3.183685541153"><ele>204</ele><time>2026-4-28T18:40:44Z</time></trkpt>
<trkpt lat="49.056568145752" lon="3.1834714412689"><ele>204</ele><time>2026-4-28T18:40:47Z</time></trkpt>
<trkpt lat="49.056613922119" lon="3.18332695961"><ele>204</ele><time>2026-4-28T18:40:50Z</time></trkpt>
<trkpt lat="49.056613922119" lon="3.18332695961"><ele>204</ele><time>2026-4-28T18:40:53Z</time></trkpt>
<trkpt lat="49.056640625" lon="3.1832408905029"><ele>204</ele><time>2026-4-28T18:40:56Z</time></trkpt>
<trkpt lat="49.056640625" lon="3.1832408905029"><ele>204</ele><time>2026-4-28T18:40:59Z</time></trkpt>
<trkpt lat="49.056640625" lon="3.1832408905029"><ele>204</ele><time>2026-4-28T18:41:2Z</time></trkpt>
<trkpt lat="49.056640625" lon="3.1832408905029"><ele>204</ele><time>2026-4-28T18:41:5Z</time></trkpt>
<trkpt lat="49.056640625" lon="3.1832408905029"><ele>204</ele><time>2026-4-28T18:41:8Z</time></trkpt>
<trkpt lat="49.056640625" lon="3.1832408905029"><ele>204</ele><time>2026-4-28T18:41:11Z</time></trkpt>
</trkseg></trk></gpx>